<?xml version='1.0' encoding='UTF-8'?><gpx version="1.1" creator="JPX - https://github.com/jenetics/jpx" xmlns="http://www.topografix.com/GPX/1/1"><trk><trkseg><trkpt lat="44.17169506756219" lon="9.608654884192223"><ele>8.0</ele><time>2026-04-07T14:42:27Z</time></trkpt><trkpt lat="44.17183257353368" lon="9.608623992456197"><ele>8.0</ele><time>2026-04-07T14:42:28Z</time></trkpt><trkpt lat="44.171896998301584" lon="9.60862007103938"><ele>8.0</ele><time>2026-04-07T14:42:29Z</time></trkpt><trkpt lat="44.171970696870154" lon="9.608584875564109"><ele>8.0</ele><time>2026-04-07T14:42:30Z</time></trkpt><trkpt lat="44.172109204536206" lon="9.608754590266646"><ele>8.0</ele><time>2026-04-07T14:42:31Z</time></trkpt><trkpt lat="44.17223367323093" lon="9.608893173745532"><ele>8.0</ele><time>2026-04-07T14:42:32Z</time></trkpt><trkpt lat="44.172354470544825" lon="9.609038414268783"><ele>8.0</ele><time>2026-04-07T14:42:33Z</time></trkpt><trkpt lat="44.17238519302661" lon="9.609149357390846"><ele>8.0</ele><time>2026-04-07T14:42:34Z</time></trkpt><trkpt lat="44.17241233095634" lon="9.609323645337156"><ele>11.0</ele><time>2026-04-07T14:42:35Z</time></trkpt><trkpt lat="44.172437876977426" lon="9.609513184106182"><ele>14.0</ele><time>2026-04-07T14:42:36Z</time></trkpt><trkpt lat="44.1724645556046" lon="9.609692214039482"><ele>17.0</ele><time>2026-04-07T14:42:37Z</time></trkpt><trkpt lat="44.172464950712516" lon="9.609861996993375"><ele>20.0</ele><time>2026-04-07T14:42:38Z</time></trkpt><trkpt lat="44.17244761169974" lon="9.610027028805742"><ele>20.0</ele><time>2026-04-07T14:42:39Z</time></trkpt><trkpt lat="44.17243250352658" lon="9.610207098864292"><ele>20.0</ele><time>2026-04-07T14:42:40Z</time></trkpt><trkpt lat="44.1724103674365" lon="9.610382274709623"><ele>20.0</ele><time>2026-04-07T14:42:41Z</time></trkpt><trkpt lat="44.1723559435396" lon="9.610545203703925"><ele>20.0</ele><time>2026-04-07T14:42:42Z</time></trkpt><trkpt lat="44.172301099063986" lon="9.610714159042741"><ele>19.0</ele><time>2026-04-07T14:42:43Z</time></trkpt><trkpt lat="44.17227491083713" lon="9.610859774880996"><ele>18.0</ele><time>2026-04-07T14:42:44Z</time></trkpt><trkpt lat="44.172272789674196" lon="9.610983321432608"><ele>17.0</ele><time>2026-04-07T14:42:45Z</time></trkpt><trkpt lat="44.172317159635206" lon="9.611116172156727"><ele>16.0</ele><time>2026-04-07T14:42:46Z</time></trkpt><trkpt lat="44.17237441052087" lon="9.611245683421519"><ele>15.0</ele><time>2026-04-07T14:42:47Z</time></trkpt><trkpt lat="44.172454594815406" lon="9.611367970055763"><ele>15.0</ele><time>2026-04-07T14:42:48Z</time></trkpt><trkpt lat="44.17255820378612" lon="9.611473825525183"><ele>15.0</ele><time>2026-04-07T14:42:49Z</time></trkpt><trkpt lat="44.1726624809485" lon="9.611592695018013"><ele>15.0</ele><time>2026-04-07T14:42:50Z</time></trkpt><trkpt lat="44.17275432625978" lon="9.611717219473595"><ele>15.0</ele><time>2026-04-07T14:42:51Z</time></trkpt><trkpt lat="44.172858996849776" lon="9.61184459323254"><ele>15.0</ele><time>2026-04-07T14:42:52Z</time></trkpt><trkpt lat="44.17295908284473" lon="9.611962390736249"><ele>15.0</ele><time>2026-04-07T14:42:53Z</time></trkpt><trkpt lat="44.17302923329667" lon="9.612046221273355"><ele>15.0</ele><time>2026-04-07T14:42:54Z</time></trkpt><trkpt lat="44.17309387830474" lon="9.612124653699725"><ele>15.0</ele><time>2026-04-07T14:42:55Z</time></trkpt><trkpt lat="44.173161201563154" lon="9.612209418988483"><ele>15.0</ele><time>2026-04-07T14:42:56Z</time></trkpt><trkpt lat="44.173230368236226" lon="9.612315787442494"><ele>16.666666666666668</ele><time>2026-04-07T14:42:57Z</time></trkpt><trkpt lat="44.1732849213839" lon="9.61240284454559"><ele>18.333333333333336</ele><time>2026-04-07T14:42:57.999Z</time></trkpt><trkpt lat="44.173399905740176" lon="9.61240045250581"><ele>20.0</ele><time>2026-04-07T14:42:59.999Z</time></trkpt><trkpt lat="44.173419685162365" lon="9.612298982117712"><ele>21.666666666666668</ele><time>2026-04-07T14:43:00.999Z</time></trkpt><trkpt lat="44.17338616127164" lon="9.612201602712494"><ele>23.333333333333336</ele><time>2026-04-07T14:43:01.999Z</time></trkpt><trkpt lat="44.17332918368845" lon="9.612105872647218"><ele>25.0</ele><time>2026-04-07T14:43:02.999Z</time></trkpt><trkpt lat="44.173275051580234" lon="9.611998497312534"><ele>26.500000000000004</ele><time>2026-04-07T14:43:03.999Z</time></trkpt><trkpt lat="44.17323709092739" lon="9.61189513720768"><ele>28.0</ele><time>2026-04-07T14:43:04.999Z</time></trkpt><trkpt lat="44.173162320495216" lon="9.611785692876767"><ele>29.5</ele><time>2026-04-07T14:43:05.999Z</time></trkpt><trkpt lat="44.173101832929014" lon="9.61168601084798"><ele>31.0</ele><time>2026-04-07T14:43:06.999Z</time></trkpt><trkpt lat="44.17305527706252" lon="9.611598645273173"><ele>32.5</ele><time>2026-04-07T14:43:07.999Z</time></trkpt><trkpt lat="44.17301095054178" lon="9.611499033022437"><ele>34.0</ele><time>2026-04-07T14:43:08.999Z</time></trkpt><trkpt lat="44.172968270977094" lon="9.611416126244535"><ele>31.333333333333336</ele><time>2026-04-07T14:43:09.999Z</time></trkpt><trkpt lat="44.17292654121057" lon="9.611326927617935"><ele>28.666666666666668</ele><time>2026-04-07T14:43:10.999Z</time></trkpt><trkpt lat="44.17288852230673" lon="9.611256299844081"><ele>26.0</ele><time>2026-04-07T14:43:11.999Z</time></trkpt><trkpt lat="44.17281821468797" lon="9.611127810397774"><ele>23.333333333333336</ele><time>2026-04-07T14:43:13.999Z</time></trkpt><trkpt lat="44.17275840932451" lon="9.611040423635803"><ele>20.666666666666668</ele><time>2026-04-07T14:43:15.999Z</time></trkpt><trkpt lat="44.172761462558626" lon="9.610946403131697"><ele>18.0</ele><time>2026-04-07T14:43:17.999Z</time></trkpt><trkpt lat="44.172847436855974" lon="9.610942232573807"><ele>18.0</ele><time>2026-04-07T14:43:19.999Z</time></trkpt><trkpt lat="44.17287487534397" lon="9.611034005328326"><ele>18.0</ele><time>2026-04-07T14:43:20.999Z</time></trkpt><trkpt lat="44.172951958671746" lon="9.611142942595569"><ele>18.0</ele><time>2026-04-07T14:43:22.999Z</time></trkpt><trkpt lat="44.17306362301333" lon="9.611281046981631"><ele>18.0</ele><time>2026-04-07T14:43:24.999Z</time></trkpt><trkpt lat="44.17315606292159" lon="9.611418454018754"><ele>20.666666666666668</ele><time>2026-04-07T14:43:26.999Z</time></trkpt><trkpt lat="44.173209611274665" lon="9.611486640553426"><ele>23.333333333333336</ele><time>2026-04-07T14:43:27.999Z</time></trkpt><trkpt lat="44.17325729696809" lon="9.611553634950887"><ele>26.0</ele><time>2026-04-07T14:43:28.999Z</time></trkpt><trkpt lat="44.17330532012082" lon="9.61161334684628"><ele>28.666666666666668</ele><time>2026-04-07T14:43:29.999Z</time></trkpt><trkpt lat="44.1733838328653" lon="9.611731074239204"><ele>31.333333333333336</ele><time>2026-04-07T14:43:31.999Z</time></trkpt><trkpt lat="44.17347089000709" lon="9.611842524914687"><ele>34.0</ele><time>2026-04-07T14:43:33.999Z</time></trkpt><trkpt lat="44.17355237714112" lon="9.611952468664164"><ele>32.5</ele><time>2026-04-07T14:43:35.999Z</time></trkpt><trkpt lat="44.17361775725832" lon="9.612048244025138"><ele>31.0</ele><time>2026-04-07T14:43:37.999Z</time></trkpt><trkpt lat="44.17367758023579" lon="9.612116010714153"><ele>29.5</ele><time>2026-04-07T14:43:39.999Z</time></trkpt><trkpt lat="44.173763258094695" lon="9.61211381374627"><ele>28.0</ele><time>2026-04-07T14:43:41.999Z</time></trkpt><trkpt lat="44.17382161985719" lon="9.612074346026642"><ele>26.500000000000004</ele><time>2026-04-07T14:43:42.999Z</time></trkpt><trkpt lat="44.173895880844604" lon="9.61208302341657"><ele>25.0</ele><time>2026-04-07T14:43:43.999Z</time></trkpt><trkpt lat="44.17398184126372" lon="9.612111289224108"><ele>28.4</ele><time>2026-04-07T14:43:44.999Z</time></trkpt><trkpt lat="44.174076319351364" lon="9.612130174847572"><ele>31.8</ele><time>2026-04-07T14:43:45.999Z</time></trkpt><trkpt lat="44.174174095474825" lon="9.612156368761001"><ele>35.2</ele><time>2026-04-07T14:43:46.999Z</time></trkpt><trkpt lat="44.174277769349885" lon="9.612182928622964"><ele>38.6</ele><time>2026-04-07T14:43:47.999Z</time></trkpt><trkpt lat="44.17438135986967" lon="9.612200846770703"><ele>42.0</ele><time>2026-04-07T14:43:48.999Z</time></trkpt><trkpt lat="44.174493698520756" lon="9.612222180556262"><ele>42.0</ele><time>2026-04-07T14:43:49.999Z</time></trkpt><trkpt lat="44.17460043585435" lon="9.612248614073975"><ele>42.0</ele><time>2026-04-07T14:43:50.999Z</time></trkpt><trkpt lat="44.174719245932906" lon="9.612305088315516"><ele>42.0</ele><time>2026-04-07T14:43:51.999Z</time></trkpt><trkpt lat="44.1748469786074" lon="9.612345024097275"><ele>42.0</ele><time>2026-04-07T14:43:52.999Z</time></trkpt><trkpt lat="44.17495067379721" lon="9.612372062142835"><ele>46.25</ele><time>2026-04-07T14:43:53.999Z</time></trkpt><trkpt lat="44.17507202570129" lon="9.612409409749507"><ele>50.5</ele><time>2026-04-07T14:43:54.999Z</time></trkpt><trkpt lat="44.175201146132444" lon="9.612449150222096"><ele>54.75</ele><time>2026-04-07T14:43:55.999Z</time></trkpt><trkpt lat="44.17532231491903" lon="9.612505535485262"><ele>59.0</ele><time>2026-04-07T14:43:56.999Z</time></trkpt><trkpt lat="44.17544227057743" lon="9.61254125701735"><ele>59.0</ele><time>2026-04-07T14:43:57.999Z</time></trkpt><trkpt lat="44.175582020802636" lon="9.61255636780549"><ele>59.0</ele><time>2026-04-07T14:43:58.999Z</time></trkpt><trkpt lat="44.1757198917685" lon="9.612595244051413"><ele>59.0</ele><time>2026-04-07T14:43:59.999Z</time></trkpt><trkpt lat="44.17585407916377" lon="9.612628470523276"><ele>59.0</ele><time>2026-04-07T14:44:00.999Z</time></trkpt><trkpt lat="44.17599284482671" lon="9.612644013783523"><ele>58.75</ele><time>2026-04-07T14:44:01.999Z</time></trkpt><trkpt lat="44.17614345936533" lon="9.612664643363331"><ele>58.5</ele><time>2026-04-07T14:44:02.999Z</time></trkpt><trkpt lat="44.176285711483324" lon="9.612680257693425"><ele>58.25</ele><time>2026-04-07T14:44:03.999Z</time></trkpt><trkpt lat="44.176408054622364" lon="9.612745680130146"><ele>58.0</ele><time>2026-04-07T14:44:04.999Z</time></trkpt><trkpt lat="44.17650462640412" lon="9.612858198145865"><ele>61.75</ele><time>2026-04-07T14:44:05.999Z</time></trkpt><trkpt lat="44.17659335392163" lon="9.613010816509375"><ele>65.5</ele><time>2026-04-07T14:44:06.999Z</time></trkpt><trkpt lat="44.17669536765598" lon="9.613121081727295"><ele>69.25</ele><time>2026-04-07T14:44:07.999Z</time></trkpt><trkpt lat="44.176806771974164" lon="9.61322861106075"><ele>73.0</ele><time>2026-04-07T14:44:08.998Z</time></trkpt><trkpt lat="44.17693538668713" lon="9.613280511488508"><ele>73.0</ele><time>2026-04-07T14:44:09.998Z</time></trkpt><trkpt lat="44.177071795471164" lon="9.613314142268212"><ele>73.0</ele><time>2026-04-07T14:44:10.998Z</time></trkpt><trkpt lat="44.1772074644598" lon="9.613351889194258"><ele>73.0</ele><time>2026-04-07T14:44:12Z</time></trkpt><trkpt lat="44.177341491596245" lon="9.613378751444225"><ele>73.0</ele><time>2026-04-07T14:44:13Z</time></trkpt><trkpt lat="44.177443968032065" lon="9.613415199213478"><ele>74.25</ele><time>2026-04-07T14:44:14Z</time></trkpt><trkpt lat="44.177515482015096" lon="9.613528661528019"><ele>75.5</ele><time>2026-04-07T14:44:15Z</time></trkpt><trkpt lat="44.1775853357416" lon="9.613668633604624"><ele>76.75</ele><time>2026-04-07T14:44:16Z</time></trkpt><trkpt lat="44.17768079716694" lon="9.613781278507517"><ele>78.0</ele><time>2026-04-07T14:44:17Z</time></trkpt><trkpt lat="44.1777802531402" lon="9.613887240063937"><ele>78.0</ele><time>2026-04-07T14:44:18Z</time></trkpt><trkpt lat="44.177890886926306" lon="9.613947385395804"><ele>78.0</ele><time>2026-04-07T14:44:19Z</time></trkpt><trkpt lat="44.17801076418238" lon="9.613961023749505"><ele>78.0</ele><time>2026-04-07T14:44:20Z</time></trkpt><trkpt lat="44.178128051803135" lon="9.613922849904426"><ele>78.0</ele><time>2026-04-07T14:44:21Z</time></trkpt><trkpt lat="44.178253278573116" lon="9.613853229872673"><ele>81.0</ele><time>2026-04-07T14:44:22Z</time></trkpt><trkpt lat="44.17837783934717" lon="9.613782010453601"><ele>84.0</ele><time>2026-04-07T14:44:23Z</time></trkpt><trkpt lat="44.178470686730506" lon="9.613803127859233"><ele>87.0</ele><time>2026-04-07T14:44:24Z</time></trkpt><trkpt lat="44.17853592298526" lon="9.613824059156935"><ele>90.0</ele><time>2026-04-07T14:44:25Z</time></trkpt><trkpt lat="44.178594634546236" lon="9.613934182324108"><ele>93.0</ele><time>2026-04-07T14:44:26Z</time></trkpt><trkpt lat="44.17867772630279" lon="9.614003251563217"><ele>93.0</ele><time>2026-04-07T14:44:27Z</time></trkpt><trkpt lat="44.178759677931325" lon="9.614095916183489"><ele>93.0</ele><time>2026-04-07T14:44:28Z</time></trkpt><trkpt lat="44.17885122189432" lon="9.614187554505653"><ele>93.0</ele><time>2026-04-07T14:44:29Z</time></trkpt><trkpt lat="44.17894871822753" lon="9.61426992332977"><ele>93.0</ele><time>2026-04-07T14:44:30Z</time></trkpt><trkpt lat="44.17904794376845" lon="9.614349104469587"><ele>93.0</ele><time>2026-04-07T14:44:31Z</time></trkpt><trkpt lat="44.17915857417295" lon="9.614402095702042"><ele>92.75</ele><time>2026-04-07T14:44:32Z</time></trkpt><trkpt lat="44.17927556647435" lon="9.614439721850886"><ele>92.5</ele><time>2026-04-07T14:44:33Z</time></trkpt><trkpt lat="44.179396041564736" lon="9.614429450914642"><ele>92.25</ele><time>2026-04-07T14:44:34Z</time></trkpt><trkpt lat="44.179516935888145" lon="9.614496764229486"><ele>92.0</ele><time>2026-04-07T14:44:35Z</time></trkpt><trkpt lat="44.179622126831326" lon="9.61455846877067"><ele>92.0</ele><time>2026-04-07T14:44:36Z</time></trkpt><trkpt lat="44.179718889335184" lon="9.614593798945476"><ele>92.0</ele><time>2026-04-07T14:44:37Z</time></trkpt><trkpt lat="44.17982531017691" lon="9.614604717618922"><ele>92.0</ele><time>2026-04-07T14:44:38Z</time></trkpt><trkpt lat="44.17992797786134" lon="9.61451672028317"><ele>92.0</ele><time>2026-04-07T14:44:39Z</time></trkpt><trkpt lat="44.18003062970316" lon="9.6144216171378"><ele>93.19999999999999</ele><time>2026-04-07T14:44:40Z</time></trkpt><trkpt lat="44.180146242081406" lon="9.614402594599479"><ele>94.4</ele><time>2026-04-07T14:44:41Z</time></trkpt><trkpt lat="44.18024395618694" lon="9.61443199408756"><ele>95.6</ele><time>2026-04-07T14:44:42Z</time></trkpt><trkpt lat="44.180322981559" lon="9.614498878142928"><ele>96.80000000000001</ele><time>2026-04-07T14:44:43Z</time></trkpt><trkpt lat="44.18038849866658" lon="9.614601138720307"><ele>98.0</ele><time>2026-04-07T14:44:44Z</time></trkpt><trkpt lat="44.1804728088409" lon="9.614702443293474"><ele>98.0</ele><time>2026-04-07T14:44:45Z</time></trkpt><trkpt lat="44.18055271561796" lon="9.614788139108734"><ele>98.0</ele><time>2026-04-07T14:44:46Z</time></trkpt><trkpt lat="44.18065408303515" lon="9.614810546659843"><ele>98.0</ele><time>2026-04-07T14:44:47Z</time></trkpt><trkpt lat="44.18075931936121" lon="9.614804462712488"><ele>98.0</ele><time>2026-04-07T14:44:48Z</time></trkpt><trkpt lat="44.1808723401605" lon="9.614741963434945"><ele>98.0</ele><time>2026-04-07T14:44:49Z</time></trkpt><trkpt lat="44.18098556499375" lon="9.614781008823435"><ele>99.80000000000001</ele><time>2026-04-07T14:44:50Z</time></trkpt><trkpt lat="44.18107497272906" lon="9.614855890912294"><ele>101.6</ele><time>2026-04-07T14:44:51Z</time></trkpt><trkpt lat="44.18114549289664" lon="9.614924479859171"><ele>103.39999999999999</ele><time>2026-04-07T14:44:52Z</time></trkpt><trkpt lat="44.18122440983169" lon="9.61492294709002"><ele>105.19999999999999</ele><time>2026-04-07T14:44:53Z</time></trkpt><trkpt lat="44.181311269273806" lon="9.614865388656765"><ele>107.0</ele><time>2026-04-07T14:44:54Z</time></trkpt><trkpt lat="44.18139834128516" lon="9.61476801610232"><ele>107.0</ele><time>2026-04-07T14:44:55Z</time></trkpt><trkpt lat="44.18147612611401" lon="9.614640011470017"><ele>107.0</ele><time>2026-04-07T14:44:56Z</time></trkpt><trkpt lat="44.1815368944342" lon="9.61448740384097"><ele>107.0</ele><time>2026-04-07T14:44:57Z</time></trkpt><trkpt lat="44.18160720408671" lon="9.614344556741866"><ele>107.0</ele><time>2026-04-07T14:44:58Z</time></trkpt><trkpt lat="44.18169917560696" lon="9.61421672557476"><ele>110.75</ele><time>2026-04-07T14:44:59Z</time></trkpt><trkpt lat="44.18181116825468" lon="9.614106442541349"><ele>114.5</ele><time>2026-04-07T14:45:00Z</time></trkpt><trkpt lat="44.18189882127915" lon="9.614008952578898"><ele>118.25</ele><time>2026-04-07T14:45:01Z</time></trkpt><trkpt lat="44.18195819832916" lon="9.613855447147536"><ele>122.0</ele><time>2026-04-07T14:45:01.999Z</time></trkpt><trkpt lat="44.18201435493945" lon="9.613705201590983"><ele>127.25</ele><time>2026-04-07T14:45:02.999Z</time></trkpt><trkpt lat="44.18205083899001" lon="9.613571592876632"><ele>132.5</ele><time>2026-04-07T14:45:03.999Z</time></trkpt><trkpt lat="44.18208572616018" lon="9.61337758482155"><ele>137.75</ele><time>2026-04-07T14:45:04.999Z</time></trkpt><trkpt lat="44.18213978815136" lon="9.613204107996227"><ele>143.0</ele><time>2026-04-07T14:45:05.999Z</time></trkpt><trkpt lat="44.18221392085308" lon="9.613048949313802"><ele>143.0</ele><time>2026-04-07T14:45:06.999Z</time></trkpt><trkpt lat="44.18227648636711" lon="9.612894204018033"><ele>143.0</ele><time>2026-04-07T14:45:07.999Z</time></trkpt><trkpt lat="44.182305686828336" lon="9.612725410671363"><ele>143.0</ele><time>2026-04-07T14:45:08.999Z</time></trkpt><trkpt lat="44.18232358686198" lon="9.612591054115232"><ele>143.0</ele><time>2026-04-07T14:45:09.999Z</time></trkpt><trkpt lat="44.18238890020984" lon="9.612514498609796"><ele>143.0</ele><time>2026-04-07T14:45:10.999Z</time></trkpt><trkpt lat="44.18246886038161" lon="9.612491759853098"><ele>141.8</ele><time>2026-04-07T14:45:11.999Z</time></trkpt><trkpt lat="44.18256093207222" lon="9.612506217635874"><ele>140.60000000000002</ele><time>2026-04-07T14:45:12.999Z</time></trkpt><trkpt lat="44.182610692088716" lon="9.612612298877707"><ele>139.39999999999998</ele><time>2026-04-07T14:45:13.999Z</time></trkpt><trkpt lat="44.182676851521244" lon="9.612719571690784"><ele>138.2</ele><time>2026-04-07T14:45:14.999Z</time></trkpt><trkpt lat="44.182741491242055" lon="9.612840807634683"><ele>137.0</ele><time>2026-04-07T14:45:15.999Z</time></trkpt><trkpt lat="44.18281173072334" lon="9.612969412926857"><ele>133.75</ele><time>2026-04-07T14:45:16.999Z</time></trkpt><trkpt lat="44.18289464475551" lon="9.61309269657944"><ele>130.5</ele><time>2026-04-07T14:45:17.999Z</time></trkpt><trkpt lat="44.18296600414443" lon="9.613230738199555"><ele>127.25</ele><time>2026-04-07T14:45:18.999Z</time></trkpt><trkpt lat="44.183037953379504" lon="9.613371016192453"><ele>124.0</ele><time>2026-04-07T14:45:19.999Z</time></trkpt><trkpt lat="44.18311160738122" lon="9.613513060731034"><ele>125.5</ele><time>2026-04-07T14:45:20.999Z</time></trkpt><trkpt lat="44.18320962206191" lon="9.613609371326449"><ele>127.0</ele><time>2026-04-07T14:45:21.999Z</time></trkpt><trkpt lat="44.183339186218745" lon="9.613680551428109"><ele>128.5</ele><time>2026-04-07T14:45:22.999Z</time></trkpt><trkpt lat="44.18346754068487" lon="9.613750791278514"><ele>130.0</ele><time>2026-04-07T14:45:23.999Z</time></trkpt><trkpt lat="44.183595430065544" lon="9.613819717476295"><ele>130.0</ele><time>2026-04-07T14:45:24.999Z</time></trkpt><trkpt lat="44.18372998387928" lon="9.613891098348843"><ele>130.0</ele><time>2026-04-07T14:45:25.999Z</time></trkpt><trkpt lat="44.18386576661177" lon="9.613963143416669"><ele>130.0</ele><time>2026-04-07T14:45:26.999Z</time></trkpt><trkpt lat="44.183980384427656" lon="9.61406653918383"><ele>130.0</ele><time>2026-04-07T14:45:27.999Z</time></trkpt><trkpt lat="44.18408680876059" lon="9.614182731515994"><ele>134.0</ele><time>2026-04-07T14:45:28.999Z</time></trkpt><trkpt lat="44.184205787974946" lon="9.614300936636932"><ele>138.0</ele><time>2026-04-07T14:45:29.999Z</time></trkpt><trkpt lat="44.18431110227106" lon="9.614433618499948"><ele>142.0</ele><time>2026-04-07T14:45:30.999Z</time></trkpt><trkpt lat="44.18442949923379" lon="9.614536043854153"><ele>146.0</ele><time>2026-04-07T14:45:31.999Z</time></trkpt><trkpt lat="44.184567437774184" lon="9.614597556212052"><ele>146.0</ele><time>2026-04-07T14:45:32.999Z</time></trkpt><trkpt lat="44.18469928706909" lon="9.614678142686271"><ele>146.0</ele><time>2026-04-07T14:45:33.999Z</time></trkpt><trkpt lat="44.1847849162111" lon="9.614797172919616"><ele>146.0</ele><time>2026-04-07T14:45:34.999Z</time></trkpt><trkpt lat="44.18487099225255" lon="9.614883927365318"><ele>146.0</ele><time>2026-04-07T14:45:35.999Z</time></trkpt><trkpt lat="44.18494969045013" lon="9.614978041724898"><ele>149.5</ele><time>2026-04-07T14:45:36.999Z</time></trkpt><trkpt lat="44.18506016192696" lon="9.614992826932173"><ele>153.0</ele><time>2026-04-07T14:45:37.999Z</time></trkpt><trkpt lat="44.18517786173301" lon="9.614984424350043"><ele>156.5</ele><time>2026-04-07T14:45:38.999Z</time></trkpt><trkpt lat="44.18525635555545" lon="9.6151046728348"><ele>160.0</ele><time>2026-04-07T14:45:39.999Z</time></trkpt><trkpt lat="44.185352123143204" lon="9.615205416498505"><ele>155.5</ele><time>2026-04-07T14:45:40.999Z</time></trkpt><trkpt lat="44.18544071245639" lon="9.615322331510908"><ele>151.0</ele><time>2026-04-07T14:45:41.999Z</time></trkpt><trkpt lat="44.18552144787919" lon="9.615446069741173"><ele>146.5</ele><time>2026-04-07T14:45:42.999Z</time></trkpt><trkpt lat="44.1855547016319" lon="9.6156055939731"><ele>142.0</ele><time>2026-04-07T14:45:43.999Z</time></trkpt><trkpt lat="44.18559836308045" lon="9.615725251303033"><ele>142.0</ele><time>2026-04-07T14:45:44.999Z</time></trkpt><trkpt lat="44.185637857519325" lon="9.615805492364611"><ele>142.0</ele><time>2026-04-07T14:45:45.999Z</time></trkpt><trkpt lat="44.18570159213716" lon="9.615854497530702"><ele>142.0</ele><time>2026-04-07T14:45:46.999Z</time></trkpt><trkpt lat="44.18581506618265" lon="9.615753934955935"><ele>142.0</ele><time>2026-04-07T14:45:47.999Z</time></trkpt><trkpt lat="44.18589398970083" lon="9.615626559071428"><ele>142.0</ele><time>2026-04-07T14:45:48.999Z</time></trkpt><trkpt lat="44.18597195539661" lon="9.615518210142476"><ele>146.75</ele><time>2026-04-07T14:45:49.999Z</time></trkpt><trkpt lat="44.1860760622003" lon="9.615451008019356"><ele>151.5</ele><time>2026-04-07T14:45:50.999Z</time></trkpt><trkpt lat="44.186194677597335" lon="9.615404861355618"><ele>156.25</ele><time>2026-04-07T14:45:51.999Z</time></trkpt><trkpt lat="44.18629633156329" lon="9.615446386946848"><ele>161.0</ele><time>2026-04-07T14:45:52.999Z</time></trkpt><trkpt lat="44.18639332194256" lon="9.6155239340166"><ele>161.0</ele><time>2026-04-07T14:45:53.999Z</time></trkpt><trkpt lat="44.18648275816545" lon="9.615538048717083"><ele>161.0</ele><time>2026-04-07T14:45:54.999Z</time></trkpt><trkpt lat="44.186570487008545" lon="9.615511264558942"><ele>161.0</ele><time>2026-04-07T14:45:55.999Z</time></trkpt><trkpt lat="44.186648391999015" lon="9.615398952077255"><ele>161.0</ele><time>2026-04-07T14:45:56.999Z</time></trkpt><trkpt lat="44.186705154359394" lon="9.615241347615147"><ele>161.0</ele><time>2026-04-07T14:45:57.999Z</time></trkpt><trkpt lat="44.186761246908034" lon="9.61508173961583"><ele>167.75</ele><time>2026-04-07T14:45:58.999Z</time></trkpt><trkpt lat="44.186856548985894" lon="9.6149661533331"><ele>174.5</ele><time>2026-04-07T14:45:59.999Z</time></trkpt><trkpt lat="44.186975823884815" lon="9.614906306557153"><ele>181.25</ele><time>2026-04-07T14:46:00.999Z</time></trkpt><trkpt lat="44.18710961915668" lon="9.614908798484763"><ele>188.0</ele><time>2026-04-07T14:46:01.999Z</time></trkpt><trkpt lat="44.1872350634126" lon="9.614874169385242"><ele>188.0</ele><time>2026-04-07T14:46:02.999Z</time></trkpt><trkpt lat="44.18734204084982" lon="9.614850237005829"><ele>188.0</ele><time>2026-04-07T14:46:03.999Z</time></trkpt><trkpt lat="44.18746174305216" lon="9.61479641286171"><ele>188.0</ele><time>2026-04-07T14:46:04.999Z</time></trkpt><trkpt lat="44.18754884336594" lon="9.614694714450708"><ele>188.0</ele><time>2026-04-07T14:46:05.999Z</time></trkpt><trkpt lat="44.18762265922319" lon="9.614572101050232"><ele>189.0</ele><time>2026-04-07T14:46:06.999Z</time></trkpt><trkpt lat="44.18767546346808" lon="9.61442738105422"><ele>190.0</ele><time>2026-04-07T14:46:07.999Z</time></trkpt><trkpt lat="44.18771092447485" lon="9.614260357562955"><ele>191.0</ele><time>2026-04-07T14:46:08.999Z</time></trkpt><trkpt lat="44.18773742155062" lon="9.614082005343505"><ele>192.0</ele><time>2026-04-07T14:46:09.999Z</time></trkpt><trkpt lat="44.187756808989576" lon="9.61389370904972"><ele>192.0</ele><time>2026-04-07T14:46:10.999Z</time></trkpt><trkpt lat="44.18779394387036" lon="9.613700332306486"><ele>192.0</ele><time>2026-04-07T14:46:11.999Z</time></trkpt><trkpt lat="44.1878406379609" lon="9.61350224346935"><ele>192.0</ele><time>2026-04-07T14:46:12.998Z</time></trkpt><trkpt lat="44.187920305289374" lon="9.613332919844542"><ele>192.0</ele><time>2026-04-07T14:46:13.998Z</time></trkpt><trkpt lat="44.18800401653916" lon="9.61315361334807"><ele>191.5</ele><time>2026-04-07T14:46:14.998Z</time></trkpt><trkpt lat="44.18807885073699" lon="9.61300181820526"><ele>191.0</ele><time>2026-04-07T14:46:15.998Z</time></trkpt><trkpt lat="44.188148503327156" lon="9.612829270870034"><ele>190.5</ele><time>2026-04-07T14:46:16.998Z</time></trkpt><trkpt lat="44.18819458783322" lon="9.612652651433107"><ele>190.0</ele><time>2026-04-07T14:46:18Z</time></trkpt><trkpt lat="44.18823102647577" lon="9.612510542541775"><ele>190.0</ele><time>2026-04-07T14:46:19Z</time></trkpt><trkpt lat="44.18825329020145" lon="9.612401646201125"><ele>190.0</ele><time>2026-04-07T14:46:20Z</time></trkpt><trkpt lat="44.18831843867991" lon="9.612286699706152"><ele>190.0</ele><time>2026-04-07T14:46:22Z</time></trkpt><trkpt lat="44.18842405651104" lon="9.612321371747074"><ele>190.0</ele><time>2026-04-07T14:46:24Z</time></trkpt><trkpt lat="44.188465825003476" lon="9.612450089366684"><ele>190.0</ele><time>2026-04-07T14:46:25Z</time></trkpt><trkpt lat="44.18854310140146" lon="9.612544104812727"><ele>190.0</ele><time>2026-04-07T14:46:26Z</time></trkpt><trkpt lat="44.18861102235806" lon="9.612661682574169"><ele>190.0</ele><time>2026-04-07T14:46:27Z</time></trkpt><trkpt lat="44.18868101483056" lon="9.612745964463373"><ele>190.0</ele><time>2026-04-07T14:46:28Z</time></trkpt><trkpt lat="44.18875741825534" lon="9.61277753050148"><ele>190.0</ele><time>2026-04-07T14:46:29Z</time></trkpt><trkpt lat="44.18883293727091" lon="9.61273749109664"><ele>190.0</ele><time>2026-04-07T14:46:30Z</time></trkpt><trkpt lat="44.188903829392984" lon="9.612594800701869"><ele>190.0</ele><time>2026-04-07T14:46:31Z</time></trkpt><trkpt lat="44.1889569081786" lon="9.612497384305659"><ele>190.0</ele><time>2026-04-07T14:46:32Z</time></trkpt><trkpt lat="44.1890075127951" lon="9.612418396163813"><ele>190.0</ele><time>2026-04-07T14:46:33Z</time></trkpt><trkpt lat="44.18905438180072" lon="9.612342329667143"><ele>190.0</ele><time>2026-04-07T14:46:34Z</time></trkpt><trkpt lat="44.189095141648664" lon="9.612271522318435"><ele>190.0</ele><time>2026-04-07T14:46:35Z</time></trkpt><trkpt lat="44.189165620207994" lon="9.61216567432207"><ele>190.0</ele><time>2026-04-07T14:46:37Z</time></trkpt><trkpt lat="44.18920320066677" lon="9.612080283522259"><ele>188.33333333333334</ele><time>2026-04-07T14:46:39Z</time></trkpt><trkpt lat="44.18923898265015" lon="9.611998808243891"><ele>186.66666666666669</ele><time>2026-04-07T14:46:43Z</time></trkpt><trkpt lat="44.189320882074036" lon="9.612030907457708"><ele>185.0</ele><time>2026-04-07T14:47:15.999Z</time></trkpt><trkpt lat="44.189258942538686" lon="9.612051672904485"><ele>183.33333333333334</ele><time>2026-04-07T14:47:18.999Z</time></trkpt><trkpt lat="44.18926934027614" lon="9.61190582038883"><ele>181.66666666666666</ele><time>2026-04-07T14:47:27.999Z</time></trkpt><trkpt lat="44.18928732183394" lon="9.61177432100019"><ele>180.0</ele><time>2026-04-07T14:47:28.999Z</time></trkpt><trkpt lat="44.18931718304531" lon="9.611656056999978"><ele>184.4</ele><time>2026-04-07T14:47:29.999Z</time></trkpt><trkpt lat="44.18936665347123" lon="9.611554182923175"><ele>188.8</ele><time>2026-04-07T14:47:30.999Z</time></trkpt><trkpt lat="44.18948232292487" lon="9.611520626699894"><ele>193.2</ele><time>2026-04-07T14:47:31.999Z</time></trkpt><trkpt lat="44.18958581053408" lon="9.611543418918298"><ele>197.6</ele><time>2026-04-07T14:47:32.999Z</time></trkpt><trkpt lat="44.189679969110806" lon="9.611535806787083"><ele>202.0</ele><time>2026-04-07T14:47:33.999Z</time></trkpt><trkpt lat="44.18975331329258" lon="9.61161228413404"><ele>202.0</ele><time>2026-04-07T14:47:34.999Z</time></trkpt><trkpt lat="44.189783935037" lon="9.611767162009897"><ele>202.0</ele><time>2026-04-07T14:47:35.999Z</time></trkpt><trkpt lat="44.18985249671789" lon="9.611908427868824"><ele>202.0</ele><time>2026-04-07T14:47:36.999Z</time></trkpt><trkpt lat="44.189907978393414" lon="9.612064645254494"><ele>202.0</ele><time>2026-04-07T14:47:37.999Z</time></trkpt><trkpt lat="44.18997513677671" lon="9.612183513354413"><ele>196.6</ele><time>2026-04-07T14:47:38.999Z</time></trkpt><trkpt lat="44.190047980333915" lon="9.612252548701917"><ele>191.2</ele><time>2026-04-07T14:47:39.999Z</time></trkpt><trkpt lat="44.19014550416637" lon="9.612269540594452"><ele>185.8</ele><time>2026-04-07T14:47:40.999Z</time></trkpt><trkpt lat="44.19025719069048" lon="9.612193609097258"><ele>180.4</ele><time>2026-04-07T14:47:41.999Z</time></trkpt><trkpt lat="44.190359575338015" lon="9.612105310103207"><ele>175.0</ele><time>2026-04-07T14:47:42.999Z</time></trkpt><trkpt lat="44.190481033492134" lon="9.612033385376328"><ele>176.75</ele><time>2026-04-07T14:47:43.999Z</time></trkpt><trkpt lat="44.190584894675126" lon="9.611981077541879"><ele>178.5</ele><time>2026-04-07T14:47:44.999Z</time></trkpt><trkpt lat="44.190654901400165" lon="9.611848624399741"><ele>180.25</ele><time>2026-04-07T14:47:45.999Z</time></trkpt><trkpt lat="44.19070046895582" lon="9.611672949829666"><ele>182.0</ele><time>2026-04-07T14:47:46.999Z</time></trkpt><trkpt lat="44.19070234164086" lon="9.611480103830079"><ele>182.0</ele><time>2026-04-07T14:47:47.999Z</time></trkpt><trkpt lat="44.190724519409386" lon="9.61128082355042"><ele>182.0</ele><time>2026-04-07T14:47:48.999Z</time></trkpt><trkpt lat="44.19079049081632" lon="9.61109649822339"><ele>182.0</ele><time>2026-04-07T14:47:49.999Z</time></trkpt><trkpt lat="44.19088643071742" lon="9.610943391089714"><ele>182.0</ele><time>2026-04-07T14:47:50.999Z</time></trkpt><trkpt lat="44.19101093543996" lon="9.61084238675102"><ele>187.5</ele><time>2026-04-07T14:47:51.999Z</time></trkpt><trkpt lat="44.191121625584216" lon="9.610738333282397"><ele>193.0</ele><time>2026-04-07T14:47:52.999Z</time></trkpt><trkpt lat="44.191214298996684" lon="9.610652205182546"><ele>198.5</ele><time>2026-04-07T14:47:53.999Z</time></trkpt><trkpt lat="44.1912447705739" lon="9.610496434922966"><ele>204.0</ele><time>2026-04-07T14:47:54.999Z</time></trkpt><trkpt lat="44.191267948985825" lon="9.610312284581608"><ele>203.0</ele><time>2026-04-07T14:47:55.999Z</time></trkpt><trkpt lat="44.19128133797482" lon="9.610157336316375"><ele>202.0</ele><time>2026-04-07T14:47:56.999Z</time></trkpt><trkpt lat="44.19131070725091" lon="9.610049393707788"><ele>201.0</ele><time>2026-04-07T14:47:57.999Z</time></trkpt><trkpt lat="44.19137357982861" lon="9.60999490596148"><ele>200.0</ele><time>2026-04-07T14:47:58.999Z</time></trkpt><trkpt lat="44.191458139122574" lon="9.610008218676395"><ele>199.0</ele><time>2026-04-07T14:47:59.999Z</time></trkpt><trkpt lat="44.19153413521724" lon="9.610077520180361"><ele>198.0</ele><time>2026-04-07T14:48:00.999Z</time></trkpt><trkpt lat="44.19161763900476" lon="9.610104989297009"><ele>198.0</ele><time>2026-04-07T14:48:01.999Z</time></trkpt><trkpt lat="44.19171312100317" lon="9.610132470736618"><ele>198.0</ele><time>2026-04-07T14:48:02.999Z</time></trkpt><trkpt lat="44.191812730812615" lon="9.610101687215014"><ele>198.0</ele><time>2026-04-07T14:48:03.999Z</time></trkpt><trkpt lat="44.191912144189445" lon="9.610005875865982"><ele>198.0</ele><time>2026-04-07T14:48:04.999Z</time></trkpt><trkpt lat="44.19198525864852" lon="9.609875038324274"><ele>198.0</ele><time>2026-04-07T14:48:05.999Z</time></trkpt><trkpt lat="44.19201943944485" lon="9.609725216110576"><ele>198.0</ele><time>2026-04-07T14:48:06.999Z</time></trkpt><trkpt lat="44.19203314475537" lon="9.609566258966977"><ele>198.0</ele><time>2026-04-07T14:48:07.999Z</time></trkpt><trkpt lat="44.192047544551386" lon="9.609396752882235"><ele>198.0</ele><time>2026-04-07T14:48:08.999Z</time></trkpt><trkpt lat="44.192066935482615" lon="9.609230034522541"><ele>198.0</ele><time>2026-04-07T14:48:09.999Z</time></trkpt><trkpt lat="44.19210632065507" lon="9.609069262809388"><ele>200.0</ele><time>2026-04-07T14:48:10.999Z</time></trkpt><trkpt lat="44.19211805143837" lon="9.608952520659905"><ele>202.0</ele><time>2026-04-07T14:48:11.999Z</time></trkpt><trkpt lat="44.192217955881716" lon="9.608853437302466"><ele>204.0</ele><time>2026-04-07T14:48:13.999Z</time></trkpt><trkpt lat="44.19230189204891" lon="9.60886442914453"><ele>206.0</ele><time>2026-04-07T14:48:14.999Z</time></trkpt><trkpt lat="44.192397743353766" lon="9.608928815874355"><ele>208.0</ele><time>2026-04-07T14:48:15.999Z</time></trkpt><trkpt lat="44.19242707723791" lon="9.609070068266334"><ele>208.0</ele><time>2026-04-07T14:48:16.998Z</time></trkpt><trkpt lat="44.192440101260964" lon="9.609204691753847"><ele>208.0</ele><time>2026-04-07T14:48:17.998Z</time></trkpt><trkpt lat="44.19248198452781" lon="9.609354350742086"><ele>208.0</ele><time>2026-04-07T14:48:18.998Z</time></trkpt><trkpt lat="44.19253405727833" lon="9.609492456985064"><ele>208.0</ele><time>2026-04-07T14:48:19.998Z</time></trkpt><trkpt lat="44.1925790087201" lon="9.60964663132421"><ele>208.0</ele><time>2026-04-07T14:48:20.998Z</time></trkpt><trkpt lat="44.19259587246751" lon="9.609803335665434"><ele>207.5</ele><time>2026-04-07T14:48:21.998Z</time></trkpt><trkpt lat="44.19256334134763" lon="9.609957233286519"><ele>207.0</ele><time>2026-04-07T14:48:22.998Z</time></trkpt><trkpt lat="44.19253024053361" lon="9.610152728426183"><ele>206.5</ele><time>2026-04-07T14:48:24Z</time></trkpt><trkpt lat="44.192538239524545" lon="9.610350995846234"><ele>206.0</ele><time>2026-04-07T14:48:25Z</time></trkpt><trkpt lat="44.19250779923246" lon="9.61052835350887"><ele>207.25</ele><time>2026-04-07T14:48:26Z</time></trkpt><trkpt lat="44.192453838082265" lon="9.61068426252844"><ele>208.5</ele><time>2026-04-07T14:48:27Z</time></trkpt><trkpt lat="44.19242221737359" lon="9.610857737560474"><ele>209.75</ele><time>2026-04-07T14:48:28Z</time></trkpt><trkpt lat="44.19237972823067" lon="9.611078580109554"><ele>211.0</ele><time>2026-04-07T14:48:29Z</time></trkpt><trkpt lat="44.19235208791328" lon="9.611282031952735"><ele>196.0</ele><time>2026-04-07T14:48:30Z</time></trkpt><trkpt lat="44.192325688652716" lon="9.61149829802698"><ele>181.0</ele><time>2026-04-07T14:48:31Z</time></trkpt><trkpt lat="44.19229975265235" lon="9.611718328513549"><ele>166.0</ele><time>2026-04-07T14:48:32Z</time></trkpt><trkpt lat="44.192275996889485" lon="9.611943283733366"><ele>165.66666666666669</ele><time>2026-04-07T14:48:33Z</time></trkpt><trkpt lat="44.19225550715826" lon="9.612174597459646"><ele>165.33333333333334</ele><time>2026-04-07T14:48:34Z</time></trkpt><trkpt lat="44.19221836767855" lon="9.612390322555854"><ele>165.0</ele><time>2026-04-07T14:48:35Z</time></trkpt><trkpt lat="44.19218717690992" lon="9.612596368427804"><ele>165.0</ele><time>2026-04-07T14:48:36Z</time></trkpt><trkpt lat="44.19218510113592" lon="9.61280371091136"><ele>165.0</ele><time>2026-04-07T14:48:37Z</time></trkpt><trkpt lat="44.19220739141058" lon="9.612989189486852"><ele>165.0</ele><time>2026-04-07T14:48:38Z</time></trkpt><trkpt lat="44.192211064303585" lon="9.613127867166037"><ele>165.0</ele><time>2026-04-07T14:48:39Z</time></trkpt><trkpt lat="44.19221604913339" lon="9.613238395964926"><ele>166.0</ele><time>2026-04-07T14:48:40Z</time></trkpt><trkpt lat="44.19231025503874" lon="9.613347693176582"><ele>167.0</ele><time>2026-04-07T14:48:42Z</time></trkpt><trkpt lat="44.192392475581606" lon="9.613306077356041"><ele>168.0</ele><time>2026-04-07T14:48:43Z</time></trkpt><trkpt lat="44.192474456449126" lon="9.613213733771769"><ele>169.0</ele><time>2026-04-07T14:48:44Z</time></trkpt><trkpt lat="44.192553224388945" lon="9.613123830785819"><ele>170.0</ele><time>2026-04-07T14:48:45Z</time></trkpt><trkpt lat="44.19264320403588" lon="9.613035633685577"><ele>178.0</ele><time>2026-04-07T14:48:46Z</time></trkpt><trkpt lat="44.192744100337315" lon="9.612946366533597"><ele>186.0</ele><time>2026-04-07T14:48:47Z</time></trkpt><trkpt lat="44.19284685492873" lon="9.612842028820191"><ele>194.0</ele><time>2026-04-07T14:48:48Z</time></trkpt><trkpt lat="44.19293702780105" lon="9.612718378611723"><ele>202.0</ele><time>2026-04-07T14:48:49Z</time></trkpt><trkpt lat="44.19300434068572" lon="9.612622726893207"><ele>206.25</ele><time>2026-04-07T14:48:50Z</time></trkpt><trkpt lat="44.193104972406516" lon="9.612622228818136"><ele>210.5</ele><time>2026-04-07T14:48:51Z</time></trkpt><trkpt lat="44.19321469703751" lon="9.612677961129284"><ele>214.75</ele><time>2026-04-07T14:48:52Z</time></trkpt><trkpt lat="44.19333616675808" lon="9.612674886736707"><ele>219.0</ele><time>2026-04-07T14:48:53Z</time></trkpt><trkpt lat="44.19346104400945" lon="9.612662211316847"><ele>221.75</ele><time>2026-04-07T14:48:54Z</time></trkpt><trkpt lat="44.193599172035526" lon="9.612627248844424"><ele>224.5</ele><time>2026-04-07T14:48:55Z</time></trkpt><trkpt lat="44.19374345764579" lon="9.612611443763084"><ele>227.25</ele><time>2026-04-07T14:48:56Z</time></trkpt><trkpt lat="44.19386665298908" lon="9.612615850947572"><ele>230.0</ele><time>2026-04-07T14:48:57Z</time></trkpt><trkpt lat="44.193959753627844" lon="9.612741815459184"><ele>225.25</ele><time>2026-04-07T14:48:58Z</time></trkpt><trkpt lat="44.19407742191809" lon="9.61284266655913"><ele>220.5</ele><time>2026-04-07T14:48:59Z</time></trkpt><trkpt lat="44.19418219969834" lon="9.612971811683401"><ele>215.75</ele><time>2026-04-07T14:49:00Z</time></trkpt><trkpt lat="44.19428877736659" lon="9.613083793358616"><ele>211.0</ele><time>2026-04-07T14:49:01Z</time></trkpt><trkpt lat="44.19440608487567" lon="9.613134720687356"><ele>210.99999999999997</ele><time>2026-04-07T14:49:02Z</time></trkpt><trkpt lat="44.1945196357399" lon="9.61314153064141"><ele>211.0</ele><time>2026-04-07T14:49:03Z</time></trkpt><trkpt lat="44.19461789349956" lon="9.613150444219407"><ele>211.0</ele><time>2026-04-07T14:49:04Z</time></trkpt><trkpt lat="44.19468528187253" lon="9.613190900721715"><ele>211.0</ele><time>2026-04-07T14:49:05Z</time></trkpt><trkpt lat="44.19473442714678" lon="9.613260904011453"><ele>210.99999999999997</ele><time>2026-04-07T14:49:06Z</time></trkpt><trkpt lat="44.19476510121865" lon="9.613366168404616"><ele>211.0</ele><time>2026-04-07T14:49:07Z</time></trkpt><trkpt lat="44.19477381135208" lon="9.613481104120561"><ele>211.0</ele><time>2026-04-07T14:49:08Z</time></trkpt><trkpt lat="44.19475536063245" lon="9.613605254794917"><ele>211.0</ele><time>2026-04-07T14:49:09Z</time></trkpt><trkpt lat="44.19470664998834" lon="9.613724927004462"><ele>211.0</ele><time>2026-04-07T14:49:10Z</time></trkpt><trkpt lat="44.19464994311825" lon="9.613839775753052"><ele>211.0</ele><time>2026-04-07T14:49:11Z</time></trkpt><trkpt lat="44.19453910106554" lon="9.613874837575196"><ele>211.0</ele><time>2026-04-07T14:49:12Z</time></trkpt><trkpt lat="44.19442544700192" lon="9.613918579559835"><ele>207.0</ele><time>2026-04-07T14:49:13Z</time></trkpt><trkpt lat="44.1943019088125" lon="9.613937899494875"><ele>203.0</ele><time>2026-04-07T14:49:14Z</time></trkpt><trkpt lat="44.1941738693567" lon="9.613952222704045"><ele>199.0</ele><time>2026-04-07T14:49:15Z</time></trkpt><trkpt lat="44.19404227967561" lon="9.613977609121799"><ele>195.0</ele><time>2026-04-07T14:49:16Z</time></trkpt><trkpt lat="44.19392207528966" lon="9.61401689660157"><ele>195.0</ele><time>2026-04-07T14:49:17Z</time></trkpt><trkpt lat="44.19381517599367" lon="9.614101059971867"><ele>195.0</ele><time>2026-04-07T14:49:18Z</time></trkpt><trkpt lat="44.19372149162568" lon="9.614238009583966"><ele>195.0</ele><time>2026-04-07T14:49:19Z</time></trkpt><trkpt lat="44.19363649383899" lon="9.614369635853768"><ele>195.0</ele><time>2026-04-07T14:49:19.999Z</time></trkpt><trkpt lat="44.193558319201266" lon="9.614489678407834"><ele>200.4</ele><time>2026-04-07T14:49:20.999Z</time></trkpt><trkpt lat="44.19351112307479" lon="9.61458556798324"><ele>205.8</ele><time>2026-04-07T14:49:21.999Z</time></trkpt><trkpt lat="44.19349197063388" lon="9.614732865517334"><ele>211.2</ele><time>2026-04-07T14:49:22.999Z</time></trkpt><trkpt lat="44.193541307079975" lon="9.614927090294463"><ele>216.6</ele><time>2026-04-07T14:49:23.999Z</time></trkpt><trkpt lat="44.19355198826586" lon="9.615072025709827"><ele>222.0</ele><time>2026-04-07T14:49:24.999Z</time></trkpt><trkpt lat="44.19348082287936" lon="9.615190589780305"><ele>222.0</ele><time>2026-04-07T14:49:25.999Z</time></trkpt><trkpt lat="44.19336301843648" lon="9.615258146103752"><ele>222.0</ele><time>2026-04-07T14:49:26.999Z</time></trkpt><trkpt lat="44.1932589193139" lon="9.615374030528704"><ele>222.0</ele><time>2026-04-07T14:49:27.999Z</time></trkpt><trkpt lat="44.1931747255299" lon="9.61553860221938"><ele>222.0</ele><time>2026-04-07T14:49:28.999Z</time></trkpt><trkpt lat="44.19307512025384" lon="9.615694063627224"><ele>220.75</ele><time>2026-04-07T14:49:29.999Z</time></trkpt><trkpt lat="44.192971396554384" lon="9.61583943176339"><ele>219.5</ele><time>2026-04-07T14:49:30.999Z</time></trkpt><trkpt lat="44.1928845291641" lon="9.615986904715134"><ele>218.25</ele><time>2026-04-07T14:49:31.999Z</time></trkpt><trkpt lat="44.19283323531846" lon="9.616176054186914"><ele>217.0</ele><time>2026-04-07T14:49:32.999Z</time></trkpt><trkpt lat="44.19280720298305" lon="9.616396875714905"><ele>217.0</ele><time>2026-04-07T14:49:33.999Z</time></trkpt><trkpt lat="44.192813359850746" lon="9.616608198719453"><ele>217.0</ele><time>2026-04-07T14:49:34.999Z</time></trkpt><trkpt lat="44.192768575793195" lon="9.616762708283044"><ele>217.0</ele><time>2026-04-07T14:49:35.999Z</time></trkpt><trkpt lat="44.19271329548093" lon="9.616881693279906"><ele>217.0</ele><time>2026-04-07T14:49:36.999Z</time></trkpt><trkpt lat="44.19259651457092" lon="9.616946598684574"><ele>221.5</ele><time>2026-04-07T14:49:37.999Z</time></trkpt><trkpt lat="44.192473053486566" lon="9.617031309540888"><ele>226.0</ele><time>2026-04-07T14:49:38.999Z</time></trkpt><trkpt lat="44.19235255313354" lon="9.617101923481467"><ele>230.5</ele><time>2026-04-07T14:49:39.999Z</time></trkpt><trkpt lat="44.1922520005562" lon="9.617172079089869"><ele>235.0</ele><time>2026-04-07T14:49:40.999Z</time></trkpt><trkpt lat="44.192189491326005" lon="9.617274942611854"><ele>231.5</ele><time>2026-04-07T14:49:41.999Z</time></trkpt><trkpt lat="44.19217792460482" lon="9.617423238859486"><ele>228.0</ele><time>2026-04-07T14:49:42.999Z</time></trkpt><trkpt lat="44.19220462248081" lon="9.617584608839943"><ele>224.5</ele><time>2026-04-07T14:49:43.999Z</time></trkpt><trkpt lat="44.19221351588501" lon="9.617754435812872"><ele>221.0</ele><time>2026-04-07T14:49:44.999Z</time></trkpt><trkpt lat="44.192213093612445" lon="9.617937036909396"><ele>221.0</ele><time>2026-04-07T14:49:45.999Z</time></trkpt><trkpt lat="44.1921862680795" lon="9.618105153328017"><ele>221.0</ele><time>2026-04-07T14:49:46.999Z</time></trkpt><trkpt lat="44.192126831382915" lon="9.618260376587212"><ele>221.0</ele><time>2026-04-07T14:49:47.999Z</time></trkpt><trkpt lat="44.19202322578482" lon="9.618430568981053"><ele>221.0</ele><time>2026-04-07T14:49:48.999Z</time></trkpt><trkpt lat="44.19193422604235" lon="9.618588487169486"><ele>220.20000000000002</ele><time>2026-04-07T14:49:49.999Z</time></trkpt><trkpt lat="44.191827930372085" lon="9.618683470881928"><ele>219.40000000000003</ele><time>2026-04-07T14:49:50.999Z</time></trkpt><trkpt lat="44.19171171619711" lon="9.61873343495326"><ele>218.6</ele><time>2026-04-07T14:49:51.999Z</time></trkpt><trkpt lat="44.19160357211957" lon="9.618733145419924"><ele>217.8</ele><time>2026-04-07T14:49:52.999Z</time></trkpt><trkpt lat="44.19151896665939" lon="9.618730711642025"><ele>217.0</ele><time>2026-04-07T14:49:53.999Z</time></trkpt><trkpt lat="44.191421851600026" lon="9.618768338633885"><ele>217.0</ele><time>2026-04-07T14:49:54.999Z</time></trkpt><trkpt lat="44.191343807031615" lon="9.618822784328371"><ele>217.0</ele><time>2026-04-07T14:49:55.999Z</time></trkpt><trkpt lat="44.19125317634436" lon="9.61893562145409"><ele>217.0</ele><time>2026-04-07T14:49:56.999Z</time></trkpt><trkpt lat="44.191166826119726" lon="9.619058046899315"><ele>217.0</ele><time>2026-04-07T14:49:57.999Z</time></trkpt><trkpt lat="44.19107163052152" lon="9.619142227920532"><ele>217.0</ele><time>2026-04-07T14:49:58.999Z</time></trkpt><trkpt lat="44.19099091855486" lon="9.619193989356722"><ele>216.99999999999997</ele><time>2026-04-07T14:49:59.999Z</time></trkpt><trkpt lat="44.190926884775344" lon="9.619321635271538"><ele>217.0</ele><time>2026-04-07T14:50:01.999Z</time></trkpt><trkpt lat="44.190890276281806" lon="9.619438293614547"><ele>217.0</ele><time>2026-04-07T14:50:02.999Z</time></trkpt><trkpt lat="44.19084875218582" lon="9.61956329358207"><ele>217.0</ele><time>2026-04-07T14:50:03.999Z</time></trkpt><trkpt lat="44.190847575350624" lon="9.619665944750055"><ele>216.99999999999997</ele><time>2026-04-07T14:50:04.999Z</time></trkpt><trkpt lat="44.19087864240472" lon="9.619756967932878"><ele>217.0</ele><time>2026-04-07T14:50:05.999Z</time></trkpt><trkpt lat="44.19092072455037" lon="9.619827230865477"><ele>217.8</ele><time>2026-04-07T14:50:06.999Z</time></trkpt><trkpt lat="44.19097615850823" lon="9.619874501855564"><ele>218.6</ele><time>2026-04-07T14:50:07.999Z</time></trkpt><trkpt lat="44.191081089222116" lon="9.619906375144065"><ele>219.40000000000003</ele><time>2026-04-07T14:50:08.999Z</time></trkpt><trkpt lat="44.191195456832624" lon="9.619922744861084"><ele>220.20000000000002</ele><time>2026-04-07T14:50:09.999Z</time></trkpt><trkpt lat="44.19131241570632" lon="9.619937472672568"><ele>221.0</ele><time>2026-04-07T14:50:10.999Z</time></trkpt><trkpt lat="44.19143153874201" lon="9.61997208867304"><ele>225.5</ele><time>2026-04-07T14:50:11.999Z</time></trkpt><trkpt lat="44.19156922334757" lon="9.619999134581223"><ele>230.0</ele><time>2026-04-07T14:50:12.999Z</time></trkpt><trkpt lat="44.19170467570386" lon="9.620057162101034"><ele>234.5</ele><time>2026-04-07T14:50:13.999Z</time></trkpt><trkpt lat="44.191843271403485" lon="9.620096083862286"><ele>239.0</ele><time>2026-04-07T14:50:14.999Z</time></trkpt><trkpt lat="44.191998585022674" lon="9.62012622461014"><ele>239.0</ele><time>2026-04-07T14:50:15.999Z</time></trkpt><trkpt lat="44.19213711363269" lon="9.62021716693549"><ele>239.0</ele><time>2026-04-07T14:50:16.999Z</time></trkpt><trkpt lat="44.192290366325" lon="9.62024458706152"><ele>239.0</ele><time>2026-04-07T14:50:17.999Z</time></trkpt><trkpt lat="44.19246100629666" lon="9.620278810409301"><ele>235.75</ele><time>2026-04-07T14:50:18.999Z</time></trkpt><trkpt lat="44.19261672814769" lon="9.620310774144405"><ele>232.5</ele><time>2026-04-07T14:50:19.999Z</time></trkpt><trkpt lat="44.1927333750323" lon="9.62037512323253"><ele>229.25</ele><time>2026-04-07T14:50:20.999Z</time></trkpt><trkpt lat="44.1928241013436" lon="9.620489825969024"><ele>226.0</ele><time>2026-04-07T14:50:21.999Z</time></trkpt><trkpt lat="44.1929454228479" lon="9.620546806147084"><ele>226.0</ele><time>2026-04-07T14:50:22.999Z</time></trkpt><trkpt lat="44.19308901438943" lon="9.620550944491463"><ele>226.00000000000003</ele><time>2026-04-07T14:50:23.999Z</time></trkpt><trkpt lat="44.193223174160245" lon="9.620517826226576"><ele>226.00000000000003</ele><time>2026-04-07T14:50:24.999Z</time></trkpt><trkpt lat="44.19331272453676" lon="9.620484588003126"><ele>226.0</ele><time>2026-04-07T14:50:25.999Z</time></trkpt><trkpt lat="44.193380956402535" lon="9.6205128072714"><ele>226.0</ele><time>2026-04-07T14:50:26.999Z</time></trkpt><trkpt lat="44.19342283540416" lon="9.620608098078907"><ele>232.0</ele><time>2026-04-07T14:50:27.998Z</time></trkpt><trkpt lat="44.19338597097739" lon="9.620756380443096"><ele>238.0</ele><time>2026-04-07T14:50:28.998Z</time></trkpt><trkpt lat="44.193350939180604" lon="9.620901636410968"><ele>244.0</ele><time>2026-04-07T14:50:30Z</time></trkpt><trkpt lat="44.19331511415829" lon="9.621076509241218"><ele>250.0</ele><time>2026-04-07T14:50:31Z</time></trkpt><trkpt lat="44.193229826858506" lon="9.62118807030192"><ele>245.83333333333331</ele><time>2026-04-07T14:50:32Z</time></trkpt><trkpt lat="44.19314509988796" lon="9.62129271044601"><ele>241.66666666666666</ele><time>2026-04-07T14:50:33Z</time></trkpt><trkpt lat="44.19307732775033" lon="9.621396079456174"><ele>237.5</ele><time>2026-04-07T14:50:34Z</time></trkpt><trkpt lat="44.19301235509491" lon="9.62147238119054"><ele>233.33333333333331</ele><time>2026-04-07T14:50:35Z</time></trkpt><trkpt lat="44.192969675894496" lon="9.62156671287512"><ele>229.16666666666666</ele><time>2026-04-07T14:50:36Z</time></trkpt><trkpt lat="44.19296989073464" lon="9.621655497646891"><ele>225.0</ele><time>2026-04-07T14:50:37Z</time></trkpt><trkpt lat="44.19300637047831" lon="9.621772873175644"><ele>225.0</ele><time>2026-04-07T14:50:38Z</time></trkpt><trkpt lat="44.19307055212972" lon="9.621843437847469"><ele>225.0</ele><time>2026-04-07T14:50:39Z</time></trkpt><trkpt lat="44.193180229878074" lon="9.62196091001057"><ele>225.0</ele><time>2026-04-07T14:50:41Z</time></trkpt><trkpt lat="44.19323932115821" lon="9.622035353176686"><ele>225.0</ele><time>2026-04-07T14:50:42Z</time></trkpt><trkpt lat="44.19331735575699" lon="9.62208318844518"><ele>225.0</ele><time>2026-04-07T14:50:43Z</time></trkpt><trkpt lat="44.19341290738908" lon="9.62211150226846"><ele>226.4</ele><time>2026-04-07T14:50:44Z</time></trkpt><trkpt lat="44.19349819800079" lon="9.622117299567012"><ele>227.8</ele><time>2026-04-07T14:50:45Z</time></trkpt><trkpt lat="44.1935853933486" lon="9.622130307832276"><ele>229.2</ele><time>2026-04-07T14:50:46Z</time></trkpt><trkpt lat="44.19369612562397" lon="9.622152831483987"><ele>230.6</ele><time>2026-04-07T14:50:47Z</time></trkpt><trkpt lat="44.19382429575066" lon="9.622173159203433"><ele>232.0</ele><time>2026-04-07T14:50:48Z</time></trkpt><trkpt lat="44.19395117088599" lon="9.622207671885054"><ele>232.5</ele><time>2026-04-07T14:50:49Z</time></trkpt><trkpt lat="44.19406642865505" lon="9.62221013163284"><ele>233.0</ele><time>2026-04-07T14:50:50Z</time></trkpt><trkpt lat="44.194166871510376" lon="9.622157318914262"><ele>233.5</ele><time>2026-04-07T14:50:51Z</time></trkpt><trkpt lat="44.19425573141918" lon="9.622038247880647"><ele>234.0</ele><time>2026-04-07T14:50:52Z</time></trkpt><trkpt lat="44.19432147451259" lon="9.621862923704514"><ele>241.0</ele><time>2026-04-07T14:50:53Z</time></trkpt><trkpt lat="44.19436704156832" lon="9.621666829853892"><ele>248.0</ele><time>2026-04-07T14:50:54Z</time></trkpt><trkpt lat="44.19442836783639" lon="9.621477447005507"><ele>255.0</ele><time>2026-04-07T14:50:55Z</time></trkpt><trkpt lat="44.19449812108205" lon="9.62128645475131"><ele>256.0</ele><time>2026-04-07T14:50:56Z</time></trkpt><trkpt lat="44.194580658378854" lon="9.621101034615037"><ele>257.0</ele><time>2026-04-07T14:50:57Z</time></trkpt><trkpt lat="44.19468609845887" lon="9.620985376965413"><ele>258.0</ele><time>2026-04-07T14:50:58Z</time></trkpt><trkpt lat="44.19479090395897" lon="9.62088414350424"><ele>259.0</ele><time>2026-04-07T14:50:59Z</time></trkpt><trkpt lat="44.19490324717669" lon="9.620766935346836"><ele>259.0</ele><time>2026-04-07T14:51:00Z</time></trkpt><trkpt lat="44.19502055498731" lon="9.620690470234083"><ele>259.0</ele><time>2026-04-07T14:51:01Z</time></trkpt><trkpt lat="44.19511949266937" lon="9.620633002218383"><ele>259.0</ele><time>2026-04-07T14:51:02Z</time></trkpt><trkpt lat="44.19521309525124" lon="9.620618041090712"><ele>259.0</ele><time>2026-04-07T14:51:03Z</time></trkpt><trkpt lat="44.19530566567503" lon="9.62069668895477"><ele>259.0</ele><time>2026-04-07T14:51:04Z</time></trkpt><trkpt lat="44.19538004857585" lon="9.62080979230615"><ele>259.0</ele><time>2026-04-07T14:51:05Z</time></trkpt><trkpt lat="44.19542632285876" lon="9.62092898650027"><ele>259.0</ele><time>2026-04-07T14:51:06Z</time></trkpt><trkpt lat="44.19549773365379" lon="9.621087982577391"><ele>259.0</ele><time>2026-04-07T14:51:07Z</time></trkpt><trkpt lat="44.19558759935498" lon="9.621218886524336"><ele>259.0</ele><time>2026-04-07T14:51:08Z</time></trkpt><trkpt lat="44.19570111735689" lon="9.621329398426846"><ele>255.75</ele><time>2026-04-07T14:51:09Z</time></trkpt><trkpt lat="44.19583543929422" lon="9.621388471947068"><ele>252.5</ele><time>2026-04-07T14:51:10Z</time></trkpt><trkpt lat="44.19598799144062" lon="9.621391968242326"><ele>249.25</ele><time>2026-04-07T14:51:11Z</time></trkpt><trkpt lat="44.19613372679604" lon="9.621356619370973"><ele>246.0</ele><time>2026-04-07T14:51:12Z</time></trkpt><trkpt lat="44.19627625004807" lon="9.621338588748777"><ele>246.0</ele><time>2026-04-07T14:51:13Z</time></trkpt><trkpt lat="44.196390803336946" lon="9.621351538646522"><ele>246.0</ele><time>2026-04-07T14:51:14Z</time></trkpt><trkpt lat="44.19649365901784" lon="9.621425283036439"><ele>246.0</ele><time>2026-04-07T14:51:15Z</time></trkpt><trkpt lat="44.196548992468514" lon="9.621559824259556"><ele>246.0</ele><time>2026-04-07T14:51:16Z</time></trkpt><trkpt lat="44.19664250630977" lon="9.621715064367228"><ele>243.5</ele><time>2026-04-07T14:51:17Z</time></trkpt><trkpt lat="44.196690246140015" lon="9.62184860604646"><ele>241.0</ele><time>2026-04-07T14:51:18Z</time></trkpt><trkpt lat="44.19676485437649" lon="9.62195700576538"><ele>238.5</ele><time>2026-04-07T14:51:19Z</time></trkpt><trkpt lat="44.19687102286806" lon="9.622009627851385"><ele>236.0</ele><time>2026-04-07T14:51:20Z</time></trkpt><trkpt lat="44.197000372736845" lon="9.621986928614847"><ele>240.5</ele><time>2026-04-07T14:51:20.999Z</time></trkpt><trkpt lat="44.197134314811514" lon="9.621910006361771"><ele>245.0</ele><time>2026-04-07T14:51:21.999Z</time></trkpt><trkpt lat="44.197261410304606" lon="9.621800527528222"><ele>249.5</ele><time>2026-04-07T14:51:22.999Z</time></trkpt><trkpt lat="44.1973725348487" lon="9.621653020283004"><ele>254.0</ele><time>2026-04-07T14:51:23.999Z</time></trkpt><trkpt lat="44.197453010804466" lon="9.621462529165829"><ele>254.0</ele><time>2026-04-07T14:51:24.999Z</time></trkpt><trkpt lat="44.19749435724823" lon="9.621239709630721"><ele>254.0</ele><time>2026-04-07T14:51:25.999Z</time></trkpt><trkpt lat="44.19748293916028" lon="9.62100462296988"><ele>254.0</ele><time>2026-04-07T14:51:26.999Z</time></trkpt><trkpt lat="44.19748895767768" lon="9.62082933202346"><ele>256.59999999999997</ele><time>2026-04-07T14:51:27.999Z</time></trkpt><trkpt lat="44.19752765571022" lon="9.620732409686829"><ele>259.2</ele><time>2026-04-07T14:51:28.999Z</time></trkpt><trkpt lat="44.197580119433646" lon="9.6206468700213"><ele>261.79999999999995</ele><time>2026-04-07T14:51:29.999Z</time></trkpt><trkpt lat="44.19767127978974" lon="9.620654054112185"><ele>264.4</ele><time>2026-04-07T14:51:30.999Z</time></trkpt><trkpt lat="44.19778574211701" lon="9.620636673120424"><ele>267.0</ele><time>2026-04-07T14:51:31.999Z</time></trkpt><trkpt lat="44.19789956486095" lon="9.620607396699535"><ele>267.0</ele><time>2026-04-07T14:51:32.999Z</time></trkpt><trkpt lat="44.19801251845496" lon="9.62059869594112"><ele>267.0</ele><time>2026-04-07T14:51:33.999Z</time></trkpt><trkpt lat="44.19814405667121" lon="9.62056433095943"><ele>267.0</ele><time>2026-04-07T14:51:34.999Z</time></trkpt><trkpt lat="44.19827626051134" lon="9.620542736729803"><ele>267.0</ele><time>2026-04-07T14:51:35.999Z</time></trkpt><trkpt lat="44.198421360709936" lon="9.620531353150898"><ele>264.5</ele><time>2026-04-07T14:51:36.999Z</time></trkpt><trkpt lat="44.198569507188665" lon="9.620545207132928"><ele>262.0</ele><time>2026-04-07T14:51:37.999Z</time></trkpt><trkpt lat="44.19870711602966" lon="9.62062646666462"><ele>259.5</ele><time>2026-04-07T14:51:38.999Z</time></trkpt><trkpt lat="44.19882574953977" lon="9.620733206413144"><ele>257.0</ele><time>2026-04-07T14:51:39.999Z</time></trkpt><trkpt lat="44.19891771406668" lon="9.62088770935508"><ele>255.75</ele><time>2026-04-07T14:51:40.999Z</time></trkpt><trkpt lat="44.19901004062264" lon="9.621058226948431"><ele>254.5</ele><time>2026-04-07T14:51:41.999Z</time></trkpt><trkpt lat="44.199093241209205" lon="9.621201311254413"><ele>253.25</ele><time>2026-04-07T14:51:42.999Z</time></trkpt><trkpt lat="44.199151102954694" lon="9.621295009063136"><ele>252.0</ele><time>2026-04-07T14:51:43.999Z</time></trkpt><trkpt lat="44.19926819593907" lon="9.62134429833464"><ele>252.0</ele><time>2026-04-07T14:51:44.999Z</time></trkpt><trkpt lat="44.199399485195464" lon="9.621325731424367"><ele>252.0</ele><time>2026-04-07T14:51:45.999Z</time></trkpt><trkpt lat="44.19952572317698" lon="9.621266912457939"><ele>252.0</ele><time>2026-04-07T14:51:46.999Z</time></trkpt><trkpt lat="44.19965485713684" lon="9.62121744627878"><ele>252.0</ele><time>2026-04-07T14:51:47.999Z</time></trkpt><trkpt lat="44.19979214031288" lon="9.621188991555963"><ele>252.0</ele><time>2026-04-07T14:51:48.999Z</time></trkpt><trkpt lat="44.19993205757112" lon="9.621191233435079"><ele>252.0</ele><time>2026-04-07T14:51:49.999Z</time></trkpt><trkpt lat="44.20006156322687" lon="9.62116705160794"><ele>252.0</ele><time>2026-04-07T14:51:50.999Z</time></trkpt><trkpt lat="44.20017192736036" lon="9.621075001642465"><ele>252.0</ele><time>2026-04-07T14:51:51.999Z</time></trkpt><trkpt lat="44.20027174408472" lon="9.620917141842636"><ele>258.0</ele><time>2026-04-07T14:51:52.999Z</time></trkpt><trkpt lat="44.200371184375854" lon="9.620764017540445"><ele>264.0</ele><time>2026-04-07T14:51:53.999Z</time></trkpt><trkpt lat="44.200492262018635" lon="9.620679519969576"><ele>270.0</ele><time>2026-04-07T14:51:54.999Z</time></trkpt><trkpt lat="44.20061791541718" lon="9.620637854886"><ele>276.0</ele><time>2026-04-07T14:51:55.999Z</time></trkpt><trkpt lat="44.200747391284374" lon="9.620669083810226"><ele>276.0</ele><time>2026-04-07T14:51:56.999Z</time></trkpt><trkpt lat="44.200870845253085" lon="9.620741403339856"><ele>276.0</ele><time>2026-04-07T14:51:57.999Z</time></trkpt><trkpt lat="44.20097268083745" lon="9.620866607437279"><ele>276.0</ele><time>2026-04-07T14:51:58.999Z</time></trkpt><trkpt lat="44.20104449224263" lon="9.621030091678028"><ele>276.0</ele><time>2026-04-07T14:51:59.999Z</time></trkpt><trkpt lat="44.20108177604982" lon="9.621226330638756"><ele>271.75</ele><time>2026-04-07T14:52:00.999Z</time></trkpt><trkpt lat="44.20111083300382" lon="9.621429940391133"><ele>267.5</ele><time>2026-04-07T14:52:01.999Z</time></trkpt><trkpt lat="44.20115181719237" lon="9.621596371852545"><ele>263.25</ele><time>2026-04-07T14:52:02.999Z</time></trkpt><trkpt lat="44.20121767478695" lon="9.62173634982615"><ele>259.0</ele><time>2026-04-07T14:52:03.999Z</time></trkpt><trkpt lat="44.20135334887871" lon="9.621833572867681"><ele>259.0</ele><time>2026-04-07T14:52:04.999Z</time></trkpt><trkpt lat="44.201472142586255" lon="9.62193491446096"><ele>259.0</ele><time>2026-04-07T14:52:05.999Z</time></trkpt><trkpt lat="44.201548168717906" lon="9.622031335004841"><ele>259.0</ele><time>2026-04-07T14:52:06.999Z</time></trkpt><trkpt lat="44.20158485696594" lon="9.622195152441185"><ele>259.0</ele><time>2026-04-07T14:52:07.999Z</time></trkpt><trkpt lat="44.201618741725895" lon="9.622359405790712"><ele>265.75</ele><time>2026-04-07T14:52:08.999Z</time></trkpt><trkpt lat="44.20166280697913" lon="9.622528152506417"><ele>272.5</ele><time>2026-04-07T14:52:09.999Z</time></trkpt><trkpt lat="44.20168373465127" lon="9.622699796776566"><ele>279.25</ele><time>2026-04-07T14:52:10.999Z</time></trkpt><trkpt lat="44.20167746629215" lon="9.622845907287411"><ele>286.0</ele><time>2026-04-07T14:52:11.999Z</time></trkpt><trkpt lat="44.20162582746802" lon="9.622980525396937"><ele>283.75</ele><time>2026-04-07T14:52:12.999Z</time></trkpt><trkpt lat="44.20152271539793" lon="9.623057153774687"><ele>281.5</ele><time>2026-04-07T14:52:13.999Z</time></trkpt><trkpt lat="44.20139712685941" lon="9.62310224162676"><ele>279.25</ele><time>2026-04-07T14:52:14.999Z</time></trkpt><trkpt lat="44.201272916735086" lon="9.623162491507912"><ele>277.0</ele><time>2026-04-07T14:52:15.999Z</time></trkpt><trkpt lat="44.20114721065017" lon="9.623220435710845"><ele>277.0</ele><time>2026-04-07T14:52:16.999Z</time></trkpt><trkpt lat="44.20102670843207" lon="9.623309519162158"><ele>277.0</ele><time>2026-04-07T14:52:17.999Z</time></trkpt><trkpt lat="44.20090048127451" lon="9.62338676571961"><ele>277.0</ele><time>2026-04-07T14:52:18.999Z</time></trkpt><trkpt lat="44.200768381384236" lon="9.623461773820836"><ele>277.0</ele><time>2026-04-07T14:52:19.999Z</time></trkpt><trkpt lat="44.200650371554026" lon="9.623581907726086"><ele>272.75</ele><time>2026-04-07T14:52:20.999Z</time></trkpt><trkpt lat="44.20053638659799" lon="9.623731182445097"><ele>268.5</ele><time>2026-04-07T14:52:21.999Z</time></trkpt><trkpt lat="44.20044625401414" lon="9.623900114645702"><ele>264.25</ele><time>2026-04-07T14:52:22.999Z</time></trkpt><trkpt lat="44.2003886138894" lon="9.624026693849"><ele>260.0</ele><time>2026-04-07T14:52:23.999Z</time></trkpt><trkpt lat="44.20035730846117" lon="9.624125479261552"><ele>260.0</ele><time>2026-04-07T14:52:24.999Z</time></trkpt><trkpt lat="44.20037818119612" lon="9.624241508005444"><ele>260.0</ele><time>2026-04-07T14:52:25.999Z</time></trkpt><trkpt lat="44.200454321303816" lon="9.624349005793485"><ele>260.0</ele><time>2026-04-07T14:52:26.999Z</time></trkpt><trkpt lat="44.20054526507502" lon="9.624455984527685"><ele>260.0</ele><time>2026-04-07T14:52:27.999Z</time></trkpt><trkpt lat="44.20062108220382" lon="9.624600302879907"><ele>260.0</ele><time>2026-04-07T14:52:28.999Z</time></trkpt><trkpt lat="44.20070499744578" lon="9.624741065922024"><ele>262.2</ele><time>2026-04-07T14:52:29.999Z</time></trkpt><trkpt lat="44.2007710363367" lon="9.624856934914382"><ele>264.4</ele><time>2026-04-07T14:52:30.998Z</time></trkpt><trkpt lat="44.20081072932111" lon="9.624940726528365"><ele>266.6</ele><time>2026-04-07T14:52:31.998Z</time></trkpt><trkpt lat="44.20072135912475" lon="9.625081790189723"><ele>268.8</ele><time>2026-04-07T14:52:33.998Z</time></trkpt><trkpt lat="44.200615002143586" lon="9.625044656972618"><ele>271.0</ele><time>2026-04-07T14:52:34.998Z</time></trkpt><trkpt lat="44.20049516447463" lon="9.625074339186646"><ele>271.0</ele><time>2026-04-07T14:52:36Z</time></trkpt><trkpt lat="44.2003617332685" lon="9.625112026104917"><ele>271.0</ele><time>2026-04-07T14:52:37Z</time></trkpt><trkpt lat="44.20022619900086" lon="9.625183303925409"><ele>271.0</ele><time>2026-04-07T14:52:38Z</time></trkpt><trkpt lat="44.20010954381616" lon="9.625252566019256"><ele>271.0</ele><time>2026-04-07T14:52:39Z</time></trkpt><trkpt lat="44.200038886981254" lon="9.625318624116206"><ele>273.40000000000003</ele><time>2026-04-07T14:52:40Z</time></trkpt><trkpt lat="44.20002129811634" lon="9.625409397886154"><ele>275.8</ele><time>2026-04-07T14:52:41Z</time></trkpt><trkpt lat="44.200010358847116" lon="9.625522758184639"><ele>278.20000000000005</ele><time>2026-04-07T14:52:42Z</time></trkpt><trkpt lat="44.199988713351864" lon="9.625658585773271"><ele>280.6</ele><time>2026-04-07T14:52:43Z</time></trkpt><trkpt lat="44.199956223494276" lon="9.625768555781242"><ele>283.0</ele><time>2026-04-07T14:52:44Z</time></trkpt><trkpt lat="44.199827524987285" lon="9.625791580865904"><ele>283.0</ele><time>2026-04-07T14:52:46Z</time></trkpt><trkpt lat="44.199768287143115" lon="9.62567009535979"><ele>283.0</ele><time>2026-04-07T14:52:47Z</time></trkpt><trkpt lat="44.1996803395178" lon="9.62556291587107"><ele>283.0</ele><time>2026-04-07T14:52:48Z</time></trkpt><trkpt lat="44.19959218662913" lon="9.625429969779626"><ele>283.0</ele><time>2026-04-07T14:52:49Z</time></trkpt><trkpt lat="44.19950607520762" lon="9.625285110472069"><ele>278.0</ele><time>2026-04-07T14:52:50Z</time></trkpt><trkpt lat="44.19939340370176" lon="9.6251522215042"><ele>273.0</ele><time>2026-04-07T14:52:51Z</time></trkpt><trkpt lat="44.199296632769915" lon="9.625054902842853"><ele>268.0</ele><time>2026-04-07T14:52:52Z</time></trkpt><trkpt lat="44.19920246181312" lon="9.625002157074366"><ele>263.0</ele><time>2026-04-07T14:52:53Z</time></trkpt><trkpt lat="44.19909110121988" lon="9.624988655612288"><ele>258.75</ele><time>2026-04-07T14:52:54Z</time></trkpt><trkpt lat="44.19898863706875" lon="9.625040875137932"><ele>254.5</ele><time>2026-04-07T14:52:55Z</time></trkpt><trkpt lat="44.198888645801595" lon="9.625169182620963"><ele>250.25</ele><time>2026-04-07T14:52:56Z</time></trkpt><trkpt lat="44.19877973529075" lon="9.625301879126333"><ele>246.0</ele><time>2026-04-07T14:52:57Z</time></trkpt><trkpt lat="44.19867672256197" lon="9.625440902087918"><ele>246.0</ele><time>2026-04-07T14:52:58Z</time></trkpt><trkpt lat="44.19861187493881" lon="9.625565748175742"><ele>246.0</ele><time>2026-04-07T14:52:59Z</time></trkpt><trkpt lat="44.19857913500498" lon="9.625713346253256"><ele>246.0</ele><time>2026-04-07T14:53:00Z</time></trkpt><trkpt lat="44.19857989185077" lon="9.625885953153443"><ele>246.0</ele><time>2026-04-07T14:53:01Z</time></trkpt><trkpt lat="44.19860868154937" lon="9.62606682980282"><ele>250.20000000000002</ele><time>2026-04-07T14:53:02Z</time></trkpt><trkpt lat="44.19862608570163" lon="9.62619784949197"><ele>254.40000000000003</ele><time>2026-04-07T14:53:03Z</time></trkpt><trkpt lat="44.19863183807443" lon="9.62630230281362"><ele>258.6</ele><time>2026-04-07T14:53:04Z</time></trkpt><trkpt lat="44.198532014934756" lon="9.626434936885312"><ele>262.8</ele><time>2026-04-07T14:53:06Z</time></trkpt><trkpt lat="44.198422854737665" lon="9.626423199868395"><ele>267.0</ele><time>2026-04-07T14:53:07Z</time></trkpt><trkpt lat="44.19830072473156" lon="9.626405295685736"><ele>267.0</ele><time>2026-04-07T14:53:08Z</time></trkpt><trkpt lat="44.19820180804091" lon="9.626441090011955"><ele>267.0</ele><time>2026-04-07T14:53:09Z</time></trkpt><trkpt lat="44.19811409625656" lon="9.626532233997214"><ele>267.0</ele><time>2026-04-07T14:53:10Z</time></trkpt><trkpt lat="44.198058384115654" lon="9.626665862823707"><ele>267.0</ele><time>2026-04-07T14:53:11Z</time></trkpt><trkpt lat="44.1980272308455" lon="9.62679233508699"><ele>267.0</ele><time>2026-04-07T14:53:12Z</time></trkpt><trkpt lat="44.197978476860555" lon="9.62686341539901"><ele>262.6666666666667</ele><time>2026-04-07T14:53:13Z</time></trkpt><trkpt lat="44.19790927571345" lon="9.6268808986947"><ele>258.3333333333333</ele><time>2026-04-07T14:53:14Z</time></trkpt><trkpt lat="44.19783814956337" lon="9.626860610476585"><ele>254.0</ele><time>2026-04-07T14:53:16Z</time></trkpt><trkpt lat="44.19777378885237" lon="9.626880220402473"><ele>249.66666666666666</ele><time>2026-04-07T14:53:19Z</time></trkpt><trkpt lat="44.19770224176312" lon="9.62697700484711"><ele>245.33333333333331</ele><time>2026-04-07T14:53:20Z</time></trkpt><trkpt lat="44.19763558031174" lon="9.627112707181972"><ele>241.0</ele><time>2026-04-07T14:53:21Z</time></trkpt><trkpt lat="44.19760935790992" lon="9.62731400224829"><ele>241.0</ele><time>2026-04-07T14:53:22Z</time></trkpt><trkpt lat="44.19759049499257" lon="9.627508427861082"><ele>241.0</ele><time>2026-04-07T14:53:23Z</time></trkpt><trkpt lat="44.19759853597062" lon="9.62772505071295"><ele>241.0</ele><time>2026-04-07T14:53:24Z</time></trkpt><trkpt lat="44.19760661363108" lon="9.627942882289652"><ele>242.75</ele><time>2026-04-07T14:53:24.999Z</time></trkpt><trkpt lat="44.197618045131975" lon="9.628158321901712"><ele>244.5</ele><time>2026-04-07T14:53:25.999Z</time></trkpt><trkpt lat="44.19762448536805" lon="9.628339105931737"><ele>246.25</ele><time>2026-04-07T14:53:26.999Z</time></trkpt><trkpt lat="44.197589891230194" lon="9.628473109243185"><ele>248.0</ele><time>2026-04-07T14:53:27.999Z</time></trkpt><trkpt lat="44.197546967660124" lon="9.628595565407311"><ele>249.25</ele><time>2026-04-07T14:53:28.999Z</time></trkpt><trkpt lat="44.197447904119294" lon="9.628687306198662"><ele>250.5</ele><time>2026-04-07T14:53:29.999Z</time></trkpt><trkpt lat="44.19732502466294" lon="9.62871285325393"><ele>251.75</ele><time>2026-04-07T14:53:30.999Z</time></trkpt><trkpt lat="44.197193770184676" lon="9.628612085417409"><ele>253.0</ele><time>2026-04-07T14:53:31.999Z</time></trkpt><trkpt lat="44.19704020001104" lon="9.628526050881678"><ele>244.33333333333331</ele><time>2026-04-07T14:53:32.999Z</time></trkpt><trkpt lat="44.19687053836892" lon="9.628428763950875"><ele>235.66666666666669</ele><time>2026-04-07T14:53:33.999Z</time></trkpt><trkpt lat="44.19670029507071" lon="9.628391772252925"><ele>227.0</ele><time>2026-04-07T14:53:34.999Z</time></trkpt><trkpt lat="44.19650685254131" lon="9.628378533511714"><ele>229.66666666666669</ele><time>2026-04-07T14:53:35.999Z</time></trkpt><trkpt lat="44.19631297752383" lon="9.628374568445018"><ele>232.33333333333331</ele><time>2026-04-07T14:53:36.999Z</time></trkpt><trkpt lat="44.19611574384284" lon="9.628358678622002"><ele>235.0</ele><time>2026-04-07T14:53:37.999Z</time></trkpt><trkpt lat="44.19593971663452" lon="9.628324782655993"><ele>235.0</ele><time>2026-04-07T14:53:38.999Z</time></trkpt><trkpt lat="44.1957844296511" lon="9.628232767689155"><ele>235.0</ele><time>2026-04-07T14:53:39.999Z</time></trkpt><trkpt lat="44.1956466306594" lon="9.628073247212292"><ele>235.0</ele><time>2026-04-07T14:53:40.999Z</time></trkpt><trkpt lat="44.19549782191557" lon="9.627905147697295"><ele>229.0</ele><time>2026-04-07T14:53:41.999Z</time></trkpt><trkpt lat="44.195394621643906" lon="9.627760623286528"><ele>223.0</ele><time>2026-04-07T14:53:42.999Z</time></trkpt><trkpt lat="44.195302064109896" lon="9.627630543716458"><ele>217.0</ele><time>2026-04-07T14:53:43.999Z</time></trkpt><trkpt lat="44.19520545739059" lon="9.627506341463054"><ele>211.0</ele><time>2026-04-07T14:53:44.999Z</time></trkpt><trkpt lat="44.19511258795845" lon="9.627400848251837"><ele>211.0</ele><time>2026-04-07T14:53:45.999Z</time></trkpt><trkpt lat="44.19501745268829" lon="9.627346995209908"><ele>211.0</ele><time>2026-04-07T14:53:46.999Z</time></trkpt><trkpt lat="44.19493317752841" lon="9.627324478905477"><ele>211.0</ele><time>2026-04-07T14:53:47.999Z</time></trkpt><trkpt lat="44.19480630563198" lon="9.627367294284994"><ele>211.0</ele><time>2026-04-07T14:53:48.999Z</time></trkpt><trkpt lat="44.194688129419205" lon="9.627461189248452"><ele>205.0</ele><time>2026-04-07T14:53:49.999Z</time></trkpt><trkpt lat="44.19455811674027" lon="9.627561483133125"><ele>199.0</ele><time>2026-04-07T14:53:50.999Z</time></trkpt><trkpt lat="44.19442135878577" lon="9.62763495450151"><ele>193.0</ele><time>2026-04-07T14:53:51.999Z</time></trkpt><trkpt lat="44.19427140805112" lon="9.627697656559695"><ele>193.0</ele><time>2026-04-07T14:53:52.999Z</time></trkpt><trkpt lat="44.194159771482425" lon="9.627749200927362"><ele>193.0</ele><time>2026-04-07T14:53:53.999Z</time></trkpt><trkpt lat="44.19406405476653" lon="9.627856659094464"><ele>193.0</ele><time>2026-04-07T14:53:54.999Z</time></trkpt><trkpt lat="44.19397431238329" lon="9.628022829385866"><ele>193.0</ele><time>2026-04-07T14:53:55.999Z</time></trkpt><trkpt lat="44.19388838463403" lon="9.628196785356439"><ele>193.25</ele><time>2026-04-07T14:53:56.999Z</time></trkpt><trkpt lat="44.19383368165554" lon="9.6283368456082"><ele>193.5</ele><time>2026-04-07T14:53:57.999Z</time></trkpt><trkpt lat="44.193762475705086" lon="9.628482446787174"><ele>193.75</ele><time>2026-04-07T14:53:58.999Z</time></trkpt><trkpt lat="44.193669335204774" lon="9.628570118850288"><ele>194.0</ele><time>2026-04-07T14:53:59.999Z</time></trkpt><trkpt lat="44.19355604722683" lon="9.628599992747345"><ele>194.0</ele><time>2026-04-07T14:54:00.999Z</time></trkpt><trkpt lat="44.19343656178228" lon="9.628545177653157"><ele>194.0</ele><time>2026-04-07T14:54:01.999Z</time></trkpt><trkpt lat="44.19332511781047" lon="9.628397398351831"><ele>194.0</ele><time>2026-04-07T14:54:02.999Z</time></trkpt><trkpt lat="44.1932352409242" lon="9.628308476937686"><ele>194.0</ele><time>2026-04-07T14:54:03.999Z</time></trkpt><trkpt lat="44.193124631176154" lon="9.628280349503962"><ele>191.0</ele><time>2026-04-07T14:54:04.999Z</time></trkpt><trkpt lat="44.1929857352145" lon="9.62834224663211"><ele>188.0</ele><time>2026-04-07T14:54:05.999Z</time></trkpt><trkpt lat="44.192841506427676" lon="9.628433335789802"><ele>185.0</ele><time>2026-04-07T14:54:06.999Z</time></trkpt><trkpt lat="44.19268220360769" lon="9.628508400957655"><ele>185.0</ele><time>2026-04-07T14:54:07.999Z</time></trkpt><trkpt lat="44.19249286723396" lon="9.628582830722717"><ele>185.0</ele><time>2026-04-07T14:54:08.999Z</time></trkpt><trkpt lat="44.19234027088042" lon="9.628645804780279"><ele>185.0</ele><time>2026-04-07T14:54:09.999Z</time></trkpt><trkpt lat="44.19219764617837" lon="9.62867644256321"><ele>184.5</ele><time>2026-04-07T14:54:10.999Z</time></trkpt><trkpt lat="44.192070992986466" lon="9.628682106954512"><ele>184.0</ele><time>2026-04-07T14:54:11.999Z</time></trkpt><trkpt lat="44.191955594268414" lon="9.62864857589613"><ele>183.5</ele><time>2026-04-07T14:54:12.999Z</time></trkpt><trkpt lat="44.1918390540454" lon="9.628569886031912"><ele>183.0</ele><time>2026-04-07T14:54:13.999Z</time></trkpt><trkpt lat="44.19176163901459" lon="9.62843043008115"><ele>183.0</ele><time>2026-04-07T14:54:14.999Z</time></trkpt><trkpt lat="44.19168807356045" lon="9.628302620188988"><ele>183.0</ele><time>2026-04-07T14:54:15.999Z</time></trkpt><trkpt lat="44.19160219958113" lon="9.628175401977385"><ele>183.0</ele><time>2026-04-07T14:54:16.999Z</time></trkpt><trkpt lat="44.19151442035729" lon="9.62811809019561"><ele>183.0</ele><time>2026-04-07T14:54:17.999Z</time></trkpt><trkpt lat="44.19141710910782" lon="9.62813539659979"><ele>183.0</ele><time>2026-04-07T14:54:18.999Z</time></trkpt><trkpt lat="44.1913218518855" lon="9.628229278255779"><ele>183.2</ele><time>2026-04-07T14:54:19.999Z</time></trkpt><trkpt lat="44.19124498889704" lon="9.628360675632116"><ele>183.4</ele><time>2026-04-07T14:54:20.999Z</time></trkpt><trkpt lat="44.19117359277299" lon="9.628472144145027"><ele>183.6</ele><time>2026-04-07T14:54:21.999Z</time></trkpt><trkpt lat="44.19108425214366" lon="9.628538591648491"><ele>183.79999999999998</ele><time>2026-04-07T14:54:22.999Z</time></trkpt><trkpt lat="44.19098849735047" lon="9.628542722840516"><ele>184.0</ele><time>2026-04-07T14:54:23.999Z</time></trkpt><trkpt lat="44.19088571810235" lon="9.628459407810595"><ele>184.0</ele><time>2026-04-07T14:54:24.999Z</time></trkpt><trkpt lat="44.19081902825648" lon="9.628313426322222"><ele>184.0</ele><time>2026-04-07T14:54:25.999Z</time></trkpt><trkpt lat="44.19073472289724" lon="9.628151065019912"><ele>184.0</ele><time>2026-04-07T14:54:26.999Z</time></trkpt><trkpt lat="44.190656593616524" lon="9.62799555321086"><ele>184.0</ele><time>2026-04-07T14:54:27.999Z</time></trkpt><trkpt lat="44.19056605446498" lon="9.627880339934821"><ele>183.0</ele><time>2026-04-07T14:54:28.998Z</time></trkpt><trkpt lat="44.19047016579534" lon="9.627802753816521"><ele>182.0</ele><time>2026-04-07T14:54:29.998Z</time></trkpt><trkpt lat="44.190354035803075" lon="9.627814472980901"><ele>181.0</ele><time>2026-04-07T14:54:30.998Z</time></trkpt><trkpt lat="44.19022633995365" lon="9.627893858029296"><ele>180.0</ele><time>2026-04-07T14:54:31.998Z</time></trkpt><trkpt lat="44.19011404014749" lon="9.627963275482186"><ele>180.0</ele><time>2026-04-07T14:54:32.998Z</time></trkpt><trkpt lat="44.18999173898788" lon="9.627960729723474"><ele>180.0</ele><time>2026-04-07T14:54:33.998Z</time></trkpt><trkpt lat="44.189886066431114" lon="9.62787837634893"><ele>180.0</ele><time>2026-04-07T14:54:34.998Z</time></trkpt><trkpt lat="44.18976960452688" lon="9.627757790327216"><ele>180.0</ele><time>2026-04-07T14:54:35.998Z</time></trkpt><trkpt lat="44.18968396849049" lon="9.627636188255092"><ele>178.5</ele><time>2026-04-07T14:54:36.998Z</time></trkpt><trkpt lat="44.18955567429597" lon="9.627596778300846"><ele>177.0</ele><time>2026-04-07T14:54:37.998Z</time></trkpt><trkpt lat="44.189415430821455" lon="9.627583373542196"><ele>175.5</ele><time>2026-04-07T14:54:38.998Z</time></trkpt><trkpt lat="44.18929536601224" lon="9.627518512025699"><ele>174.0</ele><time>2026-04-07T14:54:39.998Z</time></trkpt><trkpt lat="44.18918894226173" lon="9.627375121018055"><ele>174.0</ele><time>2026-04-07T14:54:40.998Z</time></trkpt><trkpt lat="44.189099566694516" lon="9.627221559844669"><ele>174.0</ele><time>2026-04-07T14:54:42Z</time></trkpt><trkpt lat="44.18899715879006" lon="9.627111074341062"><ele>174.0</ele><time>2026-04-07T14:54:43Z</time></trkpt><trkpt lat="44.18886647024237" lon="9.62703724136796"><ele>174.0</ele><time>2026-04-07T14:54:44Z</time></trkpt><trkpt lat="44.18873704583492" lon="9.626968614341513"><ele>171.75</ele><time>2026-04-07T14:54:45Z</time></trkpt><trkpt lat="44.18862124350954" lon="9.626878240395971"><ele>169.5</ele><time>2026-04-07T14:54:46Z</time></trkpt><trkpt lat="44.18852339784267" lon="9.626753523321357"><ele>167.25</ele><time>2026-04-07T14:54:47Z</time></trkpt><trkpt lat="44.18845478239834" lon="9.626605659550478"><ele>165.0</ele><time>2026-04-07T14:54:48Z</time></trkpt><trkpt lat="44.18838016618126" lon="9.626476013400747"><ele>165.0</ele><time>2026-04-07T14:54:49Z</time></trkpt><trkpt lat="44.18829373552767" lon="9.626394361675262"><ele>165.0</ele><time>2026-04-07T14:54:50Z</time></trkpt><trkpt lat="44.18818692908007" lon="9.62636028418567"><ele>165.0</ele><time>2026-04-07T14:54:51Z</time></trkpt><trkpt lat="44.188077082937745" lon="9.62632730876249"><ele>165.0</ele><time>2026-04-07T14:54:52Z</time></trkpt><trkpt lat="44.187961982821975" lon="9.626290839956809"><ele>165.0</ele><time>2026-04-07T14:54:53Z</time></trkpt><trkpt lat="44.18785215784578" lon="9.626243041358423"><ele>164.25</ele><time>2026-04-07T14:54:54Z</time></trkpt><trkpt lat="44.18773903201379" lon="9.626191658639108"><ele>163.5</ele><time>2026-04-07T14:54:55Z</time></trkpt><trkpt lat="44.18763070265979" lon="9.62612972811977"><ele>162.75</ele><time>2026-04-07T14:54:56Z</time></trkpt><trkpt lat="44.187540717650805" lon="9.626021023287388"><ele>162.0</ele><time>2026-04-07T14:54:57Z</time></trkpt><trkpt lat="44.18744879578946" lon="9.62594079466244"><ele>159.4</ele><time>2026-04-07T14:54:58Z</time></trkpt><trkpt lat="44.187370261418316" lon="9.625841333602468"><ele>156.79999999999998</ele><time>2026-04-07T14:54:59Z</time></trkpt><trkpt lat="44.187292360123834" lon="9.625747674748434"><ele>154.2</ele><time>2026-04-07T14:55:00Z</time></trkpt><trkpt lat="44.1872301919492" lon="9.625638776164934"><ele>151.6</ele><time>2026-04-07T14:55:01Z</time></trkpt><trkpt lat="44.18718287285711" lon="9.625515034270958"><ele>149.0</ele><time>2026-04-07T14:55:02Z</time></trkpt><trkpt lat="44.187147008661114" lon="9.625390363258862"><ele>148.2</ele><time>2026-04-07T14:55:03Z</time></trkpt><trkpt lat="44.18709812384669" lon="9.625264883705146"><ele>147.4</ele><time>2026-04-07T14:55:04Z</time></trkpt><trkpt lat="44.18701242182812" lon="9.625179864700927"><ele>146.6</ele><time>2026-04-07T14:55:05Z</time></trkpt><trkpt lat="44.18691343200162" lon="9.625120400166862"><ele>145.8</ele><time>2026-04-07T14:55:06Z</time></trkpt><trkpt lat="44.18681017762235" lon="9.625089177720424"><ele>145.0</ele><time>2026-04-07T14:55:07Z</time></trkpt><trkpt lat="44.186705343387274" lon="9.62507150335379"><ele>145.0</ele><time>2026-04-07T14:55:08Z</time></trkpt><trkpt lat="44.18661047666328" lon="9.625016184586014"><ele>145.0</ele><time>2026-04-07T14:55:09Z</time></trkpt><trkpt lat="44.186535324884105" lon="9.624914062341468"><ele>145.0</ele><time>2026-04-07T14:55:10Z</time></trkpt><trkpt lat="44.186473248712744" lon="9.624785654448479"><ele>145.0</ele><time>2026-04-07T14:55:11Z</time></trkpt><trkpt lat="44.1864393738309" lon="9.624659177577593"><ele>145.0</ele><time>2026-04-07T14:55:12Z</time></trkpt><trkpt lat="44.18641728655469" lon="9.624532521269504"><ele>146.0</ele><time>2026-04-07T14:55:13Z</time></trkpt><trkpt lat="44.18638459111615" lon="9.624413646216885"><ele>147.0</ele><time>2026-04-07T14:55:14Z</time></trkpt><trkpt lat="44.18632810439358" lon="9.624317499396899"><ele>148.0</ele><time>2026-04-07T14:55:15Z</time></trkpt><trkpt lat="44.18626015616211" lon="9.62424022290697"><ele>149.0</ele><time>2026-04-07T14:55:16Z</time></trkpt><trkpt lat="44.186193618937025" lon="9.624157832254294"><ele>150.0</ele><time>2026-04-07T14:55:17Z</time></trkpt><trkpt lat="44.18614144231515" lon="9.624077090207985"><ele>151.0</ele><time>2026-04-07T14:55:18Z</time></trkpt><trkpt lat="44.18610803742988" lon="9.62399218965328"><ele>151.0</ele><time>2026-04-07T14:55:19Z</time></trkpt><trkpt lat="44.18609571419866" lon="9.62390153025001"><ele>151.0</ele><time>2026-04-07T14:55:20Z</time></trkpt><trkpt lat="44.18610568038517" lon="9.623811888423702"><ele>151.0</ele><time>2026-04-07T14:55:21Z</time></trkpt><trkpt lat="44.186181010075714" lon="9.623686888858154"><ele>151.0</ele><time>2026-04-07T14:55:23Z</time></trkpt><trkpt lat="44.1862460543797" lon="9.62368377075573"><ele>151.0</ele><time>2026-04-07T14:55:24Z</time></trkpt><trkpt lat="44.18630639182878" lon="9.62371386895437"><ele>151.0</ele><time>2026-04-07T14:55:25Z</time></trkpt><trkpt lat="44.186369396617295" lon="9.623786123547577"><ele>151.0</ele><time>2026-04-07T14:55:26Z</time></trkpt><trkpt lat="44.186397574201614" lon="9.623929111340923"><ele>151.0</ele><time>2026-04-07T14:55:27Z</time></trkpt><trkpt lat="44.186441508701435" lon="9.62405905863139"><ele>151.0</ele><time>2026-04-07T14:55:28Z</time></trkpt><trkpt lat="44.18645698710954" lon="9.624198422958951"><ele>151.0</ele><time>2026-04-07T14:55:28.999Z</time></trkpt><trkpt lat="44.186499192422275" lon="9.624335600412573"><ele>151.0</ele><time>2026-04-07T14:55:29.999Z</time></trkpt><trkpt lat="44.186544899455974" lon="9.624452053508596"><ele>149.8</ele><time>2026-04-07T14:55:30.999Z</time></trkpt><trkpt lat="44.18659809053408" lon="9.624562036886475"><ele>148.6</ele><time>2026-04-07T14:55:31.999Z</time></trkpt><trkpt lat="44.18665419794331" lon="9.624658953387458"><ele>147.4</ele><time>2026-04-07T14:55:32.999Z</time></trkpt><trkpt lat="44.18672505276391" lon="9.624744914438324"><ele>146.2</ele><time>2026-04-07T14:55:33.999Z</time></trkpt><trkpt lat="44.186811977309354" lon="9.624775747649773"><ele>145.0</ele><time>2026-04-07T14:55:34.999Z</time></trkpt><trkpt lat="44.18692961586294" lon="9.624767956283433"><ele>145.0</ele><time>2026-04-07T14:55:35.999Z</time></trkpt><trkpt lat="44.187036136111665" lon="9.624752111825895"><ele>145.0</ele><time>2026-04-07T14:55:36.999Z</time></trkpt><trkpt lat="44.18713413278701" lon="9.624718080526568"><ele>145.0</ele><time>2026-04-07T14:55:37.999Z</time></trkpt><trkpt lat="44.187223897954844" lon="9.624657749053425"><ele>145.0</ele><time>2026-04-07T14:55:38.999Z</time></trkpt><trkpt lat="44.18733107300944" lon="9.62463354547469"><ele>145.0</ele><time>2026-04-07T14:55:39.999Z</time></trkpt><trkpt lat="44.18742849304365" lon="9.624659079893343"><ele>141.8</ele><time>2026-04-07T14:55:40.999Z</time></trkpt><trkpt lat="44.187521087449824" lon="9.624707147261137"><ele>138.6</ele><time>2026-04-07T14:55:41.999Z</time></trkpt><trkpt lat="44.18759588183192" lon="9.624777306116782"><ele>135.4</ele><time>2026-04-07T14:55:42.999Z</time></trkpt><trkpt lat="44.187634603046185" lon="9.624876563315688"><ele>132.2</ele><time>2026-04-07T14:55:43.999Z</time></trkpt><trkpt lat="44.18768109732735" lon="9.625004072417482"><ele>129.0</ele><time>2026-04-07T14:55:44.999Z</time></trkpt><trkpt lat="44.187738127829434" lon="9.625121724155221"><ele>129.0</ele><time>2026-04-07T14:55:45.999Z</time></trkpt><trkpt lat="44.18779001646093" lon="9.625224710755782"><ele>129.0</ele><time>2026-04-07T14:55:46.999Z</time></trkpt><trkpt lat="44.18785990441713" lon="9.625307777175584"><ele>129.0</ele><time>2026-04-07T14:55:47.999Z</time></trkpt><trkpt lat="44.18795193142303" lon="9.625349877272027"><ele>129.0</ele><time>2026-04-07T14:55:48.999Z</time></trkpt><trkpt lat="44.188033676086" lon="9.6253789379925"><ele>129.0</ele><time>2026-04-07T14:55:49.999Z</time></trkpt><trkpt lat="44.188123631776534" lon="9.625386059086965"><ele>130.5</ele><time>2026-04-07T14:55:50.999Z</time></trkpt><trkpt lat="44.18821557365292" lon="9.625358046154135"><ele>132.0</ele><time>2026-04-07T14:55:51.999Z</time></trkpt><trkpt lat="44.18829910761073" lon="9.625317391460728"><ele>133.5</ele><time>2026-04-07T14:55:52.999Z</time></trkpt><trkpt lat="44.18837798339594" lon="9.62527111456822"><ele>135.0</ele><time>2026-04-07T14:55:53.999Z</time></trkpt><trkpt lat="44.18845663852863" lon="9.625231461342906"><ele>136.5</ele><time>2026-04-07T14:55:54.999Z</time></trkpt><trkpt lat="44.18853330251768" lon="9.625195791481142"><ele>138.0</ele><time>2026-04-07T14:55:55.999Z</time></trkpt><trkpt lat="44.188617609176625" lon="9.625181055297901"><ele>138.0</ele><time>2026-04-07T14:55:56.999Z</time></trkpt><trkpt lat="44.18870322044227" lon="9.625200473377234"><ele>138.0</ele><time>2026-04-07T14:55:57.999Z</time></trkpt><trkpt lat="44.18878444691818" lon="9.625252865803477"><ele>138.0</ele><time>2026-04-07T14:55:58.999Z</time></trkpt><trkpt lat="44.18886284684705" lon="9.625327840402324"><ele>138.0</ele><time>2026-04-07T14:55:59.999Z</time></trkpt><trkpt lat="44.188925291505456" lon="9.62542093788255"><ele>138.0</ele><time>2026-04-07T14:56:00.999Z</time></trkpt><trkpt lat="44.188947863456576" lon="9.625542431197893"><ele>138.0</ele><time>2026-04-07T14:56:01.999Z</time></trkpt><trkpt lat="44.18896050019095" lon="9.625680368577136"><ele>138.0</ele><time>2026-04-07T14:56:02.999Z</time></trkpt><trkpt lat="44.1889880687877" lon="9.625795282451172"><ele>138.0</ele><time>2026-04-07T14:56:03.999Z</time></trkpt><trkpt lat="44.18902097490248" lon="9.62590876319035"><ele>138.0</ele><time>2026-04-07T14:56:04.999Z</time></trkpt><trkpt lat="44.189072867721606" lon="9.626012427236203"><ele>138.0</ele><time>2026-04-07T14:56:05.999Z</time></trkpt><trkpt lat="44.189129157448946" lon="9.626085679842937"><ele>138.0</ele><time>2026-04-07T14:56:06.999Z</time></trkpt><trkpt lat="44.18920848473841" lon="9.626152490708197"><ele>138.0</ele><time>2026-04-07T14:56:07.999Z</time></trkpt><trkpt lat="44.18929550441863" lon="9.62617329314961"><ele>138.0</ele><time>2026-04-07T14:56:08.999Z</time></trkpt><trkpt lat="44.189368396835015" lon="9.626210330075958"><ele>138.0</ele><time>2026-04-07T14:56:09.999Z</time></trkpt><trkpt lat="44.189448673718104" lon="9.626235412174374"><ele>138.0</ele><time>2026-04-07T14:56:10.999Z</time></trkpt><trkpt lat="44.18954584710955" lon="9.626232967758424"><ele>138.0</ele><time>2026-04-07T14:56:11.999Z</time></trkpt><trkpt lat="44.18962665746192" lon="9.626227704753147"><ele>138.0</ele><time>2026-04-07T14:56:12.999Z</time></trkpt><trkpt lat="44.18972436379617" lon="9.626211293978983"><ele>138.0</ele><time>2026-04-07T14:56:13.999Z</time></trkpt><trkpt lat="44.189836395202" lon="9.62618578543664"><ele>138.0</ele><time>2026-04-07T14:56:14.999Z</time></trkpt><trkpt lat="44.189952973685465" lon="9.626165601928454"><ele>138.0</ele><time>2026-04-07T14:56:15.999Z</time></trkpt><trkpt lat="44.19006644999023" lon="9.626151096108847"><ele>138.0</ele><time>2026-04-07T14:56:16.999Z</time></trkpt><trkpt lat="44.190174981817215" lon="9.626147561962895"><ele>129.6</ele><time>2026-04-07T14:56:17.999Z</time></trkpt><trkpt lat="44.190280579630254" lon="9.626138289785008"><ele>121.20000000000002</ele><time>2026-04-07T14:56:18.999Z</time></trkpt><trkpt lat="44.19039982541315" lon="9.626135723816297"><ele>112.8</ele><time>2026-04-07T14:56:19.999Z</time></trkpt><trkpt lat="44.19051527537345" lon="9.626134169373772"><ele>104.4</ele><time>2026-04-07T14:56:20.999Z</time></trkpt><trkpt lat="44.19062340381165" lon="9.626127062765345"><ele>96.0</ele><time>2026-04-07T14:56:21.999Z</time></trkpt><trkpt lat="44.19073621925555" lon="9.626139497634083"><ele>95.8</ele><time>2026-04-07T14:56:22.999Z</time></trkpt><trkpt lat="44.190840918984826" lon="9.626150165312252"><ele>95.6</ele><time>2026-04-07T14:56:23.999Z</time></trkpt><trkpt lat="44.19094655624473" lon="9.626169227625482"><ele>95.4</ele><time>2026-04-07T14:56:24.999Z</time></trkpt><trkpt lat="44.19105034335863" lon="9.626184930739042"><ele>95.2</ele><time>2026-04-07T14:56:25.999Z</time></trkpt><trkpt lat="44.19114515527577" lon="9.626166117005774"><ele>95.0</ele><time>2026-04-07T14:56:26.999Z</time></trkpt><trkpt lat="44.19124307292482" lon="9.626142558132374"><ele>95.0</ele><time>2026-04-07T14:56:27.999Z</time></trkpt><trkpt lat="44.1913339617977" lon="9.626112801456898"><ele>95.0</ele><time>2026-04-07T14:56:28.999Z</time></trkpt><trkpt lat="44.19142087847061" lon="9.626121687258523"><ele>95.0</ele><time>2026-04-07T14:56:29.999Z</time></trkpt><trkpt lat="44.19151081187464" lon="9.626135483072886"><ele>95.0</ele><time>2026-04-07T14:56:30.999Z</time></trkpt><trkpt lat="44.191598188871296" lon="9.626159116133396"><ele>95.0</ele><time>2026-04-07T14:56:31.999Z</time></trkpt><trkpt lat="44.191677862724305" lon="9.626187087332891"><ele>95.0</ele><time>2026-04-07T14:56:32.998Z</time></trkpt><trkpt lat="44.19175308857827" lon="9.626198243298195"><ele>95.5</ele><time>2026-04-07T14:56:33.998Z</time></trkpt><trkpt lat="44.1918289868499" lon="9.626181678607638"><ele>96.0</ele><time>2026-04-07T14:56:34.998Z</time></trkpt><trkpt lat="44.19188184652227" lon="9.626124849961242"><ele>96.5</ele><time>2026-04-07T14:56:35.998Z</time></trkpt><trkpt lat="44.19189984120148" lon="9.62603073454634"><ele>97.0</ele><time>2026-04-07T14:56:36.998Z</time></trkpt><trkpt lat="44.19188317128411" lon="9.625923304446529"><ele>97.49999999999999</ele><time>2026-04-07T14:56:37.998Z</time></trkpt><trkpt lat="44.19182887875083" lon="9.625846384899692"><ele>98.0</ele><time>2026-04-07T14:56:38.998Z</time></trkpt><trkpt lat="44.191752336281304" lon="9.625785517430117"><ele>98.0</ele><time>2026-04-07T14:56:39.998Z</time></trkpt><trkpt lat="44.19164351402558" lon="9.625828135168673"><ele>98.0</ele><time>2026-04-07T14:56:40.998Z</time></trkpt><trkpt lat="44.19154050167254" lon="9.625881413725471"><ele>98.0</ele><time>2026-04-07T14:56:41.998Z</time></trkpt><trkpt lat="44.191439942563015" lon="9.625912336841527"><ele>98.0</ele><time>2026-04-07T14:56:42.998Z</time></trkpt><trkpt lat="44.19133903927572" lon="9.625917819681106"><ele>98.0</ele><time>2026-04-07T14:56:43.998Z</time></trkpt><trkpt lat="44.191232494706654" lon="9.625909268251887"><ele>97.25</ele><time>2026-04-07T14:56:44.998Z</time></trkpt><trkpt lat="44.191120557021854" lon="9.625868391989666"><ele>96.5</ele><time>2026-04-07T14:56:45.998Z</time></trkpt><trkpt lat="44.190995413809375" lon="9.625850970313966"><ele>95.75</ele><time>2026-04-07T14:56:46.998Z</time></trkpt><trkpt lat="44.19085843986227" lon="9.625825666680896"><ele>95.0</ele><time>2026-04-07T14:56:48Z</time></trkpt><trkpt lat="44.19073359505947" lon="9.625814129419844"><ele>95.25</ele><time>2026-04-07T14:56:49Z</time></trkpt><trkpt lat="44.19061129876525" lon="9.625803888753577"><ele>95.5</ele><time>2026-04-07T14:56:50Z</time></trkpt><trkpt lat="44.19049413926451" lon="9.625802722522934"><ele>95.75</ele><time>2026-04-07T14:56:51Z</time></trkpt><trkpt lat="44.19037619490133" lon="9.62577536064961"><ele>96.0</ele><time>2026-04-07T14:56:52Z</time></trkpt><trkpt lat="44.19026115723697" lon="9.625740219349632"><ele>96.0</ele><time>2026-04-07T14:56:53Z</time></trkpt><trkpt lat="44.19014453076169" lon="9.625702637396728"><ele>96.0</ele><time>2026-04-07T14:56:54Z</time></trkpt><trkpt lat="44.190047643488064" lon="9.625659069174889"><ele>96.0</ele><time>2026-04-07T14:56:55Z</time></trkpt><trkpt lat="44.18995104396366" lon="9.625624219254176"><ele>96.0</ele><time>2026-04-07T14:56:56Z</time></trkpt><trkpt lat="44.18985362204184" lon="9.62559455268898"><ele>96.0</ele><time>2026-04-07T14:56:57Z</time></trkpt><trkpt lat="44.18975855474531" lon="9.625567251883476"><ele>95.19999999999999</ele><time>2026-04-07T14:56:58Z</time></trkpt><trkpt lat="44.18966429094571" lon="9.625533765723327"><ele>94.39999999999999</ele><time>2026-04-07T14:56:59Z</time></trkpt><trkpt lat="44.18956882337536" lon="9.625489154963384"><ele>93.6</ele><time>2026-04-07T14:57:00Z</time></trkpt><trkpt lat="44.189487934456885" lon="9.625412951330595"><ele>92.8</ele><time>2026-04-07T14:57:01Z</time></trkpt><trkpt lat="44.189431324488545" lon="9.625311365536241"><ele>92.0</ele><time>2026-04-07T14:57:02Z</time></trkpt><trkpt lat="44.189391000402296" lon="9.625177226744285"><ele>92.0</ele><time>2026-04-07T14:57:03Z</time></trkpt><trkpt lat="44.189350963278" lon="9.625046499306833"><ele>92.0</ele><time>2026-04-07T14:57:04Z</time></trkpt><trkpt lat="44.18929659080701" lon="9.62493504364069"><ele>92.0</ele><time>2026-04-07T14:57:05Z</time></trkpt><trkpt lat="44.189238412522734" lon="9.62484390033428"><ele>92.0</ele><time>2026-04-07T14:57:06Z</time></trkpt><trkpt lat="44.18917763118429" lon="9.624754968190848"><ele>92.0</ele><time>2026-04-07T14:57:07Z</time></trkpt><trkpt lat="44.18911312185627" lon="9.624671074881057"><ele>92.0</ele><time>2026-04-07T14:57:08Z</time></trkpt><trkpt lat="44.18904210918428" lon="9.624592487517619"><ele>92.0</ele><time>2026-04-07T14:57:09Z</time></trkpt><trkpt lat="44.18898085925422" lon="9.624517454068393"><ele>92.0</ele><time>2026-04-07T14:57:10Z</time></trkpt><trkpt lat="44.188893896956166" lon="9.624446693464686"><ele>92.0</ele><time>2026-04-07T14:57:11Z</time></trkpt><trkpt lat="44.188805543754505" lon="9.624378661701106"><ele>92.0</ele><time>2026-04-07T14:57:12Z</time></trkpt><trkpt lat="44.18872726518194" lon="9.624303564261213"><ele>90.39999999999999</ele><time>2026-04-07T14:57:13Z</time></trkpt><trkpt lat="44.18864208753864" lon="9.624232727963278"><ele>88.8</ele><time>2026-04-07T14:57:14Z</time></trkpt><trkpt lat="44.18854867803646" lon="9.624153572539374"><ele>87.2</ele><time>2026-04-07T14:57:15Z</time></trkpt><trkpt lat="44.18848778809246" lon="9.624033441874614"><ele>85.6</ele><time>2026-04-07T14:57:16Z</time></trkpt><trkpt lat="44.18840062114663" lon="9.62391184764939"><ele>84.0</ele><time>2026-04-07T14:57:17Z</time></trkpt><trkpt lat="44.18831632291588" lon="9.623786251199155"><ele>84.0</ele><time>2026-04-07T14:57:18Z</time></trkpt><trkpt lat="44.18825106184686" lon="9.62365470580491"><ele>84.0</ele><time>2026-04-07T14:57:19Z</time></trkpt><trkpt lat="44.188169194820595" lon="9.623536568163154"><ele>84.0</ele><time>2026-04-07T14:57:20Z</time></trkpt><trkpt lat="44.18809629032546" lon="9.623413038372039"><ele>84.0</ele><time>2026-04-07T14:57:21Z</time></trkpt><trkpt lat="44.18802992251141" lon="9.623294004280664"><ele>85.2</ele><time>2026-04-07T14:57:22Z</time></trkpt><trkpt lat="44.18796304394562" lon="9.623181423598597"><ele>86.4</ele><time>2026-04-07T14:57:23Z</time></trkpt><trkpt lat="44.18788258912913" lon="9.623083991859339"><ele>87.6</ele><time>2026-04-07T14:57:24Z</time></trkpt><trkpt lat="44.18784098784428" lon="9.622967785977885"><ele>88.8</ele><time>2026-04-07T14:57:25Z</time></trkpt><trkpt lat="44.18781555770927" lon="9.622840311087511"><ele>90.0</ele><time>2026-04-07T14:57:26Z</time></trkpt><trkpt lat="44.18780774864146" lon="9.622706142975824"><ele>87.0</ele><time>2026-04-07T14:57:27Z</time></trkpt><trkpt lat="44.18781628315139" lon="9.622580158223572"><ele>84.0</ele><time>2026-04-07T14:57:28Z</time></trkpt><trkpt lat="44.18782328423382" lon="9.622482487701244"><ele>81.0</ele><time>2026-04-07T14:57:29Z</time></trkpt><trkpt lat="44.187805283859625" lon="9.622338604765044"><ele>78.0</ele><time>2026-04-07T14:57:30Z</time></trkpt><trkpt lat="44.18778591183512" lon="9.622213032368371"><ele>75.0</ele><time>2026-04-07T14:57:30.999Z</time></trkpt><trkpt lat="44.18769247623194" lon="9.622070165449285"><ele>73.83333333333333</ele><time>2026-04-07T14:57:32.999Z</time></trkpt><trkpt lat="44.18760239047973" lon="9.621969218065379"><ele>72.66666666666667</ele><time>2026-04-07T14:57:33.999Z</time></trkpt><trkpt lat="44.187532056647456" lon="9.621927969229631"><ele>71.5</ele><time>2026-04-07T14:57:34.999Z</time></trkpt><trkpt lat="44.18746229978961" lon="9.621906858786978"><ele>70.33333333333334</ele><time>2026-04-07T14:57:35.999Z</time></trkpt><trkpt lat="44.18738314512712" lon="9.62189768160825"><ele>69.16666666666667</ele><time>2026-04-07T14:57:36.999Z</time></trkpt><trkpt lat="44.187310767107" lon="9.621865798635838"><ele>68.0</ele><time>2026-04-07T14:57:37.999Z</time></trkpt><trkpt lat="44.18724612930591" lon="9.62181595477608"><ele>68.0</ele><time>2026-04-07T14:57:38.999Z</time></trkpt><trkpt lat="44.18717772320914" lon="9.62174512756261"><ele>68.0</ele><time>2026-04-07T14:57:39.999Z</time></trkpt><trkpt lat="44.187114964594265" lon="9.621657883391439"><ele>68.0</ele><time>2026-04-07T14:57:40.999Z</time></trkpt><trkpt lat="44.18704438607641" lon="9.621546232477943"><ele>68.0</ele><time>2026-04-07T14:57:41.999Z</time></trkpt><trkpt lat="44.18696153956211" lon="9.62144604955174"><ele>68.0</ele><time>2026-04-07T14:57:42.999Z</time></trkpt><trkpt lat="44.18686844689182" lon="9.621359807137384"><ele>68.0</ele><time>2026-04-07T14:57:43.999Z</time></trkpt><trkpt lat="44.18676329361404" lon="9.621293004692104"><ele>68.0</ele><time>2026-04-07T14:57:44.999Z</time></trkpt><trkpt lat="44.18665218776229" lon="9.621242433542212"><ele>68.0</ele><time>2026-04-07T14:57:45.999Z</time></trkpt><trkpt lat="44.18653623741629" lon="9.62121526581117"><ele>68.0</ele><time>2026-04-07T14:57:46.999Z</time></trkpt><trkpt lat="44.18641450446884" lon="9.621206795339015"><ele>67.0</ele><time>2026-04-07T14:57:47.999Z</time></trkpt><trkpt lat="44.18629932672307" lon="9.621214718769348"><ele>66.0</ele><time>2026-04-07T14:57:48.999Z</time></trkpt><trkpt lat="44.18618404386141" lon="9.621235507009873"><ele>65.0</ele><time>2026-04-07T14:57:49.999Z</time></trkpt><trkpt lat="44.186070543158344" lon="9.621243426722717"><ele>64.0</ele><time>2026-04-07T14:57:50.999Z</time></trkpt><trkpt lat="44.1859524809729" lon="9.621253482988983"><ele>64.0</ele><time>2026-04-07T14:57:51.999Z</time></trkpt><trkpt lat="44.185842048772386" lon="9.621263659785354"><ele>64.0</ele><time>2026-04-07T14:57:52.999Z</time></trkpt><trkpt lat="44.18573577333797" lon="9.621274133064004"><ele>64.0</ele><time>2026-04-07T14:57:53.999Z</time></trkpt><trkpt lat="44.18562810321398" lon="9.621288447058994"><ele>64.0</ele><time>2026-04-07T14:57:54.999Z</time></trkpt><trkpt lat="44.18552161810425" lon="9.621301718775175"><ele>64.0</ele><time>2026-04-07T14:57:55.999Z</time></trkpt><trkpt lat="44.18541157458212" lon="9.621307525359363"><ele>64.60000000000001</ele><time>2026-04-07T14:57:56.999Z</time></trkpt><trkpt lat="44.18530502455864" lon="9.621274358656663"><ele>65.2</ele><time>2026-04-07T14:57:57.999Z</time></trkpt><trkpt lat="44.185204513162496" lon="9.621193220187962"><ele>65.80000000000001</ele><time>2026-04-07T14:57:58.999Z</time></trkpt><trkpt lat="44.185104079781965" lon="9.621117224666953"><ele>66.4</ele><time>2026-04-07T14:57:59.999Z</time></trkpt><trkpt lat="44.185014441212076" lon="9.621032153112916"><ele>67.0</ele><time>2026-04-07T14:58:00.999Z</time></trkpt><trkpt lat="44.1849165755047" lon="9.620959990306819"><ele>59.25</ele><time>2026-04-07T14:58:01.999Z</time></trkpt><trkpt lat="44.18481928549146" lon="9.620885189248623"><ele>51.5</ele><time>2026-04-07T14:58:02.999Z</time></trkpt><trkpt lat="44.18471104246018" lon="9.620822245495352"><ele>43.75</ele><time>2026-04-07T14:58:03.999Z</time></trkpt><trkpt lat="44.184604348612915" lon="9.620778984619337"><ele>36.0</ele><time>2026-04-07T14:58:04.999Z</time></trkpt><trkpt lat="44.18449448341329" lon="9.620759404973056"><ele>36.0</ele><time>2026-04-07T14:58:05.999Z</time></trkpt><trkpt lat="44.18436212056563" lon="9.62075040412693"><ele>36.0</ele><time>2026-04-07T14:58:06.999Z</time></trkpt><trkpt lat="44.18421343768459" lon="9.62074235426165"><ele>36.0</ele><time>2026-04-07T14:58:07.999Z</time></trkpt><trkpt lat="44.184065461631505" lon="9.620733054084845"><ele>36.0</ele><time>2026-04-07T14:58:08.999Z</time></trkpt><trkpt lat="44.183925072678214" lon="9.620723578880982"><ele>34.25</ele><time>2026-04-07T14:58:09.999Z</time></trkpt><trkpt lat="44.18378968756184" lon="9.620713349811528"><ele>32.5</ele><time>2026-04-07T14:58:10.999Z</time></trkpt><trkpt lat="44.1836572826921" lon="9.62070869834141"><ele>30.75</ele><time>2026-04-07T14:58:11.999Z</time></trkpt><trkpt lat="44.18353266545047" lon="9.620710735711734"><ele>29.0</ele><time>2026-04-07T14:58:12.999Z</time></trkpt><trkpt lat="44.18341284858184" lon="9.620742671769335"><ele>29.0</ele><time>2026-04-07T14:58:13.999Z</time></trkpt><trkpt lat="44.18330224586494" lon="9.620798156237067"><ele>29.0</ele><time>2026-04-07T14:58:14.999Z</time></trkpt><trkpt lat="44.18320019367248" lon="9.620860176318676"><ele>29.0</ele><time>2026-04-07T14:58:15.999Z</time></trkpt><trkpt lat="44.18310838236381" lon="9.620923914052772"><ele>29.0</ele><time>2026-04-07T14:58:16.999Z</time></trkpt><trkpt lat="44.18302016353162" lon="9.620985711883893"><ele>29.0</ele><time>2026-04-07T14:58:17.999Z</time></trkpt><trkpt lat="44.182951252009715" lon="9.621047997183584"><ele>28.85714285714286</ele><time>2026-04-07T14:58:18.999Z</time></trkpt><trkpt lat="44.18289562144246" lon="9.621120403239633"><ele>28.714285714285715</ele><time>2026-04-07T14:58:19.999Z</time></trkpt><trkpt lat="44.18284093575072" lon="9.621187601391407"><ele>28.571428571428573</ele><time>2026-04-07T14:58:20.999Z</time></trkpt><trkpt lat="44.182793919948764" lon="9.621259940468436"><ele>28.42857142857143</ele><time>2026-04-07T14:58:21.999Z</time></trkpt><trkpt lat="44.182747779633274" lon="9.62132249942869"><ele>28.285714285714285</ele><time>2026-04-07T14:58:22.999Z</time></trkpt><trkpt lat="44.182703899395015" lon="9.621390864162276"><ele>28.142857142857142</ele><time>2026-04-07T14:58:23.999Z</time></trkpt><trkpt lat="44.18266350216723" lon="9.621459244045958"><ele>28.0</ele><time>2026-04-07T14:58:24.999Z</time></trkpt><trkpt lat="44.1826060425755" lon="9.621514600619356"><ele>28.000000000000004</ele><time>2026-04-07T14:58:25.999Z</time></trkpt><trkpt lat="44.18256703569257" lon="9.621593984867207"><ele>28.0</ele><time>2026-04-07T14:58:26.999Z</time></trkpt><trkpt lat="44.18245032371773" lon="9.621672874967219"><ele>28.0</ele><time>2026-04-07T14:58:28.999Z</time></trkpt><trkpt lat="44.18238951694338" lon="9.62173521047718"><ele>28.0</ele><time>2026-04-07T14:58:29.999Z</time></trkpt><trkpt lat="44.182314170173015" lon="9.62177923056211"><ele>28.000000000000004</ele><time>2026-04-07T14:58:30.999Z</time></trkpt><trkpt lat="44.182233507798955" lon="9.621816311650665"><ele>28.0</ele><time>2026-04-07T14:58:31.999Z</time></trkpt><trkpt lat="44.18215624641769" lon="9.621838812111557"><ele>27.571428571428573</ele><time>2026-04-07T14:58:32.999Z</time></trkpt><trkpt lat="44.182085469519585" lon="9.621855931888494"><ele>27.142857142857142</ele><time>2026-04-07T14:58:33.999Z</time></trkpt><trkpt lat="44.182012889688366" lon="9.621872570835716"><ele>26.714285714285715</ele><time>2026-04-07T14:58:34.998Z</time></trkpt><trkpt lat="44.18194274772324" lon="9.621886827823246"><ele>26.285714285714285</ele><time>2026-04-07T14:58:35.998Z</time></trkpt><trkpt lat="44.18186583275469" lon="9.621894869201814"><ele>25.857142857142858</ele><time>2026-04-07T14:58:36.998Z</time></trkpt><trkpt lat="44.18179279724864" lon="9.621904952566515"><ele>25.42857142857143</ele><time>2026-04-07T14:58:37.998Z</time></trkpt><trkpt lat="44.18172074114416" lon="9.62191301201168"><ele>25.0</ele><time>2026-04-07T14:58:38.998Z</time></trkpt><trkpt lat="44.18162845296633" lon="9.621925377782702"><ele>25.0</ele><time>2026-04-07T14:58:39.998Z</time></trkpt><trkpt lat="44.18151824547151" lon="9.621938981684677"><ele>25.0</ele><time>2026-04-07T14:58:40.998Z</time></trkpt><trkpt lat="44.18140104301949" lon="9.621954781772219"><ele>25.0</ele><time>2026-04-07T14:58:41.998Z</time></trkpt><trkpt lat="44.18128185611189" lon="9.621978296513525"><ele>25.0</ele><time>2026-04-07T14:58:42.998Z</time></trkpt><trkpt lat="44.18116201505392" lon="9.621997353653969"><ele>24.5</ele><time>2026-04-07T14:58:43.998Z</time></trkpt><trkpt lat="44.18104133948264" lon="9.622007072548671"><ele>24.0</ele><time>2026-04-07T14:58:44.998Z</time></trkpt><trkpt lat="44.1809168329663" lon="9.622009759497478"><ele>23.5</ele><time>2026-04-07T14:58:45.998Z</time></trkpt><trkpt lat="44.18079255103084" lon="9.622034998634813"><ele>23.0</ele><time>2026-04-07T14:58:46.998Z</time></trkpt><trkpt lat="44.18067249706184" lon="9.622066960615975"><ele>23.0</ele><time>2026-04-07T14:58:47.998Z</time></trkpt><trkpt lat="44.18055649847847" lon="9.62211618100489"><ele>23.0</ele><time>2026-04-07T14:58:48.998Z</time></trkpt><trkpt lat="44.180447229674" lon="9.622181587314456"><ele>23.0</ele><time>2026-04-07T14:58:49.998Z</time></trkpt><trkpt lat="44.18035341993615" lon="9.622267171453204"><ele>23.0</ele><time>2026-04-07T14:58:50.998Z</time></trkpt><trkpt lat="44.180268353429234" lon="9.62235204118861"><ele>23.0</ele><time>2026-04-07T14:58:51.998Z</time></trkpt><trkpt lat="44.18019162635801" lon="9.622443638331305"><ele>23.0</ele><time>2026-04-07T14:58:52.998Z</time></trkpt><trkpt lat="44.180128483963905" lon="9.622540442834667"><ele>23.0</ele><time>2026-04-07T14:58:54Z</time></trkpt><trkpt lat="44.18006352488794" lon="9.622629403605906"><ele>23.0</ele><time>2026-04-07T14:58:55Z</time></trkpt><trkpt lat="44.180002890733306" lon="9.622713964837965"><ele>23.0</ele><time>2026-04-07T14:58:56Z</time></trkpt><trkpt lat="44.17995164399067" lon="9.622780349247195"><ele>23.0</ele><time>2026-04-07T14:58:57Z</time></trkpt><trkpt lat="44.17989892380324" lon="9.622833022635652"><ele>22.333333333333336</ele><time>2026-04-07T14:58:59Z</time></trkpt><trkpt lat="44.1798174559668" lon="9.622848382803678"><ele>21.666666666666668</ele><time>2026-04-07T14:59:02Z</time></trkpt><trkpt lat="44.1797295832754" lon="9.622831683161282"><ele>21.0</ele><time>2026-04-07T14:59:04Z</time></trkpt><trkpt lat="44.1796426444054" lon="9.622902544663859"><ele>20.333333333333332</ele><time>2026-04-07T14:59:06Z</time></trkpt><trkpt lat="44.179645349049025" lon="9.623014901694066"><ele>19.666666666666664</ele><time>2026-04-07T14:59:07Z</time></trkpt><trkpt lat="44.179671707440995" lon="9.623130652169698"><ele>19.0</ele><time>2026-04-07T14:59:08Z</time></trkpt><trkpt lat="44.17974261210648" lon="9.623258480432968"><ele>19.0</ele><time>2026-04-07T14:59:09Z</time></trkpt><trkpt lat="44.179793300312575" lon="9.623373805221703"><ele>19.0</ele><time>2026-04-07T14:59:10Z</time></trkpt><trkpt lat="44.17987782011668" lon="9.623532492982042"><ele>19.0</ele><time>2026-04-07T14:59:11Z</time></trkpt><trkpt lat="44.17995486518468" lon="9.623662115000549"><ele>19.0</ele><time>2026-04-07T14:59:12Z</time></trkpt><trkpt lat="44.18002383281368" lon="9.623779496516917"><ele>19.166666666666664</ele><time>2026-04-07T14:59:13Z</time></trkpt><trkpt lat="44.180092433920684" lon="9.62389204308914"><ele>19.333333333333332</ele><time>2026-04-07T14:59:14Z</time></trkpt><trkpt lat="44.18014938816979" lon="9.62401242070923"><ele>19.5</ele><time>2026-04-07T14:59:15Z</time></trkpt><trkpt lat="44.18018285993888" lon="9.62410717688433"><ele>19.666666666666668</ele><time>2026-04-07T14:59:16Z</time></trkpt><trkpt lat="44.18023016260894" lon="9.624188893361998"><ele>19.833333333333336</ele><time>2026-04-07T14:59:17Z</time></trkpt><trkpt lat="44.18027599063978" lon="9.624277555098306"><ele>20.0</ele><time>2026-04-07T14:59:18Z</time></trkpt><trkpt lat="44.18031265455075" lon="9.62436692877577"><ele>20.0</ele><time>2026-04-07T14:59:19Z</time></trkpt><trkpt lat="44.1803516226723" lon="9.62445595930843"><ele>20.0</ele><time>2026-04-07T14:59:20Z</time></trkpt><trkpt lat="44.18039066231915" lon="9.624548413150402"><ele>20.0</ele><time>2026-04-07T14:59:21Z</time></trkpt><trkpt lat="44.18041979433209" lon="9.624648635698348"><ele>20.0</ele><time>2026-04-07T14:59:22Z</time></trkpt><trkpt lat="44.1804664466664" lon="9.624728783017684"><ele>20.0</ele><time>2026-04-07T14:59:23Z</time></trkpt><trkpt lat="44.18049512029895" lon="9.62482633659755"><ele>20.0</ele><time>2026-04-07T14:59:24Z</time></trkpt><trkpt lat="44.180524365567315" lon="9.624933374721966"><ele>21.4</ele><time>2026-04-07T14:59:25Z</time></trkpt><trkpt lat="44.1805550261885" lon="9.625032223210736"><ele>22.8</ele><time>2026-04-07T14:59:26Z</time></trkpt><trkpt lat="44.18058568915569" lon="9.625111553097947"><ele>24.200000000000003</ele><time>2026-04-07T14:59:27Z</time></trkpt><trkpt lat="44.18064030456119" lon="9.625274259612238"><ele>25.6</ele><time>2026-04-07T14:59:29Z</time></trkpt><trkpt lat="44.18067881858573" lon="9.62535126850143"><ele>27.0</ele><time>2026-04-07T14:59:30Z</time></trkpt><trkpt lat="44.18075739599342" lon="9.625468567890781"><ele>27.57142857142857</ele><time>2026-04-07T14:59:32Z</time></trkpt><trkpt lat="44.180809576998456" lon="9.625521680692191"><ele>28.142857142857142</ele><time>2026-04-07T14:59:33Z</time></trkpt><trkpt lat="44.18086962608711" lon="9.625581135902276"><ele>28.714285714285715</ele><time>2026-04-07T14:59:34Z</time></trkpt><trkpt lat="44.180928477480464" lon="9.625647158198625"><ele>29.285714285714285</ele><time>2026-04-07T14:59:35Z</time></trkpt><trkpt lat="44.18098205951391" lon="9.625719024900645"><ele>29.85714285714286</ele><time>2026-04-07T14:59:36Z</time></trkpt><trkpt lat="44.18103014594577" lon="9.625800016093292"><ele>30.42857142857143</ele><time>2026-04-07T14:59:37Z</time></trkpt><trkpt lat="44.18107821039151" lon="9.625879176989857"><ele>31.0</ele><time>2026-04-07T14:59:38Z</time></trkpt><trkpt lat="44.18111833932694" lon="9.6259655653703"><ele>31.000000000000004</ele><time>2026-04-07T14:59:38.999Z</time></trkpt><trkpt lat="44.1811569404554" lon="9.626051004430726"><ele>31.0</ele><time>2026-04-07T14:59:39.999Z</time></trkpt><trkpt lat="44.181199311829715" lon="9.62612687635752"><ele>31.0</ele><time>2026-04-07T14:59:40.999Z</time></trkpt><trkpt lat="44.181232771055335" lon="9.626206306887488"><ele>31.0</ele><time>2026-04-07T14:59:41.999Z</time></trkpt><trkpt lat="44.18126846484065" lon="9.626289797422423"><ele>31.000000000000004</ele><time>2026-04-07T14:59:42.999Z</time></trkpt><trkpt lat="44.18132493712837" lon="9.62644650607201"><ele>31.0</ele><time>2026-04-07T14:59:44.999Z</time></trkpt><trkpt lat="44.18137428715055" lon="9.626594157479397"><ele>32.4</ele><time>2026-04-07T14:59:46.999Z</time></trkpt><trkpt lat="44.18139610394611" lon="9.62676044271783"><ele>33.8</ele><time>2026-04-07T14:59:48.999Z</time></trkpt><trkpt lat="44.1813954488064" lon="9.62686374619823"><ele>35.199999999999996</ele><time>2026-04-07T14:59:49.999Z</time></trkpt><trkpt lat="44.18139479072518" lon="9.626977491058202"><ele>36.6</ele><time>2026-04-07T14:59:50.999Z</time></trkpt><trkpt lat="44.18138659763088" lon="9.627167892895935"><ele>38.0</ele><time>2026-04-07T14:59:52.999Z</time></trkpt><trkpt lat="44.1813882997888" lon="9.627270921017407"><ele>38.57142857142857</ele><time>2026-04-07T14:59:53.999Z</time></trkpt><trkpt lat="44.181387721011454" lon="9.627375818473661"><ele>39.142857142857146</ele><time>2026-04-07T14:59:54.999Z</time></trkpt><trkpt lat="44.181392527693454" lon="9.627475310140056"><ele>39.714285714285715</ele><time>2026-04-07T14:59:55.999Z</time></trkpt><trkpt lat="44.18139352876567" lon="9.627566493193385"><ele>40.285714285714285</ele><time>2026-04-07T14:59:56.999Z</time></trkpt><trkpt lat="44.18139514325606" lon="9.627661537313152"><ele>40.85714285714286</ele><time>2026-04-07T14:59:57.999Z</time></trkpt><trkpt lat="44.18140873202789" lon="9.62775289145626"><ele>41.42857142857143</ele><time>2026-04-07T14:59:58.999Z</time></trkpt><trkpt lat="44.18142564480453" lon="9.627839451251555"><ele>42.0</ele><time>2026-04-07T14:59:59.999Z</time></trkpt><trkpt lat="44.18145171073412" lon="9.627920351512945"><ele>42.6</ele><time>2026-04-07T15:00:00.999Z</time></trkpt><trkpt lat="44.18147828605564" lon="9.628001721141757"><ele>43.2</ele><time>2026-04-07T15:00:01.999Z</time></trkpt><trkpt lat="44.18152690839576" lon="9.628107789535573"><ele>43.8</ele><time>2026-04-07T15:00:02.999Z</time></trkpt><trkpt lat="44.18159533008723" lon="9.628228819621611"><ele>44.4</ele><time>2026-04-07T15:00:03.999Z</time></trkpt><trkpt lat="44.181693387199886" lon="9.62834913179641"><ele>45.0</ele><time>2026-04-07T15:00:04.999Z</time></trkpt><trkpt lat="44.181808781292595" lon="9.628456536976094"><ele>42.666666666666664</ele><time>2026-04-07T15:00:05.999Z</time></trkpt><trkpt lat="44.18194111641754" lon="9.628533233490664"><ele>40.33333333333333</ele><time>2026-04-07T15:00:06.999Z</time></trkpt><trkpt lat="44.182095053610716" lon="9.628619250905448"><ele>38.0</ele><time>2026-04-07T15:00:07.999Z</time></trkpt><trkpt lat="44.18224354047443" lon="9.628704437897511"><ele>35.0</ele><time>2026-04-07T15:00:08.999Z</time></trkpt><trkpt lat="44.18240086612629" lon="9.628784531450567"><ele>32.0</ele><time>2026-04-07T15:00:09.999Z</time></trkpt><trkpt lat="44.182565154226694" lon="9.628862137501821"><ele>29.0</ele><time>2026-04-07T15:00:10.999Z</time></trkpt><trkpt lat="44.18272119816683" lon="9.628959030292238"><ele>29.0</ele><time>2026-04-07T15:00:11.999Z</time></trkpt><trkpt lat="44.18285804229992" lon="9.629050804663237"><ele>29.0</ele><time>2026-04-07T15:00:12.999Z</time></trkpt><trkpt lat="44.182963424356785" lon="9.629129878207019"><ele>29.0</ele><time>2026-04-07T15:00:13.999Z</time></trkpt><trkpt lat="44.183068159811285" lon="9.629238810644976"><ele>29.0</ele><time>2026-04-07T15:00:14.999Z</time></trkpt><trkpt lat="44.18315645112553" lon="9.629316962180178"><ele>30.0</ele><time>2026-04-07T15:00:15.999Z</time></trkpt><trkpt lat="44.1832305090089" lon="9.629418223486454"><ele>31.0</ele><time>2026-04-07T15:00:16.999Z</time></trkpt><trkpt lat="44.183274472879155" lon="9.629526463487592"><ele>32.0</ele><time>2026-04-07T15:00:17.999Z</time></trkpt><trkpt lat="44.183302332272724" lon="9.629643545897576"><ele>33.0</ele><time>2026-04-07T15:00:18.999Z</time></trkpt><trkpt lat="44.1833372260211" lon="9.629767760997998"><ele>34.0</ele><time>2026-04-07T15:00:19.999Z</time></trkpt><trkpt lat="44.183358476236194" lon="9.629872291780828"><ele>34.0</ele><time>2026-04-07T15:00:20.999Z</time></trkpt><trkpt lat="44.18332124024445" lon="9.629965712205635"><ele>34.0</ele><time>2026-04-07T15:00:21.999Z</time></trkpt><trkpt lat="44.18333196123373" lon="9.630102266794989"><ele>34.0</ele><time>2026-04-07T15:00:23.999Z</time></trkpt><trkpt lat="44.18342391979907" lon="9.63018025686204"><ele>34.0</ele><time>2026-04-07T15:00:24.999Z</time></trkpt><trkpt lat="44.18351649061113" lon="9.630271679281726"><ele>34.0</ele><time>2026-04-07T15:00:25.999Z</time></trkpt><trkpt lat="44.183609181567434" lon="9.630354543764543"><ele>35.25</ele><time>2026-04-07T15:00:26.999Z</time></trkpt><trkpt lat="44.18369091852522" lon="9.630433606222734"><ele>36.5</ele><time>2026-04-07T15:00:27.999Z</time></trkpt><trkpt lat="44.18379034557565" lon="9.630589184743428"><ele>37.75</ele><time>2026-04-07T15:00:28.999Z</time></trkpt><trkpt lat="44.18390684770207" lon="9.630719912805414"><ele>39.0</ele><time>2026-04-07T15:00:29.999Z</time></trkpt><trkpt lat="44.1840567792798" lon="9.630903736233801"><ele>39.0</ele><time>2026-04-07T15:00:30.999Z</time></trkpt><trkpt lat="44.18415433166521" lon="9.630999555445356"><ele>39.0</ele><time>2026-04-07T15:00:31.999Z</time></trkpt><trkpt lat="44.18428450901749" lon="9.631078239386717"><ele>39.0</ele><time>2026-04-07T15:00:32.999Z</time></trkpt><trkpt lat="44.18444741806921" lon="9.631105116941093"><ele>39.0</ele><time>2026-04-07T15:00:33.999Z</time></trkpt><trkpt lat="44.184614673162876" lon="9.631176977139411"><ele>38.666666666666664</ele><time>2026-04-07T15:00:34.999Z</time></trkpt><trkpt lat="44.18476928142008" lon="9.631264539597018"><ele>38.33333333333333</ele><time>2026-04-07T15:00:35.999Z</time></trkpt><trkpt lat="44.18493696937222" lon="9.63134701340771"><ele>38.0</ele><time>2026-04-07T15:00:36.999Z</time></trkpt><trkpt lat="44.185108431969205" lon="9.631388674802976"><ele>39.0</ele><time>2026-04-07T15:00:37.999Z</time></trkpt><trkpt lat="44.1852478000969" lon="9.63146381065345"><ele>40.0</ele><time>2026-04-07T15:00:38.999Z</time></trkpt><trkpt lat="44.18535022326007" lon="9.631503301964473"><ele>41.0</ele><time>2026-04-07T15:00:39.999Z</time></trkpt><trkpt lat="44.18544843322108" lon="9.631548045041665"><ele>42.0</ele><time>2026-04-07T15:00:41.999Z</time></trkpt><trkpt lat="44.185443526754824" lon="9.6317212851453"><ele>42.0</ele><time>2026-04-07T15:00:43.999Z</time></trkpt><trkpt lat="44.18538048985133" lon="9.631798517345919"><ele>42.0</ele><time>2026-04-07T15:00:44.998Z</time></trkpt><trkpt lat="44.18528422241261" lon="9.63183897163622"><ele>42.0</ele><time>2026-04-07T15:00:45.998Z</time></trkpt><trkpt lat="44.185188817589896" lon="9.63186931712178"><ele>42.0</ele><time>2026-04-07T15:00:46.998Z</time></trkpt><trkpt lat="44.18506983371914" lon="9.63184627178587"><ele>42.0</ele><time>2026-04-07T15:00:47.998Z</time></trkpt><trkpt lat="44.18495159221604" lon="9.631851568146873"><ele>41.0</ele><time>2026-04-07T15:00:48.998Z</time></trkpt><trkpt lat="44.18482547552245" lon="9.631853545487704"><ele>40.0</ele><time>2026-04-07T15:00:49.998Z</time></trkpt><trkpt lat="44.1846885742709" lon="9.631841799361618"><ele>39.0</ele><time>2026-04-07T15:00:50.998Z</time></trkpt><trkpt lat="44.1845542597636" lon="9.631850043448487"><ele>38.0</ele><time>2026-04-07T15:00:51.998Z</time></trkpt><trkpt lat="44.18442801766909" lon="9.631878341355701"><ele>38.0</ele><time>2026-04-07T15:00:52.998Z</time></trkpt><trkpt lat="44.184326031251594" lon="9.631881373078556"><ele>38.0</ele><time>2026-04-07T15:00:53.998Z</time></trkpt><trkpt lat="44.18425003290524" lon="9.63190491559941"><ele>38.0</ele><time>2026-04-07T15:00:54.998Z</time></trkpt><trkpt lat="44.184199985858314" lon="9.632016800730828"><ele>38.0</ele><time>2026-04-07T15:00:55.998Z</time></trkpt><trkpt lat="44.184172881022796" lon="9.63218326453231"><ele>38.0</ele><time>2026-04-07T15:00:56.998Z</time></trkpt><trkpt lat="44.18420034342751" lon="9.632351307149628"><ele>40.5</ele><time>2026-04-07T15:00:57.998Z</time></trkpt><trkpt lat="44.18426797785228" lon="9.632521343410168"><ele>43.0</ele><time>2026-04-07T15:00:58.998Z</time></trkpt><trkpt lat="44.18431364906168" lon="9.632696424111895"><ele>45.5</ele><time>2026-04-07T15:01:00Z</time></trkpt><trkpt lat="44.18433554721657" lon="9.63288198300772"><ele>48.0</ele><time>2026-04-07T15:01:01Z</time></trkpt><trkpt lat="44.184333710841926" lon="9.633075759655108"><ele>50.25</ele><time>2026-04-07T15:01:02Z</time></trkpt><trkpt lat="44.18431636348825" lon="9.633270278610434"><ele>52.5</ele><time>2026-04-07T15:01:03Z</time></trkpt><trkpt lat="44.184301803054716" lon="9.63346739198829"><ele>54.75</ele><time>2026-04-07T15:01:04Z</time></trkpt><trkpt lat="44.18427219750136" lon="9.633662593808245"><ele>57.0</ele><time>2026-04-07T15:01:05Z</time></trkpt><trkpt lat="44.18426329691303" lon="9.633859209898137"><ele>59.0</ele><time>2026-04-07T15:01:06Z</time></trkpt><trkpt lat="44.184271512834854" lon="9.634037043963565"><ele>61.0</ele><time>2026-04-07T15:01:07Z</time></trkpt><trkpt lat="44.18432111821175" lon="9.634222742039013"><ele>63.0</ele><time>2026-04-07T15:01:08Z</time></trkpt><trkpt lat="44.18437521773491" lon="9.634407082769757"><ele>65.0</ele><time>2026-04-07T15:01:09Z</time></trkpt><trkpt lat="44.18438138010679" lon="9.63461552494085"><ele>66.33333333333334</ele><time>2026-04-07T15:01:10Z</time></trkpt><trkpt lat="44.184394790523626" lon="9.63482044774709"><ele>67.66666666666667</ele><time>2026-04-07T15:01:11Z</time></trkpt><trkpt lat="44.18439781397718" lon="9.635032287605684"><ele>69.0</ele><time>2026-04-07T15:01:12Z</time></trkpt><trkpt lat="44.18438678323176" lon="9.635249828516859"><ele>70.75</ele><time>2026-04-07T15:01:13Z</time></trkpt><trkpt lat="44.184392119122485" lon="9.635458942495355"><ele>72.5</ele><time>2026-04-07T15:01:14Z</time></trkpt><trkpt lat="44.184347380829266" lon="9.63564010784356"><ele>74.25</ele><time>2026-04-07T15:01:15Z</time></trkpt><trkpt lat="44.18432033313179" lon="9.635802250028314"><ele>76.0</ele><time>2026-04-07T15:01:16Z</time></trkpt><trkpt lat="44.18429545345536" lon="9.635946336640675"><ele>76.0</ele><time>2026-04-07T15:01:17Z</time></trkpt><trkpt lat="44.184320353620194" lon="9.636095981526179"><ele>76.0</ele><time>2026-04-07T15:01:18Z</time></trkpt><trkpt lat="44.1843906828254" lon="9.636234316586389"><ele>76.0</ele><time>2026-04-07T15:01:19Z</time></trkpt><trkpt lat="44.18441025734836" lon="9.636347978683233"><ele>76.0</ele><time>2026-04-07T15:01:20Z</time></trkpt><trkpt lat="44.18434893456329" lon="9.636460068668127"><ele>76.0</ele><time>2026-04-07T15:01:21Z</time></trkpt><trkpt lat="44.18431249252915" lon="9.636592673683934"><ele>77.6</ele><time>2026-04-07T15:01:22Z</time></trkpt><trkpt lat="44.18426618121581" lon="9.636732408244233"><ele>79.19999999999999</ele><time>2026-04-07T15:01:23Z</time></trkpt><trkpt lat="44.18422297856785" lon="9.636877210292749"><ele>80.80000000000001</ele><time>2026-04-07T15:01:24Z</time></trkpt><trkpt lat="44.18420654419101" lon="9.63700598630671"><ele>82.4</ele><time>2026-04-07T15:01:25Z</time></trkpt><trkpt lat="44.18422991930478" lon="9.637108923500444"><ele>84.0</ele><time>2026-04-07T15:01:26Z</time></trkpt><trkpt lat="44.18436852477692" lon="9.637112917503412"><ele>84.0</ele><time>2026-04-07T15:01:28Z</time></trkpt><trkpt lat="44.184407048622" lon="9.636997521052903"><ele>84.0</ele><time>2026-04-07T15:01:29Z</time></trkpt><trkpt lat="44.18441278153484" lon="9.63686186708282"><ele>84.0</ele><time>2026-04-07T15:01:30Z</time></trkpt><trkpt lat="44.18441517521741" lon="9.636709888613359"><ele>84.0</ele><time>2026-04-07T15:01:31Z</time></trkpt><trkpt lat="44.18444402943626" lon="9.636581499625082"><ele>84.0</ele><time>2026-04-07T15:01:32Z</time></trkpt><trkpt lat="44.18453215532546" lon="9.636509453148614"><ele>84.0</ele><time>2026-04-07T15:01:33Z</time></trkpt><trkpt lat="44.184630267963996" lon="9.636459231435383"><ele>84.0</ele><time>2026-04-07T15:01:34Z</time></trkpt><trkpt lat="44.18468571356545" lon="9.63638439659234"><ele>84.0</ele><time>2026-04-07T15:01:35Z</time></trkpt><trkpt lat="44.184703795789986" lon="9.636276473858157"><ele>84.0</ele><time>2026-04-07T15:01:36Z</time></trkpt><trkpt lat="44.18465327967867" lon="9.63614871476862"><ele>84.0</ele><time>2026-04-07T15:01:37Z</time></trkpt><trkpt lat="44.184597304588394" lon="9.636028420133012"><ele>82.66666666666667</ele><time>2026-04-07T15:01:38Z</time></trkpt><trkpt lat="44.18459073359019" lon="9.635927192948303"><ele>81.33333333333333</ele><time>2026-04-07T15:01:39Z</time></trkpt><trkpt lat="44.18466104580847" lon="9.635839951547878"><ele>80.0</ele><time>2026-04-07T15:01:40Z</time></trkpt><trkpt lat="44.18474919537761" lon="9.6358010914506"><ele>78.66666666666666</ele><time>2026-04-07T15:01:41Z</time></trkpt><trkpt lat="44.1848191616784" lon="9.635731423866337"><ele>77.33333333333333</ele><time>2026-04-07T15:01:42Z</time></trkpt><trkpt lat="44.18488614540389" lon="9.635654842607757"><ele>76.0</ele><time>2026-04-07T15:01:44Z</time></trkpt><trkpt lat="44.18491102436882" lon="9.635528806510452"><ele>81.4</ele><time>2026-04-07T15:02:25.999Z</time></trkpt><trkpt lat="44.184947066463984" lon="9.635447267090804"><ele>86.8</ele><time>2026-04-07T15:02:26.999Z</time></trkpt><trkpt lat="44.18493171658862" lon="9.635312643505605"><ele>92.2</ele><time>2026-04-07T15:02:27.999Z</time></trkpt><trkpt lat="44.18492564211836" lon="9.635175782663987"><ele>97.60000000000001</ele><time>2026-04-07T15:02:28.999Z</time></trkpt><trkpt lat="44.18489360699579" lon="9.635027738984903"><ele>103.0</ele><time>2026-04-07T15:02:29.999Z</time></trkpt><trkpt lat="44.18486353615048" lon="9.63487441038215"><ele>103.0</ele><time>2026-04-07T15:02:30.999Z</time></trkpt><trkpt lat="44.1848517314695" lon="9.634714177846371"><ele>103.0</ele><time>2026-04-07T15:02:31.999Z</time></trkpt><trkpt lat="44.18488116441649" lon="9.634535115389285"><ele>103.0</ele><time>2026-04-07T15:02:32.999Z</time></trkpt><trkpt lat="44.184894323982135" lon="9.634377959161156"><ele>103.0</ele><time>2026-04-07T15:02:33.999Z</time></trkpt><trkpt lat="44.18494510750557" lon="9.634239189339418"><ele>102.00000000000001</ele><time>2026-04-07T15:02:34.999Z</time></trkpt><trkpt lat="44.18498404496283" lon="9.634144562323852"><ele>101.0</ele><time>2026-04-07T15:02:35.999Z</time></trkpt><trkpt lat="44.185043614973736" lon="9.634094158340558"><ele>100.0</ele><time>2026-04-07T15:02:36.999Z</time></trkpt><trkpt lat="44.18511223585945" lon="9.634094982878969"><ele>99.0</ele><time>2026-04-07T15:02:37.999Z</time></trkpt><trkpt lat="44.18521644247912" lon="9.63416482607019"><ele>98.00000000000001</ele><time>2026-04-07T15:02:38.999Z</time></trkpt><trkpt lat="44.18530491668387" lon="9.634232337209976"><ele>97.0</ele><time>2026-04-07T15:02:39.999Z</time></trkpt><trkpt lat="44.185357039270144" lon="9.63435075270043"><ele>98.5</ele><time>2026-04-07T15:02:40.999Z</time></trkpt><trkpt lat="44.185415225164014" lon="9.634492371473792"><ele>100.0</ele><time>2026-04-07T15:02:41.999Z</time></trkpt><trkpt lat="44.18541036588382" lon="9.634646534650905"><ele>101.5</ele><time>2026-04-07T15:02:42.999Z</time></trkpt><trkpt lat="44.18544435607984" lon="9.634790885333391"><ele>103.0</ele><time>2026-04-07T15:02:43.999Z</time></trkpt><trkpt lat="44.18547653600385" lon="9.634953668723071"><ele>103.0</ele><time>2026-04-07T15:02:44.999Z</time></trkpt><trkpt lat="44.185569872983706" lon="9.635059567172151"><ele>103.0</ele><time>2026-04-07T15:02:45.999Z</time></trkpt><trkpt lat="44.185648562318065" lon="9.635154191136152"><ele>103.0</ele><time>2026-04-07T15:02:46.999Z</time></trkpt><trkpt lat="44.18572103816768" lon="9.63523835734645"><ele>103.0</ele><time>2026-04-07T15:02:47.999Z</time></trkpt><trkpt lat="44.18583625305993" lon="9.63525146262017"><ele>103.0</ele><time>2026-04-07T15:02:48.999Z</time></trkpt><trkpt lat="44.18594808188931" lon="9.635222593408129"><ele>104.66666666666667</ele><time>2026-04-07T15:02:49.999Z</time></trkpt><trkpt lat="44.18604019433991" lon="9.635198224973234"><ele>106.33333333333334</ele><time>2026-04-07T15:02:50.999Z</time></trkpt><trkpt lat="44.18610473756469" lon="9.635242228293029"><ele>108.0</ele><time>2026-04-07T15:02:51.998Z</time></trkpt><trkpt lat="44.186146167780926" lon="9.635342620938825"><ele>109.66666666666666</ele><time>2026-04-07T15:02:52.998Z</time></trkpt><trkpt lat="44.186126627109495" lon="9.635473935337398"><ele>111.33333333333333</ele><time>2026-04-07T15:02:53.998Z</time></trkpt><trkpt lat="44.18613704570718" lon="9.635611067222612"><ele>113.0</ele><time>2026-04-07T15:02:54.998Z</time></trkpt><trkpt lat="44.1861593479586" lon="9.635744607018063"><ele>117.60000000000001</ele><time>2026-04-07T15:02:55.998Z</time></trkpt><trkpt lat="44.18623403230933" lon="9.635850469939205"><ele>122.20000000000002</ele><time>2026-04-07T15:02:56.998Z</time></trkpt><trkpt lat="44.18634645279319" lon="9.635897769698808"><ele>126.8</ele><time>2026-04-07T15:02:57.998Z</time></trkpt><trkpt lat="44.1864468101467" lon="9.63592036276456"><ele>131.4</ele><time>2026-04-07T15:02:58.998Z</time></trkpt><trkpt lat="44.18648890706367" lon="9.636009715197824"><ele>136.0</ele><time>2026-04-07T15:02:59.998Z</time></trkpt><trkpt lat="44.18650757941378" lon="9.636136038829662"><ele>138.0</ele><time>2026-04-07T15:03:00.998Z</time></trkpt><trkpt lat="44.18654088599584" lon="9.636272994266987"><ele>140.0</ele><time>2026-04-07T15:03:01.998Z</time></trkpt><trkpt lat="44.186601179065185" lon="9.636373812414755"><ele>142.0</ele><time>2026-04-07T15:03:02.998Z</time></trkpt><trkpt lat="44.18668911290211" lon="9.636399353323304"><ele>144.0</ele><time>2026-04-07T15:03:03.998Z</time></trkpt><trkpt lat="44.186793366101845" lon="9.63649066890092"><ele>146.0</ele><time>2026-04-07T15:03:04.998Z</time></trkpt><trkpt lat="44.1868756332455" lon="9.636607914350197"><ele>146.0</ele><time>2026-04-07T15:03:06Z</time></trkpt><trkpt lat="44.18688553302387" lon="9.636778188356166"><ele>146.0</ele><time>2026-04-07T15:03:07Z</time></trkpt><trkpt lat="44.18694538274327" lon="9.636945691883021"><ele>146.0</ele><time>2026-04-07T15:03:08Z</time></trkpt><trkpt lat="44.186984752036636" lon="9.637077020966514"><ele>146.0</ele><time>2026-04-07T15:03:09Z</time></trkpt><trkpt lat="44.18707046517293" lon="9.637187091790375"><ele>145.5</ele><time>2026-04-07T15:03:10Z</time></trkpt><trkpt lat="44.187193316963786" lon="9.637280625921552"><ele>145.0</ele><time>2026-04-07T15:03:11Z</time></trkpt><trkpt lat="44.18730893962647" lon="9.637375943185052"><ele>144.5</ele><time>2026-04-07T15:03:12Z</time></trkpt><trkpt lat="44.187422794424705" lon="9.637488585598163"><ele>144.0</ele><time>2026-04-07T15:03:13Z</time></trkpt><trkpt lat="44.18754527362824" lon="9.637581124457913"><ele>144.0</ele><time>2026-04-07T15:03:14Z</time></trkpt><trkpt lat="44.18768486070334" lon="9.637638545129192"><ele>144.0</ele><time>2026-04-07T15:03:15Z</time></trkpt><trkpt lat="44.187795670348564" lon="9.637684004752607"><ele>144.0</ele><time>2026-04-07T15:03:16Z</time></trkpt><trkpt lat="44.18787280497029" lon="9.63774592334424"><ele>144.0</ele><time>2026-04-07T15:03:17Z</time></trkpt><trkpt lat="44.18789378791854" lon="9.63785460396821"><ele>144.0</ele><time>2026-04-07T15:03:18Z</time></trkpt><trkpt lat="44.187916874174576" lon="9.637988134123532"><ele>151.2</ele><time>2026-04-07T15:03:19Z</time></trkpt><trkpt lat="44.18794047217124" lon="9.638135399560543"><ele>158.4</ele><time>2026-04-07T15:03:20Z</time></trkpt><trkpt lat="44.187979599427955" lon="9.638281692384941"><ele>165.6</ele><time>2026-04-07T15:03:21Z</time></trkpt><trkpt lat="44.18802960634751" lon="9.638421888880133"><ele>172.8</ele><time>2026-04-07T15:03:22Z</time></trkpt><trkpt lat="44.18808674648539" lon="9.638557973290895"><ele>180.0</ele><time>2026-04-07T15:03:23Z</time></trkpt><trkpt lat="44.18815591970931" lon="9.63868800621505"><ele>182.0</ele><time>2026-04-07T15:03:24Z</time></trkpt><trkpt lat="44.18823088075141" lon="9.638792339092177"><ele>184.0</ele><time>2026-04-07T15:03:25Z</time></trkpt><trkpt lat="44.1883226069752" lon="9.638833965086723"><ele>186.0</ele><time>2026-04-07T15:03:26Z</time></trkpt><trkpt lat="44.18843722393575" lon="9.638767333062548"><ele>188.0</ele><time>2026-04-07T15:03:27Z</time></trkpt><trkpt lat="44.188524041909076" lon="9.638707872228032"><ele>190.0</ele><time>2026-04-07T15:03:28Z</time></trkpt><trkpt lat="44.18858139385115" lon="9.638664930884662"><ele>183.6</ele><time>2026-04-07T15:03:29Z</time></trkpt><trkpt lat="44.188579594673705" lon="9.63854062529424"><ele>177.2</ele><time>2026-04-07T15:03:30Z</time></trkpt><trkpt lat="44.188566648884716" lon="9.638404371474687"><ele>170.8</ele><time>2026-04-07T15:03:32Z</time></trkpt><trkpt lat="44.18857079865992" lon="9.638293255972538"><ele>164.4</ele><time>2026-04-07T15:03:35Z</time></trkpt><trkpt lat="44.188565119408544" lon="9.638149232531541"><ele>158.0</ele><time>2026-04-07T15:03:39Z</time></trkpt><trkpt lat="44.188606956519614" lon="9.638019054461454"><ele>158.0</ele><time>2026-04-07T15:03:40Z</time></trkpt><trkpt lat="44.188628840499085" lon="9.637872111425189"><ele>158.0</ele><time>2026-04-07T15:03:41Z</time></trkpt><trkpt lat="44.18865253758538" lon="9.637692664097248"><ele>158.0</ele><time>2026-04-07T15:03:42Z</time></trkpt><trkpt lat="44.188674502981584" lon="9.637540707050036"><ele>158.0</ele><time>2026-04-07T15:03:43Z</time></trkpt><trkpt lat="44.18869303413254" lon="9.637445984869482"><ele>158.0</ele><time>2026-04-07T15:03:44Z</time></trkpt><trkpt lat="44.188727447698724" lon="9.6373649332855"><ele>156.20000000000002</ele><time>2026-04-07T15:03:45Z</time></trkpt><trkpt lat="44.188776644390714" lon="9.637286858728569"><ele>154.4</ele><time>2026-04-07T15:03:46Z</time></trkpt><trkpt lat="44.18885324531577" lon="9.637288566677448"><ele>152.60000000000002</ele><time>2026-04-07T15:03:47Z</time></trkpt><trkpt lat="44.188992788981615" lon="9.637433360580037"><ele>150.8</ele><time>2026-04-07T15:03:48.999Z</time></trkpt><trkpt lat="44.189064612157715" lon="9.637554368042661"><ele>149.0</ele><time>2026-04-07T15:03:49.999Z</time></trkpt><trkpt lat="44.18913237522341" lon="9.637691027112357"><ele>149.0</ele><time>2026-04-07T15:03:50.999Z</time></trkpt><trkpt lat="44.189199299800265" lon="9.637790387299203"><ele>149.0</ele><time>2026-04-07T15:03:51.999Z</time></trkpt><trkpt lat="44.18927351877301" lon="9.637830615705079"><ele>149.0</ele><time>2026-04-07T15:03:52.999Z</time></trkpt><trkpt lat="44.189362421674275" lon="9.63777776682351"><ele>149.0</ele><time>2026-04-07T15:03:53.999Z</time></trkpt><trkpt lat="44.189447019667135" lon="9.637668777914138"><ele>149.0</ele><time>2026-04-07T15:03:54.999Z</time></trkpt><trkpt lat="44.18949414159265" lon="9.637507485537675"><ele>149.0</ele><time>2026-04-07T15:03:55.999Z</time></trkpt><trkpt lat="44.189505775754604" lon="9.63732903190576"><ele>149.0</ele><time>2026-04-07T15:03:56.999Z</time></trkpt><trkpt lat="44.189486815713565" lon="9.637136589571616"><ele>149.0</ele><time>2026-04-07T15:03:57.999Z</time></trkpt><trkpt lat="44.18951495640711" lon="9.637026066409739"><ele>149.0</ele><time>2026-04-07T15:03:58.999Z</time></trkpt><trkpt lat="44.189540318538874" lon="9.636936367894183"><ele>149.0</ele><time>2026-04-07T15:03:59.999Z</time></trkpt><trkpt lat="44.18959800897734" lon="9.636894362811152"><ele>150.8</ele><time>2026-04-07T15:04:00.999Z</time></trkpt><trkpt lat="44.189678521381865" lon="9.636918849019898"><ele>152.60000000000002</ele><time>2026-04-07T15:04:01.999Z</time></trkpt><trkpt lat="44.18975764193827" lon="9.6369232908319"><ele>154.4</ele><time>2026-04-07T15:04:02.999Z</time></trkpt><trkpt lat="44.189860129820865" lon="9.636924474902715"><ele>156.20000000000002</ele><time>2026-04-07T15:04:03.999Z</time></trkpt><trkpt lat="44.18995574012524" lon="9.636925437297222"><ele>158.0</ele><time>2026-04-07T15:04:04.999Z</time></trkpt><trkpt lat="44.19004901417206" lon="9.63689010899918"><ele>158.0</ele><time>2026-04-07T15:04:05.999Z</time></trkpt><trkpt lat="44.19012295850317" lon="9.63683160220868"><ele>158.0</ele><time>2026-04-07T15:04:06.999Z</time></trkpt><trkpt lat="44.190142844531806" lon="9.636664629366063"><ele>158.0</ele><time>2026-04-07T15:04:07.999Z</time></trkpt><trkpt lat="44.19011068834936" lon="9.63650462915072"><ele>158.0</ele><time>2026-04-07T15:04:08.999Z</time></trkpt><trkpt lat="44.18999708619143" lon="9.636400160488622"><ele>158.0</ele><time>2026-04-07T15:04:09.999Z</time></trkpt><trkpt lat="44.18993286736992" lon="9.636298180250241"><ele>158.0</ele><time>2026-04-07T15:04:10.999Z</time></trkpt><trkpt lat="44.18989625374553" lon="9.636199154123338"><ele>158.0</ele><time>2026-04-07T15:04:11.999Z</time></trkpt><trkpt lat="44.18988839585096" lon="9.636082062054681"><ele>158.0</ele><time>2026-04-07T15:04:12.999Z</time></trkpt><trkpt lat="44.18993033194395" lon="9.635965591599243"><ele>158.0</ele><time>2026-04-07T15:04:13.999Z</time></trkpt><trkpt lat="44.189955507112984" lon="9.635835213470772"><ele>159.4</ele><time>2026-04-07T15:04:14.999Z</time></trkpt><trkpt lat="44.1899715992466" lon="9.635697907981125"><ele>160.8</ele><time>2026-04-07T15:04:15.999Z</time></trkpt><trkpt lat="44.19000368805193" lon="9.63557155075167"><ele>162.2</ele><time>2026-04-07T15:04:16.999Z</time></trkpt><trkpt lat="44.19003546121338" lon="9.63544505369417"><ele>163.6</ele><time>2026-04-07T15:04:17.999Z</time></trkpt><trkpt lat="44.19006279429063" lon="9.635308784964836"><ele>165.0</ele><time>2026-04-07T15:04:18.999Z</time></trkpt><trkpt lat="44.19006511468011" lon="9.635169291433794"><ele>168.0</ele><time>2026-04-07T15:04:19.999Z</time></trkpt><trkpt lat="44.19002758991158" lon="9.63502565792946"><ele>171.0</ele><time>2026-04-07T15:04:20.999Z</time></trkpt><trkpt lat="44.18995093471942" lon="9.634908859882716"><ele>174.0</ele><time>2026-04-07T15:04:21.999Z</time></trkpt><trkpt lat="44.18984947724512" lon="9.63482608456463"><ele>177.0</ele><time>2026-04-07T15:04:22.999Z</time></trkpt><trkpt lat="44.189730454417465" lon="9.634808106693033"><ele>170.6</ele><time>2026-04-07T15:04:23.999Z</time></trkpt><trkpt lat="44.189634803231996" lon="9.63473922120662"><ele>164.2</ele><time>2026-04-07T15:04:24.999Z</time></trkpt><trkpt lat="44.189558746935525" lon="9.634664131094661"><ele>157.8</ele><time>2026-04-07T15:04:25.999Z</time></trkpt><trkpt lat="44.189521421182484" lon="9.634539793224988"><ele>151.4</ele><time>2026-04-07T15:04:26.999Z</time></trkpt><trkpt lat="44.18952217541751" lon="9.634386323475843"><ele>145.0</ele><time>2026-04-07T15:04:27.999Z</time></trkpt><trkpt lat="44.18951820632652" lon="9.634227513335755"><ele>145.0</ele><time>2026-04-07T15:04:28.999Z</time></trkpt><trkpt lat="44.18953467118292" lon="9.634113503287885"><ele>145.0</ele><time>2026-04-07T15:04:29.999Z</time></trkpt><trkpt lat="44.189578118971085" lon="9.634024451657769"><ele>145.0</ele><time>2026-04-07T15:04:30.999Z</time></trkpt><trkpt lat="44.18968541742876" lon="9.633991100249519"><ele>145.0</ele><time>2026-04-07T15:04:31.999Z</time></trkpt><trkpt lat="44.18978971519589" lon="9.633985568195074"><ele>145.0</ele><time>2026-04-07T15:04:32.999Z</time></trkpt><trkpt lat="44.18989734002293" lon="9.633978962731325"><ele>151.16666666666669</ele><time>2026-04-07T15:04:33.999Z</time></trkpt><trkpt lat="44.18999878355872" lon="9.633950697590958"><ele>157.33333333333334</ele><time>2026-04-07T15:04:34.999Z</time></trkpt><trkpt lat="44.19007214331925" lon="9.633897766963376"><ele>163.5</ele><time>2026-04-07T15:04:35.999Z</time></trkpt><trkpt lat="44.190128686460014" lon="9.633833805996137"><ele>169.66666666666666</ele><time>2026-04-07T15:04:36.999Z</time></trkpt><trkpt lat="44.19018221298658" lon="9.633781769709959"><ele>175.83333333333331</ele><time>2026-04-07T15:04:37.999Z</time></trkpt><trkpt lat="44.190244605244175" lon="9.63375138052414"><ele>182.0</ele><time>2026-04-07T15:04:38.999Z</time></trkpt><trkpt lat="44.19035568161755" lon="9.63367973654794"><ele>182.0</ele><time>2026-04-07T15:04:40.999Z</time></trkpt><trkpt lat="44.190423044523264" lon="9.633655862764375"><ele>182.0</ele><time>2026-04-07T15:04:41.999Z</time></trkpt><trkpt lat="44.190493930785614" lon="9.6336593931895"><ele>182.0</ele><time>2026-04-07T15:04:42.999Z</time></trkpt><trkpt lat="44.19057085331543" lon="9.63367234717112"><ele>182.0</ele><time>2026-04-07T15:04:43.999Z</time></trkpt><trkpt lat="44.190659213933564" lon="9.63365230123382"><ele>182.0</ele><time>2026-04-07T15:04:44.999Z</time></trkpt><trkpt lat="44.19074068685609" lon="9.63362541360516"><ele>182.0</ele><time>2026-04-07T15:04:45.999Z</time></trkpt><trkpt lat="44.19082019400933" lon="9.633580863971048"><ele>181.33333333333331</ele><time>2026-04-07T15:04:46.999Z</time></trkpt><trkpt lat="44.190888728962925" lon="9.63351681790101"><ele>180.66666666666666</ele><time>2026-04-07T15:04:47.999Z</time></trkpt><trkpt lat="44.19094311125733" lon="9.633433530180815"><ele>180.0</ele><time>2026-04-07T15:04:48.999Z</time></trkpt><trkpt lat="44.19099622377024" lon="9.633348560653836"><ele>179.33333333333334</ele><time>2026-04-07T15:04:49.999Z</time></trkpt><trkpt lat="44.1910464285139" lon="9.633274633342266"><ele>178.66666666666669</ele><time>2026-04-07T15:04:50.999Z</time></trkpt><trkpt lat="44.19110293910492" lon="9.633227998451286"><ele>178.0</ele><time>2026-04-07T15:04:51.999Z</time></trkpt><trkpt lat="44.191205244046365" lon="9.63318630485646"><ele>178.0</ele><time>2026-04-07T15:04:53.999Z</time></trkpt><trkpt lat="44.19130060378352" lon="9.633191590841927"><ele>178.0</ele><time>2026-04-07T15:04:55.998Z</time></trkpt><trkpt lat="44.19137049375002" lon="9.633209510645754"><ele>178.0</ele><time>2026-04-07T15:04:57.998Z</time></trkpt><trkpt lat="44.19145030148359" lon="9.6332415990281"><ele>178.0</ele><time>2026-04-07T15:04:59.998Z</time></trkpt><trkpt lat="44.19155331526276" lon="9.6332767414204"><ele>178.0</ele><time>2026-04-07T15:05:01.998Z</time></trkpt><trkpt lat="44.19164280417667" lon="9.63327861608598"><ele>178.0</ele><time>2026-04-07T15:05:03.998Z</time></trkpt><trkpt lat="44.19173170617995" lon="9.633235398431381"><ele>181.0</ele><time>2026-04-07T15:05:05.998Z</time></trkpt><trkpt lat="44.19183683050353" lon="9.633161846665374"><ele>184.0</ele><time>2026-04-07T15:05:07.998Z</time></trkpt><trkpt lat="44.191904768495746" lon="9.63312538584857"><ele>187.0</ele><time>2026-04-07T15:05:09.998Z</time></trkpt><trkpt lat="44.192004337339355" lon="9.63316182498706"><ele>190.0</ele><time>2026-04-07T15:05:13Z</time></trkpt><trkpt lat="44.192062979047854" lon="9.633195725164752"><ele>192.99999999999997</ele><time>2026-04-07T15:05:14Z</time></trkpt><trkpt lat="44.192139295910586" lon="9.633251034452332"><ele>196.0</ele><time>2026-04-07T15:05:15Z</time></trkpt><trkpt lat="44.19222415644345" lon="9.633306451678548"><ele>196.0</ele><time>2026-04-07T15:05:16Z</time></trkpt><trkpt lat="44.192311812977316" lon="9.633380722783299"><ele>196.0</ele><time>2026-04-07T15:05:17Z</time></trkpt><trkpt lat="44.192420690347866" lon="9.633459122141609"><ele>196.0</ele><time>2026-04-07T15:05:18Z</time></trkpt><trkpt lat="44.19251185076862" lon="9.633515108947956"><ele>196.0</ele><time>2026-04-07T15:05:19Z</time></trkpt><trkpt lat="44.19259192275725" lon="9.633542365187845"><ele>196.0</ele><time>2026-04-07T15:05:20Z</time></trkpt><trkpt lat="44.192679665385036" lon="9.633529023161511"><ele>198.0</ele><time>2026-04-07T15:05:21Z</time></trkpt><trkpt lat="44.19275894447278" lon="9.63345573421833"><ele>200.0</ele><time>2026-04-07T15:05:22Z</time></trkpt><trkpt lat="44.1927824844899" lon="9.633283653221545"><ele>202.0</ele><time>2026-04-07T15:05:23Z</time></trkpt><trkpt lat="44.192805354895576" lon="9.633134630733549"><ele>204.0</ele><time>2026-04-07T15:05:24Z</time></trkpt><trkpt lat="44.1928186919139" lon="9.632986537225378"><ele>206.0</ele><time>2026-04-07T15:05:25Z</time></trkpt><trkpt lat="44.19283749489211" lon="9.632827146749836"><ele>204.50000000000003</ele><time>2026-04-07T15:05:26Z</time></trkpt><trkpt lat="44.192865418755424" lon="9.632695590451801"><ele>203.0</ele><time>2026-04-07T15:05:27Z</time></trkpt><trkpt lat="44.192895715615165" lon="9.6326033321356"><ele>201.5</ele><time>2026-04-07T15:05:28Z</time></trkpt><trkpt lat="44.192958982514746" lon="9.632563246705056"><ele>200.0</ele><time>2026-04-07T15:05:29Z</time></trkpt><trkpt lat="44.19303793195589" lon="9.63257487370012"><ele>198.50000000000003</ele><time>2026-04-07T15:05:30Z</time></trkpt><trkpt lat="44.19313476354554" lon="9.632600959563757"><ele>197.0</ele><time>2026-04-07T15:05:31Z</time></trkpt><trkpt lat="44.19324044537042" lon="9.632643082085998"><ele>197.0</ele><time>2026-04-07T15:05:32Z</time></trkpt><trkpt lat="44.19333276399744" lon="9.63268993037122"><ele>197.0</ele><time>2026-04-07T15:05:33Z</time></trkpt><trkpt lat="44.19339070106839" lon="9.632793258919508"><ele>197.0</ele><time>2026-04-07T15:05:34Z</time></trkpt><trkpt lat="44.193459804868816" lon="9.632894064564649"><ele>197.0</ele><time>2026-04-07T15:05:35Z</time></trkpt><trkpt lat="44.193528002499335" lon="9.633031057314556"><ele>197.0</ele><time>2026-04-07T15:05:36Z</time></trkpt><trkpt lat="44.19359591590224" lon="9.633157179345169"><ele>202.0</ele><time>2026-04-07T15:05:37Z</time></trkpt><trkpt lat="44.19367164233393" lon="9.633281571536342"><ele>207.0</ele><time>2026-04-07T15:05:38Z</time></trkpt><trkpt lat="44.19374107242276" lon="9.633373208606615"><ele>212.0</ele><time>2026-04-07T15:05:39Z</time></trkpt><trkpt lat="44.193796803255744" lon="9.633439388287314"><ele>217.0</ele><time>2026-04-07T15:05:40Z</time></trkpt><trkpt lat="44.193926297286325" lon="9.633456591602823"><ele>222.0</ele><time>2026-04-07T15:05:42Z</time></trkpt><trkpt lat="44.19400570366048" lon="9.633387710458186"><ele>224.0</ele><time>2026-04-07T15:05:43Z</time></trkpt><trkpt lat="44.194038428047946" lon="9.633246862507034"><ele>226.0</ele><time>2026-04-07T15:05:44Z</time></trkpt><trkpt lat="44.19405914251293" lon="9.633112555749232"><ele>228.0</ele><time>2026-04-07T15:05:45Z</time></trkpt><trkpt lat="44.19405276365203" lon="9.6329489064093"><ele>230.0</ele><time>2026-04-07T15:05:46Z</time></trkpt><trkpt lat="44.194050915609246" lon="9.632799434347824"><ele>232.0</ele><time>2026-04-07T15:05:47Z</time></trkpt><trkpt lat="44.1940541244599" lon="9.632640322998675"><ele>232.0</ele><time>2026-04-07T15:05:48Z</time></trkpt><trkpt lat="44.194053517973536" lon="9.632522670591337"><ele>232.0</ele><time>2026-04-07T15:05:49Z</time></trkpt><trkpt lat="44.19404934871129" lon="9.632327147402076"><ele>232.0</ele><time>2026-04-07T15:05:50Z</time></trkpt><trkpt lat="44.19404087464289" lon="9.632126547349214"><ele>232.0</ele><time>2026-04-07T15:05:51Z</time></trkpt><trkpt lat="44.19404830703312" lon="9.631951643617063"><ele>229.8</ele><time>2026-04-07T15:05:52Z</time></trkpt><trkpt lat="44.194057704230154" lon="9.631773969779719"><ele>227.6</ele><time>2026-04-07T15:05:53Z</time></trkpt><trkpt lat="44.19404965086753" lon="9.631604997926768"><ele>225.40000000000003</ele><time>2026-04-07T15:05:54Z</time></trkpt><trkpt lat="44.19405586390815" lon="9.631464929772514"><ele>223.20000000000002</ele><time>2026-04-07T15:05:55Z</time></trkpt><trkpt lat="44.19405643949951" lon="9.631326713956161"><ele>221.0</ele><time>2026-04-07T15:05:56Z</time></trkpt><trkpt lat="44.19412912394748" lon="9.631223380511585"><ele>217.75</ele><time>2026-04-07T15:05:57Z</time></trkpt><trkpt lat="44.19419797546138" lon="9.631087107405962"><ele>214.5</ele><time>2026-04-07T15:05:58Z</time></trkpt><trkpt lat="44.19425841608936" lon="9.630942875261985"><ele>211.25</ele><time>2026-04-07T15:05:59Z</time></trkpt><trkpt lat="44.19433348189064" lon="9.630820592132892"><ele>208.0</ele><time>2026-04-07T15:05:59.999Z</time></trkpt><trkpt lat="44.19441945230342" lon="9.630702742284189"><ele>208.0</ele><time>2026-04-07T15:06:00.999Z</time></trkpt><trkpt lat="44.19451325388192" lon="9.630628432066201"><ele>208.0</ele><time>2026-04-07T15:06:01.999Z</time></trkpt><trkpt lat="44.1946076476951" lon="9.630541150172366"><ele>208.0</ele><time>2026-04-07T15:06:02.999Z</time></trkpt><trkpt lat="44.19471013846159" lon="9.630476639552407"><ele>208.0</ele><time>2026-04-07T15:06:03.999Z</time></trkpt><trkpt lat="44.19480933264564" lon="9.630399022345076"><ele>208.0</ele><time>2026-04-07T15:06:04.999Z</time></trkpt><trkpt lat="44.19491156865841" lon="9.630359621944436"><ele>211.60000000000002</ele><time>2026-04-07T15:06:05.999Z</time></trkpt><trkpt lat="44.195013256372185" lon="9.630345863908808"><ele>215.20000000000002</ele><time>2026-04-07T15:06:06.999Z</time></trkpt><trkpt lat="44.195121716048355" lon="9.63037800183284"><ele>218.8</ele><time>2026-04-07T15:06:07.999Z</time></trkpt><trkpt lat="44.195211428455984" lon="9.630379954497707"><ele>222.4</ele><time>2026-04-07T15:06:08.999Z</time></trkpt><trkpt lat="44.19528349931437" lon="9.630376424374852"><ele>226.0</ele><time>2026-04-07T15:06:09.999Z</time></trkpt><trkpt lat="44.19534377525385" lon="9.630297448362779"><ele>226.0</ele><time>2026-04-07T15:06:10.999Z</time></trkpt><trkpt lat="44.19537145943266" lon="9.630171559446895"><ele>226.00000000000003</ele><time>2026-04-07T15:06:11.999Z</time></trkpt><trkpt lat="44.19535176225632" lon="9.630024944814705"><ele>226.00000000000003</ele><time>2026-04-07T15:06:12.999Z</time></trkpt><trkpt lat="44.19529032760855" lon="9.629886866911265"><ele>226.0</ele><time>2026-04-07T15:06:13.999Z</time></trkpt><trkpt lat="44.195234849356034" lon="9.629751607921527"><ele>226.0</ele><time>2026-04-07T15:06:14.999Z</time></trkpt><trkpt lat="44.195171760212226" lon="9.629628623301913"><ele>226.0</ele><time>2026-04-07T15:06:15.999Z</time></trkpt><trkpt lat="44.1950869048257" lon="9.629527434810294"><ele>226.0</ele><time>2026-04-07T15:06:16.999Z</time></trkpt><trkpt lat="44.19496532384804" lon="9.62948130335646"><ele>226.0</ele><time>2026-04-07T15:06:17.999Z</time></trkpt><trkpt lat="44.194850361688864" lon="9.629396742506442"><ele>226.0</ele><time>2026-04-07T15:06:18.999Z</time></trkpt><trkpt lat="44.194735179638904" lon="9.629306552361008"><ele>226.5</ele><time>2026-04-07T15:06:19.999Z</time></trkpt><trkpt lat="44.194620421871754" lon="9.629234797813464"><ele>227.0</ele><time>2026-04-07T15:06:20.999Z</time></trkpt><trkpt lat="44.19448211253857" lon="9.629240610208672"><ele>227.5</ele><time>2026-04-07T15:06:21.999Z</time></trkpt><trkpt lat="44.194344486481214" lon="9.62927643311444"><ele>228.0</ele><time>2026-04-07T15:06:22.999Z</time></trkpt><trkpt lat="44.194217582649465" lon="9.629287346519199"><ele>228.0</ele><time>2026-04-07T15:06:23.999Z</time></trkpt><trkpt lat="44.194093919965574" lon="9.629273033096819"><ele>228.0</ele><time>2026-04-07T15:06:24.999Z</time></trkpt><trkpt lat="44.19397218011994" lon="9.62926512043065"><ele>228.0</ele><time>2026-04-07T15:06:25.999Z</time></trkpt><trkpt lat="44.19384803516766" lon="9.629268976805013"><ele>228.0</ele><time>2026-04-07T15:06:26.999Z</time></trkpt><trkpt lat="44.19375158077" lon="9.629324954203959"><ele>226.5</ele><time>2026-04-07T15:06:27.999Z</time></trkpt><trkpt lat="44.193672149367984" lon="9.629363871258176"><ele>225.0</ele><time>2026-04-07T15:06:28.999Z</time></trkpt><trkpt lat="44.193603675887424" lon="9.629377524777329"><ele>223.5</ele><time>2026-04-07T15:06:29.999Z</time></trkpt><trkpt lat="44.193514802179024" lon="9.629330192919584"><ele>222.0</ele><time>2026-04-07T15:06:31.999Z</time></trkpt><trkpt lat="44.19353762670488" lon="9.629239711006985"><ele>220.5</ele><time>2026-04-07T15:06:33.999Z</time></trkpt><trkpt lat="44.19357937209246" lon="9.629162931911344"><ele>219.0</ele><time>2026-04-07T15:06:34.999Z</time></trkpt><trkpt lat="44.193647396772754" lon="9.62906800739516"><ele>219.0</ele><time>2026-04-07T15:06:35.999Z</time></trkpt><trkpt lat="44.19373201427558" lon="9.628970119487786"><ele>218.99999999999997</ele><time>2026-04-07T15:06:36.999Z</time></trkpt><trkpt lat="44.19381230885143" lon="9.628875483821437"><ele>218.99999999999997</ele><time>2026-04-07T15:06:37.999Z</time></trkpt><trkpt lat="44.19389001752152" lon="9.628779757562352"><ele>219.0</ele><time>2026-04-07T15:06:38.999Z</time></trkpt><trkpt lat="44.1939557968824" lon="9.628671949972189"><ele>219.0</ele><time>2026-04-07T15:06:39.999Z</time></trkpt><trkpt lat="44.194017825138076" lon="9.628547024253301"><ele>218.6</ele><time>2026-04-07T15:06:40.999Z</time></trkpt><trkpt lat="44.194061042640556" lon="9.62840198929383"><ele>218.2</ele><time>2026-04-07T15:06:41.999Z</time></trkpt><trkpt lat="44.19408629893116" lon="9.628254318180156"><ele>217.79999999999998</ele><time>2026-04-07T15:06:42.999Z</time></trkpt><trkpt lat="44.19410531120384" lon="9.628126179645141"><ele>217.39999999999998</ele><time>2026-04-07T15:06:43.999Z</time></trkpt><trkpt lat="44.19414401045618" lon="9.628024288242102"><ele>217.0</ele><time>2026-04-07T15:06:44.999Z</time></trkpt><trkpt lat="44.194195659069486" lon="9.627941847417206"><ele>217.0</ele><time>2026-04-07T15:06:45.999Z</time></trkpt><trkpt lat="44.19424630395241" lon="9.627875007218623"><ele>217.0</ele><time>2026-04-07T15:06:46.999Z</time></trkpt><trkpt lat="44.1943384152456" lon="9.627786544128497"><ele>217.0</ele><time>2026-04-07T15:06:48.999Z</time></trkpt><trkpt lat="44.19440143148403" lon="9.627760864693705"><ele>217.0</ele><time>2026-04-07T15:06:50.999Z</time></trkpt><trkpt lat="44.194231979336195" lon="9.62768441336021"><ele>217.0</ele><time>2026-04-07T15:07:02.999Z</time></trkpt><trkpt lat="44.194159212871575" lon="9.627751627152653"><ele>216.99999999999997</ele><time>2026-04-07T15:07:03.999Z</time></trkpt><trkpt lat="44.19409739068333" lon="9.627829657567887"><ele>217.0</ele><time>2026-04-07T15:07:04.999Z</time></trkpt><trkpt lat="44.194043304038736" lon="9.627917322100469"><ele>217.0</ele><time>2026-04-07T15:07:05.999Z</time></trkpt><trkpt lat="44.19399125439746" lon="9.628012774674007"><ele>217.0</ele><time>2026-04-07T15:07:06.999Z</time></trkpt><trkpt lat="44.19394104127053" lon="9.628122013255455"><ele>216.99999999999997</ele><time>2026-04-07T15:07:07.998Z</time></trkpt><trkpt lat="44.19389297389863" lon="9.628241020368575"><ele>217.0</ele><time>2026-04-07T15:07:08.998Z</time></trkpt><trkpt lat="44.19383847273184" lon="9.628350857487694"><ele>212.39999999999998</ele><time>2026-04-07T15:07:09.998Z</time></trkpt><trkpt lat="44.19377014055436" lon="9.62845299463242"><ele>207.79999999999998</ele><time>2026-04-07T15:07:10.998Z</time></trkpt><trkpt lat="44.193689321963404" lon="9.628535594751028"><ele>203.2</ele><time>2026-04-07T15:07:11.998Z</time></trkpt><trkpt lat="44.193594571651616" lon="9.628580753461772"><ele>198.6</ele><time>2026-04-07T15:07:12.998Z</time></trkpt><trkpt lat="44.19348902952016" lon="9.628557603869794"><ele>194.0</ele><time>2026-04-07T15:07:13.998Z</time></trkpt><trkpt lat="44.19338720515888" lon="9.628478835669618"><ele>194.0</ele><time>2026-04-07T15:07:14.998Z</time></trkpt><trkpt lat="44.19329599302876" lon="9.628365331142927"><ele>194.0</ele><time>2026-04-07T15:07:15.998Z</time></trkpt><trkpt lat="44.1931964169071" lon="9.628292793913976"><ele>194.0</ele><time>2026-04-07T15:07:16.998Z</time></trkpt><trkpt lat="44.19307990873183" lon="9.62829943329583"><ele>194.0</ele><time>2026-04-07T15:07:18Z</time></trkpt><trkpt lat="44.19295085045369" lon="9.628357405299576"><ele>191.75</ele><time>2026-04-07T15:07:19Z</time></trkpt><trkpt lat="44.19282326837227" lon="9.628451617239968"><ele>189.5</ele><time>2026-04-07T15:07:20Z</time></trkpt><trkpt lat="44.192687342712674" lon="9.628503446070141"><ele>187.25</ele><time>2026-04-07T15:07:21Z</time></trkpt><trkpt lat="44.19256340169858" lon="9.62855611133726"><ele>185.0</ele><time>2026-04-07T15:07:22Z</time></trkpt><trkpt lat="44.19244185488486" lon="9.628604631264215"><ele>184.6</ele><time>2026-04-07T15:07:23Z</time></trkpt><trkpt lat="44.19232512836693" lon="9.628647526908688"><ele>184.2</ele><time>2026-04-07T15:07:24Z</time></trkpt><trkpt lat="44.192214005369266" lon="9.628673625895376"><ele>183.8</ele><time>2026-04-07T15:07:25Z</time></trkpt><trkpt lat="44.19211044049525" lon="9.628681134962076"><ele>183.4</ele><time>2026-04-07T15:07:26Z</time></trkpt><trkpt lat="44.19201305904265" lon="9.62866804113391"><ele>183.0</ele><time>2026-04-07T15:07:27Z</time></trkpt><trkpt lat="44.191919501057434" lon="9.628613075131097"><ele>183.0</ele><time>2026-04-07T15:07:28Z</time></trkpt><trkpt lat="44.19183404575503" lon="9.628536808872628"><ele>183.0</ele><time>2026-04-07T15:07:29Z</time></trkpt><trkpt lat="44.191768918579214" lon="9.6284204633964"><ele>183.0</ele><time>2026-04-07T15:07:30Z</time></trkpt><trkpt lat="44.19171376191944" lon="9.628302338409767"><ele>183.0</ele><time>2026-04-07T15:07:31Z</time></trkpt><trkpt lat="44.19165790019238" lon="9.628205777316573"><ele>183.0</ele><time>2026-04-07T15:07:32Z</time></trkpt><trkpt lat="44.19158532185005" lon="9.6281461737839"><ele>183.2</ele><time>2026-04-07T15:07:33Z</time></trkpt><trkpt lat="44.19150433417434" lon="9.628125831311403"><ele>183.4</ele><time>2026-04-07T15:07:34Z</time></trkpt><trkpt lat="44.19141581870041" lon="9.628149762404117"><ele>183.6</ele><time>2026-04-07T15:07:35Z</time></trkpt><trkpt lat="44.1913380563267" lon="9.628222939724363"><ele>183.79999999999998</ele><time>2026-04-07T15:07:36Z</time></trkpt><trkpt lat="44.191284659358764" lon="9.628331395003999"><ele>184.0</ele><time>2026-04-07T15:07:37Z</time></trkpt><trkpt lat="44.19122314073533" lon="9.628431166461285"><ele>184.0</ele><time>2026-04-07T15:07:38Z</time></trkpt><trkpt lat="44.19115033908217" lon="9.628507388328261"><ele>184.0</ele><time>2026-04-07T15:07:39Z</time></trkpt><trkpt lat="44.1910675226558" lon="9.628534023515387"><ele>184.0</ele><time>2026-04-07T15:07:40Z</time></trkpt><trkpt lat="44.190980557287155" lon="9.628523595168826"><ele>184.0</ele><time>2026-04-07T15:07:41Z</time></trkpt><trkpt lat="44.19090738757646" lon="9.628453201437585"><ele>184.0</ele><time>2026-04-07T15:07:42Z</time></trkpt><trkpt lat="44.19084370878343" lon="9.628342958065025"><ele>184.0</ele><time>2026-04-07T15:07:43Z</time></trkpt><trkpt lat="44.19078367353032" lon="9.628236469165945"><ele>184.0</ele><time>2026-04-07T15:07:44Z</time></trkpt><trkpt lat="44.190707286049566" lon="9.628114776323702"><ele>184.0</ele><time>2026-04-07T15:07:45Z</time></trkpt><trkpt lat="44.19065790398104" lon="9.628009944687335"><ele>184.0</ele><time>2026-04-07T15:07:46Z</time></trkpt><trkpt lat="44.190600652924125" lon="9.627917911097216"><ele>184.0</ele><time>2026-04-07T15:07:47Z</time></trkpt><trkpt lat="44.190524644107185" lon="9.627846405845448"><ele>183.2</ele><time>2026-04-07T15:07:48Z</time></trkpt><trkpt lat="44.1904361843091" lon="9.627810738328286"><ele>182.39999999999998</ele><time>2026-04-07T15:07:49Z</time></trkpt><trkpt lat="44.1903369766708" lon="9.627823110612887"><ele>181.6</ele><time>2026-04-07T15:07:50Z</time></trkpt><trkpt lat="44.1902372010959" lon="9.627882644975891"><ele>180.8</ele><time>2026-04-07T15:07:51Z</time></trkpt><trkpt lat="44.190154732149566" lon="9.627946159176853"><ele>180.0</ele><time>2026-04-07T15:07:52Z</time></trkpt><trkpt lat="44.19006495371731" lon="9.627966147056476"><ele>180.0</ele><time>2026-04-07T15:07:53Z</time></trkpt><trkpt lat="44.1899753176573" lon="9.627943656536399"><ele>180.0</ele><time>2026-04-07T15:07:54Z</time></trkpt><trkpt lat="44.18988700962117" lon="9.627880658889998"><ele>180.0</ele><time>2026-04-07T15:07:55Z</time></trkpt><trkpt lat="44.189811937984466" lon="9.62779097582681"><ele>180.0</ele><time>2026-04-07T15:07:56Z</time></trkpt><trkpt lat="44.189734934742404" lon="9.62769082145539"><ele>180.0</ele><time>2026-04-07T15:07:57Z</time></trkpt><trkpt lat="44.18963953850752" lon="9.627629329901904"><ele>178.8</ele><time>2026-04-07T15:07:58Z</time></trkpt><trkpt lat="44.1895265477877" lon="9.627608250468327"><ele>177.6</ele><time>2026-04-07T15:07:59Z</time></trkpt><trkpt lat="44.18942109198632" lon="9.627591428200441"><ele>176.39999999999998</ele><time>2026-04-07T15:08:00Z</time></trkpt><trkpt lat="44.1893215994726" lon="9.627534038239089"><ele>175.2</ele><time>2026-04-07T15:08:01Z</time></trkpt><trkpt lat="44.18923166049048" lon="9.627430987730001"><ele>174.0</ele><time>2026-04-07T15:08:02Z</time></trkpt><trkpt lat="44.189159482170915" lon="9.627309131324925"><ele>174.0</ele><time>2026-04-07T15:08:03Z</time></trkpt><trkpt lat="44.18907123449045" lon="9.627201350609939"><ele>174.0</ele><time>2026-04-07T15:08:04Z</time></trkpt><trkpt lat="44.18897072420425" lon="9.62711626405168"><ele>174.0</ele><time>2026-04-07T15:08:05Z</time></trkpt><trkpt lat="44.18885926210257" lon="9.62704553347327"><ele>174.0</ele><time>2026-04-07T15:08:06Z</time></trkpt><trkpt lat="44.18875842050252" lon="9.62698941832936"><ele>172.2</ele><time>2026-04-07T15:08:07Z</time></trkpt><trkpt lat="44.18865736723506" lon="9.626923939288611"><ele>170.39999999999998</ele><time>2026-04-07T15:08:07.999Z</time></trkpt><trkpt lat="44.18857578370356" lon="9.626828389607805"><ele>168.6</ele><time>2026-04-07T15:08:08.999Z</time></trkpt><trkpt lat="44.18851299550665" lon="9.626715168813732"><ele>166.8</ele><time>2026-04-07T15:08:09.999Z</time></trkpt><trkpt lat="44.18845680200841" lon="9.62659423164209"><ele>165.0</ele><time>2026-04-07T15:08:10.999Z</time></trkpt><trkpt lat="44.18839055598972" lon="9.626481381364577"><ele>165.0</ele><time>2026-04-07T15:08:11.999Z</time></trkpt><trkpt lat="44.188300236081254" lon="9.626398381933825"><ele>165.0</ele><time>2026-04-07T15:08:12.999Z</time></trkpt><trkpt lat="44.188186610501674" lon="9.626346696653284"><ele>165.0</ele><time>2026-04-07T15:08:13.999Z</time></trkpt><trkpt lat="44.1880664248132" lon="9.626315959727274"><ele>165.0</ele><time>2026-04-07T15:08:14.999Z</time></trkpt><trkpt lat="44.18795940300646" lon="9.626279562013927"><ele>164.4</ele><time>2026-04-07T15:08:15.999Z</time></trkpt><trkpt lat="44.1878613737263" lon="9.626232215746343"><ele>163.8</ele><time>2026-04-07T15:08:16.999Z</time></trkpt><trkpt lat="44.18776384149758" lon="9.626182716566996"><ele>163.2</ele><time>2026-04-07T15:08:17.999Z</time></trkpt><trkpt lat="44.1876595685806" lon="9.626111921367286"><ele>162.6</ele><time>2026-04-07T15:08:18.999Z</time></trkpt><trkpt lat="44.18756672523392" lon="9.626041535718649"><ele>162.0</ele><time>2026-04-07T15:08:19.999Z</time></trkpt><trkpt lat="44.18748393978647" lon="9.62594665650051"><ele>159.4</ele><time>2026-04-07T15:08:20.999Z</time></trkpt><trkpt lat="44.1874042033321" lon="9.62585098782399"><ele>156.79999999999998</ele><time>2026-04-07T15:08:21.999Z</time></trkpt><trkpt lat="44.1873306905854" lon="9.625767439616519"><ele>154.2</ele><time>2026-04-07T15:08:22.999Z</time></trkpt><trkpt lat="44.18726878082468" lon="9.625667111729369"><ele>151.6</ele><time>2026-04-07T15:08:23.999Z</time></trkpt><trkpt lat="44.18722257925761" lon="9.625555872772859"><ele>149.0</ele><time>2026-04-07T15:08:24.999Z</time></trkpt><trkpt lat="44.18718401845774" lon="9.625432137192838"><ele>148.2</ele><time>2026-04-07T15:08:25.999Z</time></trkpt><trkpt lat="44.18713245283055" lon="9.625299791918984"><ele>147.4</ele><time>2026-04-07T15:08:26.999Z</time></trkpt><trkpt lat="44.187058779648936" lon="9.625199590115091"><ele>146.6</ele><time>2026-04-07T15:08:27.999Z</time></trkpt><trkpt lat="44.186956568410885" lon="9.625129518143648"><ele>145.8</ele><time>2026-04-07T15:08:28.999Z</time></trkpt><trkpt lat="44.18684581472742" lon="9.625088611412506"><ele>145.0</ele><time>2026-04-07T15:08:29.999Z</time></trkpt><trkpt lat="44.1867350060028" lon="9.625066509747601"><ele>145.0</ele><time>2026-04-07T15:08:30.999Z</time></trkpt><trkpt lat="44.18663686303426" lon="9.625023326475512"><ele>145.0</ele><time>2026-04-07T15:08:31.999Z</time></trkpt><trkpt lat="44.18654976055231" lon="9.624927144201175"><ele>145.0</ele><time>2026-04-07T15:08:32.999Z</time></trkpt><trkpt lat="44.18649803214305" lon="9.624791373984309"><ele>145.0</ele><time>2026-04-07T15:08:33.999Z</time></trkpt><trkpt lat="44.18645788567281" lon="9.62465447094698"><ele>145.0</ele><time>2026-04-07T15:08:34.999Z</time></trkpt><trkpt lat="44.18643683157427" lon="9.624511784893583"><ele>146.2</ele><time>2026-04-07T15:08:35.999Z</time></trkpt><trkpt lat="44.18639439578266" lon="9.624377400663091"><ele>147.4</ele><time>2026-04-07T15:08:36.999Z</time></trkpt><trkpt lat="44.18631643124657" lon="9.624274760674178"><ele>148.6</ele><time>2026-04-07T15:08:37.999Z</time></trkpt><trkpt lat="44.186230654417805" lon="9.624181875654468"><ele>149.8</ele><time>2026-04-07T15:08:38.999Z</time></trkpt><trkpt lat="44.18615706270371" lon="9.624089659113666"><ele>151.0</ele><time>2026-04-07T15:08:39.999Z</time></trkpt><trkpt lat="44.18610835547181" lon="9.623989360331327"><ele>151.0</ele><time>2026-04-07T15:08:40.999Z</time></trkpt><trkpt lat="44.18611224240296" lon="9.623879836268673"><ele>151.0</ele><time>2026-04-07T15:08:41.999Z</time></trkpt><trkpt lat="44.186122937618656" lon="9.623781735841149"><ele>151.0</ele><time>2026-04-07T15:08:42.999Z</time></trkpt><trkpt lat="44.18616983558989" lon="9.62370227113809"><ele>151.0</ele><time>2026-04-07T15:08:43.999Z</time></trkpt><trkpt lat="44.186247686809175" lon="9.623671728938419"><ele>151.0</ele><time>2026-04-07T15:08:44.999Z</time></trkpt><trkpt lat="44.18632972662275" lon="9.623707760355982"><ele>151.0</ele><time>2026-04-07T15:08:45.999Z</time></trkpt><trkpt lat="44.186383638904594" lon="9.623797807720898"><ele>151.0</ele><time>2026-04-07T15:08:46.999Z</time></trkpt><trkpt lat="44.18639557494408" lon="9.623934986490667"><ele>151.0</ele><time>2026-04-07T15:08:47.999Z</time></trkpt><trkpt lat="44.186437204113055" lon="9.624057593556953"><ele>151.0</ele><time>2026-04-07T15:08:48.999Z</time></trkpt><trkpt lat="44.186460479413725" lon="9.624188530037218"><ele>151.0</ele><time>2026-04-07T15:08:49.999Z</time></trkpt><trkpt lat="44.18650056033016" lon="9.624322867414488"><ele>151.0</ele><time>2026-04-07T15:08:50.999Z</time></trkpt><trkpt lat="44.18654629638457" lon="9.62445429886724"><ele>149.8</ele><time>2026-04-07T15:08:51.999Z</time></trkpt><trkpt lat="44.18660254145756" lon="9.62458482271753"><ele>148.6</ele><time>2026-04-07T15:08:52.999Z</time></trkpt><trkpt lat="44.186685086887614" lon="9.624684168279497"><ele>147.4</ele><time>2026-04-07T15:08:53.999Z</time></trkpt><trkpt lat="44.18677786497441" lon="9.624753103423172"><ele>146.2</ele><time>2026-04-07T15:08:54.999Z</time></trkpt><trkpt lat="44.18689142904284" lon="9.624770332048126"><ele>145.0</ele><time>2026-04-07T15:08:55.999Z</time></trkpt><trkpt lat="44.187005007851695" lon="9.624755728171023"><ele>145.0</ele><time>2026-04-07T15:08:56.999Z</time></trkpt><trkpt lat="44.18711316888253" lon="9.624707364500399"><ele>145.0</ele><time>2026-04-07T15:08:57.999Z</time></trkpt><trkpt lat="44.18721836602738" lon="9.624649784161326"><ele>145.0</ele><time>2026-04-07T15:08:58.999Z</time></trkpt><trkpt lat="44.18731939227473" lon="9.624642806438008"><ele>145.0</ele><time>2026-04-07T15:08:59.999Z</time></trkpt><trkpt lat="44.187420865532594" lon="9.624630479190985"><ele>145.0</ele><time>2026-04-07T15:09:00.999Z</time></trkpt><trkpt lat="44.187514508933695" lon="9.624685502829093"><ele>141.8</ele><time>2026-04-07T15:09:01.999Z</time></trkpt><trkpt lat="44.18760493600547" lon="9.624775715639704"><ele>138.6</ele><time>2026-04-07T15:09:02.999Z</time></trkpt><trkpt lat="44.18764630458257" lon="9.624918475798605"><ele>135.4</ele><time>2026-04-07T15:09:03.999Z</time></trkpt><trkpt lat="44.18770500632176" lon="9.625058046517685"><ele>132.2</ele><time>2026-04-07T15:09:04.999Z</time></trkpt><trkpt lat="44.18776118896403" lon="9.62518388915393"><ele>129.0</ele><time>2026-04-07T15:09:05.999Z</time></trkpt><trkpt lat="44.18783333202513" lon="9.62528427766812"><ele>130.8</ele><time>2026-04-07T15:09:06.999Z</time></trkpt><trkpt lat="44.18792266811938" lon="9.625357617127284"><ele>132.60000000000002</ele><time>2026-04-07T15:09:07.999Z</time></trkpt><trkpt lat="44.188030252009796" lon="9.625384566168414"><ele>134.4</ele><time>2026-04-07T15:09:08.999Z</time></trkpt><trkpt lat="44.188145029117834" lon="9.625381959397856"><ele>136.20000000000002</ele><time>2026-04-07T15:09:09.999Z</time></trkpt><trkpt lat="44.18824456912162" lon="9.625348641250111"><ele>138.0</ele><time>2026-04-07T15:09:10.999Z</time></trkpt><trkpt lat="44.18834759136562" lon="9.625279294237757"><ele>132.0</ele><time>2026-04-07T15:09:11.999Z</time></trkpt><trkpt lat="44.188447645826606" lon="9.625219498359483"><ele>126.00000000000001</ele><time>2026-04-07T15:09:12.999Z</time></trkpt><trkpt lat="44.188543293201995" lon="9.625180856906365"><ele>120.00000000000001</ele><time>2026-04-07T15:09:13.998Z</time></trkpt><trkpt lat="44.18863231261305" lon="9.625174795336115"><ele>114.0</ele><time>2026-04-07T15:09:14.998Z</time></trkpt><trkpt lat="44.18871760301229" lon="9.62519937741328"><ele>108.0</ele><time>2026-04-07T15:09:15.998Z</time></trkpt><trkpt lat="44.18880097123395" lon="9.625266413169324"><ele>108.80000000000001</ele><time>2026-04-07T15:09:16.998Z</time></trkpt><trkpt lat="44.18887326228968" lon="9.625348943086852"><ele>109.60000000000001</ele><time>2026-04-07T15:09:17.998Z</time></trkpt><trkpt lat="44.18893108263172" lon="9.625444634854652"><ele>110.39999999999999</ele><time>2026-04-07T15:09:18.998Z</time></trkpt><trkpt lat="44.18897094958909" lon="9.62558052301728"><ele>111.19999999999999</ele><time>2026-04-07T15:09:19.998Z</time></trkpt><trkpt lat="44.1889860514268" lon="9.625721053168192"><ele>112.0</ele><time>2026-04-07T15:09:20.998Z</time></trkpt><trkpt lat="44.1890145331186" lon="9.625858614928285"><ele>112.0</ele><time>2026-04-07T15:09:21.998Z</time></trkpt><trkpt lat="44.18906073352561" lon="9.62598165642781"><ele>111.99999999999999</ele><time>2026-04-07T15:09:22.998Z</time></trkpt><trkpt lat="44.18913589535127" lon="9.626087485769917"><ele>111.99999999999999</ele><time>2026-04-07T15:09:24Z</time></trkpt><trkpt lat="44.18923485004646" lon="9.62616941974961"><ele>112.0</ele><time>2026-04-07T15:09:25Z</time></trkpt><trkpt lat="44.18935013004064" lon="9.626221314440576"><ele>112.0</ele><time>2026-04-07T15:09:26Z</time></trkpt><trkpt lat="44.189475181516244" lon="9.626229964890328"><ele>108.0</ele><time>2026-04-07T15:09:27Z</time></trkpt><trkpt lat="44.1895982956432" lon="9.62620957580126"><ele>104.0</ele><time>2026-04-07T15:09:28Z</time></trkpt><trkpt lat="44.189713406248785" lon="9.626171149426126"><ele>100.0</ele><time>2026-04-07T15:09:29Z</time></trkpt><trkpt lat="44.18983904714864" lon="9.626151408566596"><ele>96.0</ele><time>2026-04-07T15:09:30Z</time></trkpt><trkpt lat="44.189979133951084" lon="9.626127783053755"><ele>96.0</ele><time>2026-04-07T15:09:31Z</time></trkpt><trkpt lat="44.19013417906312" lon="9.626129684136558"><ele>96.0</ele><time>2026-04-07T15:09:32Z</time></trkpt><trkpt lat="44.19030357004733" lon="9.626122987852483"><ele>96.0</ele><time>2026-04-07T15:09:33Z</time></trkpt><trkpt lat="44.190476143431475" lon="9.62612023227546"><ele>96.0</ele><time>2026-04-07T15:09:34Z</time></trkpt><trkpt lat="44.19065878933596" lon="9.626115418030299"><ele>96.0</ele><time>2026-04-07T15:09:35Z</time></trkpt><trkpt lat="44.19085074867786" lon="9.6261191311041"><ele>96.0</ele><time>2026-04-07T15:09:36Z</time></trkpt><trkpt lat="44.19103137134873" lon="9.62615315936293"><ele>95.66666666666667</ele><time>2026-04-07T15:09:37Z</time></trkpt><trkpt lat="44.191204643864346" lon="9.62616323107785"><ele>95.33333333333334</ele><time>2026-04-07T15:09:38Z</time></trkpt><trkpt lat="44.19136403617461" lon="9.626116875353606"><ele>95.0</ele><time>2026-04-07T15:09:39Z</time></trkpt><trkpt lat="44.19150219649042" lon="9.62609864960366"><ele>95.6</ele><time>2026-04-07T15:09:40Z</time></trkpt><trkpt lat="44.19162229800743" lon="9.6261162386871"><ele>96.2</ele><time>2026-04-07T15:09:41Z</time></trkpt><trkpt lat="44.19173347852488" lon="9.626170590327236"><ele>96.80000000000001</ele><time>2026-04-07T15:09:42Z</time></trkpt><trkpt lat="44.19181561236197" lon="9.626176515405037"><ele>97.4</ele><time>2026-04-07T15:09:43Z</time></trkpt><trkpt lat="44.19188927401773" lon="9.62612721899819"><ele>98.0</ele><time>2026-04-07T15:09:44Z</time></trkpt><trkpt lat="44.191919210589724" lon="9.626020673076377"><ele>98.0</ele><time>2026-04-07T15:09:45Z</time></trkpt><trkpt lat="44.19188270497385" lon="9.625924044493274"><ele>98.0</ele><time>2026-04-07T15:09:46Z</time></trkpt><trkpt lat="44.1918111237311" lon="9.625809761474436"><ele>98.0</ele><time>2026-04-07T15:09:47Z</time></trkpt><trkpt lat="44.191688836772975" lon="9.625747420577238"><ele>98.0</ele><time>2026-04-07T15:09:48Z</time></trkpt><trkpt lat="44.19154403046846" lon="9.625852675997308"><ele>97.25</ele><time>2026-04-07T15:09:49Z</time></trkpt><trkpt lat="44.19141912462442" lon="9.625901180743023"><ele>96.5</ele><time>2026-04-07T15:09:50Z</time></trkpt><trkpt lat="44.19130443224931" lon="9.625900267812039"><ele>95.75</ele><time>2026-04-07T15:09:51Z</time></trkpt><trkpt lat="44.191178226338444" lon="9.625878519064678"><ele>95.0</ele><time>2026-04-07T15:09:52Z</time></trkpt><trkpt lat="44.1910137489762" lon="9.625865296403243"><ele>95.0</ele><time>2026-04-07T15:09:53Z</time></trkpt><trkpt lat="44.190869558797516" lon="9.625827633793303"><ele>95.0</ele><time>2026-04-07T15:09:54Z</time></trkpt><trkpt lat="44.190741430599076" lon="9.625818920675638"><ele>95.0</ele><time>2026-04-07T15:09:55Z</time></trkpt><trkpt lat="44.19061612371778" lon="9.625811331478646"><ele>95.0</ele><time>2026-04-07T15:09:56Z</time></trkpt><trkpt lat="44.190490772313254" lon="9.625798657574368"><ele>95.25</ele><time>2026-04-07T15:09:57Z</time></trkpt><trkpt lat="44.19037083537502" lon="9.62577022737721"><ele>95.5</ele><time>2026-04-07T15:09:58Z</time></trkpt><trkpt lat="44.19025606012144" lon="9.62573270326745"><ele>95.75</ele><time>2026-04-07T15:09:59Z</time></trkpt><trkpt lat="44.19014815328986" lon="9.625694004912393"><ele>96.0</ele><time>2026-04-07T15:10:00Z</time></trkpt><trkpt lat="44.190040496767665" lon="9.625655810650557"><ele>96.0</ele><time>2026-04-07T15:10:01Z</time></trkpt><trkpt lat="44.18993568700679" lon="9.625623941894494"><ele>96.0</ele><time>2026-04-07T15:10:02Z</time></trkpt><trkpt lat="44.189825603853265" lon="9.625588224879555"><ele>96.0</ele><time>2026-04-07T15:10:03Z</time></trkpt><trkpt lat="44.18971697140818" lon="9.625552747199341"><ele>96.0</ele><time>2026-04-07T15:10:04Z</time></trkpt><trkpt lat="44.189609860171856" lon="9.625513587904706"><ele>96.0</ele><time>2026-04-07T15:10:05Z</time></trkpt><trkpt lat="44.189511038366035" lon="9.625448457543326"><ele>95.19999999999999</ele><time>2026-04-07T15:10:06Z</time></trkpt><trkpt lat="44.18944335133725" lon="9.625345728510558"><ele>94.39999999999999</ele><time>2026-04-07T15:10:07Z</time></trkpt><trkpt lat="44.18940416746635" lon="9.62520561100301"><ele>93.6</ele><time>2026-04-07T15:10:07.999Z</time></trkpt><trkpt lat="44.18936553098969" lon="9.625075557625202"><ele>92.8</ele><time>2026-04-07T15:10:08.999Z</time></trkpt><trkpt lat="44.189299520084084" lon="9.624956848021737"><ele>92.0</ele><time>2026-04-07T15:10:09.999Z</time></trkpt><trkpt lat="44.1892337975183" lon="9.624839143819168"><ele>92.0</ele><time>2026-04-07T15:10:10.999Z</time></trkpt><trkpt lat="44.189158521087926" lon="9.624730666128158"><ele>92.0</ele><time>2026-04-07T15:10:11.999Z</time></trkpt><trkpt lat="44.18908034453009" lon="9.624632532169873"><ele>92.0</ele><time>2026-04-07T15:10:12.999Z</time></trkpt><trkpt lat="44.18900767538155" lon="9.624544995658512"><ele>92.0</ele><time>2026-04-07T15:10:13.999Z</time></trkpt><trkpt lat="44.18892290045517" lon="9.62446535971754"><ele>92.0</ele><time>2026-04-07T15:10:14.999Z</time></trkpt><trkpt lat="44.18882945870097" lon="9.624385472820267"><ele>90.0</ele><time>2026-04-07T15:10:15.999Z</time></trkpt><trkpt lat="44.18873673879815" lon="9.624303012709094"><ele>88.0</ele><time>2026-04-07T15:10:16.999Z</time></trkpt><trkpt lat="44.1886587103769" lon="9.62422923526618"><ele>86.0</ele><time>2026-04-07T15:10:17.999Z</time></trkpt><trkpt lat="44.188553080365296" lon="9.624127203469536"><ele>84.0</ele><time>2026-04-07T15:10:18.999Z</time></trkpt><trkpt lat="44.18846116599577" lon="9.624009503073877"><ele>84.0</ele><time>2026-04-07T15:10:19.999Z</time></trkpt><trkpt lat="44.188391021727654" lon="9.623893753173178"><ele>84.0</ele><time>2026-04-07T15:10:20.999Z</time></trkpt><trkpt lat="44.188321334484115" lon="9.623767731980047"><ele>84.0</ele><time>2026-04-07T15:10:21.999Z</time></trkpt><trkpt lat="44.188248674967106" lon="9.623650001362412"><ele>84.0</ele><time>2026-04-07T15:10:22.999Z</time></trkpt><trkpt lat="44.18818197615058" lon="9.623525069566542"><ele>84.0</ele><time>2026-04-07T15:10:23.999Z</time></trkpt><trkpt lat="44.18811127534732" lon="9.623410622633658"><ele>85.2</ele><time>2026-04-07T15:10:24.999Z</time></trkpt><trkpt lat="44.188041872672805" lon="9.623303078671427"><ele>86.4</ele><time>2026-04-07T15:10:25.999Z</time></trkpt><trkpt lat="44.18797412530758" lon="9.623189027238267"><ele>87.6</ele><time>2026-04-07T15:10:26.999Z</time></trkpt><trkpt lat="44.187901805926394" lon="9.623075778187394"><ele>88.8</ele><time>2026-04-07T15:10:27.999Z</time></trkpt><trkpt lat="44.1878482563288" lon="9.622944381548086"><ele>90.0</ele><time>2026-04-07T15:10:28.999Z</time></trkpt><trkpt lat="44.18781798856392" lon="9.622791466073867"><ele>87.0</ele><time>2026-04-07T15:10:29.999Z</time></trkpt><trkpt lat="44.18782885587322" lon="9.622641178332486"><ele>84.0</ele><time>2026-04-07T15:10:30.999Z</time></trkpt><trkpt lat="44.18782687400082" lon="9.622496240755895"><ele>81.0</ele><time>2026-04-07T15:10:31.999Z</time></trkpt><trkpt lat="44.1878229592927" lon="9.622356685051605"><ele>78.0</ele><time>2026-04-07T15:10:32.999Z</time></trkpt><trkpt lat="44.18780598552492" lon="9.622216165883165"><ele>75.0</ele><time>2026-04-07T15:10:33.999Z</time></trkpt><trkpt lat="44.18776527776561" lon="9.622100062635026"><ele>75.0</ele><time>2026-04-07T15:10:34.999Z</time></trkpt><trkpt lat="44.187686705870014" lon="9.622009701049745"><ele>75.0</ele><time>2026-04-07T15:10:35.999Z</time></trkpt><trkpt lat="44.18758736516782" lon="9.62193208896319"><ele>75.0</ele><time>2026-04-07T15:10:36.999Z</time></trkpt><trkpt lat="44.18748205824774" lon="9.621905982207922"><ele>75.0</ele><time>2026-04-07T15:10:37.999Z</time></trkpt><trkpt lat="44.187371501910114" lon="9.62187632623163"><ele>75.0</ele><time>2026-04-07T15:10:38.999Z</time></trkpt><trkpt lat="44.1872570163017" lon="9.6218384804158"><ele>73.25</ele><time>2026-04-07T15:10:39.999Z</time></trkpt><trkpt lat="44.18716349083749" lon="9.621758243212035"><ele>71.5</ele><time>2026-04-07T15:10:40.999Z</time></trkpt><trkpt lat="44.187094966439645" lon="9.621648614169777"><ele>69.75</ele><time>2026-04-07T15:10:41.999Z</time></trkpt><trkpt lat="44.187025367727145" lon="9.621515882916977"><ele>68.0</ele><time>2026-04-07T15:10:42.999Z</time></trkpt><trkpt lat="44.18693391862257" lon="9.621405797500637"><ele>68.0</ele><time>2026-04-07T15:10:43.999Z</time></trkpt><trkpt lat="44.18682107919985" lon="9.621327712627837"><ele>68.0</ele><time>2026-04-07T15:10:44.999Z</time></trkpt><trkpt lat="44.18671463633335" lon="9.621274838953997"><ele>68.0</ele><time>2026-04-07T15:10:45.999Z</time></trkpt><trkpt lat="44.18660385777441" lon="9.62123162027292"><ele>68.0</ele><time>2026-04-07T15:10:46.999Z</time></trkpt><trkpt lat="44.18649240427559" lon="9.621201465367257"><ele>67.2</ele><time>2026-04-07T15:10:47.999Z</time></trkpt><trkpt lat="44.18637677890161" lon="9.621204043085106"><ele>66.4</ele><time>2026-04-07T15:10:48.999Z</time></trkpt><trkpt lat="44.18626491534492" lon="9.621215699550786"><ele>65.60000000000001</ele><time>2026-04-07T15:10:49.999Z</time></trkpt><trkpt lat="44.18615446557984" lon="9.621235474472236"><ele>64.8</ele><time>2026-04-07T15:10:50.999Z</time></trkpt><trkpt lat="44.18604857098308" lon="9.621254124012333"><ele>64.0</ele><time>2026-04-07T15:10:51.999Z</time></trkpt><trkpt lat="44.18593849502465" lon="9.621264384852799"><ele>64.0</ele><time>2026-04-07T15:10:52.999Z</time></trkpt><trkpt lat="44.18583048984643" lon="9.62127374695166"><ele>64.0</ele><time>2026-04-07T15:10:53.999Z</time></trkpt><trkpt lat="44.1857219557742" lon="9.621288200489795"><ele>64.0</ele><time>2026-04-07T15:10:54.999Z</time></trkpt><trkpt lat="44.1856145355021" lon="9.621305700744452"><ele>64.0</ele><time>2026-04-07T15:10:55.999Z</time></trkpt><trkpt lat="44.185507430890894" lon="9.621316342443484"><ele>64.0</ele><time>2026-04-07T15:10:56.999Z</time></trkpt><trkpt lat="44.18540480278237" lon="9.621303023412251"><ele>64.60000000000001</ele><time>2026-04-07T15:10:57.999Z</time></trkpt><trkpt lat="44.185308430662964" lon="9.621254833029942"><ele>65.2</ele><time>2026-04-07T15:10:58.999Z</time></trkpt><trkpt lat="44.18521593025866" lon="9.621198162984602"><ele>65.80000000000001</ele><time>2026-04-07T15:10:59.999Z</time></trkpt><trkpt lat="44.18512300007575" lon="9.621123755385598"><ele>66.4</ele><time>2026-04-07T15:11:00.999Z</time></trkpt><trkpt lat="44.18503623456914" lon="9.62104672197333"><ele>67.0</ele><time>2026-04-07T15:11:01.999Z</time></trkpt><trkpt lat="44.1849460434031" lon="9.620979210915912"><ele>61.6</ele><time>2026-04-07T15:11:02.999Z</time></trkpt><trkpt lat="44.18485577450593" lon="9.620916432326672"><ele>56.2</ele><time>2026-04-07T15:11:03.999Z</time></trkpt><trkpt lat="44.184760947883724" lon="9.620850322386678"><ele>50.8</ele><time>2026-04-07T15:11:04.999Z</time></trkpt><trkpt lat="44.1846638293652" lon="9.620796088031337"><ele>45.4</ele><time>2026-04-07T15:11:05.999Z</time></trkpt><trkpt lat="44.184556146775066" lon="9.62076781336897"><ele>40.0</ele><time>2026-04-07T15:11:06.999Z</time></trkpt><trkpt lat="44.18444700447616" lon="9.620751069513258"><ele>39.2</ele><time>2026-04-07T15:11:07.999Z</time></trkpt><trkpt lat="44.184337383981834" lon="9.620748675897788"><ele>38.4</ele><time>2026-04-07T15:11:08.999Z</time></trkpt><trkpt lat="44.18423198387702" lon="9.620745189119134"><ele>37.6</ele><time>2026-04-07T15:11:09.999Z</time></trkpt><trkpt lat="44.184124958684436" lon="9.620743991744447"><ele>36.8</ele><time>2026-04-07T15:11:10.999Z</time></trkpt><trkpt lat="44.1840217820488" lon="9.620737583601251"><ele>36.0</ele><time>2026-04-07T15:11:11.999Z</time></trkpt><trkpt lat="44.18392113845103" lon="9.620731377684374"><ele>34.6</ele><time>2026-04-07T15:11:12.998Z</time></trkpt><trkpt lat="44.183822276182156" lon="9.620725107152715"><ele>33.2</ele><time>2026-04-07T15:11:13.998Z</time></trkpt><trkpt lat="44.18372182674165" lon="9.620717556733329"><ele>31.799999999999997</ele><time>2026-04-07T15:11:14.998Z</time></trkpt><trkpt lat="44.18362267332011" lon="9.62070920465532"><ele>30.4</ele><time>2026-04-07T15:11:15.998Z</time></trkpt><trkpt lat="44.183523564476744" lon="9.620708373647885"><ele>29.0</ele><time>2026-04-07T15:11:16.998Z</time></trkpt><trkpt lat="44.183428108184344" lon="9.620725995917478"><ele>29.0</ele><time>2026-04-07T15:11:17.998Z</time></trkpt><trkpt lat="44.18333080180077" lon="9.620768549208043"><ele>29.0</ele><time>2026-04-07T15:11:18.998Z</time></trkpt><trkpt lat="44.1832471768151" lon="9.62083143795586"><ele>29.0</ele><time>2026-04-07T15:11:19.998Z</time></trkpt><trkpt lat="44.18316643559936" lon="9.620892306105361"><ele>29.0</ele><time>2026-04-07T15:11:20.998Z</time></trkpt><trkpt lat="44.18307894886399" lon="9.620949101556262"><ele>29.0</ele><time>2026-04-07T15:11:21.998Z</time></trkpt><trkpt lat="44.18299193780319" lon="9.62102154751089"><ele>28.799999999999997</ele><time>2026-04-07T15:11:22.998Z</time></trkpt><trkpt lat="44.182904406777205" lon="9.621113311634845"><ele>28.599999999999998</ele><time>2026-04-07T15:11:23.998Z</time></trkpt><trkpt lat="44.18282620783331" lon="9.621214231305643"><ele>28.4</ele><time>2026-04-07T15:11:24.998Z</time></trkpt><trkpt lat="44.18275335607562" lon="9.621316925059846"><ele>28.2</ele><time>2026-04-07T15:11:25.998Z</time></trkpt><trkpt lat="44.182676174124346" lon="9.621426325594461"><ele>28.0</ele><time>2026-04-07T15:11:26.998Z</time></trkpt><trkpt lat="44.18259493154716" lon="9.62153151894936"><ele>28.0</ele><time>2026-04-07T15:11:27.998Z</time></trkpt><trkpt lat="44.182509034441495" lon="9.621629920851186"><ele>28.0</ele><time>2026-04-07T15:11:28.998Z</time></trkpt><trkpt lat="44.1824080755079" lon="9.62171572328476"><ele>28.0</ele><time>2026-04-07T15:11:30Z</time></trkpt><trkpt lat="44.18229885796158" lon="9.62178000901181"><ele>28.0</ele><time>2026-04-07T15:11:31Z</time></trkpt><trkpt lat="44.18218356474799" lon="9.621816203685004"><ele>27.4</ele><time>2026-04-07T15:11:32Z</time></trkpt><trkpt lat="44.1820674880006" lon="9.621844379181237"><ele>26.799999999999997</ele><time>2026-04-07T15:11:33Z</time></trkpt><trkpt lat="44.181956180269516" lon="9.621869674196308"><ele>26.2</ele><time>2026-04-07T15:11:34Z</time></trkpt><trkpt lat="44.1818475069134" lon="9.621892660721267"><ele>25.6</ele><time>2026-04-07T15:11:35Z</time></trkpt><trkpt lat="44.18174194417152" lon="9.62190529961618"><ele>25.0</ele><time>2026-04-07T15:11:36Z</time></trkpt><trkpt lat="44.18163717613063" lon="9.62191741634046"><ele>25.0</ele><time>2026-04-07T15:11:37Z</time></trkpt><trkpt lat="44.18153825949146" lon="9.621933574712191"><ele>25.0</ele><time>2026-04-07T15:11:38Z</time></trkpt><trkpt lat="44.18143668687435" lon="9.621951312740975"><ele>25.0</ele><time>2026-04-07T15:11:39Z</time></trkpt><trkpt lat="44.18133404069689" lon="9.621966526115337"><ele>25.0</ele><time>2026-04-07T15:11:40Z</time></trkpt><trkpt lat="44.18122921067712" lon="9.621978249835173"><ele>25.0</ele><time>2026-04-07T15:11:41Z</time></trkpt><trkpt lat="44.18112419055317" lon="9.62200211395217"><ele>24.6</ele><time>2026-04-07T15:11:42Z</time></trkpt><trkpt lat="44.1810164575298" lon="9.622019387579789"><ele>24.2</ele><time>2026-04-07T15:11:43Z</time></trkpt><trkpt lat="44.18090804798299" lon="9.62203767405521"><ele>23.799999999999997</ele><time>2026-04-07T15:11:44Z</time></trkpt><trkpt lat="44.180795144255335" lon="9.62205084240107"><ele>23.4</ele><time>2026-04-07T15:11:45Z</time></trkpt><trkpt lat="44.18068469443082" lon="9.622073853850802"><ele>23.0</ele><time>2026-04-07T15:11:46Z</time></trkpt><trkpt lat="44.18057852008684" lon="9.622112119377789"><ele>23.0</ele><time>2026-04-07T15:11:47Z</time></trkpt><trkpt lat="44.18047624153741" lon="9.622174136434333"><ele>23.0</ele><time>2026-04-07T15:11:48Z</time></trkpt><trkpt lat="44.18038775722088" lon="9.622252597641186"><ele>23.0</ele><time>2026-04-07T15:11:49Z</time></trkpt><trkpt lat="44.180303149521485" lon="9.622335239107052"><ele>23.0</ele><time>2026-04-07T15:11:50Z</time></trkpt><trkpt lat="44.180223253714054" lon="9.622419537060967"><ele>23.0</ele><time>2026-04-07T15:11:51Z</time></trkpt><trkpt lat="44.18015563714565" lon="9.622515594597921"><ele>23.0</ele><time>2026-04-07T15:11:52Z</time></trkpt><trkpt lat="44.18009302393205" lon="9.622606062908543"><ele>23.0</ele><time>2026-04-07T15:11:53Z</time></trkpt><trkpt lat="44.18003081369605" lon="9.622674018375662"><ele>23.0</ele><time>2026-04-07T15:11:54Z</time></trkpt><trkpt lat="44.179987405879764" lon="9.622741939535295"><ele>23.0</ele><time>2026-04-07T15:11:55Z</time></trkpt><trkpt lat="44.17991049325099" lon="9.622824916505236"><ele>23.0</ele><time>2026-04-07T15:11:57Z</time></trkpt><trkpt lat="44.179816814928564" lon="9.62283487979656"><ele>23.0</ele><time>2026-04-07T15:11:59Z</time></trkpt><trkpt lat="44.179760681238044" lon="9.622712693887971"><ele>23.0</ele><time>2026-04-07T15:12:01Z</time></trkpt><trkpt lat="44.17983485100923" lon="9.622583289845686"><ele>23.0</ele><time>2026-04-07T15:12:03Z</time></trkpt><trkpt lat="44.17990216621267" lon="9.622523678375485"><ele>23.0</ele><time>2026-04-07T15:12:04Z</time></trkpt><trkpt lat="44.17998014875345" lon="9.622444222718139"><ele>23.0</ele><time>2026-04-07T15:12:05Z</time></trkpt><trkpt lat="44.18005091025491" lon="9.622334341241165"><ele>23.0</ele><time>2026-04-07T15:12:06Z</time></trkpt><trkpt lat="44.1801350239459" lon="9.622223643790429"><ele>23.0</ele><time>2026-04-07T15:12:07Z</time></trkpt><trkpt lat="44.18023867015602" lon="9.62212849120195"><ele>23.0</ele><time>2026-04-07T15:12:08Z</time></trkpt><trkpt lat="44.18034274586504" lon="9.622023428937728"><ele>23.0</ele><time>2026-04-07T15:12:09Z</time></trkpt><trkpt lat="44.180463358645895" lon="9.621921776172112"><ele>23.0</ele><time>2026-04-07T15:12:10Z</time></trkpt><trkpt lat="44.18058844707223" lon="9.621827607117389"><ele>24.5</ele><time>2026-04-07T15:12:11Z</time></trkpt><trkpt lat="44.18070248150621" lon="9.621757181353855"><ele>26.0</ele><time>2026-04-07T15:12:12Z</time></trkpt><trkpt lat="44.180825869476756" lon="9.621723481331053"><ele>27.5</ele><time>2026-04-07T15:12:13Z</time></trkpt><trkpt lat="44.180961540276684" lon="9.621651505301353"><ele>29.0</ele><time>2026-04-07T15:12:13.999Z</time></trkpt><trkpt lat="44.18111453125077" lon="9.621604808884381"><ele>29.0</ele><time>2026-04-07T15:12:14.999Z</time></trkpt><trkpt lat="44.18126877129596" lon="9.621526896451185"><ele>29.0</ele><time>2026-04-07T15:12:15.999Z</time></trkpt><trkpt lat="44.18142588581417" lon="9.62143984699871"><ele>29.0</ele><time>2026-04-07T15:12:16.999Z</time></trkpt><trkpt lat="44.18158651224051" lon="9.621352089201396"><ele>28.0</ele><time>2026-04-07T15:12:17.999Z</time></trkpt><trkpt lat="44.18173637030797" lon="9.621270298168309"><ele>27.0</ele><time>2026-04-07T15:12:18.999Z</time></trkpt><trkpt lat="44.18185226604822" lon="9.62121106243834"><ele>26.0</ele><time>2026-04-07T15:12:19.999Z</time></trkpt><trkpt lat="44.181933164228916" lon="9.621169446062401"><ele>25.0</ele><time>2026-04-07T15:12:20.999Z</time></trkpt><trkpt lat="44.18202521699921" lon="9.621113825295648"><ele>26.2</ele><time>2026-04-07T15:12:22.999Z</time></trkpt><trkpt lat="44.18210958189686" lon="9.62104928435759"><ele>27.4</ele><time>2026-04-07T15:12:24.999Z</time></trkpt><trkpt lat="44.18219104180324" lon="9.620983237070263"><ele>28.6</ele><time>2026-04-07T15:12:25.999Z</time></trkpt><trkpt lat="44.18229002969738" lon="9.620900350486485"><ele>29.8</ele><time>2026-04-07T15:12:26.999Z</time></trkpt><trkpt lat="44.182383549218954" lon="9.620815158831759"><ele>31.0</ele><time>2026-04-07T15:12:27.999Z</time></trkpt><trkpt lat="44.18244858753323" lon="9.620761310294268"><ele>31.0</ele><time>2026-04-07T15:12:28.999Z</time></trkpt><trkpt lat="44.18252591006242" lon="9.620692226013647"><ele>31.0</ele><time>2026-04-07T15:12:30.999Z</time></trkpt><trkpt lat="44.18258307140003" lon="9.620636305257813"><ele>31.0</ele><time>2026-04-07T15:12:31.999Z</time></trkpt><trkpt lat="44.182662309744785" lon="9.620586230100287"><ele>31.0</ele><time>2026-04-07T15:12:32.999Z</time></trkpt><trkpt lat="44.18275747226161" lon="9.620550626629981"><ele>31.0</ele><time>2026-04-07T15:12:33.999Z</time></trkpt><trkpt lat="44.18286717946829" lon="9.620473352892423"><ele>31.0</ele><time>2026-04-07T15:12:34.999Z</time></trkpt><trkpt lat="44.18297946123357" lon="9.620414798091705"><ele>31.0</ele><time>2026-04-07T15:12:35.999Z</time></trkpt><trkpt lat="44.18309732348868" lon="9.620361469579311"><ele>31.0</ele><time>2026-04-07T15:12:36.999Z</time></trkpt><trkpt lat="44.183221631619965" lon="9.62031014970843"><ele>31.0</ele><time>2026-04-07T15:12:37.999Z</time></trkpt><trkpt lat="44.18335104891203" lon="9.620242367193843"><ele>33.75</ele><time>2026-04-07T15:12:38.999Z</time></trkpt><trkpt lat="44.18347670548879" lon="9.620162725896797"><ele>36.5</ele><time>2026-04-07T15:12:39.999Z</time></trkpt><trkpt lat="44.183592757440444" lon="9.620041862743374"><ele>39.25</ele><time>2026-04-07T15:12:40.999Z</time></trkpt><trkpt lat="44.18370736024017" lon="9.61991632705613"><ele>42.0</ele><time>2026-04-07T15:12:41.999Z</time></trkpt><trkpt lat="44.18383225938223" lon="9.619803978484887"><ele>42.0</ele><time>2026-04-07T15:12:42.999Z</time></trkpt><trkpt lat="44.18396599203439" lon="9.619732788363484"><ele>42.0</ele><time>2026-04-07T15:12:43.999Z</time></trkpt><trkpt lat="44.184108405612626" lon="9.619676346654554"><ele>42.0</ele><time>2026-04-07T15:12:44.999Z</time></trkpt><trkpt lat="44.184256239886395" lon="9.619624875750208"><ele>42.0</ele><time>2026-04-07T15:12:45.999Z</time></trkpt><trkpt lat="44.18441099289536" lon="9.619573573413376"><ele>40.75</ele><time>2026-04-07T15:12:46.999Z</time></trkpt><trkpt lat="44.18455530406078" lon="9.619528292361817"><ele>39.5</ele><time>2026-04-07T15:12:47.999Z</time></trkpt><trkpt lat="44.184703110145676" lon="9.619482339440506"><ele>38.25</ele><time>2026-04-07T15:12:48.999Z</time></trkpt><trkpt lat="44.18483692406425" lon="9.619457419231265"><ele>37.0</ele><time>2026-04-07T15:12:49.999Z</time></trkpt><trkpt lat="44.184978366723485" lon="9.61945859534366"><ele>37.75</ele><time>2026-04-07T15:12:50.999Z</time></trkpt><trkpt lat="44.18512200598957" lon="9.619486840302596"><ele>38.5</ele><time>2026-04-07T15:12:51.999Z</time></trkpt><trkpt lat="44.18527502712445" lon="9.619501676355313"><ele>39.25</ele><time>2026-04-07T15:12:52.999Z</time></trkpt><trkpt lat="44.18541527433706" lon="9.619502680436318"><ele>40.0</ele><time>2026-04-07T15:12:53.999Z</time></trkpt><trkpt lat="44.185541046283866" lon="9.619509724102912"><ele>40.0</ele><time>2026-04-07T15:12:54.999Z</time></trkpt><trkpt lat="44.185670032881035" lon="9.619485123546452"><ele>40.0</ele><time>2026-04-07T15:12:55.999Z</time></trkpt><trkpt lat="44.1858029768614" lon="9.619405095163174"><ele>40.0</ele><time>2026-04-07T15:12:56.999Z</time></trkpt><trkpt lat="44.18593629974718" lon="9.619323942223385"><ele>40.0</ele><time>2026-04-07T15:12:57.999Z</time></trkpt><trkpt lat="44.186071240650406" lon="9.619244157719454"><ele>44.25</ele><time>2026-04-07T15:12:58.999Z</time></trkpt><trkpt lat="44.186201516560196" lon="9.619155097999181"><ele>48.5</ele><time>2026-04-07T15:12:59.999Z</time></trkpt><trkpt lat="44.186340863580824" lon="9.61907745088629"><ele>52.75</ele><time>2026-04-07T15:13:00.999Z</time></trkpt><trkpt lat="44.18648054330424" lon="9.619013454174839"><ele>57.0</ele><time>2026-04-07T15:13:01.999Z</time></trkpt><trkpt lat="44.18662376798351" lon="9.618955103926016"><ele>57.0</ele><time>2026-04-07T15:13:02.999Z</time></trkpt><trkpt lat="44.186755304183016" lon="9.618890736429755"><ele>57.0</ele><time>2026-04-07T15:13:03.999Z</time></trkpt><trkpt lat="44.186863357572115" lon="9.61881797598829"><ele>57.0</ele><time>2026-04-07T15:13:04.999Z</time></trkpt><trkpt lat="44.18696363110197" lon="9.618727177211523"><ele>57.0</ele><time>2026-04-07T15:13:05.999Z</time></trkpt><trkpt lat="44.187059905783876" lon="9.618600138209239"><ele>63.0</ele><time>2026-04-07T15:13:06.999Z</time></trkpt><trkpt lat="44.18714452405068" lon="9.618453668179173"><ele>69.0</ele><time>2026-04-07T15:13:07.999Z</time></trkpt><trkpt lat="44.18721417745794" lon="9.61829250844227"><ele>75.0</ele><time>2026-04-07T15:13:08.999Z</time></trkpt><trkpt lat="44.187259617996084" lon="9.618131772121492"><ele>81.0</ele><time>2026-04-07T15:13:09.999Z</time></trkpt><trkpt lat="44.187321364753586" lon="9.61799258304923"><ele>82.0</ele><time>2026-04-07T15:13:10.999Z</time></trkpt><trkpt lat="44.187418017448366" lon="9.617892167474386"><ele>83.0</ele><time>2026-04-07T15:13:11.999Z</time></trkpt><trkpt lat="44.18751363635318" lon="9.617791477202617"><ele>84.0</ele><time>2026-04-07T15:13:12.999Z</time></trkpt><trkpt lat="44.187607849291496" lon="9.61766927217796"><ele>85.0</ele><time>2026-04-07T15:13:13.999Z</time></trkpt><trkpt lat="44.187730917045045" lon="9.617598485531055"><ele>85.0</ele><time>2026-04-07T15:13:14.999Z</time></trkpt><trkpt lat="44.187858954762405" lon="9.617527782812289"><ele>85.0</ele><time>2026-04-07T15:13:15.999Z</time></trkpt><trkpt lat="44.187983032128784" lon="9.617460034004985"><ele>85.0</ele><time>2026-04-07T15:13:16.999Z</time></trkpt><trkpt lat="44.188110020915474" lon="9.61738017438284"><ele>85.0</ele><time>2026-04-07T15:13:17.999Z</time></trkpt><trkpt lat="44.18823487498201" lon="9.617294108586433"><ele>83.6</ele><time>2026-04-07T15:13:18.998Z</time></trkpt><trkpt lat="44.188350822358856" lon="9.617217180947366"><ele>82.2</ele><time>2026-04-07T15:13:19.998Z</time></trkpt><trkpt lat="44.18844957026129" lon="9.617141112536318"><ele>80.8</ele><time>2026-04-07T15:13:20.998Z</time></trkpt><trkpt lat="44.188544773116554" lon="9.617101116861233"><ele>79.4</ele><time>2026-04-07T15:13:21.998Z</time></trkpt><trkpt lat="44.18861147268146" lon="9.617034582942129"><ele>78.0</ele><time>2026-04-07T15:13:22.998Z</time></trkpt><trkpt lat="44.18872462370452" lon="9.616988782602197"><ele>78.0</ele><time>2026-04-07T15:13:24.998Z</time></trkpt><trkpt lat="44.188790894459174" lon="9.61697087072286"><ele>78.0</ele><time>2026-04-07T15:13:25.998Z</time></trkpt><trkpt lat="44.18887180978484" lon="9.616899426271148"><ele>78.0</ele><time>2026-04-07T15:13:27.998Z</time></trkpt><trkpt lat="44.18881578110319" lon="9.616945806946909"><ele>78.0</ele><time>2026-04-07T15:13:38Z</time></trkpt><trkpt lat="44.188733798816905" lon="9.616985379968424"><ele>78.0</ele><time>2026-04-07T15:13:40Z</time></trkpt><trkpt lat="44.188616759782235" lon="9.616992990862125"><ele>78.0</ele><time>2026-04-07T15:13:43Z</time></trkpt><trkpt lat="44.18852770527441" lon="9.617056829487657"><ele>78.0</ele><time>2026-04-07T15:13:45Z</time></trkpt><trkpt lat="44.18842590251599" lon="9.617127662760383"><ele>78.0</ele><time>2026-04-07T15:13:47Z</time></trkpt><trkpt lat="44.18836662052029" lon="9.617167063275573"><ele>78.0</ele><time>2026-04-07T15:13:48Z</time></trkpt><trkpt lat="44.18831149113705" lon="9.617211211610618"><ele>78.0</ele><time>2026-04-07T15:13:49Z</time></trkpt><trkpt lat="44.18825104972098" lon="9.617258204071849"><ele>78.0</ele><time>2026-04-07T15:13:50Z</time></trkpt><trkpt lat="44.18817389428499" lon="9.617312724355063"><ele>78.0</ele><time>2026-04-07T15:13:51Z</time></trkpt><trkpt lat="44.18810721852464" lon="9.617359458451128"><ele>79.75</ele><time>2026-04-07T15:13:52Z</time></trkpt><trkpt lat="44.18802203304769" lon="9.6173917009323"><ele>81.5</ele><time>2026-04-07T15:13:53Z</time></trkpt><trkpt lat="44.18792549012183" lon="9.61745607455102"><ele>83.25</ele><time>2026-04-07T15:13:54Z</time></trkpt><trkpt lat="44.18780060879418" lon="9.617516833039232"><ele>85.0</ele><time>2026-04-07T15:13:55Z</time></trkpt><trkpt lat="44.18768560265976" lon="9.617584884134574"><ele>85.0</ele><time>2026-04-07T15:13:56Z</time></trkpt><trkpt lat="44.18757625204203" lon="9.61766636270405"><ele>85.0</ele><time>2026-04-07T15:13:57Z</time></trkpt><trkpt lat="44.187466410376786" lon="9.617795287409193"><ele>85.0</ele><time>2026-04-07T15:13:58Z</time></trkpt><trkpt lat="44.18737892881308" lon="9.617919187359632"><ele>85.0</ele><time>2026-04-07T15:13:59Z</time></trkpt><trkpt lat="44.187286016426626" lon="9.61801902422343"><ele>84.0</ele><time>2026-04-07T15:14:00Z</time></trkpt><trkpt lat="44.187229669284996" lon="9.618135168334272"><ele>83.0</ele><time>2026-04-07T15:14:01Z</time></trkpt><trkpt lat="44.18718108018534" lon="9.618318541206461"><ele>82.0</ele><time>2026-04-07T15:14:02Z</time></trkpt><trkpt lat="44.187126566156685" lon="9.618457883020648"><ele>81.0</ele><time>2026-04-07T15:14:03Z</time></trkpt><trkpt lat="44.18706590999785" lon="9.618567181147574"><ele>76.2</ele><time>2026-04-07T15:14:04Z</time></trkpt><trkpt lat="44.18699076621753" lon="9.618661501099067"><ele>71.39999999999999</ele><time>2026-04-07T15:14:05Z</time></trkpt><trkpt lat="44.18690060577248" lon="9.618747715711816"><ele>66.6</ele><time>2026-04-07T15:14:06Z</time></trkpt><trkpt lat="44.18681656385328" lon="9.618825308482434"><ele>61.8</ele><time>2026-04-07T15:14:07Z</time></trkpt><trkpt lat="44.18669119112717" lon="9.618897376953825"><ele>57.0</ele><time>2026-04-07T15:14:08Z</time></trkpt><trkpt lat="44.18653021263939" lon="9.618965355375435"><ele>57.66666666666667</ele><time>2026-04-07T15:14:09Z</time></trkpt><trkpt lat="44.186368722993485" lon="9.619033684526912"><ele>58.333333333333336</ele><time>2026-04-07T15:14:10Z</time></trkpt><trkpt lat="44.186193262181064" lon="9.61912060432301"><ele>59.0</ele><time>2026-04-07T15:14:11Z</time></trkpt><trkpt lat="44.18603998362993" lon="9.619212729222056"><ele>59.0</ele><time>2026-04-07T15:14:12Z</time></trkpt><trkpt lat="44.185898069478384" lon="9.619301485179887"><ele>59.0</ele><time>2026-04-07T15:14:13Z</time></trkpt><trkpt lat="44.18577241396285" lon="9.619368131630472"><ele>59.0</ele><time>2026-04-07T15:14:14Z</time></trkpt><trkpt lat="44.185666696059855" lon="9.619415526133526"><ele>59.0</ele><time>2026-04-07T15:14:15Z</time></trkpt><trkpt lat="44.18556064698838" lon="9.6194586008188"><ele>59.0</ele><time>2026-04-07T15:14:16Z</time></trkpt><trkpt lat="44.18543611065" lon="9.619446601254399"><ele>59.0</ele><time>2026-04-07T15:14:17Z</time></trkpt><trkpt lat="44.18529109015456" lon="9.61943871486865"><ele>59.0</ele><time>2026-04-07T15:14:18Z</time></trkpt><trkpt lat="44.18515156671759" lon="9.619447117929294"><ele>59.0</ele><time>2026-04-07T15:14:19Z</time></trkpt><trkpt lat="44.18497865016526" lon="9.619433963201958"><ele>58.66666666666667</ele><time>2026-04-07T15:14:20Z</time></trkpt><trkpt lat="44.184813108290655" lon="9.619419405320626"><ele>58.33333333333333</ele><time>2026-04-07T15:14:20.999Z</time></trkpt><trkpt lat="44.18463591171371" lon="9.619436158728512"><ele>58.0</ele><time>2026-04-07T15:14:21.999Z</time></trkpt><trkpt lat="44.18445852882445" lon="9.619493449532994"><ele>52.666666666666664</ele><time>2026-04-07T15:14:22.999Z</time></trkpt><trkpt lat="44.18426940729729" lon="9.619563961609062"><ele>47.33333333333333</ele><time>2026-04-07T15:14:23.999Z</time></trkpt><trkpt lat="44.18409106487164" lon="9.619629914781243"><ele>42.0</ele><time>2026-04-07T15:14:24.999Z</time></trkpt><trkpt lat="44.18393147871076" lon="9.619706647618605"><ele>42.0</ele><time>2026-04-07T15:14:25.999Z</time></trkpt><trkpt lat="44.183784443466834" lon="9.619790332011396"><ele>42.0</ele><time>2026-04-07T15:14:26.999Z</time></trkpt><trkpt lat="44.1836426282446" lon="9.619891549866667"><ele>42.0</ele><time>2026-04-07T15:14:27.999Z</time></trkpt><trkpt lat="44.183513679842214" lon="9.620026287432879"><ele>42.0</ele><time>2026-04-07T15:14:28.999Z</time></trkpt><trkpt lat="44.183400974574546" lon="9.62013977037408"><ele>42.0</ele><time>2026-04-07T15:14:29.999Z</time></trkpt><trkpt lat="44.183289424599" lon="9.620224532623103"><ele>42.0</ele><time>2026-04-07T15:14:30.999Z</time></trkpt><trkpt lat="44.18316846406605" lon="9.620284842266562"><ele>42.0</ele><time>2026-04-07T15:14:31.999Z</time></trkpt><trkpt lat="44.18304166683274" lon="9.62033143094006"><ele>39.25</ele><time>2026-04-07T15:14:32.999Z</time></trkpt><trkpt lat="44.182906199753255" lon="9.620393536458437"><ele>36.5</ele><time>2026-04-07T15:14:33.999Z</time></trkpt><trkpt lat="44.18277820698811" lon="9.62046096008279"><ele>33.75</ele><time>2026-04-07T15:14:34.999Z</time></trkpt><trkpt lat="44.18266633907068" lon="9.620531033423738"><ele>31.0</ele><time>2026-04-07T15:14:35.999Z</time></trkpt><trkpt lat="44.18257607305105" lon="9.620592812762315"><ele>31.000000000000004</ele><time>2026-04-07T15:14:36.999Z</time></trkpt><trkpt lat="44.182507211137235" lon="9.620642868469075"><ele>31.0</ele><time>2026-04-07T15:14:37.999Z</time></trkpt><trkpt lat="44.18245324723787" lon="9.620696056532633"><ele>31.0</ele><time>2026-04-07T15:14:38.999Z</time></trkpt><trkpt lat="44.18236163430194" lon="9.620783813761328"><ele>31.0</ele><time>2026-04-07T15:14:40.999Z</time></trkpt><trkpt lat="44.182300462333906" lon="9.620840827185187"><ele>31.000000000000004</ele><time>2026-04-07T15:14:41.999Z</time></trkpt><trkpt lat="44.18223311623252" lon="9.620898800124955"><ele>31.0</ele><time>2026-04-07T15:14:42.999Z</time></trkpt><trkpt lat="44.18215278980049" lon="9.620966536978829"><ele>32.0</ele><time>2026-04-07T15:14:43.999Z</time></trkpt><trkpt lat="44.18206623430767" lon="9.621028050120398"><ele>33.0</ele><time>2026-04-07T15:14:44.999Z</time></trkpt><trkpt lat="44.18197542663645" lon="9.621091851528437"><ele>34.0</ele><time>2026-04-07T15:14:45.999Z</time></trkpt><trkpt lat="44.18189053579296" lon="9.621128009653216"><ele>35.0</ele><time>2026-04-07T15:14:46.999Z</time></trkpt><trkpt lat="44.181793654058566" lon="9.62117849606085"><ele>36.0</ele><time>2026-04-07T15:14:47.999Z</time></trkpt><trkpt lat="44.18167246496619" lon="9.621254092816661"><ele>33.666666666666664</ele><time>2026-04-07T15:14:48.999Z</time></trkpt><trkpt lat="44.18153850279868" lon="9.621317806726688"><ele>31.333333333333332</ele><time>2026-04-07T15:14:49.999Z</time></trkpt><trkpt lat="44.18139727287345" lon="9.621396678556916"><ele>29.0</ele><time>2026-04-07T15:14:50.999Z</time></trkpt><trkpt lat="44.181245268347766" lon="9.621472241332063"><ele>29.0</ele><time>2026-04-07T15:14:51.999Z</time></trkpt><trkpt lat="44.18109102891208" lon="9.621552676562837"><ele>29.0</ele><time>2026-04-07T15:14:52.999Z</time></trkpt><trkpt lat="44.180928024072465" lon="9.621632799885866"><ele>29.0</ele><time>2026-04-07T15:14:53.999Z</time></trkpt><trkpt lat="44.18075637189526" lon="9.621693419845709"><ele>27.0</ele><time>2026-04-07T15:14:54.999Z</time></trkpt><trkpt lat="44.18058521852878" lon="9.621773552256744"><ele>25.0</ele><time>2026-04-07T15:14:55.999Z</time></trkpt><trkpt lat="44.180421121171875" lon="9.621889618098288"><ele>23.0</ele><time>2026-04-07T15:14:56.999Z</time></trkpt><trkpt lat="44.18028275794281" lon="9.622025229585653"><ele>23.0</ele><time>2026-04-07T15:14:57.999Z</time></trkpt><trkpt lat="44.18016639793377" lon="9.622161185640815"><ele>23.0</ele><time>2026-04-07T15:14:58.999Z</time></trkpt><trkpt lat="44.180062659011064" lon="9.622280819998576"><ele>23.0</ele><time>2026-04-07T15:14:59.999Z</time></trkpt><trkpt lat="44.179965105524325" lon="9.622383139320753"><ele>23.0</ele><time>2026-04-07T15:15:00.999Z</time></trkpt><trkpt lat="44.179891479493506" lon="9.622478300695198"><ele>22.5</ele><time>2026-04-07T15:15:01.999Z</time></trkpt><trkpt lat="44.17983606214877" lon="9.622571627869213"><ele>22.0</ele><time>2026-04-07T15:15:02.999Z</time></trkpt><trkpt lat="44.17978663974544" lon="9.622648169329313"><ele>21.5</ele><time>2026-04-07T15:15:03.999Z</time></trkpt><trkpt lat="44.17969863051023" lon="9.622757829353873"><ele>21.0</ele><time>2026-04-07T15:15:05.999Z</time></trkpt><trkpt lat="44.17963993020942" lon="9.622828394466834"><ele>20.5</ele><time>2026-04-07T15:15:06.999Z</time></trkpt><trkpt lat="44.17958768800692" lon="9.622903880618491"><ele>20.0</ele><time>2026-04-07T15:15:07.999Z</time></trkpt><trkpt lat="44.179474893727146" lon="9.62285030673602"><ele>20.0</ele><time>2026-04-07T15:15:08.999Z</time></trkpt><trkpt lat="44.17936495422261" lon="9.622805601835774"><ele>20.0</ele><time>2026-04-07T15:15:09.999Z</time></trkpt><trkpt lat="44.17922231543" lon="9.622783404234722"><ele>20.0</ele><time>2026-04-07T15:15:10.999Z</time></trkpt><trkpt lat="44.179104642926525" lon="9.62275609989489"><ele>20.0</ele><time>2026-04-07T15:15:11.999Z</time></trkpt><trkpt lat="44.1789989476333" lon="9.622680505189026"><ele>19.4</ele><time>2026-04-07T15:15:12.999Z</time></trkpt><trkpt lat="44.178893403263224" lon="9.622636347661835"><ele>18.8</ele><time>2026-04-07T15:15:13.999Z</time></trkpt><trkpt lat="44.178793496180695" lon="9.62260325068808"><ele>18.2</ele><time>2026-04-07T15:15:14.999Z</time></trkpt><trkpt lat="44.17870712660062" lon="9.622559027434741"><ele>17.6</ele><time>2026-04-07T15:15:15.999Z</time></trkpt><trkpt lat="44.178634844880754" lon="9.6224889389878"><ele>17.0</ele><time>2026-04-07T15:15:16.999Z</time></trkpt><trkpt lat="44.17857239884985" lon="9.622433461074387"><ele>17.0</ele><time>2026-04-07T15:15:17.999Z</time></trkpt><trkpt lat="44.178520383962145" lon="9.622367991807426"><ele>17.0</ele><time>2026-04-07T15:15:18.999Z</time></trkpt><trkpt lat="44.17846287321994" lon="9.622306180077745"><ele>17.0</ele><time>2026-04-07T15:15:19.999Z</time></trkpt><trkpt lat="44.17841061987689" lon="9.62222818040877"><ele>17.0</ele><time>2026-04-07T15:15:20.999Z</time></trkpt><trkpt lat="44.178348006633875" lon="9.622162132133884"><ele>17.0</ele><time>2026-04-07T15:15:21.999Z</time></trkpt><trkpt lat="44.178287087318395" lon="9.622095099056272"><ele>17.0</ele><time>2026-04-07T15:15:22.999Z</time></trkpt><trkpt lat="44.17822175705533" lon="9.622025106575341"><ele>16.4</ele><time>2026-04-07T15:15:23.999Z</time></trkpt><trkpt lat="44.178152305083266" lon="9.621950098846849"><ele>15.799999999999999</ele><time>2026-04-07T15:15:24.998Z</time></trkpt><trkpt lat="44.17808030649986" lon="9.62187120041424"><ele>15.2</ele><time>2026-04-07T15:15:25.998Z</time></trkpt><trkpt lat="44.1780093023211" lon="9.621783819617134"><ele>14.6</ele><time>2026-04-07T15:15:26.998Z</time></trkpt><trkpt lat="44.177936602323214" lon="9.621697462793167"><ele>14.0</ele><time>2026-04-07T15:15:27.998Z</time></trkpt><trkpt lat="44.17786493917724" lon="9.621618797855888"><ele>14.0</ele><time>2026-04-07T15:15:28.998Z</time></trkpt><trkpt lat="44.17778977923429" lon="9.621539858890698"><ele>13.999999999999998</ele><time>2026-04-07T15:15:29.998Z</time></trkpt><trkpt lat="44.17772175089783" lon="9.62145350132268"><ele>13.999999999999998</ele><time>2026-04-07T15:15:30.998Z</time></trkpt><trkpt lat="44.17764635764776" lon="9.621369119771702"><ele>14.0</ele><time>2026-04-07T15:15:31.998Z</time></trkpt><trkpt lat="44.17756871168275" lon="9.621286090733545"><ele>14.0</ele><time>2026-04-07T15:15:32.998Z</time></trkpt><trkpt lat="44.177513608209125" lon="9.621219054230265"><ele>14.0</ele><time>2026-04-07T15:15:33.998Z</time></trkpt><trkpt lat="44.177462926314625" lon="9.621160323842728"><ele>13.999999999999998</ele><time>2026-04-07T15:15:34.998Z</time></trkpt><trkpt lat="44.177371942185744" lon="9.621064580644681"><ele>13.999999999999998</ele><time>2026-04-07T15:15:36.998Z</time></trkpt><trkpt lat="44.177279596691136" lon="9.620953736908495"><ele>14.0</ele><time>2026-04-07T15:15:38.998Z</time></trkpt><trkpt lat="44.17718927856878" lon="9.620833350770614"><ele>14.0</ele><time>2026-04-07T15:15:40.998Z</time></trkpt><trkpt lat="44.177134176771105" lon="9.620774452329723"><ele>14.000000000000002</ele><time>2026-04-07T15:15:42Z</time></trkpt><trkpt lat="44.177082814268964" lon="9.620701686743306"><ele>14.0</ele><time>2026-04-07T15:15:43Z</time></trkpt><trkpt lat="44.17702338686047" lon="9.620638925896994"><ele>14.0</ele><time>2026-04-07T15:15:44Z</time></trkpt><trkpt lat="44.176969607180986" lon="9.620577423289038"><ele>14.0</ele><time>2026-04-07T15:15:45Z</time></trkpt><trkpt lat="44.17691208763812" lon="9.620506355340288"><ele>14.000000000000002</ele><time>2026-04-07T15:15:46Z</time></trkpt><trkpt lat="44.176851494402264" lon="9.620432136696733"><ele>14.0</ele><time>2026-04-07T15:15:47Z</time></trkpt><trkpt lat="44.17678855402216" lon="9.62034381470418"><ele>13.799999999999999</ele><time>2026-04-07T15:15:48Z</time></trkpt><trkpt lat="44.17670915522946" lon="9.620273149884932"><ele>13.599999999999998</ele><time>2026-04-07T15:15:49Z</time></trkpt><trkpt lat="44.176633053084046" lon="9.620189495402482"><ele>13.4</ele><time>2026-04-07T15:15:50Z</time></trkpt><trkpt lat="44.17655421240299" lon="9.620110538518578"><ele>13.2</ele><time>2026-04-07T15:15:51Z</time></trkpt><trkpt lat="44.176479365980256" lon="9.620042338615836"><ele>13.0</ele><time>2026-04-07T15:15:52Z</time></trkpt><trkpt lat="44.17641251923189" lon="9.61997434354884"><ele>12.999999999999998</ele><time>2026-04-07T15:15:53Z</time></trkpt><trkpt lat="44.17635388734115" lon="9.619930203300669"><ele>13.0</ele><time>2026-04-07T15:15:54Z</time></trkpt><trkpt lat="44.176302789794434" lon="9.619878420791899"><ele>13.0</ele><time>2026-04-07T15:15:56Z</time></trkpt><trkpt lat="44.1762381504431" lon="9.619807377435356"><ele>13.0</ele><time>2026-04-07T15:16:05Z</time></trkpt><trkpt lat="44.17615319184703" lon="9.619737960232682"><ele>12.999999999999998</ele><time>2026-04-07T15:16:07Z</time></trkpt><trkpt lat="44.17606815328623" lon="9.619661725480762"><ele>13.0</ele><time>2026-04-07T15:16:09Z</time></trkpt><trkpt lat="44.175991670294266" lon="9.619586454202382"><ele>13.0</ele><time>2026-04-07T15:16:11Z</time></trkpt><trkpt lat="44.175922384795925" lon="9.619516221469818"><ele>13.0</ele><time>2026-04-07T15:16:13Z</time></trkpt><trkpt lat="44.17583728109925" lon="9.619441892348403"><ele>13.0</ele><time>2026-04-07T15:16:15Z</time></trkpt><trkpt lat="44.17574449750921" lon="9.619357081737352"><ele>13.0</ele><time>2026-04-07T15:16:17Z</time></trkpt><trkpt lat="44.17566803040279" lon="9.619244586937375"><ele>13.0</ele><time>2026-04-07T15:16:19Z</time></trkpt><trkpt lat="44.17557518071694" lon="9.619164301275662"><ele>12.8</ele><time>2026-04-07T15:16:21Z</time></trkpt><trkpt lat="44.175489811639615" lon="9.619212437761506"><ele>12.600000000000001</ele><time>2026-04-07T15:16:23Z</time></trkpt><trkpt lat="44.175392988528266" lon="9.61931897587919"><ele>12.399999999999999</ele><time>2026-04-07T15:16:25Z</time></trkpt><trkpt lat="44.17532367464414" lon="9.61938566050205"><ele>12.2</ele><time>2026-04-07T15:16:25.999Z</time></trkpt><trkpt lat="44.1752484291621" lon="9.61948047409131"><ele>12.0</ele><time>2026-04-07T15:16:26.999Z</time></trkpt><trkpt lat="44.175174795517634" lon="9.619584783425452"><ele>12.0</ele><time>2026-04-07T15:16:27.999Z</time></trkpt><trkpt lat="44.17511102044107" lon="9.619695950453593"><ele>12.0</ele><time>2026-04-07T15:16:28.999Z</time></trkpt><trkpt lat="44.17505331884529" lon="9.619797336777198"><ele>12.0</ele><time>2026-04-07T15:16:29.999Z</time></trkpt><trkpt lat="44.17500130225114" lon="9.619897200877404"><ele>12.0</ele><time>2026-04-07T15:16:30.999Z</time></trkpt><trkpt lat="44.17495207835719" lon="9.619989278197547"><ele>12.0</ele><time>2026-04-07T15:16:31.999Z</time></trkpt><trkpt lat="44.17489955254466" lon="9.620079774002448"><ele>12.0</ele><time>2026-04-07T15:16:32.999Z</time></trkpt><trkpt lat="44.17484591378539" lon="9.620158164421786"><ele>11.833333333333334</ele><time>2026-04-07T15:16:33.999Z</time></trkpt><trkpt lat="44.17479748667989" lon="9.620235566657009"><ele>11.666666666666666</ele><time>2026-04-07T15:16:34.999Z</time></trkpt><trkpt lat="44.174748930020186" lon="9.620318387089762"><ele>11.5</ele><time>2026-04-07T15:16:35.999Z</time></trkpt><trkpt lat="44.17469592603283" lon="9.620407010168005"><ele>11.333333333333332</ele><time>2026-04-07T15:16:36.999Z</time></trkpt><trkpt lat="44.17465833324625" lon="9.620488720312471"><ele>11.166666666666666</ele><time>2026-04-07T15:16:37.999Z</time></trkpt><trkpt lat="44.17462816361287" lon="9.620570601466808"><ele>11.0</ele><time>2026-04-07T15:16:39.999Z</time></trkpt><trkpt lat="44.1748002382216" lon="9.620715306901282"><ele>11.4</ele><time>2026-04-07T15:16:40.999Z</time></trkpt><trkpt lat="44.174867381050916" lon="9.620791483895678"><ele>11.8</ele><time>2026-04-07T15:16:41.999Z</time></trkpt><trkpt lat="44.174944013739406" lon="9.62086811653007"><ele>12.200000000000001</ele><time>2026-04-07T15:16:42.999Z</time></trkpt><trkpt lat="44.1750195037552" lon="9.62094760238954"><ele>12.600000000000001</ele><time>2026-04-07T15:16:43.999Z</time></trkpt><trkpt lat="44.17508811297662" lon="9.621029800595"><ele>13.0</ele><time>2026-04-07T15:16:44.999Z</time></trkpt><trkpt lat="44.17515374455211" lon="9.62111707680662"><ele>14.0</ele><time>2026-04-07T15:16:45.999Z</time></trkpt><trkpt lat="44.175229770672864" lon="9.621192680372387"><ele>15.0</ele><time>2026-04-07T15:16:46.999Z</time></trkpt><trkpt lat="44.1752782301569" lon="9.621295484872746"><ele>16.0</ele><time>2026-04-07T15:16:47.999Z</time></trkpt><trkpt lat="44.17532623224225" lon="9.621365937314478"><ele>17.0</ele><time>2026-04-07T15:16:48.999Z</time></trkpt><trkpt lat="44.17539511956593" lon="9.621484536935675"><ele>18.0</ele><time>2026-04-07T15:16:50.999Z</time></trkpt><trkpt lat="44.17549429914172" lon="9.621602634745953"><ele>18.0</ele><time>2026-04-07T15:16:52.999Z</time></trkpt><trkpt lat="44.17554485075955" lon="9.621682240294941"><ele>18.0</ele><time>2026-04-07T15:16:53.999Z</time></trkpt><trkpt lat="44.17559403739242" lon="9.621750338346892"><ele>18.0</ele><time>2026-04-07T15:16:54.999Z</time></trkpt><trkpt lat="44.1756432791149" lon="9.621819511838206"><ele>18.0</ele><time>2026-04-07T15:16:55.999Z</time></trkpt><trkpt lat="44.175693575968786" lon="9.621883839464775"><ele>18.0</ele><time>2026-04-07T15:16:56.999Z</time></trkpt><trkpt lat="44.17574628759823" lon="9.62194805778275"><ele>18.0</ele><time>2026-04-07T15:16:57.999Z</time></trkpt><trkpt lat="44.1758106751459" lon="9.622092438357646"><ele>17.4</ele><time>2026-04-07T15:16:59.999Z</time></trkpt><trkpt lat="44.17587101815766" lon="9.62223614605574"><ele>16.8</ele><time>2026-04-07T15:17:01.999Z</time></trkpt><trkpt lat="44.17589505136481" lon="9.622317621238494"><ele>16.2</ele><time>2026-04-07T15:17:02.999Z</time></trkpt><trkpt lat="44.17594127110156" lon="9.622479608092522"><ele>15.6</ele><time>2026-04-07T15:17:04.999Z</time></trkpt><trkpt lat="44.17591910101241" lon="9.62257042744375"><ele>15.0</ele><time>2026-04-07T15:17:05.999Z</time></trkpt><trkpt lat="44.175849033981336" lon="9.622671957176472"><ele>15.0</ele><time>2026-04-07T15:17:06.999Z</time></trkpt><trkpt lat="44.175793958751505" lon="9.622727553289465"><ele>15.0</ele><time>2026-04-07T15:17:07.999Z</time></trkpt><trkpt lat="44.175726785110626" lon="9.622792568388155"><ele>15.0</ele><time>2026-04-07T15:17:08.999Z</time></trkpt><trkpt lat="44.175665681661584" lon="9.622872274546381"><ele>15.0</ele><time>2026-04-07T15:17:09.999Z</time></trkpt><trkpt lat="44.1756038463549" lon="9.62295912170687"><ele>15.0</ele><time>2026-04-07T15:17:10.999Z</time></trkpt><trkpt lat="44.175548123648596" lon="9.623070651195881"><ele>15.0</ele><time>2026-04-07T15:17:11.999Z</time></trkpt><trkpt lat="44.175498555534254" lon="9.623179459865213"><ele>16.25</ele><time>2026-04-07T15:17:12.999Z</time></trkpt><trkpt lat="44.1754571002605" lon="9.623307074801197"><ele>17.5</ele><time>2026-04-07T15:17:13.999Z</time></trkpt><trkpt lat="44.17542098089509" lon="9.623446141463837"><ele>18.75</ele><time>2026-04-07T15:17:14.999Z</time></trkpt><trkpt lat="44.17537782472084" lon="9.623598829714698"><ele>20.0</ele><time>2026-04-07T15:17:15.999Z</time></trkpt><trkpt lat="44.17532747341726" lon="9.623761987117078"><ele>20.25</ele><time>2026-04-07T15:17:16.999Z</time></trkpt><trkpt lat="44.17527936574315" lon="9.623938051062929"><ele>20.5</ele><time>2026-04-07T15:17:17.999Z</time></trkpt><trkpt lat="44.17522764458993" lon="9.624113228319636"><ele>20.75</ele><time>2026-04-07T15:17:18.999Z</time></trkpt><trkpt lat="44.17517736386372" lon="9.624303040720793"><ele>21.0</ele><time>2026-04-07T15:17:19.999Z</time></trkpt><trkpt lat="44.17511689124471" lon="9.624493954445299"><ele>22.5</ele><time>2026-04-07T15:17:20.999Z</time></trkpt><trkpt lat="44.17505553371793" lon="9.624688119179467"><ele>24.0</ele><time>2026-04-07T15:17:21.999Z</time></trkpt><trkpt lat="44.17500002153986" lon="9.624877926146427"><ele>25.5</ele><time>2026-04-07T15:17:22.999Z</time></trkpt><trkpt lat="44.17495334858199" lon="9.625067548911842"><ele>27.0</ele><time>2026-04-07T15:17:23.999Z</time></trkpt><trkpt lat="44.17490054839047" lon="9.625253174542255"><ele>28.0</ele><time>2026-04-07T15:17:24.999Z</time></trkpt><trkpt lat="44.17487931423988" lon="9.625453016471244"><ele>29.0</ele><time>2026-04-07T15:17:25.999Z</time></trkpt><trkpt lat="44.17489116409708" lon="9.625650451007566"><ele>30.0</ele><time>2026-04-07T15:17:26.999Z</time></trkpt><trkpt lat="44.174951020644386" lon="9.625836015089098"><ele>31.0</ele><time>2026-04-07T15:17:27.999Z</time></trkpt><trkpt lat="44.1750292990768" lon="9.626028325839345"><ele>30.333333333333336</ele><time>2026-04-07T15:17:28.999Z</time></trkpt><trkpt lat="44.17510772435727" lon="9.62621360465672"><ele>29.666666666666664</ele><time>2026-04-07T15:17:29.998Z</time></trkpt><trkpt lat="44.17519281456217" lon="9.626391445245924"><ele>29.0</ele><time>2026-04-07T15:17:30.998Z</time></trkpt><trkpt lat="44.17527243709445" lon="9.626565258942268"><ele>29.0</ele><time>2026-04-07T15:17:31.998Z</time></trkpt><trkpt lat="44.17533340200556" lon="9.626762379654345"><ele>29.0</ele><time>2026-04-07T15:17:32.998Z</time></trkpt><trkpt lat="44.17534503280944" lon="9.626951556800416"><ele>29.0</ele><time>2026-04-07T15:17:33.998Z</time></trkpt><trkpt lat="44.17536030330645" lon="9.627150002271621"><ele>29.0</ele><time>2026-04-07T15:17:34.998Z</time></trkpt><trkpt lat="44.17534679740764" lon="9.627351634648557"><ele>29.25</ele><time>2026-04-07T15:17:35.998Z</time></trkpt><trkpt lat="44.17528844349586" lon="9.627530476618361"><ele>29.5</ele><time>2026-04-07T15:17:36.998Z</time></trkpt><trkpt lat="44.17521890663619" lon="9.62771287386431"><ele>29.75</ele><time>2026-04-07T15:17:37.998Z</time></trkpt><trkpt lat="44.175145917127544" lon="9.627887137594538"><ele>30.0</ele><time>2026-04-07T15:17:38.998Z</time></trkpt><trkpt lat="44.1750994953587" lon="9.628080644486635"><ele>30.333333333333336</ele><time>2026-04-07T15:17:39.998Z</time></trkpt><trkpt lat="44.17510358759305" lon="9.628301462425256"><ele>30.666666666666668</ele><time>2026-04-07T15:17:40.998Z</time></trkpt><trkpt lat="44.17515147748716" lon="9.62851579256006"><ele>31.0</ele><time>2026-04-07T15:17:41.998Z</time></trkpt><trkpt lat="44.17519615801851" lon="9.628705460363078"><ele>30.200000000000003</ele><time>2026-04-07T15:17:42.998Z</time></trkpt><trkpt lat="44.175219126925576" lon="9.628868855646989"><ele>29.400000000000002</ele><time>2026-04-07T15:17:43.998Z</time></trkpt><trkpt lat="44.175245239969556" lon="9.629008321610712"><ele>28.6</ele><time>2026-04-07T15:17:44.998Z</time></trkpt><trkpt lat="44.17525984665752" lon="9.629125655623918"><ele>27.8</ele><time>2026-04-07T15:17:45.998Z</time></trkpt><trkpt lat="44.17524739421762" lon="9.629232165360145"><ele>27.0</ele><time>2026-04-07T15:17:46.998Z</time></trkpt><trkpt lat="44.1751979064385" lon="9.62933004510307"><ele>27.0</ele><time>2026-04-07T15:17:48Z</time></trkpt><trkpt lat="44.175111303278015" lon="9.629382182622301"><ele>27.000000000000004</ele><time>2026-04-07T15:17:49Z</time></trkpt><trkpt lat="44.175030058474185" lon="9.629479373258865"><ele>27.000000000000004</ele><time>2026-04-07T15:17:50Z</time></trkpt><trkpt lat="44.17493802747233" lon="9.629566979500824"><ele>27.0</ele><time>2026-04-07T15:17:51Z</time></trkpt><trkpt lat="44.17484803982842" lon="9.629660501853243"><ele>27.0</ele><time>2026-04-07T15:17:52Z</time></trkpt><trkpt lat="44.174753622970925" lon="9.629762805482516"><ele>28.75</ele><time>2026-04-07T15:17:53Z</time></trkpt><trkpt lat="44.1746495499358" lon="9.62985603058905"><ele>30.5</ele><time>2026-04-07T15:17:54Z</time></trkpt><trkpt lat="44.17456602404447" lon="9.629992720335277"><ele>32.25</ele><time>2026-04-07T15:17:55Z</time></trkpt><trkpt lat="44.17449908501033" lon="9.630157416646291"><ele>34.0</ele><time>2026-04-07T15:17:56Z</time></trkpt><trkpt lat="44.17443084718454" lon="9.630328493655"><ele>34.0</ele><time>2026-04-07T15:17:57Z</time></trkpt><trkpt lat="44.1743573493347" lon="9.630498761309061"><ele>34.0</ele><time>2026-04-07T15:17:58Z</time></trkpt><trkpt lat="44.17427863631474" lon="9.630667219673128"><ele>34.0</ele><time>2026-04-07T15:17:59Z</time></trkpt><trkpt lat="44.17420947000556" lon="9.630849592650017"><ele>34.0</ele><time>2026-04-07T15:18:00Z</time></trkpt><trkpt lat="44.17415073051796" lon="9.631031116578855"><ele>35.5</ele><time>2026-04-07T15:18:01Z</time></trkpt><trkpt lat="44.17410672397706" lon="9.631233526436041"><ele>37.0</ele><time>2026-04-07T15:18:02Z</time></trkpt><trkpt lat="44.17405126527723" lon="9.631422560442717"><ele>38.5</ele><time>2026-04-07T15:18:03Z</time></trkpt><trkpt lat="44.17398020896349" lon="9.631606228997036"><ele>40.0</ele><time>2026-04-07T15:18:04Z</time></trkpt><trkpt lat="44.173904570456976" lon="9.631800871783563"><ele>39.0</ele><time>2026-04-07T15:18:05Z</time></trkpt><trkpt lat="44.173871288805" lon="9.6320032028162"><ele>38.0</ele><time>2026-04-07T15:18:06Z</time></trkpt><trkpt lat="44.17387651457212" lon="9.632220246792754"><ele>37.0</ele><time>2026-04-07T15:18:07Z</time></trkpt><trkpt lat="44.17386957142817" lon="9.632435175796553"><ele>37.0</ele><time>2026-04-07T15:18:08Z</time></trkpt><trkpt lat="44.17386659003189" lon="9.632634718450104"><ele>37.0</ele><time>2026-04-07T15:18:09Z</time></trkpt><trkpt lat="44.173795142654626" lon="9.632815752178875"><ele>37.0</ele><time>2026-04-07T15:18:10Z</time></trkpt><trkpt lat="44.173730752209465" lon="9.633008232590873"><ele>37.0</ele><time>2026-04-07T15:18:11Z</time></trkpt><trkpt lat="44.17367007315125" lon="9.633205802448279"><ele>37.66666666666667</ele><time>2026-04-07T15:18:12Z</time></trkpt><trkpt lat="44.173625152492406" lon="9.633408721361185"><ele>38.333333333333336</ele><time>2026-04-07T15:18:13Z</time></trkpt><trkpt lat="44.17360940160334" lon="9.633624417810815"><ele>39.0</ele><time>2026-04-07T15:18:14Z</time></trkpt><trkpt lat="44.17359409806928" lon="9.63384138277442"><ele>39.25</ele><time>2026-04-07T15:18:15Z</time></trkpt><trkpt lat="44.17353698152163" lon="9.634022058115235"><ele>39.5</ele><time>2026-04-07T15:18:16Z</time></trkpt><trkpt lat="44.173463488449315" lon="9.634183974913142"><ele>39.75</ele><time>2026-04-07T15:18:17Z</time></trkpt><trkpt lat="44.17336569255087" lon="9.634341173958083"><ele>40.0</ele><time>2026-04-07T15:18:18Z</time></trkpt><trkpt lat="44.173254080768004" lon="9.634492048507747"><ele>40.8</ele><time>2026-04-07T15:18:19Z</time></trkpt><trkpt lat="44.17316405240357" lon="9.634617476778265"><ele>41.6</ele><time>2026-04-07T15:18:20Z</time></trkpt><trkpt lat="44.1730981401858" lon="9.6347314471864"><ele>42.400000000000006</ele><time>2026-04-07T15:18:21Z</time></trkpt><trkpt lat="44.17304900073814" lon="9.63483863117049"><ele>43.2</ele><time>2026-04-07T15:18:22Z</time></trkpt><trkpt lat="44.17308382581725" lon="9.635002878659494"><ele>44.0</ele><time>2026-04-07T15:18:23Z</time></trkpt><trkpt lat="44.17314271366402" lon="9.635126475051695"><ele>44.75</ele><time>2026-04-07T15:18:24Z</time></trkpt><trkpt lat="44.17323391151305" lon="9.63519954953194"><ele>45.5</ele><time>2026-04-07T15:18:25Z</time></trkpt><trkpt lat="44.173354200932195" lon="9.63516988910002"><ele>46.25</ele><time>2026-04-07T15:18:26Z</time></trkpt><trkpt lat="44.17345582779378" lon="9.63507143359036"><ele>47.0</ele><time>2026-04-07T15:18:27Z</time></trkpt><trkpt lat="44.17352020220273" lon="9.634909028726375"><ele>47.0</ele><time>2026-04-07T15:18:28Z</time></trkpt><trkpt lat="44.17355272813916" lon="9.634723787227177"><ele>47.0</ele><time>2026-04-07T15:18:29Z</time></trkpt><trkpt lat="44.17358862518173" lon="9.634544898196856"><ele>47.0</ele><time>2026-04-07T15:18:30Z</time></trkpt><trkpt lat="44.17365058097305" lon="9.634375986228921"><ele>47.0</ele><time>2026-04-07T15:18:31Z</time></trkpt><trkpt lat="44.17373016163722" lon="9.63421998988079"><ele>44.666666666666664</ele><time>2026-04-07T15:18:32Z</time></trkpt><trkpt lat="44.17383038482805" lon="9.63407368941934"><ele>42.333333333333336</ele><time>2026-04-07T15:18:33Z</time></trkpt><trkpt lat="44.173930987132344" lon="9.633910872313638"><ele>40.0</ele><time>2026-04-07T15:18:33.999Z</time></trkpt><trkpt lat="44.174020215574735" lon="9.633733706646133"><ele>44.333333333333336</ele><time>2026-04-07T15:18:34.999Z</time></trkpt><trkpt lat="44.17410807813903" lon="9.633547440859735"><ele>48.66666666666667</ele><time>2026-04-07T15:18:35.999Z</time></trkpt><trkpt lat="44.174194697438615" lon="9.633366506524476"><ele>53.0</ele><time>2026-04-07T15:18:36.999Z</time></trkpt><trkpt lat="44.17428084161247" lon="9.633178247940062"><ele>53.0</ele><time>2026-04-07T15:18:37.999Z</time></trkpt><trkpt lat="44.17437051587547" lon="9.63298196806448"><ele>53.0</ele><time>2026-04-07T15:18:38.999Z</time></trkpt><trkpt lat="44.174427541758945" lon="9.632777489188117"><ele>53.0</ele><time>2026-04-07T15:18:39.999Z</time></trkpt><trkpt lat="44.174447771826635" lon="9.632539106088277"><ele>50.66666666666667</ele><time>2026-04-07T15:18:40.999Z</time></trkpt><trkpt lat="44.174459048779696" lon="9.632301590218937"><ele>48.333333333333336</ele><time>2026-04-07T15:18:41.999Z</time></trkpt><trkpt lat="44.17449002234785" lon="9.63208733285576"><ele>46.0</ele><time>2026-04-07T15:18:42.999Z</time></trkpt><trkpt lat="44.17455569714947" lon="9.631889831274854"><ele>44.8</ele><time>2026-04-07T15:18:43.999Z</time></trkpt><trkpt lat="44.174648811625794" lon="9.631700997190354"><ele>43.599999999999994</ele><time>2026-04-07T15:18:44.999Z</time></trkpt><trkpt lat="44.17470130708394" lon="9.63155287037386"><ele>42.4</ele><time>2026-04-07T15:18:45.999Z</time></trkpt><trkpt lat="44.17474211305572" lon="9.631473552006005"><ele>41.2</ele><time>2026-04-07T15:18:46.999Z</time></trkpt><trkpt lat="44.17480619140461" lon="9.631439897133315"><ele>40.0</ele><time>2026-04-07T15:18:47.999Z</time></trkpt><trkpt lat="44.17487949445842" lon="9.6314715394641"><ele>41.2</ele><time>2026-04-07T15:18:48.999Z</time></trkpt><trkpt lat="44.174931868742235" lon="9.631576347626371"><ele>42.4</ele><time>2026-04-07T15:18:49.999Z</time></trkpt><trkpt lat="44.17491714965033" lon="9.631712972924351"><ele>43.599999999999994</ele><time>2026-04-07T15:18:50.999Z</time></trkpt><trkpt lat="44.17487620130126" lon="9.6318551852931"><ele>44.8</ele><time>2026-04-07T15:18:51.999Z</time></trkpt><trkpt lat="44.17482278800992" lon="9.631989573165148"><ele>46.0</ele><time>2026-04-07T15:18:52.999Z</time></trkpt><trkpt lat="44.174761810112216" lon="9.632124987540926"><ele>46.0</ele><time>2026-04-07T15:18:53.999Z</time></trkpt><trkpt lat="44.174717947696564" lon="9.6322842724712"><ele>46.0</ele><time>2026-04-07T15:18:54.999Z</time></trkpt><trkpt lat="44.174736754998094" lon="9.63247241765474"><ele>46.0</ele><time>2026-04-07T15:18:55.999Z</time></trkpt><trkpt lat="44.17480521172436" lon="9.632650941160469"><ele>46.0</ele><time>2026-04-07T15:18:56.999Z</time></trkpt><trkpt lat="44.174896931986694" lon="9.632806720884178"><ele>53.25</ele><time>2026-04-07T15:18:57.999Z</time></trkpt><trkpt lat="44.17497129021989" lon="9.632979698547203"><ele>60.5</ele><time>2026-04-07T15:18:58.999Z</time></trkpt><trkpt lat="44.17503670893495" lon="9.63314691993342"><ele>67.75</ele><time>2026-04-07T15:18:59.999Z</time></trkpt><trkpt lat="44.175082371065855" lon="9.633343604462185"><ele>75.0</ele><time>2026-04-07T15:19:00.999Z</time></trkpt><trkpt lat="44.17510069659156" lon="9.63356301599688"><ele>79.33333333333333</ele><time>2026-04-07T15:19:01.999Z</time></trkpt><trkpt lat="44.17510682300235" lon="9.63377611089229"><ele>83.66666666666666</ele><time>2026-04-07T15:19:02.999Z</time></trkpt><trkpt lat="44.17510579570297" lon="9.63399304058987"><ele>88.0</ele><time>2026-04-07T15:19:03.999Z</time></trkpt><trkpt lat="44.175110399146845" lon="9.634214990798363"><ele>88.0</ele><time>2026-04-07T15:19:04.999Z</time></trkpt><trkpt lat="44.17513689080839" lon="9.634431776398129"><ele>88.0</ele><time>2026-04-07T15:19:05.999Z</time></trkpt><trkpt lat="44.175177196235694" lon="9.63464548569238"><ele>88.0</ele><time>2026-04-07T15:19:06.999Z</time></trkpt><trkpt lat="44.175231086162505" lon="9.634865337250275"><ele>92.0</ele><time>2026-04-07T15:19:07.999Z</time></trkpt><trkpt lat="44.17528002589445" lon="9.635083970662222"><ele>96.0</ele><time>2026-04-07T15:19:08.999Z</time></trkpt><trkpt lat="44.17531310179696" lon="9.63530638033517"><ele>100.0</ele><time>2026-04-07T15:19:09.999Z</time></trkpt><trkpt lat="44.17534716706353" lon="9.63550686445383"><ele>102.75</ele><time>2026-04-07T15:19:10.999Z</time></trkpt><trkpt lat="44.17539424685851" lon="9.635736507150188"><ele>105.5</ele><time>2026-04-07T15:19:11.999Z</time></trkpt><trkpt lat="44.17544121275834" lon="9.635918229420058"><ele>108.25</ele><time>2026-04-07T15:19:12.999Z</time></trkpt><trkpt lat="44.17550441938792" lon="9.636060120506052"><ele>111.0</ele><time>2026-04-07T15:19:13.999Z</time></trkpt><trkpt lat="44.175582245207515" lon="9.636158586933337"><ele>112.19999999999999</ele><time>2026-04-07T15:19:14.999Z</time></trkpt><trkpt lat="44.17567754658022" lon="9.63618789223592"><ele>113.39999999999999</ele><time>2026-04-07T15:19:15.999Z</time></trkpt><trkpt lat="44.17578572241621" lon="9.636129339322654"><ele>114.6</ele><time>2026-04-07T15:19:16.999Z</time></trkpt><trkpt lat="44.17588355470436" lon="9.636031126486492"><ele>115.8</ele><time>2026-04-07T15:19:17.999Z</time></trkpt><trkpt lat="44.175958376186166" lon="9.63591390185228"><ele>117.0</ele><time>2026-04-07T15:19:18.999Z</time></trkpt><trkpt lat="44.17605285819191" lon="9.635819117378816"><ele>117.0</ele><time>2026-04-07T15:19:19.999Z</time></trkpt><trkpt lat="44.176136328515" lon="9.635790155433822"><ele>116.99999999999999</ele><time>2026-04-07T15:19:20.999Z</time></trkpt><trkpt lat="44.17620700308706" lon="9.635837005097647"><ele>116.99999999999999</ele><time>2026-04-07T15:19:21.999Z</time></trkpt><trkpt lat="44.17626087573053" lon="9.635983259246625"><ele>117.0</ele><time>2026-04-07T15:19:22.999Z</time></trkpt><trkpt lat="44.17628137758847" lon="9.636140258466986"><ele>117.0</ele><time>2026-04-07T15:19:23.999Z</time></trkpt><trkpt lat="44.17631421440578" lon="9.636281682737986"><ele>117.0</ele><time>2026-04-07T15:19:24.999Z</time></trkpt><trkpt lat="44.176331315275156" lon="9.636426482012737"><ele>117.0</ele><time>2026-04-07T15:19:25.999Z</time></trkpt><trkpt lat="44.17632999637162" lon="9.636584589499325"><ele>117.0</ele><time>2026-04-07T15:19:26.999Z</time></trkpt><trkpt lat="44.1762942617261" lon="9.636740484520608"><ele>117.0</ele><time>2026-04-07T15:19:27.999Z</time></trkpt><trkpt lat="44.176224127092446" lon="9.636883731793715"><ele>117.0</ele><time>2026-04-07T15:19:28.999Z</time></trkpt><trkpt lat="44.1761545010804" lon="9.636980900216338"><ele>116.99999999999999</ele><time>2026-04-07T15:19:29.999Z</time></trkpt><trkpt lat="44.17607883405163" lon="9.637001705847561"><ele>116.99999999999999</ele><time>2026-04-07T15:19:30.999Z</time></trkpt><trkpt lat="44.175998727312425" lon="9.636951860370555"><ele>117.0</ele><time>2026-04-07T15:19:31.999Z</time></trkpt><trkpt lat="44.175943388854506" lon="9.636854993536069"><ele>117.0</ele><time>2026-04-07T15:19:32.999Z</time></trkpt><trkpt lat="44.17586361504704" lon="9.636735716984878"><ele>117.0</ele><time>2026-04-07T15:19:33.999Z</time></trkpt><trkpt lat="44.17576026359199" lon="9.636671189087085"><ele>117.0</ele><time>2026-04-07T15:19:34.999Z</time></trkpt><trkpt lat="44.17563299006047" lon="9.636649021339474"><ele>117.0</ele><time>2026-04-07T15:19:35.999Z</time></trkpt><trkpt lat="44.1755124456445" lon="9.636579501335296"><ele>117.0</ele><time>2026-04-07T15:19:36.998Z</time></trkpt><trkpt lat="44.17538477361803" lon="9.63649715766591"><ele>117.0</ele><time>2026-04-07T15:19:37.998Z</time></trkpt><trkpt lat="44.17528334784101" lon="9.636388043630507"><ele>116.99999999999999</ele><time>2026-04-07T15:19:38.998Z</time></trkpt><trkpt lat="44.17519483011945" lon="9.636298498888692"><ele>116.99999999999999</ele><time>2026-04-07T15:19:39.998Z</time></trkpt><trkpt lat="44.17510024653972" lon="9.636238723810832"><ele>117.0</ele><time>2026-04-07T15:19:40.998Z</time></trkpt><trkpt lat="44.17502625178382" lon="9.63622652631912"><ele>117.0</ele><time>2026-04-07T15:19:41.998Z</time></trkpt><trkpt lat="44.17495460361798" lon="9.636283180869407"><ele>117.0</ele><time>2026-04-07T15:19:42.998Z</time></trkpt><trkpt lat="44.1749089112732" lon="9.636412068162443"><ele>116.99999999999999</ele><time>2026-04-07T15:19:43.998Z</time></trkpt><trkpt lat="44.17491829055336" lon="9.63656689832806"><ele>116.99999999999999</ele><time>2026-04-07T15:19:44.998Z</time></trkpt><trkpt lat="44.1749524175621" lon="9.636717866287748"><ele>117.0</ele><time>2026-04-07T15:19:45.998Z</time></trkpt><trkpt lat="44.17496551127414" lon="9.636866921717623"><ele>117.0</ele><time>2026-04-07T15:19:46.998Z</time></trkpt><trkpt lat="44.17496858502733" lon="9.637025328556796"><ele>118.5</ele><time>2026-04-07T15:19:47.998Z</time></trkpt><trkpt lat="44.17497491435896" lon="9.63718958124034"><ele>120.0</ele><time>2026-04-07T15:19:48.998Z</time></trkpt><trkpt lat="44.17501229088804" lon="9.637357250757319"><ele>121.5</ele><time>2026-04-07T15:19:49.998Z</time></trkpt><trkpt lat="44.17506966308934" lon="9.637517316499798"><ele>123.0</ele><time>2026-04-07T15:19:50.998Z</time></trkpt><trkpt lat="44.175115718332556" lon="9.637691210288128"><ele>123.25</ele><time>2026-04-07T15:19:51.998Z</time></trkpt><trkpt lat="44.17515386344827" lon="9.63786808824562"><ele>123.5</ele><time>2026-04-07T15:19:52.998Z</time></trkpt><trkpt lat="44.17520604690768" lon="9.638051242745272"><ele>123.75</ele><time>2026-04-07T15:19:54Z</time></trkpt><trkpt lat="44.17521959107042" lon="9.638230876000144"><ele>124.0</ele><time>2026-04-07T15:19:55Z</time></trkpt><trkpt lat="44.17521193203814" lon="9.638401139953622"><ele>124.0</ele><time>2026-04-07T15:19:56Z</time></trkpt><trkpt lat="44.17520586710298" lon="9.638583324677649"><ele>124.0</ele><time>2026-04-07T15:19:57Z</time></trkpt><trkpt lat="44.175200826937846" lon="9.638783046750873"><ele>124.0</ele><time>2026-04-07T15:19:58Z</time></trkpt><trkpt lat="44.17524565201405" lon="9.638974377693751"><ele>124.0</ele><time>2026-04-07T15:19:59Z</time></trkpt><trkpt lat="44.17527990280669" lon="9.639151932601036"><ele>126.25</ele><time>2026-04-07T15:20:00Z</time></trkpt><trkpt lat="44.17527384906854" lon="9.639339646380972"><ele>128.5</ele><time>2026-04-07T15:20:01Z</time></trkpt><trkpt lat="44.17523209934437" lon="9.639507920668349"><ele>130.75</ele><time>2026-04-07T15:20:02Z</time></trkpt><trkpt lat="44.175143968220524" lon="9.639638638350457"><ele>133.0</ele><time>2026-04-07T15:20:03Z</time></trkpt><trkpt lat="44.175071454425506" lon="9.63978579193426"><ele>137.0</ele><time>2026-04-07T15:20:04Z</time></trkpt><trkpt lat="44.17499252092623" lon="9.639922449540876"><ele>141.0</ele><time>2026-04-07T15:20:05Z</time></trkpt><trkpt lat="44.17496307609543" lon="9.640087710363638"><ele>145.0</ele><time>2026-04-07T15:20:06Z</time></trkpt><trkpt lat="44.17494713688068" lon="9.640256021376542"><ele>149.0</ele><time>2026-04-07T15:20:07Z</time></trkpt><trkpt lat="44.174912351981" lon="9.64039155793608"><ele>146.16666666666666</ele><time>2026-04-07T15:20:08Z</time></trkpt><trkpt lat="44.174859637716025" lon="9.640488363576038"><ele>143.33333333333331</ele><time>2026-04-07T15:20:09Z</time></trkpt><trkpt lat="44.174788530424344" lon="9.640553998695003"><ele>140.5</ele><time>2026-04-07T15:20:10Z</time></trkpt><trkpt lat="44.174702057148565" lon="9.64055916153807"><ele>137.66666666666666</ele><time>2026-04-07T15:20:11Z</time></trkpt><trkpt lat="44.174612182378624" lon="9.640523533885663"><ele>134.83333333333334</ele><time>2026-04-07T15:20:12Z</time></trkpt><trkpt lat="44.17453616301046" lon="9.64050593502687"><ele>132.0</ele><time>2026-04-07T15:20:13Z</time></trkpt><trkpt lat="44.17446692668717" lon="9.640534281270691"><ele>132.0</ele><time>2026-04-07T15:20:14Z</time></trkpt><trkpt lat="44.174417742467526" lon="9.640708683466725"><ele>132.0</ele><time>2026-04-07T15:20:16Z</time></trkpt><trkpt lat="44.174440729384806" lon="9.640819422630946"><ele>132.0</ele><time>2026-04-07T15:20:17Z</time></trkpt><trkpt lat="44.1744800783482" lon="9.640924531911196"><ele>132.0</ele><time>2026-04-07T15:20:18Z</time></trkpt><trkpt lat="44.17452404395027" lon="9.641034700248712"><ele>132.0</ele><time>2026-04-07T15:20:19Z</time></trkpt><trkpt lat="44.174568131650965" lon="9.641152602257181"><ele>133.0</ele><time>2026-04-07T15:20:20Z</time></trkpt><trkpt lat="44.17460724142852" lon="9.641280192250175"><ele>134.0</ele><time>2026-04-07T15:20:21Z</time></trkpt><trkpt lat="44.17465532423356" lon="9.641403947416132"><ele>135.0</ele><time>2026-04-07T15:20:22Z</time></trkpt><trkpt lat="44.17471198242138" lon="9.641527240883892"><ele>136.0</ele><time>2026-04-07T15:20:23Z</time></trkpt><trkpt lat="44.17477056687438" lon="9.641657909252613"><ele>137.0</ele><time>2026-04-07T15:20:24Z</time></trkpt><trkpt lat="44.17480530344777" lon="9.64179049124724"><ele>137.0</ele><time>2026-04-07T15:20:25Z</time></trkpt><trkpt lat="44.17480745216535" lon="9.64193575964432"><ele>137.0</ele><time>2026-04-07T15:20:26Z</time></trkpt><trkpt lat="44.174781708727004" lon="9.642076597791267"><ele>137.0</ele><time>2026-04-07T15:20:27Z</time></trkpt><trkpt lat="44.174715953092665" lon="9.64219521170064"><ele>137.0</ele><time>2026-04-07T15:20:28Z</time></trkpt><trkpt lat="44.174603602610155" lon="9.642247098611291"><ele>137.0</ele><time>2026-04-07T15:20:29Z</time></trkpt><trkpt lat="44.17450609500123" lon="9.642335173817894"><ele>141.75</ele><time>2026-04-07T15:20:30Z</time></trkpt><trkpt lat="44.17443405447147" lon="9.642435919209314"><ele>146.5</ele><time>2026-04-07T15:20:31Z</time></trkpt><trkpt lat="44.17440390386771" lon="9.642606358965947"><ele>151.25</ele><time>2026-04-07T15:20:32Z</time></trkpt><trkpt lat="44.174346862675456" lon="9.64275983034672"><ele>156.0</ele><time>2026-04-07T15:20:33Z</time></trkpt><trkpt lat="44.17424647360813" lon="9.642863839971781"><ele>161.0</ele><time>2026-04-07T15:20:34Z</time></trkpt><trkpt lat="44.17415054536022" lon="9.642957083651416"><ele>166.0</ele><time>2026-04-07T15:20:35Z</time></trkpt><trkpt lat="44.174112477314885" lon="9.643095495767346"><ele>171.0</ele><time>2026-04-07T15:20:36Z</time></trkpt><trkpt lat="44.174101261824376" lon="9.643257675524252"><ele>176.0</ele><time>2026-04-07T15:20:37Z</time></trkpt><trkpt lat="44.174091301868025" lon="9.643415539072095"><ele>176.0</ele><time>2026-04-07T15:20:38Z</time></trkpt><trkpt lat="44.174064404403175" lon="9.643563734557661"><ele>176.0</ele><time>2026-04-07T15:20:39Z</time></trkpt><trkpt lat="44.174043592219945" lon="9.643713206713194"><ele>176.0</ele><time>2026-04-07T15:20:39.999Z</time></trkpt><trkpt lat="44.174039877201295" lon="9.643870579996943"><ele>176.0</ele><time>2026-04-07T15:20:40.999Z</time></trkpt><trkpt lat="44.17405182329894" lon="9.64402720783198"><ele>176.0</ele><time>2026-04-07T15:20:41.999Z</time></trkpt><trkpt lat="44.17405500002268" lon="9.644185194305255"><ele>180.20000000000002</ele><time>2026-04-07T15:20:42.999Z</time></trkpt><trkpt lat="44.17405043362852" lon="9.64432669730602"><ele>184.4</ele><time>2026-04-07T15:20:43.999Z</time></trkpt><trkpt lat="44.174023727648986" lon="9.644436523831615"><ele>188.6</ele><time>2026-04-07T15:20:44.999Z</time></trkpt><trkpt lat="44.17393315109686" lon="9.64449514366159"><ele>192.8</ele><time>2026-04-07T15:20:45.999Z</time></trkpt><trkpt lat="44.17383776875216" lon="9.644531946377683"><ele>197.0</ele><time>2026-04-07T15:20:46.999Z</time></trkpt><trkpt lat="44.17373992295105" lon="9.644543380709283"><ele>198.39999999999998</ele><time>2026-04-07T15:20:47.999Z</time></trkpt><trkpt lat="44.17363870543217" lon="9.644532315252127"><ele>199.79999999999998</ele><time>2026-04-07T15:20:48.999Z</time></trkpt><trkpt lat="44.173528268586814" lon="9.644518948843809"><ele>201.2</ele><time>2026-04-07T15:20:49.999Z</time></trkpt><trkpt lat="44.1734160512412" lon="9.644485991117785"><ele>202.6</ele><time>2026-04-07T15:20:50.999Z</time></trkpt><trkpt lat="44.17330749787721" lon="9.644415422044759"><ele>204.0</ele><time>2026-04-07T15:20:51.999Z</time></trkpt><trkpt lat="44.17322485879426" lon="9.644312199436136"><ele>199.83333333333334</ele><time>2026-04-07T15:20:52.999Z</time></trkpt><trkpt lat="44.17315733525126" lon="9.644239670612205"><ele>195.66666666666666</ele><time>2026-04-07T15:20:53.999Z</time></trkpt><trkpt lat="44.173080474359985" lon="9.644226163307726"><ele>191.5</ele><time>2026-04-07T15:20:54.999Z</time></trkpt><trkpt lat="44.17301926039244" lon="9.644269968242705"><ele>187.33333333333331</ele><time>2026-04-07T15:20:55.999Z</time></trkpt><trkpt lat="44.17298999214493" lon="9.644372573034039"><ele>183.16666666666666</ele><time>2026-04-07T15:20:56.999Z</time></trkpt><trkpt lat="44.17301696200771" lon="9.644496981777884"><ele>179.0</ele><time>2026-04-07T15:20:57.999Z</time></trkpt><trkpt lat="44.17308692357366" lon="9.644587942379228"><ele>184.0</ele><time>2026-04-07T15:20:58.999Z</time></trkpt><trkpt lat="44.17319080556177" lon="9.644635400710579"><ele>189.0</ele><time>2026-04-07T15:20:59.999Z</time></trkpt><trkpt lat="44.17328891672507" lon="9.644678139974207"><ele>194.0</ele><time>2026-04-07T15:21:00.999Z</time></trkpt><trkpt lat="44.17338782626872" lon="9.644729053481683"><ele>199.0</ele><time>2026-04-07T15:21:01.999Z</time></trkpt><trkpt lat="44.17349148702155" lon="9.644796685320149"><ele>204.0</ele><time>2026-04-07T15:21:02.999Z</time></trkpt><trkpt lat="44.1735950867396" lon="9.644856599750243"><ele>204.0</ele><time>2026-04-07T15:21:03.999Z</time></trkpt><trkpt lat="44.17370059462927" lon="9.644919642856106"><ele>204.0</ele><time>2026-04-07T15:21:04.999Z</time></trkpt><trkpt lat="44.17379578954905" lon="9.644998526016188"><ele>204.0</ele><time>2026-04-07T15:21:05.999Z</time></trkpt><trkpt lat="44.17384220763856" lon="9.645070264688101"><ele>204.0</ele><time>2026-04-07T15:21:06.999Z</time></trkpt><trkpt lat="44.17407315324241" lon="9.645199419449597"><ele>204.0</ele><time>2026-04-07T15:21:16.999Z</time></trkpt><trkpt lat="44.17374375975087" lon="9.644868668171169"><ele>204.0</ele><time>2026-04-07T15:21:17.999Z</time></trkpt><trkpt lat="44.17365920565113" lon="9.644817014771489"><ele>204.0</ele><time>2026-04-07T15:21:18.999Z</time></trkpt><trkpt lat="44.17356761834376" lon="9.644773665265479"><ele>204.0</ele><time>2026-04-07T15:21:19.999Z</time></trkpt><trkpt lat="44.17346432853669" lon="9.644739194626577"><ele>204.0</ele><time>2026-04-07T15:21:20.999Z</time></trkpt><trkpt lat="44.1733659758399" lon="9.64468840477282"><ele>204.0</ele><time>2026-04-07T15:21:21.999Z</time></trkpt><trkpt lat="44.17327531613775" lon="9.644625212772606"><ele>204.0</ele><time>2026-04-07T15:21:22.999Z</time></trkpt><trkpt lat="44.17319697556324" lon="9.644572890154212"><ele>200.16666666666666</ele><time>2026-04-07T15:21:23.999Z</time></trkpt><trkpt lat="44.17311374488784" lon="9.644516776208372"><ele>196.33333333333334</ele><time>2026-04-07T15:21:25.999Z</time></trkpt><trkpt lat="44.17303887162371" lon="9.644574153729474"><ele>192.5</ele><time>2026-04-07T15:21:27.999Z</time></trkpt><trkpt lat="44.17305645053127" lon="9.644440170307199"><ele>188.66666666666669</ele><time>2026-04-07T15:21:47.998Z</time></trkpt><trkpt lat="44.173072894742134" lon="9.644296864814452"><ele>184.83333333333334</ele><time>2026-04-07T15:21:49.998Z</time></trkpt><trkpt lat="44.17313514362819" lon="9.644282732996166"><ele>181.0</ele><time>2026-04-07T15:21:50.998Z</time></trkpt><trkpt lat="44.173213147464324" lon="9.644333513313288"><ele>188.66666666666669</ele><time>2026-04-07T15:21:51.998Z</time></trkpt><trkpt lat="44.17323069004511" lon="9.64465023499528"><ele>196.33333333333334</ele><time>2026-04-07T15:21:52.998Z</time></trkpt><trkpt lat="44.17334410580543" lon="9.644715626674277"><ele>204.0</ele><time>2026-04-07T15:21:53.998Z</time></trkpt><trkpt lat="44.173484569881474" lon="9.644793086590276"><ele>204.0</ele><time>2026-04-07T15:21:54.998Z</time></trkpt><trkpt lat="44.17361369579213" lon="9.644862840706887"><ele>204.0</ele><time>2026-04-07T15:21:55.998Z</time></trkpt><trkpt lat="44.17370789003741" lon="9.644909103236182"><ele>204.0</ele><time>2026-04-07T15:21:56.998Z</time></trkpt><trkpt lat="44.17377082293129" lon="9.644948616600407"><ele>204.0</ele><time>2026-04-07T15:21:57.998Z</time></trkpt><trkpt lat="44.17433471257079" lon="9.644711964688483"><ele>201.66666666666669</ele><time>2026-04-07T15:22:00Z</time></trkpt><trkpt lat="44.17437676364461" lon="9.6444249432555"><ele>199.33333333333334</ele><time>2026-04-07T15:22:01Z</time></trkpt><trkpt lat="44.1744074893862" lon="9.644251766187267"><ele>197.0</ele><time>2026-04-07T15:22:02Z</time></trkpt><trkpt lat="44.174436618663215" lon="9.644099980042865"><ele>197.0</ele><time>2026-04-07T15:22:03Z</time></trkpt><trkpt lat="44.17447474661757" lon="9.643915671008356"><ele>197.0</ele><time>2026-04-07T15:22:04Z</time></trkpt><trkpt lat="44.17452102379092" lon="9.643806112094165"><ele>197.0</ele><time>2026-04-07T15:22:05Z</time></trkpt><trkpt lat="44.17458629702672" lon="9.64367583103854"><ele>197.0</ele><time>2026-04-07T15:22:07Z</time></trkpt><trkpt lat="44.17462479220185" lon="9.643570780910212"><ele>197.0</ele><time>2026-04-07T15:22:08Z</time></trkpt><trkpt lat="44.174209095376966" lon="9.642926007845423"><ele>191.75</ele><time>2026-04-07T15:22:09Z</time></trkpt><trkpt lat="44.17428990973147" lon="9.642809407042998"><ele>186.5</ele><time>2026-04-07T15:22:10Z</time></trkpt><trkpt lat="44.17440588929336" lon="9.642703026616626"><ele>181.25</ele><time>2026-04-07T15:22:11Z</time></trkpt><trkpt lat="44.17449407486354" lon="9.642549206305667"><ele>176.0</ele><time>2026-04-07T15:22:12Z</time></trkpt><trkpt lat="44.174548783030126" lon="9.642374014380735"><ele>171.0</ele><time>2026-04-07T15:22:13Z</time></trkpt><trkpt lat="44.17466112744727" lon="9.642280767190629"><ele>166.0</ele><time>2026-04-07T15:22:14Z</time></trkpt><trkpt lat="44.17474784954066" lon="9.642168525901743"><ele>161.0</ele><time>2026-04-07T15:22:15Z</time></trkpt><trkpt lat="44.174823349252236" lon="9.642068801733751"><ele>156.0</ele><time>2026-04-07T15:22:16Z</time></trkpt><trkpt lat="44.17485015625255" lon="9.641935478530886"><ele>152.2</ele><time>2026-04-07T15:22:17Z</time></trkpt><trkpt lat="44.17484196836698" lon="9.64179100771509"><ele>148.39999999999998</ele><time>2026-04-07T15:22:18Z</time></trkpt><trkpt lat="44.17481749042364" lon="9.641663117838661"><ele>144.6</ele><time>2026-04-07T15:22:19Z</time></trkpt><trkpt lat="44.17477714854618" lon="9.641542113244377"><ele>140.79999999999998</ele><time>2026-04-07T15:22:20Z</time></trkpt><trkpt lat="44.17471544962053" lon="9.641442321381167"><ele>137.0</ele><time>2026-04-07T15:22:21Z</time></trkpt><trkpt lat="44.17466297400535" lon="9.64135563085561"><ele>137.0</ele><time>2026-04-07T15:22:22Z</time></trkpt><trkpt lat="44.174632196652055" lon="9.641269620863358"><ele>137.0</ele><time>2026-04-07T15:22:23Z</time></trkpt><trkpt lat="44.17460418811572" lon="9.641185300271248"><ele>137.0</ele><time>2026-04-07T15:22:24Z</time></trkpt><trkpt lat="44.17455850818934" lon="9.641035219350023"><ele>137.0</ele><time>2026-04-07T15:22:26Z</time></trkpt><trkpt lat="44.17451425519045" lon="9.640892515583761"><ele>137.0</ele><time>2026-04-07T15:22:28Z</time></trkpt><trkpt lat="44.17447385452184" lon="9.640773508319857"><ele>136.16666666666666</ele><time>2026-04-07T15:22:30Z</time></trkpt><trkpt lat="44.17446663589898" lon="9.640645782811488"><ele>135.33333333333331</ele><time>2026-04-07T15:22:32Z</time></trkpt><trkpt lat="44.17455083672269" lon="9.640539370406442"><ele>134.5</ele><time>2026-04-07T15:22:34Z</time></trkpt><trkpt lat="44.17462554578587" lon="9.64057503230658"><ele>133.66666666666666</ele><time>2026-04-07T15:22:35Z</time></trkpt><trkpt lat="44.1747019304605" lon="9.640561775875918"><ele>132.83333333333334</ele><time>2026-04-07T15:22:36Z</time></trkpt><trkpt lat="44.17477152284765" lon="9.640573642065403"><ele>132.0</ele><time>2026-04-07T15:22:37Z</time></trkpt><trkpt lat="44.17484090620233" lon="9.64056473168028"><ele>134.42857142857142</ele><time>2026-04-07T15:22:38Z</time></trkpt><trkpt lat="44.17490118906272" lon="9.640508409194306"><ele>136.85714285714286</ele><time>2026-04-07T15:22:39Z</time></trkpt><trkpt lat="44.17494748333795" lon="9.640425298456098"><ele>139.28571428571428</ele><time>2026-04-07T15:22:40Z</time></trkpt><trkpt lat="44.17497907692618" lon="9.640321336753304"><ele>141.71428571428572</ele><time>2026-04-07T15:22:41Z</time></trkpt><trkpt lat="44.174989933772814" lon="9.640227334476778"><ele>144.14285714285714</ele><time>2026-04-07T15:22:42Z</time></trkpt><trkpt lat="44.175009253477576" lon="9.640139455691479"><ele>146.57142857142856</ele><time>2026-04-07T15:22:43Z</time></trkpt><trkpt lat="44.175021721897025" lon="9.640049873901056"><ele>149.0</ele><time>2026-04-07T15:22:44Z</time></trkpt><trkpt lat="44.17503689237694" lon="9.639961166223088"><ele>149.0</ele><time>2026-04-07T15:22:45Z</time></trkpt><trkpt lat="44.17505612117813" lon="9.6398693513854"><ele>149.0</ele><time>2026-04-07T15:22:46Z</time></trkpt><trkpt lat="44.17509321140104" lon="9.639784513096302"><ele>149.0</ele><time>2026-04-07T15:22:47Z</time></trkpt><trkpt lat="44.17514014850187" lon="9.639713761785082"><ele>149.0</ele><time>2026-04-07T15:22:47.999Z</time></trkpt><trkpt lat="44.175188044678414" lon="9.639639395941645"><ele>149.0</ele><time>2026-04-07T15:22:48.999Z</time></trkpt><trkpt lat="44.175237093336186" lon="9.639569703153228"><ele>149.0</ele><time>2026-04-07T15:22:49.999Z</time></trkpt><trkpt lat="44.175273759176946" lon="9.63947558611673"><ele>149.0</ele><time>2026-04-07T15:22:50.999Z</time></trkpt><trkpt lat="44.17529324763865" lon="9.639370319959816"><ele>146.71428571428572</ele><time>2026-04-07T15:22:51.999Z</time></trkpt><trkpt lat="44.17529950267767" lon="9.639256456101439"><ele>144.42857142857142</ele><time>2026-04-07T15:22:52.999Z</time></trkpt><trkpt lat="44.17529757381219" lon="9.63914876842974"><ele>142.14285714285714</ele><time>2026-04-07T15:22:53.999Z</time></trkpt><trkpt lat="44.17529496446779" lon="9.639053671788004"><ele>139.85714285714286</ele><time>2026-04-07T15:22:54.999Z</time></trkpt><trkpt lat="44.17528671919136" lon="9.638958327991759"><ele>137.57142857142856</ele><time>2026-04-07T15:22:55.999Z</time></trkpt><trkpt lat="44.17526764530526" lon="9.638859038630107"><ele>135.28571428571428</ele><time>2026-04-07T15:22:56.999Z</time></trkpt><trkpt lat="44.1752479302201" lon="9.638763691462088"><ele>133.0</ele><time>2026-04-07T15:22:57.999Z</time></trkpt><trkpt lat="44.17523187490394" lon="9.638665850781896"><ele>131.71428571428572</ele><time>2026-04-07T15:22:58.999Z</time></trkpt><trkpt lat="44.1752294178099" lon="9.638564959187034"><ele>130.42857142857144</ele><time>2026-04-07T15:22:59.999Z</time></trkpt><trkpt lat="44.17523459352684" lon="9.638466263533532"><ele>129.14285714285714</ele><time>2026-04-07T15:23:00.999Z</time></trkpt><trkpt lat="44.17524637687667" lon="9.638367116439179"><ele>127.85714285714286</ele><time>2026-04-07T15:23:01.999Z</time></trkpt><trkpt lat="44.175257442002966" lon="9.638267680342961"><ele>126.57142857142858</ele><time>2026-04-07T15:23:02.999Z</time></trkpt><trkpt lat="44.175251998523514" lon="9.638171005392644"><ele>125.28571428571429</ele><time>2026-04-07T15:23:03.999Z</time></trkpt><trkpt lat="44.175240219195814" lon="9.638075828932028"><ele>124.0</ele><time>2026-04-07T15:23:04.999Z</time></trkpt><trkpt lat="44.175220051638775" lon="9.637979516538817"><ele>124.00000000000001</ele><time>2026-04-07T15:23:05.999Z</time></trkpt><trkpt lat="44.17519685380083" lon="9.637886430086093"><ele>124.0</ele><time>2026-04-07T15:23:06.999Z</time></trkpt><trkpt lat="44.17517173609422" lon="9.637797041476906"><ele>124.0</ele><time>2026-04-07T15:23:07.999Z</time></trkpt><trkpt lat="44.175148458760695" lon="9.637709298886042"><ele>124.0</ele><time>2026-04-07T15:23:08.999Z</time></trkpt><trkpt lat="44.17512464073612" lon="9.637608219734837"><ele>124.00000000000001</ele><time>2026-04-07T15:23:09.999Z</time></trkpt><trkpt lat="44.17509710532478" lon="9.637492652981146"><ele>124.0</ele><time>2026-04-07T15:23:10.999Z</time></trkpt><trkpt lat="44.17506475317797" lon="9.637379333402343"><ele>123.83333333333334</ele><time>2026-04-07T15:23:11.999Z</time></trkpt><trkpt lat="44.17503293713098" lon="9.637259852277786"><ele>123.66666666666667</ele><time>2026-04-07T15:23:12.999Z</time></trkpt><trkpt lat="44.17500740592323" lon="9.637137871502585"><ele>123.5</ele><time>2026-04-07T15:23:13.999Z</time></trkpt><trkpt lat="44.174992918056205" lon="9.637009850024443"><ele>123.33333333333334</ele><time>2026-04-07T15:23:14.999Z</time></trkpt><trkpt lat="44.17499174246463" lon="9.636890992237515"><ele>123.16666666666667</ele><time>2026-04-07T15:23:15.999Z</time></trkpt><trkpt lat="44.174994189374495" lon="9.636780482824152"><ele>123.0</ele><time>2026-04-07T15:23:16.999Z</time></trkpt><trkpt lat="44.17499253660812" lon="9.636687121938692"><ele>121.80000000000001</ele><time>2026-04-07T15:23:17.999Z</time></trkpt><trkpt lat="44.17497286050789" lon="9.636524885471276"><ele>120.60000000000001</ele><time>2026-04-07T15:23:19.999Z</time></trkpt><trkpt lat="44.174964885413985" lon="9.636383842615704"><ele>119.39999999999999</ele><time>2026-04-07T15:23:21.999Z</time></trkpt><trkpt lat="44.17503665998034" lon="9.636283076598469"><ele>118.19999999999999</ele><time>2026-04-07T15:23:23.999Z</time></trkpt><trkpt lat="44.17510085092625" lon="9.636261367971464"><ele>117.0</ele><time>2026-04-07T15:23:24.999Z</time></trkpt><trkpt lat="44.175172248507096" lon="9.636353991938998"><ele>117.0</ele><time>2026-04-07T15:23:25.999Z</time></trkpt><trkpt lat="44.17523918897881" lon="9.636373975508068"><ele>116.99999999999999</ele><time>2026-04-07T15:23:26.999Z</time></trkpt><trkpt lat="44.17533745254046" lon="9.636480803448169"><ele>116.99999999999999</ele><time>2026-04-07T15:23:28.999Z</time></trkpt><trkpt lat="44.17539520916399" lon="9.63652719883894"><ele>117.0</ele><time>2026-04-07T15:23:29.999Z</time></trkpt><trkpt lat="44.17547448819404" lon="9.636584631612706"><ele>117.0</ele><time>2026-04-07T15:23:30.999Z</time></trkpt><trkpt lat="44.17557736624012" lon="9.63666488811896"><ele>117.0</ele><time>2026-04-07T15:23:31.999Z</time></trkpt><trkpt lat="44.175701049539654" lon="9.636735837498971"><ele>117.0</ele><time>2026-04-07T15:23:32.999Z</time></trkpt><trkpt lat="44.175828863858165" lon="9.636783245087102"><ele>117.0</ele><time>2026-04-07T15:23:33.999Z</time></trkpt><trkpt lat="44.17591873967768" lon="9.636886933632141"><ele>117.0</ele><time>2026-04-07T15:23:34.999Z</time></trkpt><trkpt lat="44.17600952790196" lon="9.636960384673129"><ele>117.0</ele><time>2026-04-07T15:23:35.999Z</time></trkpt><trkpt lat="44.17606266220537" lon="9.63707048231923"><ele>116.99999999999999</ele><time>2026-04-07T15:23:36.999Z</time></trkpt><trkpt lat="44.17613763605251" lon="9.637062054856406"><ele>116.99999999999999</ele><time>2026-04-07T15:23:37.999Z</time></trkpt><trkpt lat="44.176233167808924" lon="9.6369852187297"><ele>117.0</ele><time>2026-04-07T15:23:38.999Z</time></trkpt><trkpt lat="44.176314033963294" lon="9.636838441653298"><ele>117.0</ele><time>2026-04-07T15:23:39.999Z</time></trkpt><trkpt lat="44.1763588761349" lon="9.636632209354351"><ele>117.0</ele><time>2026-04-07T15:23:40.999Z</time></trkpt><trkpt lat="44.176378879837095" lon="9.636421263614277"><ele>117.0</ele><time>2026-04-07T15:23:41.999Z</time></trkpt><trkpt lat="44.17634989363954" lon="9.636185104574425"><ele>117.0</ele><time>2026-04-07T15:23:42.999Z</time></trkpt><trkpt lat="44.17630161689849" lon="9.636006441513642"><ele>112.0</ele><time>2026-04-07T15:23:43.999Z</time></trkpt><trkpt lat="44.17625829525851" lon="9.635865413462076"><ele>107.0</ele><time>2026-04-07T15:23:44.999Z</time></trkpt><trkpt lat="44.176193820558794" lon="9.635763114740442"><ele>102.0</ele><time>2026-04-07T15:23:45.999Z</time></trkpt><trkpt lat="44.176091584331246" lon="9.63572445940055"><ele>97.0</ele><time>2026-04-07T15:23:46.999Z</time></trkpt><trkpt lat="44.1759649158674" lon="9.635796846110045"><ele>97.0</ele><time>2026-04-07T15:23:47.999Z</time></trkpt><trkpt lat="44.17585931872546" lon="9.635927726494847"><ele>97.0</ele><time>2026-04-07T15:23:48.999Z</time></trkpt><trkpt lat="44.17578750084435" lon="9.636064558849645"><ele>97.0</ele><time>2026-04-07T15:23:49.999Z</time></trkpt><trkpt lat="44.17571769780774" lon="9.63612959459731"><ele>97.0</ele><time>2026-04-07T15:23:50.999Z</time></trkpt><trkpt lat="44.175630187055646" lon="9.636133879373535"><ele>97.0</ele><time>2026-04-07T15:23:51.998Z</time></trkpt><trkpt lat="44.17553759055397" lon="9.636072434969737"><ele>100.5</ele><time>2026-04-07T15:23:52.998Z</time></trkpt><trkpt lat="44.17546558024458" lon="9.635944813039062"><ele>104.0</ele><time>2026-04-07T15:23:53.998Z</time></trkpt><trkpt lat="44.17543948907485" lon="9.635759770971452"><ele>107.5</ele><time>2026-04-07T15:23:54.998Z</time></trkpt><trkpt lat="44.1753820076453" lon="9.635561236356597"><ele>111.0</ele><time>2026-04-07T15:23:55.998Z</time></trkpt><trkpt lat="44.17534944956937" lon="9.635352851064876"><ele>107.33333333333334</ele><time>2026-04-07T15:23:56.998Z</time></trkpt><trkpt lat="44.175301897639656" lon="9.635129921321413"><ele>103.66666666666667</ele><time>2026-04-07T15:23:57.998Z</time></trkpt><trkpt lat="44.175249227396606" lon="9.634891101805769"><ele>100.0</ele><time>2026-04-07T15:23:58.998Z</time></trkpt><trkpt lat="44.17519339798803" lon="9.6346421269851"><ele>96.0</ele><time>2026-04-07T15:23:59.998Z</time></trkpt><trkpt lat="44.175149673663384" lon="9.634399209823288"><ele>92.0</ele><time>2026-04-07T15:24:00.998Z</time></trkpt><trkpt lat="44.17512229037391" lon="9.634142559410233"><ele>88.0</ele><time>2026-04-07T15:24:01.998Z</time></trkpt><trkpt lat="44.17512531701557" lon="9.633871653292971"><ele>83.66666666666666</ele><time>2026-04-07T15:24:02.998Z</time></trkpt><trkpt lat="44.17512420218538" lon="9.633615214833819"><ele>79.33333333333333</ele><time>2026-04-07T15:24:03.998Z</time></trkpt><trkpt lat="44.17510821176433" lon="9.633375718370317"><ele>75.0</ele><time>2026-04-07T15:24:04.998Z</time></trkpt><trkpt lat="44.175075022927" lon="9.633150835399396"><ele>75.0</ele><time>2026-04-07T15:24:06Z</time></trkpt><trkpt lat="44.175021256961024" lon="9.632944342427999"><ele>75.0</ele><time>2026-04-07T15:24:07Z</time></trkpt><trkpt lat="44.17494594426435" lon="9.632767725814704"><ele>75.0</ele><time>2026-04-07T15:24:08Z</time></trkpt><trkpt lat="44.174870492338464" lon="9.632621598340062"><ele>75.0</ele><time>2026-04-07T15:24:09Z</time></trkpt><trkpt lat="44.17480294240137" lon="9.632494709286172"><ele>71.0</ele><time>2026-04-07T15:24:10Z</time></trkpt><trkpt lat="44.17476344770787" lon="9.632361139977101"><ele>67.0</ele><time>2026-04-07T15:24:11Z</time></trkpt><trkpt lat="44.17475724365325" lon="9.632211703613805"><ele>63.0</ele><time>2026-04-07T15:24:12Z</time></trkpt><trkpt lat="44.17480976000092" lon="9.632047277352292"><ele>59.0</ele><time>2026-04-07T15:24:13Z</time></trkpt><trkpt lat="44.17488152095636" lon="9.631893371395641"><ele>59.0</ele><time>2026-04-07T15:24:14Z</time></trkpt><trkpt lat="44.17494847035737" lon="9.631749176477534"><ele>59.00000000000001</ele><time>2026-04-07T15:24:15Z</time></trkpt><trkpt lat="44.174968210290686" lon="9.631615375662324"><ele>59.00000000000001</ele><time>2026-04-07T15:24:16Z</time></trkpt><trkpt lat="44.1749444452382" lon="9.631494096760203"><ele>59.0</ele><time>2026-04-07T15:24:17Z</time></trkpt><trkpt lat="44.174874687086415" lon="9.631410703207393"><ele>59.0</ele><time>2026-04-07T15:24:18Z</time></trkpt><trkpt lat="44.1747786865734" lon="9.631393777797683"><ele>54.25</ele><time>2026-04-07T15:24:19Z</time></trkpt><trkpt lat="44.17468852812213" lon="9.631464207713925"><ele>49.5</ele><time>2026-04-07T15:24:20Z</time></trkpt><trkpt lat="44.17462177783092" lon="9.631609029493381"><ele>44.75</ele><time>2026-04-07T15:24:21Z</time></trkpt><trkpt lat="44.174581143197756" lon="9.631764363211904"><ele>40.0</ele><time>2026-04-07T15:24:22Z</time></trkpt><trkpt lat="44.174531185326636" lon="9.631926990621034"><ele>41.5</ele><time>2026-04-07T15:24:23Z</time></trkpt><trkpt lat="44.17447384161875" lon="9.632092577959996"><ele>43.0</ele><time>2026-04-07T15:24:24Z</time></trkpt><trkpt lat="44.17442300861957" lon="9.63227515447876"><ele>44.5</ele><time>2026-04-07T15:24:25Z</time></trkpt><trkpt lat="44.17440524163184" lon="9.632480963313876"><ele>46.0</ele><time>2026-04-07T15:24:26Z</time></trkpt><trkpt lat="44.174395073389526" lon="9.63269657675566"><ele>48.333333333333336</ele><time>2026-04-07T15:24:27Z</time></trkpt><trkpt lat="44.17436781839273" lon="9.632909672883466"><ele>50.66666666666667</ele><time>2026-04-07T15:24:28Z</time></trkpt><trkpt lat="44.17429150108701" lon="9.6330781882607"><ele>53.0</ele><time>2026-04-07T15:24:29Z</time></trkpt><trkpt lat="44.1742079338583" lon="9.633254222758836"><ele>53.0</ele><time>2026-04-07T15:24:30Z</time></trkpt><trkpt lat="44.1741213470674" lon="9.633442483325922"><ele>53.0</ele><time>2026-04-07T15:24:31Z</time></trkpt><trkpt lat="44.17402736923628" lon="9.633633283730084"><ele>53.0</ele><time>2026-04-07T15:24:32Z</time></trkpt><trkpt lat="44.17393148729144" lon="9.633834142646709"><ele>48.66666666666667</ele><time>2026-04-07T15:24:33Z</time></trkpt><trkpt lat="44.17382730416343" lon="9.63403242488571"><ele>44.333333333333336</ele><time>2026-04-07T15:24:34Z</time></trkpt><trkpt lat="44.17371659915631" lon="9.634222292692836"><ele>40.0</ele><time>2026-04-07T15:24:35Z</time></trkpt><trkpt lat="44.173613479139895" lon="9.634394199678727"><ele>41.75</ele><time>2026-04-07T15:24:36Z</time></trkpt><trkpt lat="44.17353791294849" lon="9.63456718071309"><ele>43.5</ele><time>2026-04-07T15:24:37Z</time></trkpt><trkpt lat="44.17348883384345" lon="9.634760362401211"><ele>45.25</ele><time>2026-04-07T15:24:38Z</time></trkpt><trkpt lat="44.17344708041962" lon="9.634931431219755"><ele>47.0</ele><time>2026-04-07T15:24:39Z</time></trkpt><trkpt lat="44.173409758019375" lon="9.635051978462545"><ele>47.0</ele><time>2026-04-07T15:24:40Z</time></trkpt><trkpt lat="44.17335201901728" lon="9.635119669228084"><ele>47.0</ele><time>2026-04-07T15:24:41Z</time></trkpt><trkpt lat="44.17327746924776" lon="9.635152973990111"><ele>47.0</ele><time>2026-04-07T15:24:42Z</time></trkpt><trkpt lat="44.17320869428347" lon="9.635138663075978"><ele>47.0</ele><time>2026-04-07T15:24:43Z</time></trkpt><trkpt lat="44.17315194380988" lon="9.635064947662672"><ele>47.0</ele><time>2026-04-07T15:24:44Z</time></trkpt><trkpt lat="44.17312241300287" lon="9.634978316596397"><ele>47.0</ele><time>2026-04-07T15:24:45Z</time></trkpt><trkpt lat="44.17312359476732" lon="9.634834256163183"><ele>46.400000000000006</ele><time>2026-04-07T15:24:47Z</time></trkpt><trkpt lat="44.173049043813535" lon="9.634767621550345"><ele>45.800000000000004</ele><time>2026-04-07T15:24:51Z</time></trkpt><trkpt lat="44.17297546810248" lon="9.634827760097794"><ele>45.2</ele><time>2026-04-07T15:24:53Z</time></trkpt><trkpt lat="44.17287881060972" lon="9.634893176835194"><ele>44.6</ele><time>2026-04-07T15:24:54.999Z</time></trkpt><trkpt lat="44.172811544464864" lon="9.634941966640618"><ele>44.0</ele><time>2026-04-07T15:24:55.999Z</time></trkpt><trkpt lat="44.17272143935594" lon="9.63498407871073"><ele>44.0</ele><time>2026-04-07T15:24:56.999Z</time></trkpt><trkpt lat="44.17262512588423" lon="9.63502304229847"><ele>44.0</ele><time>2026-04-07T15:24:57.999Z</time></trkpt><trkpt lat="44.17251949996572" lon="9.635068839432288"><ele>44.0</ele><time>2026-04-07T15:24:58.999Z</time></trkpt><trkpt lat="44.17241843276545" lon="9.635121886613357"><ele>44.0</ele><time>2026-04-07T15:24:59.999Z</time></trkpt><trkpt lat="44.17233689078965" lon="9.635135851971144"><ele>44.0</ele><time>2026-04-07T15:25:01.999Z</time></trkpt><trkpt lat="44.17227294353602" lon="9.635217283626583"><ele>45.6</ele><time>2026-04-07T15:25:41.999Z</time></trkpt><trkpt lat="44.17215305250745" lon="9.635243216823"><ele>47.2</ele><time>2026-04-07T15:25:43.999Z</time></trkpt><trkpt lat="44.17207187193381" lon="9.635256764582968"><ele>48.800000000000004</ele><time>2026-04-07T15:25:44.999Z</time></trkpt><trkpt lat="44.17200021833101" lon="9.635295534284523"><ele>50.400000000000006</ele><time>2026-04-07T15:25:45.999Z</time></trkpt><trkpt lat="44.17190519566015" lon="9.63536115622291"><ele>52.0</ele><time>2026-04-07T15:25:47.999Z</time></trkpt><trkpt lat="44.17179436914123" lon="9.635438244343405"><ele>53.2</ele><time>2026-04-07T15:25:49.999Z</time></trkpt><trkpt lat="44.171703146583994" lon="9.635480896609526"><ele>54.400000000000006</ele><time>2026-04-07T15:25:50.999Z</time></trkpt><trkpt lat="44.1716053388257" lon="9.635539243233103"><ele>55.599999999999994</ele><time>2026-04-07T15:25:51.999Z</time></trkpt><trkpt lat="44.17149762143835" lon="9.635600387309045"><ele>56.8</ele><time>2026-04-07T15:25:52.999Z</time></trkpt><trkpt lat="44.17138903249781" lon="9.635671683928521"><ele>58.0</ele><time>2026-04-07T15:25:53.999Z</time></trkpt><trkpt lat="44.17127509571979" lon="9.635757169753422"><ele>58.25</ele><time>2026-04-07T15:25:54.999Z</time></trkpt><trkpt lat="44.17115823893162" lon="9.635842025583164"><ele>58.5</ele><time>2026-04-07T15:25:55.999Z</time></trkpt><trkpt lat="44.17103631001165" lon="9.635936701796089"><ele>58.75</ele><time>2026-04-07T15:25:56.999Z</time></trkpt><trkpt lat="44.17090421213628" lon="9.636016458263901"><ele>59.0</ele><time>2026-04-07T15:25:57.998Z</time></trkpt><trkpt lat="44.17078233793477" lon="9.636114729269396"><ele>61.5</ele><time>2026-04-07T15:25:58.998Z</time></trkpt><trkpt lat="44.17068530976799" lon="9.636204739260233"><ele>64.0</ele><time>2026-04-07T15:25:59.998Z</time></trkpt><trkpt lat="44.17061368101851" lon="9.636335344170122"><ele>66.5</ele><time>2026-04-07T15:26:00.998Z</time></trkpt><trkpt lat="44.170564594744796" lon="9.636508405883479"><ele>69.0</ele><time>2026-04-07T15:26:01.998Z</time></trkpt><trkpt lat="44.17049762057239" lon="9.63665065838945"><ele>69.0</ele><time>2026-04-07T15:26:02.998Z</time></trkpt><trkpt lat="44.17041925121611" lon="9.636793558418844"><ele>69.0</ele><time>2026-04-07T15:26:03.998Z</time></trkpt><trkpt lat="44.17035383119621" lon="9.636958912120303"><ele>69.0</ele><time>2026-04-07T15:26:04.998Z</time></trkpt><trkpt lat="44.17032773774695" lon="9.637144573068689"><ele>69.0</ele><time>2026-04-07T15:26:05.998Z</time></trkpt><trkpt lat="44.170310580411" lon="9.637334300348542"><ele>69.0</ele><time>2026-04-07T15:26:06.998Z</time></trkpt><trkpt lat="44.1702706881844" lon="9.637515692878141"><ele>69.0</ele><time>2026-04-07T15:26:07.998Z</time></trkpt><trkpt lat="44.17022170952987" lon="9.637706137095915"><ele>69.0</ele><time>2026-04-07T15:26:08.998Z</time></trkpt><trkpt lat="44.1701662936974" lon="9.637898336032785"><ele>69.0</ele><time>2026-04-07T15:26:09.998Z</time></trkpt><trkpt lat="44.17013242768796" lon="9.638092789064643"><ele>69.0</ele><time>2026-04-07T15:26:10.998Z</time></trkpt><trkpt lat="44.17010292741316" lon="9.638251597395914"><ele>69.0</ele><time>2026-04-07T15:26:12Z</time></trkpt><trkpt lat="44.17002896840574" lon="9.638409682363436"><ele>69.0</ele><time>2026-04-07T15:26:13Z</time></trkpt><trkpt lat="44.1699580416369" lon="9.638579672919496"><ele>69.0</ele><time>2026-04-07T15:26:14Z</time></trkpt><trkpt lat="44.169915613680885" lon="9.63877622592041"><ele>72.0</ele><time>2026-04-07T15:26:15Z</time></trkpt><trkpt lat="44.16986205961786" lon="9.638973593135882"><ele>75.0</ele><time>2026-04-07T15:26:16Z</time></trkpt><trkpt lat="44.16981952406151" lon="9.639174964111055"><ele>78.0</ele><time>2026-04-07T15:26:17Z</time></trkpt><trkpt lat="44.169752811925534" lon="9.6393690403745"><ele>80.0</ele><time>2026-04-07T15:26:18Z</time></trkpt><trkpt lat="44.16968495663991" lon="9.63956598693327"><ele>82.0</ele><time>2026-04-07T15:26:19Z</time></trkpt><trkpt lat="44.16964043746995" lon="9.639763506696582"><ele>84.0</ele><time>2026-04-07T15:26:20Z</time></trkpt><trkpt lat="44.16960219646173" lon="9.639937211894164"><ele>86.0</ele><time>2026-04-07T15:26:21Z</time></trkpt><trkpt lat="44.16954638954443" lon="9.64010086197419"><ele>86.0</ele><time>2026-04-07T15:26:22Z</time></trkpt><trkpt lat="44.16946053469788" lon="9.640244961743353"><ele>86.0</ele><time>2026-04-07T15:26:23Z</time></trkpt><trkpt lat="44.169368215954954" lon="9.640377635972701"><ele>86.0</ele><time>2026-04-07T15:26:24Z</time></trkpt><trkpt lat="44.16930487592321" lon="9.640519694861155"><ele>86.0</ele><time>2026-04-07T15:26:25Z</time></trkpt><trkpt lat="44.16926907870617" lon="9.64066028974243"><ele>86.5</ele><time>2026-04-07T15:26:26Z</time></trkpt><trkpt lat="44.169241503096956" lon="9.64077178637589"><ele>87.0</ele><time>2026-04-07T15:26:27Z</time></trkpt><trkpt lat="44.16914586759401" lon="9.6408486874247"><ele>87.5</ele><time>2026-04-07T15:26:29Z</time></trkpt><trkpt lat="44.1690840450057" lon="9.640815196216142"><ele>88.0</ele><time>2026-04-07T15:26:30Z</time></trkpt><trkpt lat="44.16903889727797" lon="9.64074382234741"><ele>88.5</ele><time>2026-04-07T15:26:31Z</time></trkpt><trkpt lat="44.169029636236594" lon="9.640642408379518"><ele>89.0</ele><time>2026-04-07T15:26:32Z</time></trkpt><trkpt lat="44.16904847222683" lon="9.64053586526552"><ele>89.0</ele><time>2026-04-07T15:26:33Z</time></trkpt><trkpt lat="44.16904956402861" lon="9.640420512520398"><ele>89.0</ele><time>2026-04-07T15:26:34Z</time></trkpt><trkpt lat="44.16902531772431" lon="9.640291030736904"><ele>89.0</ele><time>2026-04-07T15:26:35Z</time></trkpt><trkpt lat="44.16899121408796" lon="9.640164897973285"><ele>89.0</ele><time>2026-04-07T15:26:36Z</time></trkpt><trkpt lat="44.16900698249445" lon="9.64005264867629"><ele>89.0</ele><time>2026-04-07T15:26:37Z</time></trkpt><trkpt lat="44.16909738766735" lon="9.640002052908917"><ele>89.0</ele><time>2026-04-07T15:26:38Z</time></trkpt><trkpt lat="44.169179268550764" lon="9.639912153774452"><ele>89.0</ele><time>2026-04-07T15:26:39Z</time></trkpt><trkpt lat="44.16923943047643" lon="9.639796087333714"><ele>89.0</ele><time>2026-04-07T15:26:40Z</time></trkpt><trkpt lat="44.16928873277084" lon="9.639660151756846"><ele>89.0</ele><time>2026-04-07T15:26:41Z</time></trkpt><trkpt lat="44.16929288761245" lon="9.639488734435856"><ele>89.0</ele><time>2026-04-07T15:26:42Z</time></trkpt><trkpt lat="44.16924406119029" lon="9.639344374233158"><ele>89.0</ele><time>2026-04-07T15:26:43Z</time></trkpt><trkpt lat="44.16920467545665" lon="9.639222951671597"><ele>89.0</ele><time>2026-04-07T15:26:44Z</time></trkpt><trkpt lat="44.16916534537585" lon="9.639104199418773"><ele>89.0</ele><time>2026-04-07T15:26:45Z</time></trkpt><trkpt lat="44.16919169258035" lon="9.638965830229264"><ele>89.0</ele><time>2026-04-07T15:26:46Z</time></trkpt><trkpt lat="44.169260563776625" lon="9.638854725724814"><ele>89.0</ele><time>2026-04-07T15:26:47Z</time></trkpt><trkpt lat="44.169313907600525" lon="9.638758627539676"><ele>90.4</ele><time>2026-04-07T15:26:48Z</time></trkpt><trkpt lat="44.169301208164995" lon="9.638631861493549"><ele>91.80000000000001</ele><time>2026-04-07T15:26:49Z</time></trkpt><trkpt lat="44.169247059967255" lon="9.638510969310266"><ele>93.19999999999999</ele><time>2026-04-07T15:26:50Z</time></trkpt><trkpt lat="44.16917816568362" lon="9.638393001110535"><ele>94.6</ele><time>2026-04-07T15:26:51Z</time></trkpt><trkpt lat="44.1691566215913" lon="9.638275211515872"><ele>96.0</ele><time>2026-04-07T15:26:51.999Z</time></trkpt><trkpt lat="44.169201511008204" lon="9.63816428243147"><ele>96.0</ele><time>2026-04-07T15:26:52.999Z</time></trkpt><trkpt lat="44.169277896292236" lon="9.638071764322296"><ele>96.0</ele><time>2026-04-07T15:26:53.999Z</time></trkpt><trkpt lat="44.16931965339848" lon="9.637946235165193"><ele>96.0</ele><time>2026-04-07T15:26:54.999Z</time></trkpt><trkpt lat="44.16931997810659" lon="9.637801970570834"><ele>96.0</ele><time>2026-04-07T15:26:55.999Z</time></trkpt><trkpt lat="44.16927079675757" lon="9.637653768378394"><ele>96.0</ele><time>2026-04-07T15:26:56.999Z</time></trkpt><trkpt lat="44.169239833192414" lon="9.637508616519195"><ele>98.5</ele><time>2026-04-07T15:26:57.999Z</time></trkpt><trkpt lat="44.169244667940696" lon="9.637356312900746"><ele>101.0</ele><time>2026-04-07T15:26:58.999Z</time></trkpt><trkpt lat="44.16926165800623" lon="9.637200106210644"><ele>103.5</ele><time>2026-04-07T15:26:59.999Z</time></trkpt><trkpt lat="44.169280733917546" lon="9.637039294637166"><ele>106.0</ele><time>2026-04-07T15:27:00.999Z</time></trkpt><trkpt lat="44.169298086467464" lon="9.636876021752045"><ele>106.0</ele><time>2026-04-07T15:27:01.999Z</time></trkpt><trkpt lat="44.16933789394434" lon="9.636731909587697"><ele>106.0</ele><time>2026-04-07T15:27:02.999Z</time></trkpt><trkpt lat="44.16934399630367" lon="9.636622454468348"><ele>106.0</ele><time>2026-04-07T15:27:03.999Z</time></trkpt><trkpt lat="44.169310466728916" lon="9.636492877335888"><ele>106.0</ele><time>2026-04-07T15:27:05.999Z</time></trkpt><trkpt lat="44.16919646150747" lon="9.63639854220018"><ele>106.0</ele><time>2026-04-07T15:27:07.999Z</time></trkpt><trkpt lat="44.169109709125834" lon="9.636396149367826"><ele>107.4</ele><time>2026-04-07T15:27:08.999Z</time></trkpt><trkpt lat="44.16901750982345" lon="9.636396608018735"><ele>108.8</ele><time>2026-04-07T15:27:09.999Z</time></trkpt><trkpt lat="44.168925707537056" lon="9.636392712680586"><ele>110.20000000000002</ele><time>2026-04-07T15:27:10.999Z</time></trkpt><trkpt lat="44.168829232126505" lon="9.636381005071371"><ele>111.60000000000001</ele><time>2026-04-07T15:27:11.999Z</time></trkpt><trkpt lat="44.16873512628938" lon="9.636345509891648"><ele>113.0</ele><time>2026-04-07T15:27:12.999Z</time></trkpt><trkpt lat="44.16863676727783" lon="9.636305100491409"><ele>113.0</ele><time>2026-04-07T15:27:13.999Z</time></trkpt><trkpt lat="44.168531013493684" lon="9.636292509797432"><ele>113.00000000000001</ele><time>2026-04-07T15:27:14.999Z</time></trkpt><trkpt lat="44.16842603020694" lon="9.636319066884212"><ele>113.00000000000001</ele><time>2026-04-07T15:27:15.999Z</time></trkpt><trkpt lat="44.16833233934646" lon="9.636402933993603"><ele>113.0</ele><time>2026-04-07T15:27:16.999Z</time></trkpt><trkpt lat="44.16824992279377" lon="9.636509060853578"><ele>113.0</ele><time>2026-04-07T15:27:17.999Z</time></trkpt><trkpt lat="44.168160358699275" lon="9.636602133676112"><ele>112.99999999999999</ele><time>2026-04-07T15:27:18.999Z</time></trkpt><trkpt lat="44.16806666632849" lon="9.636664059143026"><ele>113.0</ele><time>2026-04-07T15:27:19.999Z</time></trkpt><trkpt lat="44.16800474825783" lon="9.636709361334391"><ele>113.0</ele><time>2026-04-07T15:27:20.999Z</time></trkpt><trkpt lat="44.16801338470506" lon="9.636837836190317"><ele>113.0</ele><time>2026-04-07T15:27:22.999Z</time></trkpt><trkpt lat="44.16806773503049" lon="9.636889433730847"><ele>112.99999999999999</ele><time>2026-04-07T15:27:23.999Z</time></trkpt><trkpt lat="44.16816147850648" lon="9.636845633497856"><ele>113.0</ele><time>2026-04-07T15:27:24.999Z</time></trkpt><trkpt lat="44.16824665444702" lon="9.636778632637029"><ele>113.0</ele><time>2026-04-07T15:27:25.999Z</time></trkpt><trkpt lat="44.168327222591216" lon="9.636691038641315"><ele>113.00000000000001</ele><time>2026-04-07T15:27:26.999Z</time></trkpt><trkpt lat="44.168423538135436" lon="9.636657907107066"><ele>113.00000000000001</ele><time>2026-04-07T15:27:27.999Z</time></trkpt><trkpt lat="44.16851832429731" lon="9.636629069715884"><ele>113.0</ele><time>2026-04-07T15:27:28.999Z</time></trkpt><trkpt lat="44.16860954062001" lon="9.636638303310294"><ele>113.0</ele><time>2026-04-07T15:27:29.999Z</time></trkpt><trkpt lat="44.16869992946237" lon="9.636698373407683"><ele>113.0</ele><time>2026-04-07T15:27:30.999Z</time></trkpt><trkpt lat="44.168776653926116" lon="9.636761183893709"><ele>113.00000000000001</ele><time>2026-04-07T15:27:31.999Z</time></trkpt><trkpt lat="44.16883876734133" lon="9.636821808714148"><ele>113.00000000000001</ele><time>2026-04-07T15:27:32.999Z</time></trkpt><trkpt lat="44.16888003942781" lon="9.636936872850455"><ele>113.0</ele><time>2026-04-07T15:27:34.999Z</time></trkpt><trkpt lat="44.1688332127977" lon="9.637123425692998"><ele>113.0</ele><time>2026-04-07T15:27:36.999Z</time></trkpt><trkpt lat="44.16876678193667" lon="9.637243038056504"><ele>109.5</ele><time>2026-04-07T15:27:38.999Z</time></trkpt><trkpt lat="44.168706515879244" lon="9.63729686442319"><ele>106.0</ele><time>2026-04-07T15:27:40.999Z</time></trkpt><trkpt lat="44.169230511924" lon="9.637202415176988"><ele>106.0</ele><time>2026-04-07T15:27:44.999Z</time></trkpt><trkpt lat="44.16927442586464" lon="9.637085329569377"><ele>106.0</ele><time>2026-04-07T15:27:47.999Z</time></trkpt><trkpt lat="44.169290979875626" lon="9.636990375404109"><ele>106.0</ele><time>2026-04-07T15:27:48.999Z</time></trkpt><trkpt lat="44.169289080651616" lon="9.636474359666298"><ele>113.0</ele><time>2026-04-07T15:27:49.999Z</time></trkpt><trkpt lat="44.168832644006876" lon="9.63637571471871"><ele>113.0</ele><time>2026-04-07T15:27:50.999Z</time></trkpt><trkpt lat="44.168726390000636" lon="9.636331196723942"><ele>113.0</ele><time>2026-04-07T15:27:51.999Z</time></trkpt><trkpt lat="44.168573772265304" lon="9.636296053955398"><ele>113.0</ele><time>2026-04-07T15:27:52.999Z</time></trkpt><trkpt lat="44.16840153106271" lon="9.636343671549094"><ele>113.0</ele><time>2026-04-07T15:27:53.999Z</time></trkpt><trkpt lat="44.1682676260446" lon="9.63647406257862"><ele>111.0</ele><time>2026-04-07T15:27:54.999Z</time></trkpt><trkpt lat="44.16818493692344" lon="9.636575659900016"><ele>109.00000000000001</ele><time>2026-04-07T15:27:55.998Z</time></trkpt><trkpt lat="44.16809210473439" lon="9.636648974616191"><ele>107.0</ele><time>2026-04-07T15:27:56.998Z</time></trkpt><trkpt lat="44.168033230105735" lon="9.636695745521068"><ele>105.0</ele><time>2026-04-07T15:27:57.998Z</time></trkpt><trkpt lat="44.16810337833303" lon="9.636842934638855"><ele>103.0</ele><time>2026-04-07T15:28:01.998Z</time></trkpt><trkpt lat="44.16817833274971" lon="9.63680620483435"><ele>105.0</ele><time>2026-04-07T15:28:02.998Z</time></trkpt><trkpt lat="44.16827607959679" lon="9.636752039115109"><ele>107.0</ele><time>2026-04-07T15:28:03.998Z</time></trkpt><trkpt lat="44.16837274294873" lon="9.63668863285861"><ele>109.00000000000001</ele><time>2026-04-07T15:28:04.998Z</time></trkpt><trkpt lat="44.16847898803327" lon="9.63662883509159"><ele>111.0</ele><time>2026-04-07T15:28:05.998Z</time></trkpt><trkpt lat="44.16859809665228" lon="9.63663781342277"><ele>113.0</ele><time>2026-04-07T15:28:07.998Z</time></trkpt><trkpt lat="44.16866386397137" lon="9.636670800471224"><ele>113.0</ele><time>2026-04-07T15:28:08.998Z</time></trkpt><trkpt lat="44.168732812540696" lon="9.63672143534326"><ele>113.00000000000001</ele><time>2026-04-07T15:28:09.998Z</time></trkpt><trkpt lat="44.16880073652628" lon="9.636781927483648"><ele>113.00000000000001</ele><time>2026-04-07T15:28:10.998Z</time></trkpt><trkpt lat="44.16887869809459" lon="9.636849079472087"><ele>113.0</ele><time>2026-04-07T15:28:11.998Z</time></trkpt><trkpt lat="44.16898118048626" lon="9.636923679875876"><ele>113.0</ele><time>2026-04-07T15:28:13.998Z</time></trkpt><trkpt lat="44.16929560300165" lon="9.638013630739334"><ele>109.60000000000001</ele><time>2026-04-07T15:28:27Z</time></trkpt><trkpt lat="44.16924821175168" lon="9.638139924501083"><ele>106.20000000000002</ele><time>2026-04-07T15:28:28Z</time></trkpt><trkpt lat="44.16917213145518" lon="9.638245171770123"><ele>102.8</ele><time>2026-04-07T15:28:29Z</time></trkpt><trkpt lat="44.16913369901537" lon="9.638343339294316"><ele>99.4</ele><time>2026-04-07T15:28:30Z</time></trkpt><trkpt lat="44.16916489752017" lon="9.63847572646106"><ele>96.0</ele><time>2026-04-07T15:28:31Z</time></trkpt><trkpt lat="44.16922908354836" lon="9.638607303961733"><ele>94.6</ele><time>2026-04-07T15:28:32Z</time></trkpt><trkpt lat="44.16928641789816" lon="9.638714265438205"><ele>93.19999999999999</ele><time>2026-04-07T15:28:33Z</time></trkpt><trkpt lat="44.16928714341396" lon="9.638821976620916"><ele>91.80000000000001</ele><time>2026-04-07T15:28:34Z</time></trkpt><trkpt lat="44.169240176873025" lon="9.638938387548912"><ele>90.4</ele><time>2026-04-07T15:28:35Z</time></trkpt><trkpt lat="44.16916870282336" lon="9.639046722760366"><ele>89.0</ele><time>2026-04-07T15:28:36Z</time></trkpt><trkpt lat="44.16912886437788" lon="9.639179562678816"><ele>89.0</ele><time>2026-04-07T15:28:37Z</time></trkpt><trkpt lat="44.16916624549906" lon="9.639332912191655"><ele>89.0</ele><time>2026-04-07T15:28:38Z</time></trkpt><trkpt lat="44.16923475042906" lon="9.639469258253714"><ele>89.0</ele><time>2026-04-07T15:28:39Z</time></trkpt><trkpt lat="44.16927508948366" lon="9.639597278345235"><ele>89.0</ele><time>2026-04-07T15:28:40Z</time></trkpt><trkpt lat="44.16926270083823" lon="9.639744594979684"><ele>89.0</ele><time>2026-04-07T15:28:41Z</time></trkpt><trkpt lat="44.16919765687822" lon="9.639883712996765"><ele>88.4</ele><time>2026-04-07T15:28:42Z</time></trkpt><trkpt lat="44.16913280710828" lon="9.639991112819608"><ele>87.80000000000001</ele><time>2026-04-07T15:28:43Z</time></trkpt><trkpt lat="44.16902380975469" lon="9.640051203802473"><ele>87.19999999999999</ele><time>2026-04-07T15:28:44Z</time></trkpt><trkpt lat="44.16895649954027" lon="9.64012379910748"><ele>86.6</ele><time>2026-04-07T15:28:45Z</time></trkpt><trkpt lat="44.168944729390795" lon="9.640238390907069"><ele>86.0</ele><time>2026-04-07T15:28:46Z</time></trkpt><trkpt lat="44.1689931187713" lon="9.640377688982765"><ele>86.6</ele><time>2026-04-07T15:28:47Z</time></trkpt><trkpt lat="44.16904194102157" lon="9.640499873878685"><ele>87.19999999999999</ele><time>2026-04-07T15:28:48Z</time></trkpt><trkpt lat="44.16904024364835" lon="9.64062718025859"><ele>87.80000000000001</ele><time>2026-04-07T15:28:49Z</time></trkpt><trkpt lat="44.16903711808115" lon="9.640728125440454"><ele>88.4</ele><time>2026-04-07T15:28:50Z</time></trkpt><trkpt lat="44.169086712754996" lon="9.640878245921886"><ele>89.0</ele><time>2026-04-07T15:28:52Z</time></trkpt><trkpt lat="44.169158876210474" lon="9.640905822850526"><ele>89.0</ele><time>2026-04-07T15:28:53Z</time></trkpt><trkpt lat="44.169242341609305" lon="9.640862247020252"><ele>89.0</ele><time>2026-04-07T15:28:54Z</time></trkpt><trkpt lat="44.169298256105606" lon="9.640762539041306"><ele>89.0</ele><time>2026-04-07T15:28:55Z</time></trkpt><trkpt lat="44.16932287373895" lon="9.640629174624197"><ele>89.0</ele><time>2026-04-07T15:28:56Z</time></trkpt><trkpt lat="44.16935081703985" lon="9.640475601255389"><ele>89.0</ele><time>2026-04-07T15:28:57Z</time></trkpt><trkpt lat="44.16940578076006" lon="9.640344621061065"><ele>88.25</ele><time>2026-04-07T15:28:58Z</time></trkpt><trkpt lat="44.16949778535279" lon="9.640231870985394"><ele>87.5</ele><time>2026-04-07T15:28:59Z</time></trkpt><trkpt lat="44.16958200664734" lon="9.640059253205328"><ele>86.75</ele><time>2026-04-07T15:29:00Z</time></trkpt><trkpt lat="44.16965260325209" lon="9.639868739136624"><ele>86.0</ele><time>2026-04-07T15:29:01Z</time></trkpt><trkpt lat="44.16969039048757" lon="9.63963861385711"><ele>87.0</ele><time>2026-04-07T15:29:01.999Z</time></trkpt><trkpt lat="44.16975886117296" lon="9.6394103153318"><ele>88.0</ele><time>2026-04-07T15:29:02.999Z</time></trkpt><trkpt lat="44.16982857420442" lon="9.639168322641135"><ele>89.0</ele><time>2026-04-07T15:29:03.999Z</time></trkpt><trkpt lat="44.16991317385284" lon="9.63893432232122"><ele>85.33333333333334</ele><time>2026-04-07T15:29:04.999Z</time></trkpt><trkpt lat="44.169973490412005" lon="9.638684591574156"><ele>81.66666666666667</ele><time>2026-04-07T15:29:05.999Z</time></trkpt><trkpt lat="44.17003249169955" lon="9.638468964904401"><ele>78.0</ele><time>2026-04-07T15:29:06.999Z</time></trkpt><trkpt lat="44.17011358848915" lon="9.638284924214485"><ele>75.75</ele><time>2026-04-07T15:29:07.999Z</time></trkpt><trkpt lat="44.170168888280664" lon="9.63811502034249"><ele>73.5</ele><time>2026-04-07T15:29:08.999Z</time></trkpt><trkpt lat="44.170217836474336" lon="9.637916138708992"><ele>71.25</ele><time>2026-04-07T15:29:09.999Z</time></trkpt><trkpt lat="44.17026354997692" lon="9.637699918111855"><ele>69.0</ele><time>2026-04-07T15:29:10.999Z</time></trkpt><trkpt lat="44.1703127577639" lon="9.637462416795712"><ele>69.0</ele><time>2026-04-07T15:29:11.999Z</time></trkpt><trkpt lat="44.17035076810486" lon="9.637240745414367"><ele>69.0</ele><time>2026-04-07T15:29:12.999Z</time></trkpt><trkpt lat="44.170368286375144" lon="9.637063123834384"><ele>69.0</ele><time>2026-04-07T15:29:13.999Z</time></trkpt><trkpt lat="44.1703896321376" lon="9.63690940082287"><ele>69.0</ele><time>2026-04-07T15:29:14.999Z</time></trkpt><trkpt lat="44.17045177151363" lon="9.636786032228988"><ele>69.0</ele><time>2026-04-07T15:29:15.999Z</time></trkpt><trkpt lat="44.17052583295452" lon="9.63664264634289"><ele>69.0</ele><time>2026-04-07T15:29:16.999Z</time></trkpt><trkpt lat="44.17059756518835" lon="9.63646982932952"><ele>69.0</ele><time>2026-04-07T15:29:17.999Z</time></trkpt><trkpt lat="44.1706702838974" lon="9.636326419764975"><ele>69.0</ele><time>2026-04-07T15:29:18.999Z</time></trkpt><trkpt lat="44.1707251277961" lon="9.63620919420115"><ele>66.5</ele><time>2026-04-07T15:29:19.999Z</time></trkpt><trkpt lat="44.17082531192323" lon="9.636139811227348"><ele>64.0</ele><time>2026-04-07T15:29:20.999Z</time></trkpt><trkpt lat="44.170938538557266" lon="9.636049685863103"><ele>61.5</ele><time>2026-04-07T15:29:21.999Z</time></trkpt><trkpt lat="44.17105798749899" lon="9.6359668504834"><ele>59.0</ele><time>2026-04-07T15:29:22.999Z</time></trkpt><trkpt lat="44.17118108822406" lon="9.635876960224806"><ele>59.0</ele><time>2026-04-07T15:29:23.999Z</time></trkpt><trkpt lat="44.171312333130196" lon="9.635769819224972"><ele>59.0</ele><time>2026-04-07T15:29:24.999Z</time></trkpt><trkpt lat="44.17144719078992" lon="9.635674327839997"><ele>59.0</ele><time>2026-04-07T15:29:25.999Z</time></trkpt><trkpt lat="44.17157508411819" lon="9.635596208070151"><ele>59.0</ele><time>2026-04-07T15:29:26.999Z</time></trkpt><trkpt lat="44.17168658663083" lon="9.635530093587121"><ele>58.800000000000004</ele><time>2026-04-07T15:29:27.999Z</time></trkpt><trkpt lat="44.17177383491346" lon="9.63545969742817"><ele>58.60000000000001</ele><time>2026-04-07T15:29:28.999Z</time></trkpt><trkpt lat="44.171859295871194" lon="9.635412105173476"><ele>58.4</ele><time>2026-04-07T15:29:29.999Z</time></trkpt><trkpt lat="44.171927310134336" lon="9.635370687398803"><ele>58.2</ele><time>2026-04-07T15:29:30.999Z</time></trkpt><trkpt lat="44.172054043466225" lon="9.635299428217655"><ele>58.0</ele><time>2026-04-07T15:29:32.999Z</time></trkpt><trkpt lat="44.17212537990962" lon="9.635260445182997"><ele>56.5</ele><time>2026-04-07T15:29:33.999Z</time></trkpt><trkpt lat="44.17221815349812" lon="9.635226094933639"><ele>55.0</ele><time>2026-04-07T15:29:34.999Z</time></trkpt><trkpt lat="44.172336586729124" lon="9.635184220054605"><ele>53.5</ele><time>2026-04-07T15:29:35.999Z</time></trkpt><trkpt lat="44.172470642433694" lon="9.635134140742164"><ele>52.0</ele><time>2026-04-07T15:29:36.999Z</time></trkpt><trkpt lat="44.17261164474798" lon="9.635071330315613"><ele>50.0</ele><time>2026-04-07T15:29:37.999Z</time></trkpt><trkpt lat="44.172761408507974" lon="9.63501253627322"><ele>48.0</ele><time>2026-04-07T15:29:38.999Z</time></trkpt><trkpt lat="44.172893403735024" lon="9.634945978975816"><ele>46.0</ele><time>2026-04-07T15:29:39.999Z</time></trkpt><trkpt lat="44.172991072766976" lon="9.63490161294578"><ele>44.0</ele><time>2026-04-07T15:29:40.999Z</time></trkpt><trkpt lat="44.173059848007014" lon="9.634822526969284"><ele>44.0</ele><time>2026-04-07T15:29:42.999Z</time></trkpt><trkpt lat="44.1731318633632" lon="9.634770300503323"><ele>44.0</ele><time>2026-04-07T15:29:49.999Z</time></trkpt><trkpt lat="44.17319428407531" lon="9.634680253721823"><ele>44.0</ele><time>2026-04-07T15:29:50.999Z</time></trkpt><trkpt lat="44.17325824371458" lon="9.63456009714559"><ele>44.0</ele><time>2026-04-07T15:29:51.999Z</time></trkpt><trkpt lat="44.173338980549644" lon="9.63443666818783"><ele>44.0</ele><time>2026-04-07T15:29:52.999Z</time></trkpt><trkpt lat="44.17342771628967" lon="9.634308621700676"><ele>43.0</ele><time>2026-04-07T15:29:53.999Z</time></trkpt><trkpt lat="44.17352180027748" lon="9.634165058501084"><ele>42.0</ele><time>2026-04-07T15:29:54.999Z</time></trkpt><trkpt lat="44.173602107061015" lon="9.633993026435675"><ele>41.0</ele><time>2026-04-07T15:29:55.999Z</time></trkpt><trkpt lat="44.173650745045805" lon="9.633786454185183"><ele>40.0</ele><time>2026-04-07T15:29:56.999Z</time></trkpt><trkpt lat="44.173663222963846" lon="9.633558735642465"><ele>39.66666666666667</ele><time>2026-04-07T15:29:57.999Z</time></trkpt><trkpt lat="44.1736712077158" lon="9.633331215934271"><ele>39.333333333333336</ele><time>2026-04-07T15:29:58.999Z</time></trkpt><trkpt lat="44.173713052845294" lon="9.633112036663567"><ele>39.0</ele><time>2026-04-07T15:29:59.999Z</time></trkpt><trkpt lat="44.17379103834026" lon="9.632894591739348"><ele>38.333333333333336</ele><time>2026-04-07T15:30:00.999Z</time></trkpt><trkpt lat="44.17387019501719" lon="9.632691791535722"><ele>37.66666666666667</ele><time>2026-04-07T15:30:01.999Z</time></trkpt><trkpt lat="44.17391504848762" lon="9.632471479195699"><ele>37.0</ele><time>2026-04-07T15:30:02.999Z</time></trkpt><trkpt lat="44.17391817178171" lon="9.632228768298155"><ele>37.0</ele><time>2026-04-07T15:30:03.999Z</time></trkpt><trkpt lat="44.17390842167685" lon="9.632015002337827"><ele>37.0</ele><time>2026-04-07T15:30:04.999Z</time></trkpt><trkpt lat="44.173919193216165" lon="9.63184357160511"><ele>37.0</ele><time>2026-04-07T15:30:05.999Z</time></trkpt><trkpt lat="44.17398538819035" lon="9.63169482855816"><ele>37.0</ele><time>2026-04-07T15:30:06.998Z</time></trkpt><trkpt lat="44.17403921865318" lon="9.631491849873239"><ele>38.0</ele><time>2026-04-07T15:30:07.998Z</time></trkpt><trkpt lat="44.17412903852866" lon="9.631284028684227"><ele>39.0</ele><time>2026-04-07T15:30:08.998Z</time></trkpt><trkpt lat="44.174191116421056" lon="9.631073121622531"><ele>40.0</ele><time>2026-04-07T15:30:09.998Z</time></trkpt><trkpt lat="44.17424532748738" lon="9.630829319980597"><ele>38.66666666666667</ele><time>2026-04-07T15:30:10.998Z</time></trkpt><trkpt lat="44.17433530003217" lon="9.630597528125012"><ele>37.333333333333336</ele><time>2026-04-07T15:30:11.998Z</time></trkpt><trkpt lat="44.17444820659223" lon="9.63038155617352"><ele>36.0</ele><time>2026-04-07T15:30:12.998Z</time></trkpt><trkpt lat="44.1745422421223" lon="9.630170485407028"><ele>36.0</ele><time>2026-04-07T15:30:13.998Z</time></trkpt><trkpt lat="44.174630586518866" lon="9.629989949366028"><ele>36.0</ele><time>2026-04-07T15:30:14.998Z</time></trkpt><trkpt lat="44.17470085876187" lon="9.629860921919473"><ele>36.0</ele><time>2026-04-07T15:30:15.998Z</time></trkpt><trkpt lat="44.17478163813136" lon="9.629752335373853"><ele>36.0</ele><time>2026-04-07T15:30:16.998Z</time></trkpt><trkpt lat="44.17489582173134" lon="9.629662912268696"><ele>34.25</ele><time>2026-04-07T15:30:17.998Z</time></trkpt><trkpt lat="44.1750193917107" lon="9.62956431716555"><ele>32.5</ele><time>2026-04-07T15:30:18.998Z</time></trkpt><trkpt lat="44.17512913530852" lon="9.629449721450447"><ele>30.75</ele><time>2026-04-07T15:30:19.998Z</time></trkpt><trkpt lat="44.17520378298083" lon="9.629344198167168"><ele>29.0</ele><time>2026-04-07T15:30:20.998Z</time></trkpt><trkpt lat="44.17526789970697" lon="9.629268298729096"><ele>28.6</ele><time>2026-04-07T15:30:21.998Z</time></trkpt><trkpt lat="44.17530495819551" lon="9.629182318844467"><ele>28.2</ele><time>2026-04-07T15:30:22.998Z</time></trkpt><trkpt lat="44.175314378848185" lon="9.629055703507582"><ele>27.800000000000004</ele><time>2026-04-07T15:30:24Z</time></trkpt><trkpt lat="44.17527645898444" lon="9.628903500996152"><ele>27.400000000000002</ele><time>2026-04-07T15:30:25Z</time></trkpt><trkpt lat="44.17523507097232" lon="9.6287458399684"><ele>27.0</ele><time>2026-04-07T15:30:26Z</time></trkpt><trkpt lat="44.17520326856965" lon="9.628575080648112"><ele>27.75</ele><time>2026-04-07T15:30:27Z</time></trkpt><trkpt lat="44.17516730910236" lon="9.628390788461056"><ele>28.5</ele><time>2026-04-07T15:30:28Z</time></trkpt><trkpt lat="44.17514469078571" lon="9.628200233168872"><ele>29.25</ele><time>2026-04-07T15:30:29Z</time></trkpt><trkpt lat="44.17516279942982" lon="9.628001008149791"><ele>30.0</ele><time>2026-04-07T15:30:30Z</time></trkpt><trkpt lat="44.17522124141169" lon="9.627796538543388"><ele>30.0</ele><time>2026-04-07T15:30:31Z</time></trkpt><trkpt lat="44.1753082890235" lon="9.627554519207429"><ele>30.0</ele><time>2026-04-07T15:30:32Z</time></trkpt><trkpt lat="44.17538335874255" lon="9.627369907895144"><ele>30.0</ele><time>2026-04-07T15:30:33Z</time></trkpt><trkpt lat="44.1754152208751" lon="9.627126489198542"><ele>29.666666666666664</ele><time>2026-04-07T15:30:34Z</time></trkpt><trkpt lat="44.175400213555896" lon="9.626862288453344"><ele>29.333333333333332</ele><time>2026-04-07T15:30:35Z</time></trkpt><trkpt lat="44.175352582868726" lon="9.626610127702673"><ele>29.0</ele><time>2026-04-07T15:30:36Z</time></trkpt><trkpt lat="44.17525713289923" lon="9.626375589284747"><ele>29.0</ele><time>2026-04-07T15:30:37Z</time></trkpt><trkpt lat="44.1751507716532" lon="9.626178206488401"><ele>29.0</ele><time>2026-04-07T15:30:38Z</time></trkpt><trkpt lat="44.17507493011849" lon="9.625992844088334"><ele>29.0</ele><time>2026-04-07T15:30:39Z</time></trkpt><trkpt lat="44.175012419156786" lon="9.625792216496805"><ele>29.5</ele><time>2026-04-07T15:30:40Z</time></trkpt><trkpt lat="44.17496715267666" lon="9.625604506401226"><ele>30.0</ele><time>2026-04-07T15:30:41Z</time></trkpt><trkpt lat="44.17492714681248" lon="9.625437593295239"><ele>30.5</ele><time>2026-04-07T15:30:42Z</time></trkpt><trkpt lat="44.17493965086171" lon="9.625269159514845"><ele>31.0</ele><time>2026-04-07T15:30:43Z</time></trkpt><trkpt lat="44.174988059726545" lon="9.625090115921667"><ele>29.666666666666668</ele><time>2026-04-07T15:30:44Z</time></trkpt><trkpt lat="44.17504035743072" lon="9.624910456026596"><ele>28.333333333333336</ele><time>2026-04-07T15:30:45Z</time></trkpt><trkpt lat="44.1751059508204" lon="9.624688145714954"><ele>27.0</ele><time>2026-04-07T15:30:46Z</time></trkpt><trkpt lat="44.17517160420007" lon="9.62446869803678"><ele>25.0</ele><time>2026-04-07T15:30:47Z</time></trkpt><trkpt lat="44.175237023565" lon="9.624226777095624"><ele>23.0</ele><time>2026-04-07T15:30:48Z</time></trkpt><trkpt lat="44.17530439791405" lon="9.623978030691609"><ele>21.0</ele><time>2026-04-07T15:30:49Z</time></trkpt><trkpt lat="44.17538772457544" lon="9.62373798970564"><ele>20.666666666666668</ele><time>2026-04-07T15:30:50Z</time></trkpt><trkpt lat="44.175449323518116" lon="9.623493601945075"><ele>20.333333333333336</ele><time>2026-04-07T15:30:51Z</time></trkpt><trkpt lat="44.175512418208484" lon="9.623270425617712"><ele>20.0</ele><time>2026-04-07T15:30:52Z</time></trkpt><trkpt lat="44.17557406878965" lon="9.623104281297977"><ele>20.0</ele><time>2026-04-07T15:30:53Z</time></trkpt><trkpt lat="44.17564873319751" lon="9.622983743863182"><ele>20.0</ele><time>2026-04-07T15:30:54Z</time></trkpt><trkpt lat="44.17575004535854" lon="9.622848380311519"><ele>20.0</ele><time>2026-04-07T15:30:55Z</time></trkpt><trkpt lat="44.17584881489015" lon="9.622712144833242"><ele>20.0</ele><time>2026-04-07T15:30:56Z</time></trkpt><trkpt lat="44.17592946973403" lon="9.622619405493097"><ele>19.0</ele><time>2026-04-07T15:30:57Z</time></trkpt><trkpt lat="44.175978408644895" lon="9.622524078820778"><ele>18.0</ele><time>2026-04-07T15:30:58Z</time></trkpt><trkpt lat="44.17598880905297" lon="9.622390482024477"><ele>17.0</ele><time>2026-04-07T15:30:59Z</time></trkpt><trkpt lat="44.175943904951446" lon="9.622246839048511"><ele>16.0</ele><time>2026-04-07T15:31:00Z</time></trkpt><trkpt lat="44.175864456107966" lon="9.622105699118082"><ele>15.0</ele><time>2026-04-07T15:31:01Z</time></trkpt><trkpt lat="44.17580069143439" lon="9.621965804925107"><ele>14.4</ele><time>2026-04-07T15:31:02Z</time></trkpt><trkpt lat="44.175722652725746" lon="9.62184628981928"><ele>13.8</ele><time>2026-04-07T15:31:03Z</time></trkpt><trkpt lat="44.175644584079194" lon="9.621734429510003"><ele>13.2</ele><time>2026-04-07T15:31:04Z</time></trkpt><trkpt lat="44.17556754441405" lon="9.621627696190433"><ele>12.6</ele><time>2026-04-07T15:31:05Z</time></trkpt><trkpt lat="44.175489375063975" lon="9.62152495057595"><ele>12.0</ele><time>2026-04-07T15:31:06Z</time></trkpt><trkpt lat="44.17541841905707" lon="9.621423264244834"><ele>12.166666666666666</ele><time>2026-04-07T15:31:07Z</time></trkpt><trkpt lat="44.17535758473745" lon="9.621333863396918"><ele>12.333333333333332</ele><time>2026-04-07T15:31:08Z</time></trkpt><trkpt lat="44.17530431096265" lon="9.621252286836846"><ele>12.5</ele><time>2026-04-07T15:31:09Z</time></trkpt><trkpt lat="44.17523768701866" lon="9.621162413739908"><ele>12.666666666666666</ele><time>2026-04-07T15:31:10Z</time></trkpt><trkpt lat="44.17517570862378" lon="9.621076253636586"><ele>12.833333333333332</ele><time>2026-04-07T15:31:11Z</time></trkpt><trkpt lat="44.17511851305471" lon="9.621016799785956"><ele>13.0</ele><time>2026-04-07T15:31:11.999Z</time></trkpt><trkpt lat="44.175073172325156" lon="9.620946187295461"><ele>13.0</ele><time>2026-04-07T15:31:12.999Z</time></trkpt><trkpt lat="44.17501814670341" lon="9.620886496345292"><ele>13.0</ele><time>2026-04-07T15:31:14.999Z</time></trkpt><trkpt lat="44.17493639835379" lon="9.621117952119407"><ele>13.0</ele><time>2026-04-07T15:31:16.999Z</time></trkpt><trkpt lat="44.174931983209106" lon="9.621262584197954"><ele>13.0</ele><time>2026-04-07T15:31:17.999Z</time></trkpt><trkpt lat="44.174904206836175" lon="9.62140999538597"><ele>14.25</ele><time>2026-04-07T15:31:18.999Z</time></trkpt><trkpt lat="44.17483350274173" lon="9.621546101671838"><ele>15.5</ele><time>2026-04-07T15:31:19.999Z</time></trkpt><trkpt lat="44.17471826503205" lon="9.621642184290797"><ele>16.75</ele><time>2026-04-07T15:31:20.999Z</time></trkpt><trkpt lat="44.174614620652456" lon="9.621772786643277"><ele>18.0</ele><time>2026-04-07T15:31:21.999Z</time></trkpt><trkpt lat="44.17449143193755" lon="9.621886983505702"><ele>21.333333333333336</ele><time>2026-04-07T15:31:22.999Z</time></trkpt><trkpt lat="44.17437992025322" lon="9.622024978192643"><ele>24.666666666666668</ele><time>2026-04-07T15:31:23.999Z</time></trkpt><trkpt lat="44.17427559527882" lon="9.62218004462461"><ele>28.0</ele><time>2026-04-07T15:31:24.999Z</time></trkpt><trkpt lat="44.17415979185084" lon="9.622321249702386"><ele>28.0</ele><time>2026-04-07T15:31:25.999Z</time></trkpt><trkpt lat="44.17403419114208" lon="9.62245866556222"><ele>28.0</ele><time>2026-04-07T15:31:26.999Z</time></trkpt><trkpt lat="44.173900885826335" lon="9.6225577523732"><ele>28.0</ele><time>2026-04-07T15:31:27.999Z</time></trkpt><trkpt lat="44.17377846247222" lon="9.622629174240675"><ele>28.0</ele><time>2026-04-07T15:31:28.999Z</time></trkpt><trkpt lat="44.173705868720376" lon="9.622663572441963"><ele>28.0</ele><time>2026-04-07T15:31:29.999Z</time></trkpt><trkpt lat="44.17366517305089" lon="9.622767919800864"><ele>27.999999999999996</ele><time>2026-04-07T15:31:31.999Z</time></trkpt><trkpt lat="44.173744414952594" lon="9.622886282277163"><ele>27.999999999999996</ele><time>2026-04-07T15:31:33.999Z</time></trkpt><trkpt lat="44.173855347987875" lon="9.622818651416013"><ele>28.0</ele><time>2026-04-07T15:31:34.999Z</time></trkpt><trkpt lat="44.17395091487802" lon="9.622759369521141"><ele>28.0</ele><time>2026-04-07T15:31:35.999Z</time></trkpt><trkpt lat="44.174051849900074" lon="9.622739272813195"><ele>28.0</ele><time>2026-04-07T15:31:36.999Z</time></trkpt><trkpt lat="44.17416122360978" lon="9.622724705621206"><ele>27.999999999999996</ele><time>2026-04-07T15:31:37.999Z</time></trkpt><trkpt lat="44.174270168508855" lon="9.622730469106816"><ele>27.999999999999996</ele><time>2026-04-07T15:31:38.999Z</time></trkpt><trkpt lat="44.17434943956362" lon="9.62273083268596"><ele>28.0</ele><time>2026-04-07T15:31:39.999Z</time></trkpt><trkpt lat="44.174420930152245" lon="9.622793582066462"><ele>28.0</ele><time>2026-04-07T15:31:41.999Z</time></trkpt><trkpt lat="44.17438622447415" lon="9.6229508436842"><ele>30.0</ele><time>2026-04-07T15:31:43.999Z</time></trkpt><trkpt lat="44.17430891190307" lon="9.623040369375067"><ele>32.0</ele><time>2026-04-07T15:31:44.999Z</time></trkpt><trkpt lat="44.17421625447709" lon="9.623126399907775"><ele>34.0</ele><time>2026-04-07T15:31:45.999Z</time></trkpt><trkpt lat="44.174142552165705" lon="9.623256799575556"><ele>36.0</ele><time>2026-04-07T15:31:46.999Z</time></trkpt><trkpt lat="44.174087825985424" lon="9.623405550345463"><ele>36.0</ele><time>2026-04-07T15:31:47.999Z</time></trkpt><trkpt lat="44.17404145371879" lon="9.623512375876164"><ele>36.0</ele><time>2026-04-07T15:31:48.999Z</time></trkpt><trkpt lat="44.174094668358215" lon="9.623451775355454"><ele>36.0</ele><time>2026-04-07T15:31:56.999Z</time></trkpt><trkpt lat="44.17406544210986" lon="9.623561837568081"><ele>36.0</ele><time>2026-04-07T15:32:00.999Z</time></trkpt><trkpt lat="44.17405864998295" lon="9.623712784425734"><ele>36.0</ele><time>2026-04-07T15:32:02.999Z</time></trkpt><trkpt lat="44.17411728083896" lon="9.623831265292978"><ele>36.0</ele><time>2026-04-07T15:32:03.999Z</time></trkpt><trkpt lat="44.174174797612146" lon="9.623939940512287"><ele>36.0</ele><time>2026-04-07T15:32:04.999Z</time></trkpt><trkpt lat="44.17421174416875" lon="9.624034385992296"><ele>36.0</ele><time>2026-04-07T15:32:05.999Z</time></trkpt><trkpt lat="44.17421965107271" lon="9.624134841493538"><ele>36.0</ele><time>2026-04-07T15:32:06.999Z</time></trkpt><trkpt lat="44.17420253927418" lon="9.624245900074198"><ele>36.0</ele><time>2026-04-07T15:32:07.999Z</time></trkpt><trkpt lat="44.174121786343335" lon="9.624392624787177"><ele>33.5</ele><time>2026-04-07T15:32:08.999Z</time></trkpt><trkpt lat="44.174062274126875" lon="9.624524691813416"><ele>31.0</ele><time>2026-04-07T15:32:09.999Z</time></trkpt><trkpt lat="44.17399295643515" lon="9.624659163450621"><ele>28.5</ele><time>2026-04-07T15:32:10.999Z</time></trkpt><trkpt lat="44.17392307594815" lon="9.62478717158445"><ele>26.0</ele><time>2026-04-07T15:32:11.999Z</time></trkpt><trkpt lat="44.173864108222745" lon="9.624933316086214"><ele>29.5</ele><time>2026-04-07T15:32:12.999Z</time></trkpt><trkpt lat="44.17381496475111" lon="9.625091472309807"><ele>33.0</ele><time>2026-04-07T15:32:13.999Z</time></trkpt><trkpt lat="44.17377556261301" lon="9.625228705604744"><ele>36.5</ele><time>2026-04-07T15:32:14.998Z</time></trkpt><trkpt lat="44.173678080391284" lon="9.625310736552109"><ele>40.0</ele><time>2026-04-07T15:32:15.998Z</time></trkpt><trkpt lat="44.17360443605671" lon="9.625434432097178"><ele>40.0</ele><time>2026-04-07T15:32:16.998Z</time></trkpt><trkpt lat="44.17355150696911" lon="9.625560983696007"><ele>40.0</ele><time>2026-04-07T15:32:17.998Z</time></trkpt><trkpt lat="44.17353757894528" lon="9.625706124582905"><ele>40.0</ele><time>2026-04-07T15:32:18.998Z</time></trkpt><trkpt lat="44.17350633465886" lon="9.625846620815294"><ele>40.0</ele><time>2026-04-07T15:32:19.998Z</time></trkpt><trkpt lat="44.17345915801667" lon="9.625925568225627"><ele>40.0</ele><time>2026-04-07T15:32:20.998Z</time></trkpt><trkpt lat="44.173399515372914" lon="9.625992587190636"><ele>40.0</ele><time>2026-04-07T15:32:21.998Z</time></trkpt><trkpt lat="44.173297873486476" lon="9.6260659956979"><ele>40.0</ele><time>2026-04-07T15:32:22.998Z</time></trkpt><trkpt lat="44.17320232107784" lon="9.626219138942306"><ele>40.0</ele><time>2026-04-07T15:32:23.998Z</time></trkpt><trkpt lat="44.173132881701676" lon="9.626368914927694"><ele>40.0</ele><time>2026-04-07T15:32:24.998Z</time></trkpt><trkpt lat="44.17309153381699" lon="9.626572382405856"><ele>39.66666666666667</ele><time>2026-04-07T15:32:25.998Z</time></trkpt><trkpt lat="44.17300723191132" lon="9.626754083302707"><ele>39.333333333333336</ele><time>2026-04-07T15:32:26.998Z</time></trkpt><trkpt lat="44.172923842398625" lon="9.626942338636148"><ele>39.0</ele><time>2026-04-07T15:32:27.998Z</time></trkpt><trkpt lat="44.17288504616418" lon="9.627147582006744"><ele>39.6</ele><time>2026-04-07T15:32:28.998Z</time></trkpt><trkpt lat="44.17288084765536" lon="9.62731631591398"><ele>40.2</ele><time>2026-04-07T15:32:30Z</time></trkpt><trkpt lat="44.1728523634862" lon="9.6274175791518"><ele>40.800000000000004</ele><time>2026-04-07T15:32:31Z</time></trkpt><trkpt lat="44.17280948677919" lon="9.627499903488056"><ele>41.4</ele><time>2026-04-07T15:32:33Z</time></trkpt><trkpt lat="44.1728890804923" lon="9.627349589405766"><ele>42.0</ele><time>2026-04-07T15:33:22.999Z</time></trkpt><trkpt lat="44.17289650929464" lon="9.627190036318728"><ele>42.0</ele><time>2026-04-07T15:33:23.999Z</time></trkpt><trkpt lat="44.17289863385493" lon="9.627081752630145"><ele>42.0</ele><time>2026-04-07T15:33:24.999Z</time></trkpt><trkpt lat="44.17295076487199" lon="9.626977557640503"><ele>42.0</ele><time>2026-04-07T15:33:25.999Z</time></trkpt><trkpt lat="44.17298487705604" lon="9.626861317476845"><ele>42.0</ele><time>2026-04-07T15:33:26.999Z</time></trkpt><trkpt lat="44.17303038459886" lon="9.626745861212758"><ele>42.0</ele><time>2026-04-07T15:33:27.999Z</time></trkpt><trkpt lat="44.1730675319471" lon="9.62661485220068"><ele>41.666666666666664</ele><time>2026-04-07T15:33:28.999Z</time></trkpt><trkpt lat="44.17312255225758" lon="9.626500131562564"><ele>41.333333333333336</ele><time>2026-04-07T15:33:29.999Z</time></trkpt><trkpt lat="44.17317310432533" lon="9.626382874258429"><ele>41.0</ele><time>2026-04-07T15:33:30.999Z</time></trkpt><trkpt lat="44.173209744260596" lon="9.626272833575587"><ele>40.66666666666667</ele><time>2026-04-07T15:33:31.999Z</time></trkpt><trkpt lat="44.173252140768156" lon="9.626181324525025"><ele>40.333333333333336</ele><time>2026-04-07T15:33:33.999Z</time></trkpt><trkpt lat="44.17330988210847" lon="9.626130042391644"><ele>40.0</ele><time>2026-04-07T15:34:23.998Z</time></trkpt><trkpt lat="44.17336125052924" lon="9.626058948869892"><ele>40.0</ele><time>2026-04-07T15:34:24.998Z</time></trkpt><trkpt lat="44.17345152182686" lon="9.625963051684186"><ele>40.0</ele><time>2026-04-07T15:34:25.998Z</time></trkpt><trkpt lat="44.17353245892614" lon="9.625833871094324"><ele>40.0</ele><time>2026-04-07T15:34:26.998Z</time></trkpt><trkpt lat="44.1735841786543" lon="9.625682459451848"><ele>40.0</ele><time>2026-04-07T15:34:27.998Z</time></trkpt><trkpt lat="44.17362397779287" lon="9.625510859503477"><ele>40.0</ele><time>2026-04-07T15:34:28.998Z</time></trkpt><trkpt lat="44.173667115653096" lon="9.62537175060032"><ele>40.0</ele><time>2026-04-07T15:34:29.998Z</time></trkpt><trkpt lat="44.1737580599195" lon="9.625301717797724"><ele>40.0</ele><time>2026-04-07T15:34:30.998Z</time></trkpt><trkpt lat="44.17381230327621" lon="9.625193084778841"><ele>40.0</ele><time>2026-04-07T15:34:31.998Z</time></trkpt><trkpt lat="44.173886079261415" lon="9.625046631546809"><ele>40.0</ele><time>2026-04-07T15:34:32.998Z</time></trkpt><trkpt lat="44.173932625502275" lon="9.624875845934202"><ele>39.0</ele><time>2026-04-07T15:34:33.998Z</time></trkpt><trkpt lat="44.1739843603669" lon="9.62471062892505"><ele>38.0</ele><time>2026-04-07T15:34:34.998Z</time></trkpt><trkpt lat="44.17408799881186" lon="9.624595209890101"><ele>37.0</ele><time>2026-04-07T15:34:36Z</time></trkpt><trkpt lat="44.174175242103146" lon="9.624446627889494"><ele>36.0</ele><time>2026-04-07T15:34:37Z</time></trkpt><trkpt lat="44.17423845443539" lon="9.624309339302219"><ele>36.0</ele><time>2026-04-07T15:34:38Z</time></trkpt><trkpt lat="44.17427554398589" lon="9.624177800659591"><ele>36.0</ele><time>2026-04-07T15:34:39Z</time></trkpt><trkpt lat="44.1743044542442" lon="9.624061980941613"><ele>36.0</ele><time>2026-04-07T15:34:40Z</time></trkpt><trkpt lat="44.17427659766997" lon="9.623927657439564"><ele>36.0</ele><time>2026-04-07T15:34:41Z</time></trkpt><trkpt lat="44.17421350738529" lon="9.623813468625308"><ele>36.0</ele><time>2026-04-07T15:34:42Z</time></trkpt><trkpt lat="44.174163619970656" lon="9.623712923454748"><ele>36.0</ele><time>2026-04-07T15:34:43Z</time></trkpt><trkpt lat="44.17413111747835" lon="9.62359872259286"><ele>36.0</ele><time>2026-04-07T15:34:44Z</time></trkpt><trkpt lat="44.17414205432905" lon="9.623495370209618"><ele>36.0</ele><time>2026-04-07T15:34:45Z</time></trkpt><trkpt lat="44.174124315537085" lon="9.623402094480362"><ele>36.0</ele><time>2026-04-07T15:34:46Z</time></trkpt><trkpt lat="44.17416413155739" lon="9.623275200004668"><ele>36.0</ele><time>2026-04-07T15:34:47Z</time></trkpt><trkpt lat="44.1742343962161" lon="9.623160893082654"><ele>36.0</ele><time>2026-04-07T15:34:48Z</time></trkpt><trkpt lat="44.174307574828404" lon="9.623046461158642"><ele>36.0</ele><time>2026-04-07T15:34:49Z</time></trkpt><trkpt lat="44.17438791408395" lon="9.622949708845512"><ele>36.0</ele><time>2026-04-07T15:34:50Z</time></trkpt><trkpt lat="44.17443457999295" lon="9.622878353434915"><ele>36.0</ele><time>2026-04-07T15:34:51Z</time></trkpt><trkpt lat="44.174437425678015" lon="9.622730229036181"><ele>36.0</ele><time>2026-04-07T15:34:53Z</time></trkpt><trkpt lat="44.174383411327796" lon="9.622662049836038"><ele>36.0</ele><time>2026-04-07T15:34:54Z</time></trkpt><trkpt lat="44.17428578657271" lon="9.622650111291817"><ele>34.25</ele><time>2026-04-07T15:34:55Z</time></trkpt><trkpt lat="44.174165288246634" lon="9.622684872958281"><ele>32.5</ele><time>2026-04-07T15:34:56Z</time></trkpt><trkpt lat="44.174033939718605" lon="9.622716046036592"><ele>30.75</ele><time>2026-04-07T15:34:57Z</time></trkpt><trkpt lat="44.17390960560875" lon="9.622743291621456"><ele>29.0</ele><time>2026-04-07T15:34:58Z</time></trkpt><trkpt lat="44.17381118785734" lon="9.622779807356105"><ele>28.999999999999996</ele><time>2026-04-07T15:34:59Z</time></trkpt><trkpt lat="44.17374794952509" lon="9.622820245370427"><ele>29.0</ele><time>2026-04-07T15:35:00Z</time></trkpt><trkpt lat="44.17371221834519" lon="9.622715137738771"><ele>29.0</ele><time>2026-04-07T15:35:03Z</time></trkpt><trkpt lat="44.17375230733512" lon="9.622642020060226"><ele>29.0</ele><time>2026-04-07T15:35:04Z</time></trkpt><trkpt lat="44.17385080253737" lon="9.622628693407714"><ele>28.999999999999996</ele><time>2026-04-07T15:35:05Z</time></trkpt><trkpt lat="44.17393194706095" lon="9.622565998400134"><ele>29.0</ele><time>2026-04-07T15:35:06Z</time></trkpt><trkpt lat="44.17400223539445" lon="9.62252102226283"><ele>28.799999999999997</ele><time>2026-04-07T15:35:07Z</time></trkpt><trkpt lat="44.17405342019308" lon="9.622467642426331"><ele>28.599999999999998</ele><time>2026-04-07T15:35:08Z</time></trkpt><trkpt lat="44.174150832164536" lon="9.622376250320102"><ele>28.4</ele><time>2026-04-07T15:35:10Z</time></trkpt><trkpt lat="44.17421578618959" lon="9.622297616527304"><ele>28.2</ele><time>2026-04-07T15:35:11Z</time></trkpt><trkpt lat="44.174299379536116" lon="9.622195133712765"><ele>28.0</ele><time>2026-04-07T15:35:12Z</time></trkpt><trkpt lat="44.17439964442625" lon="9.622080390717274"><ele>25.5</ele><time>2026-04-07T15:35:13Z</time></trkpt><trkpt lat="44.174511429723026" lon="9.621947643620416"><ele>23.0</ele><time>2026-04-07T15:35:14Z</time></trkpt><trkpt lat="44.17462703814072" lon="9.621809067645541"><ele>20.5</ele><time>2026-04-07T15:35:15Z</time></trkpt><trkpt lat="44.17473736681577" lon="9.621693808895492"><ele>18.0</ele><time>2026-04-07T15:35:16Z</time></trkpt><trkpt lat="44.17484535377525" lon="9.621598549809962"><ele>18.0</ele><time>2026-04-07T15:35:17Z</time></trkpt><trkpt lat="44.17491740792474" lon="9.621510691761085"><ele>18.0</ele><time>2026-04-07T15:35:18Z</time></trkpt><trkpt lat="44.17496012769523" lon="9.621377067032814"><ele>18.0</ele><time>2026-04-07T15:35:19Z</time></trkpt><trkpt lat="44.17497927781927" lon="9.621236579845407"><ele>18.0</ele><time>2026-04-07T15:35:20Z</time></trkpt><trkpt lat="44.17499422325971" lon="9.6211246113827"><ele>18.0</ele><time>2026-04-07T15:35:21Z</time></trkpt><trkpt lat="44.1750169583475" lon="9.621013069940286"><ele>17.666666666666668</ele><time>2026-04-07T15:35:22.999Z</time></trkpt><trkpt lat="44.17502504165581" lon="9.620912015516849"><ele>17.333333333333332</ele><time>2026-04-07T15:35:27.999Z</time></trkpt><trkpt lat="44.17497402699005" lon="9.620832212200677"><ele>17.0</ele><time>2026-04-07T15:35:28.999Z</time></trkpt><trkpt lat="44.17488962228276" lon="9.620761059850164"><ele>16.666666666666664</ele><time>2026-04-07T15:35:29.999Z</time></trkpt><trkpt lat="44.17479824423523" lon="9.620685670043079"><ele>16.333333333333332</ele><time>2026-04-07T15:35:30.999Z</time></trkpt><trkpt lat="44.174726053555275" lon="9.620608806077112"><ele>16.0</ele><time>2026-04-07T15:35:31.999Z</time></trkpt><trkpt lat="44.17467901604797" lon="9.62049108008202"><ele>15.999999999999998</ele><time>2026-04-07T15:35:33.999Z</time></trkpt><trkpt lat="44.17473407817759" lon="9.620427445525742"><ele>16.0</ele><time>2026-04-07T15:35:34.999Z</time></trkpt><trkpt lat="44.17476119876683" lon="9.620341977804289"><ele>16.0</ele><time>2026-04-07T15:35:35.999Z</time></trkpt><trkpt lat="44.17481559222803" lon="9.620280730162717"><ele>16.0</ele><time>2026-04-07T15:35:36.999Z</time></trkpt><trkpt lat="44.174867987728206" lon="9.62018642756979"><ele>15.999999999999998</ele><time>2026-04-07T15:35:37.999Z</time></trkpt><trkpt lat="44.174936687153476" lon="9.620072590282536"><ele>16.0</ele><time>2026-04-07T15:35:38.999Z</time></trkpt><trkpt lat="44.17501390148027" lon="9.619941998540273"><ele>15.0</ele><time>2026-04-07T15:35:39.999Z</time></trkpt><trkpt lat="44.17508025847173" lon="9.619786780875001"><ele>14.0</ele><time>2026-04-07T15:35:40.999Z</time></trkpt><trkpt lat="44.17517453809092" lon="9.619662820894268"><ele>13.0</ele><time>2026-04-07T15:35:41.999Z</time></trkpt><trkpt lat="44.17524249432203" lon="9.619534650282835"><ele>12.0</ele><time>2026-04-07T15:35:42.999Z</time></trkpt><trkpt lat="44.17531106323797" lon="9.61946328659216"><ele>12.0</ele><time>2026-04-07T15:35:43.999Z</time></trkpt><trkpt lat="44.17537421529876" lon="9.619419012610098"><ele>12.0</ele><time>2026-04-07T15:35:44.999Z</time></trkpt><trkpt lat="44.17549180872699" lon="9.619401142895645"><ele>12.0</ele><time>2026-04-07T15:35:46.999Z</time></trkpt><trkpt lat="44.175558986484745" lon="9.619386630025549"><ele>12.0</ele><time>2026-04-07T15:35:47.999Z</time></trkpt><trkpt lat="44.17561488589096" lon="9.619301703433408"><ele>12.0</ele><time>2026-04-07T15:35:49.999Z</time></trkpt><trkpt lat="44.175581570163644" lon="9.61920095137163"><ele>12.0</ele><time>2026-04-07T15:35:51.999Z</time></trkpt><trkpt lat="44.1754899035158" lon="9.619172405573353"><ele>11.999999999999998</ele><time>2026-04-07T15:35:53.999Z</time></trkpt><trkpt lat="44.17542278886411" lon="9.61911143452391"><ele>12.0</ele><time>2026-04-07T15:35:55.999Z</time></trkpt><trkpt lat="44.17537157863113" lon="9.619058711408059"><ele>12.0</ele><time>2026-04-07T15:35:56.999Z</time></trkpt><trkpt lat="44.17531962686023" lon="9.619004626837457"><ele>12.0</ele><time>2026-04-07T15:35:57.999Z</time></trkpt><trkpt lat="44.17526902716478" lon="9.618949475219663"><ele>12.0</ele><time>2026-04-07T15:35:58.999Z</time></trkpt><trkpt lat="44.17521952442703" lon="9.618886242323319"><ele>11.999999999999998</ele><time>2026-04-07T15:35:59.999Z</time></trkpt><trkpt lat="44.17516732417164" lon="9.61882242850608"><ele>12.0</ele><time>2026-04-07T15:36:00.999Z</time></trkpt><trkpt lat="44.17511665796046" lon="9.618766888171432"><ele>12.0</ele><time>2026-04-07T15:36:01.999Z</time></trkpt><trkpt lat="44.17506654951482" lon="9.618710495740627"><ele>12.0</ele><time>2026-04-07T15:36:02.999Z</time></trkpt><trkpt lat="44.17497201229443" lon="9.618606570125003"><ele>12.0</ele><time>2026-04-07T15:36:04.999Z</time></trkpt><trkpt lat="44.17487544750329" lon="9.618501741269425"><ele>12.0</ele><time>2026-04-07T15:36:06.999Z</time></trkpt><trkpt lat="44.174823569065104" lon="9.618441281043706"><ele>12.0</ele><time>2026-04-07T15:36:07.999Z</time></trkpt><trkpt lat="44.17476984780417" lon="9.618377672195074"><ele>12.0</ele><time>2026-04-07T15:36:08.999Z</time></trkpt><trkpt lat="44.17471522792309" lon="9.618311838451383"><ele>11.714285714285714</ele><time>2026-04-07T15:36:09.999Z</time></trkpt><trkpt lat="44.17465853492696" lon="9.618243581510946"><ele>11.428571428571429</ele><time>2026-04-07T15:36:10.999Z</time></trkpt><trkpt lat="44.1745983167674" lon="9.6181789638862"><ele>11.142857142857142</ele><time>2026-04-07T15:36:11.999Z</time></trkpt><trkpt lat="44.174537672163424" lon="9.618114065248324"><ele>10.857142857142858</ele><time>2026-04-07T15:36:12.999Z</time></trkpt><trkpt lat="44.17447731450246" lon="9.618050657526666"><ele>10.571428571428571</ele><time>2026-04-07T15:36:13.999Z</time></trkpt><trkpt lat="44.17442556123849" lon="9.617981792563546"><ele>10.285714285714285</ele><time>2026-04-07T15:36:14.999Z</time></trkpt><trkpt lat="44.1743728689646" lon="9.617917952510016"><ele>10.0</ele><time>2026-04-07T15:36:15.999Z</time></trkpt><trkpt lat="44.17430224922259" lon="9.617818878128691"><ele>10.2</ele><time>2026-04-07T15:36:17.999Z</time></trkpt><trkpt lat="44.174352716488315" lon="9.617696563015"><ele>10.4</ele><time>2026-04-07T15:36:20.999Z</time></trkpt><trkpt lat="44.17442110235127" lon="9.617657789966307"><ele>10.600000000000001</ele><time>2026-04-07T15:36:21.999Z</time></trkpt><trkpt lat="44.17450136729196" lon="9.617594602540132"><ele>10.8</ele><time>2026-04-07T15:36:22.999Z</time></trkpt><trkpt lat="44.17459997059534" lon="9.617509610514313"><ele>11.0</ele><time>2026-04-07T15:36:23.999Z</time></trkpt><trkpt lat="44.17467404310892" lon="9.617431768038006"><ele>11.0</ele><time>2026-04-07T15:36:24.998Z</time></trkpt><trkpt lat="44.17473402084574" lon="9.617354034164778"><ele>11.0</ele><time>2026-04-07T15:36:25.998Z</time></trkpt><trkpt lat="44.174779199153654" lon="9.61728184512077"><ele>11.0</ele><time>2026-04-07T15:36:26.998Z</time></trkpt><trkpt lat="44.17483745483687" lon="9.617174796127001"><ele>11.0</ele><time>2026-04-07T15:36:28.998Z</time></trkpt><trkpt lat="44.17519326525459" lon="9.616592091761598"><ele>12.0</ele><time>2026-04-07T15:36:29.998Z</time></trkpt><trkpt lat="44.17494231097097" lon="9.61622730201189"><ele>13.0</ele><time>2026-04-07T15:36:30.998Z</time></trkpt><trkpt lat="44.17441408305392" lon="9.616800037661234"><ele>12.999999999999998</ele><time>2026-04-07T15:36:31.998Z</time></trkpt><trkpt lat="44.174333110197196" lon="9.61683487004137"><ele>13.0</ele><time>2026-04-07T15:36:32.998Z</time></trkpt><trkpt lat="44.174263391686836" lon="9.616914116817984"><ele>13.0</ele><time>2026-04-07T15:36:33.998Z</time></trkpt><trkpt lat="44.17420084958365" lon="9.617029388546838"><ele>13.0</ele><time>2026-04-07T15:36:34.998Z</time></trkpt><trkpt lat="44.174154806537665" lon="9.617142848174373"><ele>12.999999999999998</ele><time>2026-04-07T15:36:35.998Z</time></trkpt><trkpt lat="44.17411534362986" lon="9.617226661927079"><ele>13.0</ele><time>2026-04-07T15:36:36.998Z</time></trkpt><trkpt lat="44.17405075301899" lon="9.617304436389661"><ele>12.999999999999998</ele><time>2026-04-07T15:36:38.998Z</time></trkpt><trkpt lat="44.1739662802153" lon="9.617282784970586"><ele>13.0</ele><time>2026-04-07T15:36:40.998Z</time></trkpt><trkpt lat="44.173870942813934" lon="9.617224577456621"><ele>13.0</ele><time>2026-04-07T15:36:43Z</time></trkpt><trkpt lat="44.17382358699625" lon="9.617130956274272"><ele>13.0</ele><time>2026-04-07T15:36:44Z</time></trkpt><trkpt lat="44.17380405809051" lon="9.617011231376678"><ele>12.999999999999998</ele><time>2026-04-07T15:36:45Z</time></trkpt><trkpt lat="44.17376579212221" lon="9.616910628649896"><ele>13.0</ele><time>2026-04-07T15:36:46Z</time></trkpt><trkpt lat="44.173732045465165" lon="9.616799743464645"><ele>12.200000000000001</ele><time>2026-04-07T15:36:47Z</time></trkpt><trkpt lat="44.17375369328489" lon="9.616573240327481"><ele>11.4</ele><time>2026-04-07T15:36:48Z</time></trkpt><trkpt lat="44.173717254818676" lon="9.616397381230588"><ele>10.600000000000001</ele><time>2026-04-07T15:36:50Z</time></trkpt><trkpt lat="44.17370763664079" lon="9.616294279523476"><ele>9.8</ele><time>2026-04-07T15:36:51Z</time></trkpt><trkpt lat="44.17369337064655" lon="9.616200360001445"><ele>9.0</ele><time>2026-04-07T15:36:52Z</time></trkpt><trkpt lat="44.173676426488996" lon="9.61609429420817"><ele>8.75</ele><time>2026-04-07T15:36:53Z</time></trkpt><trkpt lat="44.173635172074334" lon="9.615957885240562"><ele>8.5</ele><time>2026-04-07T15:36:54Z</time></trkpt><trkpt lat="44.173608412257245" lon="9.615782636797558"><ele>8.25</ele><time>2026-04-07T15:36:55Z</time></trkpt><trkpt lat="44.173546277017394" lon="9.615595521187167"><ele>8.0</ele><time>2026-04-07T15:36:56Z</time></trkpt><trkpt lat="44.17346707626775" lon="9.615426495574258"><ele>8.25</ele><time>2026-04-07T15:36:57Z</time></trkpt><trkpt lat="44.173417194983045" lon="9.61523339549145"><ele>8.5</ele><time>2026-04-07T15:36:58Z</time></trkpt><trkpt lat="44.17336687225252" lon="9.615059023173403"><ele>8.75</ele><time>2026-04-07T15:36:59Z</time></trkpt><trkpt lat="44.173314940568666" lon="9.614929308611787"><ele>9.0</ele><time>2026-04-07T15:37:00Z</time></trkpt><trkpt lat="44.17326247170339" lon="9.614811101844444"><ele>8.25</ele><time>2026-04-07T15:37:01Z</time></trkpt><trkpt lat="44.17318418137395" lon="9.61473424447198"><ele>7.5</ele><time>2026-04-07T15:37:02Z</time></trkpt><trkpt lat="44.173070606984474" lon="9.614711351340159"><ele>6.75</ele><time>2026-04-07T15:37:03Z</time></trkpt><trkpt lat="44.17295394288534" lon="9.614754871968936"><ele>6.0</ele><time>2026-04-07T15:37:04Z</time></trkpt><trkpt lat="44.17283494147688" lon="9.614819637114426"><ele>6.0</ele><time>2026-04-07T15:37:05Z</time></trkpt><trkpt lat="44.17272146819974" lon="9.614854089153841"><ele>6.0</ele><time>2026-04-07T15:37:06Z</time></trkpt><trkpt lat="44.172621789680925" lon="9.614863282396348"><ele>6.0</ele><time>2026-04-07T15:37:07Z</time></trkpt><trkpt lat="44.17252435816431" lon="9.614852394211669"><ele>6.0</ele><time>2026-04-07T15:37:08Z</time></trkpt><trkpt lat="44.172445439070614" lon="9.614808880463416"><ele>6.0</ele><time>2026-04-07T15:37:09Z</time></trkpt><trkpt lat="44.17236927404094" lon="9.6147472363626"><ele>6.166666666666667</ele><time>2026-04-07T15:37:10Z</time></trkpt><trkpt lat="44.17231608094087" lon="9.614677760206824"><ele>6.333333333333334</ele><time>2026-04-07T15:37:11Z</time></trkpt><trkpt lat="44.172268801546316" lon="9.614614032789444"><ele>6.5</ele><time>2026-04-07T15:37:12Z</time></trkpt><trkpt lat="44.172222560204425" lon="9.614553346418926"><ele>6.666666666666667</ele><time>2026-04-07T15:37:13Z</time></trkpt><trkpt lat="44.17215618227369" lon="9.614435532990042"><ele>6.833333333333334</ele><time>2026-04-07T15:37:15Z</time></trkpt><trkpt lat="44.17209050538172" lon="9.614325233994856"><ele>7.0</ele><time>2026-04-07T15:37:17Z</time></trkpt><trkpt lat="44.17201228930679" lon="9.614237731298042"><ele>7.0</ele><time>2026-04-07T15:37:19Z</time></trkpt><trkpt lat="44.171925979322715" lon="9.614296798135527"><ele>6.999999999999999</ele><time>2026-04-07T15:37:21Z</time></trkpt><trkpt lat="44.17184623244935" lon="9.614418698424064"><ele>6.999999999999999</ele><time>2026-04-07T15:37:23Z</time></trkpt><trkpt lat="44.17175486473944" lon="9.614478871996386"><ele>7.0</ele><time>2026-04-07T15:37:25Z</time></trkpt><trkpt lat="44.171667613657384" lon="9.614555498407462"><ele>7.0</ele><time>2026-04-07T15:37:27Z</time></trkpt><trkpt lat="44.17159716930269" lon="9.614609545942024"><ele>7.166666666666667</ele><time>2026-04-07T15:37:28Z</time></trkpt><trkpt lat="44.17150566781711" lon="9.614662589213044"><ele>7.333333333333334</ele><time>2026-04-07T15:37:30Z</time></trkpt><trkpt lat="44.17144252133244" lon="9.614717005226083"><ele>7.5</ele><time>2026-04-07T15:37:30.999Z</time></trkpt><trkpt lat="44.171378168372065" lon="9.614765053125073"><ele>7.666666666666666</ele><time>2026-04-07T15:37:31.999Z</time></trkpt><trkpt lat="44.17130148878712" lon="9.614819381667385"><ele>7.833333333333333</ele><time>2026-04-07T15:37:32.999Z</time></trkpt><trkpt lat="44.1712151328298" lon="9.614898110580556"><ele>8.0</ele><time>2026-04-07T15:37:33.999Z</time></trkpt><trkpt lat="44.17111346395559" lon="9.614992805763803"><ele>8.0</ele><time>2026-04-07T15:37:34.999Z</time></trkpt><trkpt lat="44.17100605370428" lon="9.61509256221129"><ele>8.0</ele><time>2026-04-07T15:37:35.999Z</time></trkpt><trkpt lat="44.17088458248196" lon="9.615187236933261"><ele>8.0</ele><time>2026-04-07T15:37:36.999Z</time></trkpt><trkpt lat="44.170753182620864" lon="9.615267298948162"><ele>8.0</ele><time>2026-04-07T15:37:37.999Z</time></trkpt><trkpt lat="44.170623061891796" lon="9.615364319398726"><ele>9.600000000000001</ele><time>2026-04-07T15:37:38.999Z</time></trkpt><trkpt lat="44.17050214219833" lon="9.61546192269233"><ele>11.200000000000001</ele><time>2026-04-07T15:37:39.999Z</time></trkpt><trkpt lat="44.170410705110356" lon="9.615542618184831"><ele>12.8</ele><time>2026-04-07T15:37:40.999Z</time></trkpt><trkpt lat="44.17035385395646" lon="9.61559325078471"><ele>14.4</ele><time>2026-04-07T15:37:41.999Z</time></trkpt><trkpt lat="44.17027364789421" lon="9.615662558806363"><ele>16.0</ele><time>2026-04-07T15:37:43.999Z</time></trkpt><trkpt lat="44.17022034980264" lon="9.61571134513142"><ele>15.999999999999998</ele><time>2026-04-07T15:37:45.999Z</time></trkpt><trkpt lat="44.17017518999212" lon="9.615778624693636"><ele>16.0</ele><time>2026-04-07T15:37:47.999Z</time></trkpt><trkpt lat="44.17020579389048" lon="9.615898060157413"><ele>16.0</ele><time>2026-04-07T15:37:49.999Z</time></trkpt><trkpt lat="44.170236820739895" lon="9.615974891853009"><ele>16.0</ele><time>2026-04-07T15:37:50.999Z</time></trkpt><trkpt lat="44.17027916840858" lon="9.616065184610237"><ele>15.999999999999998</ele><time>2026-04-07T15:37:51.999Z</time></trkpt><trkpt lat="44.170328857179165" lon="9.616168434802924"><ele>16.0</ele><time>2026-04-07T15:37:52.999Z</time></trkpt><trkpt lat="44.170400094170375" lon="9.616241016475287"><ele>15.666666666666666</ele><time>2026-04-07T15:37:53.999Z</time></trkpt><trkpt lat="44.170469706247225" lon="9.61630528776919"><ele>15.333333333333332</ele><time>2026-04-07T15:37:54.999Z</time></trkpt><trkpt lat="44.170548543700285" lon="9.616345651501158"><ele>15.0</ele><time>2026-04-07T15:37:55.999Z</time></trkpt><trkpt lat="44.17062867773915" lon="9.616370106084265"><ele>14.666666666666668</ele><time>2026-04-07T15:37:56.999Z</time></trkpt><trkpt lat="44.17071761371113" lon="9.616396623728885"><ele>14.333333333333334</ele><time>2026-04-07T15:37:57.999Z</time></trkpt><trkpt lat="44.170795886275336" lon="9.616419332611759"><ele>14.0</ele><time>2026-04-07T15:37:58.999Z</time></trkpt><trkpt lat="44.17087033153254" lon="9.6164481333319"><ele>14.0</ele><time>2026-04-07T15:37:59.999Z</time></trkpt><trkpt lat="44.170943628842274" lon="9.616462165637817"><ele>13.999999999999998</ele><time>2026-04-07T15:38:00.999Z</time></trkpt><trkpt lat="44.17105554144734" lon="9.616503677849751"><ele>13.999999999999998</ele><time>2026-04-07T15:38:02.999Z</time></trkpt><trkpt lat="44.17113758439978" lon="9.616550417198416"><ele>14.0</ele><time>2026-04-07T15:38:09.999Z</time></trkpt><trkpt lat="44.17112222177132" lon="9.616763828798598"><ele>14.0</ele><time>2026-04-07T15:38:10.999Z</time></trkpt><trkpt lat="44.1711071015403" lon="9.616893504475062"><ele>15.5</ele><time>2026-04-07T15:38:11.999Z</time></trkpt><trkpt lat="44.17109754869325" lon="9.61704606314073"><ele>17.0</ele><time>2026-04-07T15:38:12.999Z</time></trkpt><trkpt lat="44.171084988294616" lon="9.617196739731263"><ele>18.5</ele><time>2026-04-07T15:38:13.999Z</time></trkpt><trkpt lat="44.17108073770566" lon="9.617358788333558"><ele>20.0</ele><time>2026-04-07T15:38:14.999Z</time></trkpt><trkpt lat="44.17107275179914" lon="9.617526215119724"><ele>20.0</ele><time>2026-04-07T15:38:15.999Z</time></trkpt><trkpt lat="44.17105327505313" lon="9.617706733630744"><ele>20.0</ele><time>2026-04-07T15:38:16.999Z</time></trkpt><trkpt lat="44.171049367487456" lon="9.617878781490177"><ele>20.0</ele><time>2026-04-07T15:38:17.999Z</time></trkpt><trkpt lat="44.1710434072751" lon="9.618052206664245"><ele>20.0</ele><time>2026-04-07T15:38:18.999Z</time></trkpt><trkpt lat="44.171032789061265" lon="9.618192385612428"><ele>22.0</ele><time>2026-04-07T15:38:19.999Z</time></trkpt><trkpt lat="44.17104112751471" lon="9.61830851740265"><ele>24.0</ele><time>2026-04-07T15:38:20.999Z</time></trkpt><trkpt lat="44.17103005076761" lon="9.61842876827995"><ele>26.0</ele><time>2026-04-07T15:38:21.999Z</time></trkpt><trkpt lat="44.17098012160486" lon="9.618559196502835"><ele>28.0</ele><time>2026-04-07T15:38:22.999Z</time></trkpt><trkpt lat="44.17094554064284" lon="9.618700849511363"><ele>30.0</ele><time>2026-04-07T15:38:23.999Z</time></trkpt><trkpt lat="44.170903751646186" lon="9.618839415715652"><ele>32.8</ele><time>2026-04-07T15:38:24.999Z</time></trkpt><trkpt lat="44.170854931423165" lon="9.618980107187443"><ele>35.6</ele><time>2026-04-07T15:38:25.999Z</time></trkpt><trkpt lat="44.170810027496024" lon="9.619071285129822"><ele>38.400000000000006</ele><time>2026-04-07T15:38:26.999Z</time></trkpt><trkpt lat="44.17077275990164" lon="9.619176284482853"><ele>41.2</ele><time>2026-04-07T15:38:28.999Z</time></trkpt><trkpt lat="44.170697465288995" lon="9.619310695981303"><ele>44.0</ele><time>2026-04-07T15:38:30.999Z</time></trkpt><trkpt lat="44.170600434578866" lon="9.619288608435264"><ele>46.5</ele><time>2026-04-07T15:38:31.999Z</time></trkpt><trkpt lat="44.17051924065344" lon="9.619207564161679"><ele>49.0</ele><time>2026-04-07T15:38:32.999Z</time></trkpt><trkpt lat="44.17046570976656" lon="9.619043354210326"><ele>51.5</ele><time>2026-04-07T15:38:33.998Z</time></trkpt><trkpt lat="44.170385395374915" lon="9.618892538962056"><ele>54.0</ele><time>2026-04-07T15:38:34.998Z</time></trkpt><trkpt lat="44.17029994670573" lon="9.618730095190353"><ele>50.25</ele><time>2026-04-07T15:38:35.998Z</time></trkpt><trkpt lat="44.170209568785005" lon="9.618553970152965"><ele>46.5</ele><time>2026-04-07T15:38:36.998Z</time></trkpt><trkpt lat="44.170127353236694" lon="9.618381803071754"><ele>42.75</ele><time>2026-04-07T15:38:37.998Z</time></trkpt><trkpt lat="44.17006601119904" lon="9.618204447339487"><ele>39.0</ele><time>2026-04-07T15:38:38.998Z</time></trkpt><trkpt lat="44.17001421849362" lon="9.618038316277246"><ele>39.0</ele><time>2026-04-07T15:38:39.998Z</time></trkpt><trkpt lat="44.16999322547016" lon="9.617897957567477"><ele>39.0</ele><time>2026-04-07T15:38:40.998Z</time></trkpt><trkpt lat="44.1699868779225" lon="9.617768819639139"><ele>39.0</ele><time>2026-04-07T15:38:41.998Z</time></trkpt><trkpt lat="44.169997275338545" lon="9.617658877914886"><ele>39.0</ele><time>2026-04-07T15:38:42.998Z</time></trkpt><trkpt lat="44.1699958581013" lon="9.617554279256847"><ele>39.0</ele><time>2026-04-07T15:38:43.998Z</time></trkpt><trkpt lat="44.169980876258386" lon="9.617454355820685"><ele>39.0</ele><time>2026-04-07T15:38:44.998Z</time></trkpt><trkpt lat="44.16998090544484" lon="9.617343588422244"><ele>39.833333333333336</ele><time>2026-04-07T15:38:45.998Z</time></trkpt><trkpt lat="44.16997215736183" lon="9.617255834874985"><ele>40.666666666666664</ele><time>2026-04-07T15:38:46.998Z</time></trkpt><trkpt lat="44.16993573719585" lon="9.617176721819172"><ele>41.5</ele><time>2026-04-07T15:38:48Z</time></trkpt><trkpt lat="44.169880264840714" lon="9.617108328352835"><ele>42.33333333333333</ele><time>2026-04-07T15:38:49Z</time></trkpt><trkpt lat="44.169810494598806" lon="9.617066157904668"><ele>43.166666666666664</ele><time>2026-04-07T15:38:50Z</time></trkpt><trkpt lat="44.16972502053679" lon="9.617018874242996"><ele>44.0</ele><time>2026-04-07T15:38:51Z</time></trkpt><trkpt lat="44.169634107239105" lon="9.616931285074077"><ele>42.33333333333333</ele><time>2026-04-07T15:38:52Z</time></trkpt><trkpt lat="44.16956733271747" lon="9.616832556277021"><ele>40.666666666666664</ele><time>2026-04-07T15:38:53Z</time></trkpt><trkpt lat="44.169504627564294" lon="9.616750770551297"><ele>39.0</ele><time>2026-04-07T15:38:54Z</time></trkpt><trkpt lat="44.169439372986645" lon="9.61670809143448"><ele>37.333333333333336</ele><time>2026-04-07T15:38:55Z</time></trkpt><trkpt lat="44.16938444973608" lon="9.616623791431424"><ele>35.66666666666667</ele><time>2026-04-07T15:38:57Z</time></trkpt><trkpt lat="44.169395021384446" lon="9.616489293308451"><ele>34.0</ele><time>2026-04-07T15:38:59Z</time></trkpt><trkpt lat="44.16944697286334" lon="9.616420177275048"><ele>34.0</ele><time>2026-04-07T15:39:00Z</time></trkpt><trkpt lat="44.169520684326876" lon="9.616376009039444"><ele>34.0</ele><time>2026-04-07T15:39:01Z</time></trkpt><trkpt lat="44.16959647473211" lon="9.616347737962288"><ele>34.0</ele><time>2026-04-07T15:39:02Z</time></trkpt><trkpt lat="44.16965998979457" lon="9.616272640080652"><ele>34.0</ele><time>2026-04-07T15:39:03Z</time></trkpt><trkpt lat="44.16973300398958" lon="9.616218123440051"><ele>34.0</ele><time>2026-04-07T15:39:04Z</time></trkpt><trkpt lat="44.16980697794143" lon="9.616156490181204"><ele>34.0</ele><time>2026-04-07T15:39:05Z</time></trkpt><trkpt lat="44.1698726345569" lon="9.61612675661263"><ele>31.000000000000004</ele><time>2026-04-07T15:39:06Z</time></trkpt><trkpt lat="44.16995060994186" lon="9.616081898530396"><ele>28.0</ele><time>2026-04-07T15:39:07Z</time></trkpt><trkpt lat="44.1700068582133" lon="9.616020312437517"><ele>25.0</ele><time>2026-04-07T15:39:08Z</time></trkpt><trkpt lat="44.170070614020084" lon="9.615960343547203"><ele>22.0</ele><time>2026-04-07T15:39:10Z</time></trkpt><trkpt lat="44.17013657779777" lon="9.615918177662154"><ele>19.0</ele><time>2026-04-07T15:39:12Z</time></trkpt><trkpt lat="44.170201481983895" lon="9.61584752302364"><ele>16.0</ele><time>2026-04-07T15:39:15Z</time></trkpt><trkpt lat="44.170292452053154" lon="9.61572701385026"><ele>16.0</ele><time>2026-04-07T15:39:17Z</time></trkpt><trkpt lat="44.17037744953461" lon="9.615652713335885"><ele>16.0</ele><time>2026-04-07T15:39:18Z</time></trkpt><trkpt lat="44.170499617892496" lon="9.615573904615292"><ele>16.0</ele><time>2026-04-07T15:39:19Z</time></trkpt><trkpt lat="44.170616394335376" lon="9.615469120919716"><ele>16.0</ele><time>2026-04-07T15:39:20Z</time></trkpt><trkpt lat="44.17074089006034" lon="9.615360874298963"><ele>14.0</ele><time>2026-04-07T15:39:21Z</time></trkpt><trkpt lat="44.17085633052526" lon="9.615264268835865"><ele>12.0</ele><time>2026-04-07T15:39:22Z</time></trkpt><trkpt lat="44.17096209594323" lon="9.615176892954587"><ele>10.0</ele><time>2026-04-07T15:39:23Z</time></trkpt><trkpt lat="44.17106602923955" lon="9.615086838988699"><ele>8.0</ele><time>2026-04-07T15:39:24Z</time></trkpt><trkpt lat="44.171174160856616" lon="9.615000273400588"><ele>8.0</ele><time>2026-04-07T15:39:25Z</time></trkpt><trkpt lat="44.17128245341148" lon="9.614916054336176"><ele>8.0</ele><time>2026-04-07T15:39:26Z</time></trkpt><trkpt lat="44.171389363686124" lon="9.614831995759742"><ele>8.0</ele><time>2026-04-07T15:39:27Z</time></trkpt><trkpt lat="44.17148182192955" lon="9.61475843690202"><ele>8.0</ele><time>2026-04-07T15:39:28Z</time></trkpt><trkpt lat="44.171554338816314" lon="9.61469025148159"><ele>8.0</ele><time>2026-04-07T15:39:29Z</time></trkpt><trkpt lat="44.17162403189746" lon="9.61462772562673"><ele>7.833333333333333</ele><time>2026-04-07T15:39:30Z</time></trkpt><trkpt lat="44.17168199697259" lon="9.614575276170632"><ele>7.666666666666666</ele><time>2026-04-07T15:39:31Z</time></trkpt><trkpt lat="44.17174431810526" lon="9.614555955978583"><ele>7.5</ele><time>2026-04-07T15:39:33Z</time></trkpt><trkpt lat="44.17180788695078" lon="9.614489232689316"><ele>7.333333333333334</ele><time>2026-04-07T15:39:40.999Z</time></trkpt><trkpt lat="44.171894852287004" lon="9.61441915602874"><ele>7.166666666666667</ele><time>2026-04-07T15:39:43.999Z</time></trkpt><trkpt lat="44.17197043879998" lon="9.61436641590318"><ele>7.0</ele><time>2026-04-07T15:39:45.999Z</time></trkpt><trkpt lat="44.172038106217556" lon="9.614276983239687"><ele>7.0</ele><time>2026-04-07T15:39:47.999Z</time></trkpt><trkpt lat="44.17196219708931" lon="9.61410993943982"><ele>7.0</ele><time>2026-04-07T15:39:48.999Z</time></trkpt><trkpt lat="44.171922161164545" lon="9.613989005323"><ele>7.0</ele><time>2026-04-07T15:39:49.999Z</time></trkpt><trkpt lat="44.17187130475885" lon="9.613831949339717"><ele>7.0</ele><time>2026-04-07T15:39:50.999Z</time></trkpt><trkpt lat="44.17184915704908" lon="9.613709353694324"><ele>7.0</ele><time>2026-04-07T15:39:51.999Z</time></trkpt><trkpt lat="44.17182745640828" lon="9.613591770170151"><ele>6.999999999999999</ele><time>2026-04-07T15:39:52.999Z</time></trkpt><trkpt lat="44.171806015377385" lon="9.61349730948599"><ele>6.999999999999999</ele><time>2026-04-07T15:39:53.999Z</time></trkpt><trkpt lat="44.17178089193584" lon="9.613336901879691"><ele>7.0</ele><time>2026-04-07T15:39:55.999Z</time></trkpt><trkpt lat="44.171742055706005" lon="9.613157025156447"><ele>7.0</ele><time>2026-04-07T15:39:57.999Z</time></trkpt><trkpt lat="44.171717911559014" lon="9.613070966105743"><ele>7.000000000000001</ele><time>2026-04-07T15:39:58.999Z</time></trkpt><trkpt lat="44.17170180682761" lon="9.612974137410728"><ele>7.0</ele><time>2026-04-07T15:39:59.999Z</time></trkpt><trkpt lat="44.17165898729292" lon="9.612793879420842"><ele>7.0</ele><time>2026-04-07T15:40:01.999Z</time></trkpt><trkpt lat="44.171627474430814" lon="9.612682445701632"><ele>7.0</ele><time>2026-04-07T15:40:02.999Z</time></trkpt><trkpt lat="44.17161843583283" lon="9.612564120738229"><ele>7.000000000000001</ele><time>2026-04-07T15:40:03.999Z</time></trkpt><trkpt lat="44.17159777541243" lon="9.612479367429792"><ele>7.0</ele><time>2026-04-07T15:40:04.999Z</time></trkpt><trkpt lat="44.17156617084328" lon="9.612396878575268"><ele>7.000000000000001</ele><time>2026-04-07T15:40:05.999Z</time></trkpt><trkpt lat="44.17154616529429" lon="9.612305624621198"><ele>7.0</ele><time>2026-04-07T15:40:06.999Z</time></trkpt><trkpt lat="44.17153772111008" lon="9.612187385962345"><ele>7.0</ele><time>2026-04-07T15:40:07.999Z</time></trkpt><trkpt lat="44.17150404997149" lon="9.612030436708395"><ele>7.0</ele><time>2026-04-07T15:40:09.999Z</time></trkpt><trkpt lat="44.17148019318008" lon="9.611919193908484"><ele>7.000000000000001</ele><time>2026-04-07T15:40:10.999Z</time></trkpt><trkpt lat="44.17145912354453" lon="9.611820947330456"><ele>7.0</ele><time>2026-04-07T15:40:11.999Z</time></trkpt><trkpt lat="44.17143921479627" lon="9.611728114073005"><ele>7.0</ele><time>2026-04-07T15:40:12.999Z</time></trkpt><trkpt lat="44.171419085354955" lon="9.611634251549376"><ele>6.999999999999999</ele><time>2026-04-07T15:40:13.999Z</time></trkpt><trkpt lat="44.17139562764645" lon="9.611524869655343"><ele>6.999999999999999</ele><time>2026-04-07T15:40:14.999Z</time></trkpt><trkpt lat="44.17135727769081" lon="9.611346045779754"><ele>7.0</ele><time>2026-04-07T15:40:16.999Z</time></trkpt><trkpt lat="44.17133795505613" lon="9.611255945476465"><ele>7.0</ele><time>2026-04-07T15:40:17.999Z</time></trkpt><trkpt lat="44.17130657889506" lon="9.611109640158908"><ele>7.0</ele><time>2026-04-07T15:40:19.999Z</time></trkpt><trkpt lat="44.171267858998334" lon="9.610963625807194"><ele>7.0</ele><time>2026-04-07T15:40:21.999Z</time></trkpt><trkpt lat="44.17124133017941" lon="9.61080538909334"><ele>7.0</ele><time>2026-04-07T15:40:23.999Z</time></trkpt><trkpt lat="44.17120612171615" lon="9.61064121398949"><ele>7.0</ele><time>2026-04-07T15:40:25.999Z</time></trkpt><trkpt lat="44.1711695722801" lon="9.610468842636585"><ele>7.000000000000001</ele><time>2026-04-07T15:40:27.999Z</time></trkpt><trkpt lat="44.171151115665126" lon="9.61038163062352"><ele>7.0</ele><time>2026-04-07T15:40:28.999Z</time></trkpt><trkpt lat="44.17113123548061" lon="9.610287691785809"><ele>7.0</ele><time>2026-04-07T15:40:29.999Z</time></trkpt><trkpt lat="44.17109558463205" lon="9.610194280609157"><ele>7.0</ele><time>2026-04-07T15:40:30.999Z</time></trkpt><trkpt lat="44.171084044754046" lon="9.610064703964317"><ele>7.000000000000001</ele><time>2026-04-07T15:40:31.999Z</time></trkpt><trkpt lat="44.17106090092052" lon="9.609958153982694"><ele>7.0</ele><time>2026-04-07T15:40:32.999Z</time></trkpt><trkpt lat="44.17103942796428" lon="9.609859924331253"><ele>7.0</ele><time>2026-04-07T15:40:33.999Z</time></trkpt><trkpt lat="44.17101630734929" lon="9.60975415741684"><ele>7.0</ele><time>2026-04-07T15:40:34.999Z</time></trkpt><trkpt lat="44.17099622632869" lon="9.60966241843646"><ele>7.0</ele><time>2026-04-07T15:40:35.999Z</time></trkpt><trkpt lat="44.17097402401753" lon="9.609562684244459"><ele>7.0</ele><time>2026-04-07T15:40:36.999Z</time></trkpt><trkpt lat="44.17095331851683" lon="9.609469673907077"><ele>7.0</ele><time>2026-04-07T15:40:37.999Z</time></trkpt><trkpt lat="44.170933309205125" lon="9.609379790795941"><ele>7.0</ele><time>2026-04-07T15:40:38.998Z</time></trkpt><trkpt lat="44.17091428215199" lon="9.609294319941425"><ele>7.0</ele><time>2026-04-07T15:40:39.998Z</time></trkpt><trkpt lat="44.17088253566562" lon="9.609166235420481"><ele>7.0</ele><time>2026-04-07T15:40:41.998Z</time></trkpt><trkpt lat="44.17095930406727" lon="9.609071790040764"><ele>6.999999999999999</ele><time>2026-04-07T15:40:43.998Z</time></trkpt><trkpt lat="44.17104223785004" lon="9.609011577768346"><ele>6.999999999999999</ele><time>2026-04-07T15:40:44.998Z</time></trkpt><trkpt lat="44.17115719114617" lon="9.608970832798533"><ele>7.0</ele><time>2026-04-07T15:40:45.998Z</time></trkpt><trkpt lat="44.17127845022303" lon="9.608894189733007"><ele>7.0</ele><time>2026-04-07T15:40:46.998Z</time></trkpt><trkpt lat="44.17140410423671" lon="9.608809830665173"><ele>7.25</ele><time>2026-04-07T15:40:47.998Z</time></trkpt><trkpt lat="44.17153487632848" lon="9.60872004156502"><ele>7.5</ele><time>2026-04-07T15:40:48.998Z</time></trkpt><trkpt lat="44.171650953230255" lon="9.60865495910027"><ele>7.75</ele><time>2026-04-07T15:40:49.998Z</time></trkpt><trkpt lat="44.171767309877545" lon="9.608615808084904"><ele>8.0</ele><time>2026-04-07T15:40:50.998Z</time></trkpt><trkpt lat="44.171880933941466" lon="9.60860842460965"><ele>8.0</ele><time>2026-04-07T15:40:51.998Z</time></trkpt><trkpt lat="44.1719968075098" lon="9.608642494133024"><ele>8.0</ele><time>2026-04-07T15:40:52.998Z</time></trkpt><trkpt lat="44.172112623883045" lon="9.608712667859809"><ele>8.0</ele><time>2026-04-07T15:40:54Z</time></trkpt><trkpt lat="44.172232390308594" lon="9.608866755704563"><ele>8.0</ele><time>2026-04-07T15:40:55Z</time></trkpt><trkpt lat="44.17232621646775" lon="9.609008677406273"><ele>11.0</ele><time>2026-04-07T15:40:56Z</time></trkpt><trkpt lat="44.17239714171302" lon="9.60913989974919"><ele>14.0</ele><time>2026-04-07T15:40:57Z</time></trkpt><trkpt lat="44.17241158350851" lon="9.609320171205367"><ele>17.0</ele><time>2026-04-07T15:40:58Z</time></trkpt><trkpt lat="44.172424803897734" lon="9.609510962655289"><ele>20.0</ele><time>2026-04-07T15:40:59Z</time></trkpt><trkpt lat="44.17243774588335" lon="9.60962883062663"><ele>20.0</ele><time>2026-04-07T15:41:00Z</time></trkpt><trkpt lat="44.17245889332026" lon="9.60973025533731"><ele>20.0</ele><time>2026-04-07T15:41:01Z</time></trkpt><trkpt lat="44.172458143082864" lon="9.60986202605325"><ele>20.0</ele><time>2026-04-07T15:41:02Z</time></trkpt><trkpt lat="44.17244970326463" lon="9.610022080509102"><ele>20.0</ele><time>2026-04-07T15:41:03Z</time></trkpt><trkpt lat="44.17242377833828" lon="9.610197476464498"><ele>20.0</ele><time>2026-04-07T15:41:04Z</time></trkpt><trkpt lat="44.17240385525958" lon="9.610381921625947"><ele>19.5</ele><time>2026-04-07T15:41:05Z</time></trkpt><trkpt lat="44.17236052356529" lon="9.610570870129292"><ele>19.0</ele><time>2026-04-07T15:41:06Z</time></trkpt><trkpt lat="44.17229058142523" lon="9.610714975049513"><ele>18.5</ele><time>2026-04-07T15:41:07Z</time></trkpt><trkpt lat="44.17225273607069" lon="9.610837998188673"><ele>18.0</ele><time>2026-04-07T15:41:08Z</time></trkpt><trkpt lat="44.17226444409358" lon="9.610962245606693"><ele>17.25</ele><time>2026-04-07T15:41:09Z</time></trkpt><trkpt lat="44.172318187877465" lon="9.611100148190541"><ele>16.5</ele><time>2026-04-07T15:41:10Z</time></trkpt><trkpt lat="44.17239239024467" lon="9.611243801512318"><ele>15.75</ele><time>2026-04-07T15:41:11Z</time></trkpt><trkpt lat="44.172485422330496" lon="9.611353736315019"><ele>15.0</ele><time>2026-04-07T15:41:12Z</time></trkpt><trkpt lat="44.172560008543364" lon="9.61143065095697"><ele>15.0</ele><time>2026-04-07T15:41:13Z</time></trkpt><trkpt lat="44.17262326321473" lon="9.611499819273714"><ele>15.0</ele><time>2026-04-07T15:41:14Z</time></trkpt><trkpt lat="44.17268532154734" lon="9.611594571641875"><ele>15.0</ele><time>2026-04-07T15:41:15Z</time></trkpt><trkpt lat="44.172738708330215" lon="9.611660121347557"><ele>15.0</ele><time>2026-04-07T15:41:16Z</time></trkpt><trkpt lat="44.172815477502695" lon="9.611758610421713"><ele>15.0</ele><time>2026-04-07T15:41:17Z</time></trkpt><trkpt lat="44.17289060060476" lon="9.611853989061737"><ele>15.0</ele><time>2026-04-07T15:41:18Z</time></trkpt><trkpt lat="44.172947039495796" lon="9.611929828630418"><ele>15.0</ele><time>2026-04-07T15:41:19Z</time></trkpt><trkpt lat="44.17302307731391" lon="9.612026806056253"><ele>12.0</ele><time>2026-04-07T15:41:21Z</time></trkpt><trkpt lat="44.17302743873618" lon="9.612116175827257"><ele>12.0</ele><time>2026-04-07T15:41:23Z</time></trkpt></trkseg></trk></gpx>